</
# Wetter Temperatur Luftdruck Luftfeuchtigkeit Sichtweite Windgeschwindigkeit Windrichtung Zeit
1 Clouds 15 1004 62 10000 10 300 10:49 14.08.2022
2 Clouds 15 1003 67 10000 9 300 08:50 14.08.2022
3 Clouds 15 1002 72 10000 9 310 06:22 14.08.2022
4 Clouds 13 1000 81 10000 6 300 02:48 14.08.2022
5 Clouds 13 999 81 10000 6 320 23:53 13.08.2022
6 Clouds 13 998 87 10000 6 320 22:52 13.08.2022
7 Rain 14 997 93 10000 7.15 330 20:58 13.08.2022
8 Rain 14 997 100 8000 6 330 20:33 13.08.2022
9 Rain 14 997 100 9000 6 290 19:37 13.08.2022
10 Rain 13 997 93 10000 4.02 280 17:42 13.08.2022
11 Clouds 17 997 82 10000 3.13 250 15:26 13.08.2022
12 Clouds 17 997 82 10000 3.13 240 14:27 13.08.2022
13 Clouds 17 997 82 10000 3.13 240 13:39 13.08.2022
14 Rain 15 998 82 9000 6 290 11:52 13.08.2022
15 Rain 16 998 88 10000 4 230 10:21 13.08.2022
16 Clouds 16 999 87 9000 3.13 260 08:23 13.08.2022
17 Clouds 15 1000 93 6000 3.13 230 05:22 13.08.2022
18 Clouds 17 1003 93 8000 1.79 230 23:52 12.08.2022
19 Clouds 17 1004 93 8000 2 240 21:42 12.08.2022
20 Clouds 17 1004 93 10000 2 230 20:53 12.08.2022
21 Clouds 17 1005 100 10000 2 210 19:40 12.08.2022
22 Clouds 17 1006 100 6000 2 210 18:46 12.08.2022
23 Clouds 17 1006 93 10000 2 190 17:21 12.08.2022
24 Rain 18 1007 100 8000 1 0 15:49 12.08.2022
25 Clouds 18 1007 93 10000 1 0 14:41 12.08.2022
26 Thunderstorm 23 1007 56 10000 5 160 12:55 12.08.2022
27 Clear 24 1009 46 10000 5 150 10:44 12.08.2022
28 Clear 21 1011 52 10000 5 150 07:50 12.08.2022
29 Clear 20 1013 52 10000 5 150 06:39 12.08.2022
30 Clear 15 1015 67 10000 3 120 02:39 12.08.2022
31 Clear 15 1015 67 10000 3.13 130 00:26 12.08.2022
32 Clear 16 1016 63 10000 2 130 23:35 11.08.2022
33 Clear 17 1016 59 10000 2 140 22:27 11.08.2022
34 Clear 16 1016 67 10000 4.02 140 21:43 11.08.2022
35 Clear 16 1016 67 10000 2 120 20:51 11.08.2022
36 Clear 17 1017 67 10000 3.13 120 20:19 11.08.2022
37 Clear 17 1017 67 10000 3.13 120 19:32 11.08.2022
38 Clear 18 1017 63 10000 3.13 110 17:48 11.08.2022
39 Clouds 21 1017 52 10000 3.13 120 16:35 11.08.2022
40 Clear 22 1017 46 10000 4.02 130 15:24 11.08.2022
41 Clear 23 1018 38 10000 2 130 13:37 11.08.2022
42 Clear 23 1019 38 10000 3.13 160 10:27 11.08.2022
43 Clear 22 1020 40 10000 3.13 90 07:38 11.08.2022
44 Clear 15 1020 76 10000 2 40 03:54 11.08.2022
45 Clear 14 1020 71 10000 4.02 30 00:50 11.08.2022
46 Clear 15 1021 67 10000 3.13 20 22:32 10.08.2022
47 Clear 16 1021 63 10000 3.13 20 21:25 10.08.2022
48 Clear 16 1020 63 10000 4.02 20 20:55 10.08.2022
49 Clear 17 1020 63 10000 3.13 20 19:31 10.08.2022
50 Clear 18 1020 59 10000 3 10 18:22 10.08.2022
51 Clear 22 1020 43 10000 3 20 16:41 10.08.2022
52 Clouds 23 1020 38 10000 6 50 13:36 10.08.2022
53 Clouds 23 1020 38 10000 5 30 12:44 10.08.2022
54 Clear 23 1020 38 10000 6 30 09:25 10.08.2022
55 Clear 22 1020 40 10000 7.15 50 08:34 10.08.2022
56 Clear 22 1020 40 10000 6 30 07:19 10.08.2022
57 Clear 17 1019 82 10000 4.02 20 03:28 10.08.2022
58 Clear 18 1017 88 10000 3.13 10 23:34 09.08.2022
59 Clear 18 1017 88 10000 3.13 10 22:56 09.08.2022
60 Clouds 19 1017 88 10000 3.13 30 21:36 09.08.2022
61 Clouds 20 1017 82 10000 4.02 10 20:30 09.08.2022
62 Haze 22 1016 83 1300 5 360 18:44 09.08.2022
63 Haze 23 1016 83 1000 4.02 350 17:28 09.08.2022
64 Haze 23 1016 83 1000 4.02 350 17:28 09.08.2022
65 Haze 24 1016 73 3300 4.02 10 16:41 09.08.2022
66 Haze 25 1015 65 4400 3.13 20 15:58 09.08.2022
67 Clouds 29 1016 45 6000 5 320 12:52 09.08.2022
68 Clouds 29 1016 42 10000 4.02 310 09:39 09.08.2022
69 Clouds 29 1016 45 10000 4.02 290 08:50 09.08.2022
70 Clouds 29 1016 45 10000 3.13 280 07:53 09.08.2022
71 Clouds 20 1017 82 8000 2 290 04:25 09.08.2022
72 Clear 17 1017 93 10000 2 290 23:27 08.08.2022
73 Clear 18 1017 88 10000 1 290 22:55 08.08.2022
74 Clear 19 1017 82 10000 1 310 22:18 08.08.2022
75 Clear 19 1017 82 10000 2 260 21:18 08.08.2022
76 Clear 20 1017 82 10000 3.13 280 19:51 08.08.2022
77 Clear 22 1017 73 10000 3.13 270 18:50 08.08.2022
78 Clear 26 1017 53 10000 4 250 16:44 08.08.2022
79 Clear 28 1017 44 10000 3 300 15:40 08.08.2022
80 Clear 29 1018 39 10000 3.13 300 13:55 08.08.2022
81 Clear 28 1018 42 10000 3.13 310 12:19 08.08.2022
82 Clear 27 1019 44 10000 3.13 260 09:46 08.08.2022
83 Clear 22 1019 56 10000 2 270 05:54 08.08.2022
84 Clear 14 1019 88 10000 1 0 02:56 08.08.2022
85 Clear 14 1018 82 10000 1 0 22:42 07.08.2022
86 Clear 14 1018 82 10000 1 310 21:40 07.08.2022
87 Clear 15 1018 82 10000 1 20 20:26 07.08.2022
88 Clear 15 1018 82 10000 1 20 20:26 07.08.2022
89 Clear 16 1018 77 10000 0 0 19:56 07.08.2022
90 Clear 16 1018 77 10000 1 0 19:38 07.08.2022
91 Clear 19 1017 63 10000 2 20 18:23 07.08.2022
92 Clear 22 1017 53 10000 3 10 16:54 07.08.2022
93 Clear 23 1017 49 10000 4 360 16:35 07.08.2022
94 Clear 23 1017 49 10000 4 360 16:35 07.08.2022
95 Clear 23 1017 49 10000 5 350 15:20 07.08.2022
96 Clouds 23 1017 46 10000 5 10 13:26 07.08.2022
97 Clouds 23 1017 46 10000 6 350 11:54 07.08.2022
98 Clouds 24 1017 46 10000 7.15 340 10:34 07.08.2022
99 Clouds 22 1018 60 10000 4.02 350 07:36 07.08.2022
100 Clear 18 1017 82 10000 3.13 350 03:20 07.08.2022
101 Clear 16 1016 93 10000 3.13 360 00:31 07.08.2022
102 Clear 16 1016 93 10000 3.13 340 22:24 06.08.2022
103 Clear 17 1016 93 10000 2 340 20:42 06.08.2022
104 Clear 18 1016 88 10000 1.79 340 19:41 06.08.2022
105 Clear 18 1015 88 10000 2 10 18:28 06.08.2022
106 Clear 20 1015 82 10000 2 60 17:31 06.08.2022
107 Thunderstorm 22 1014 73 10000 2 100 14:43 06.08.2022
108 Clouds 23 1014 68 10000 3.13 110 13:44 06.08.2022
109 Clouds 24 1014 60 10000 2 270 11:33 06.08.2022
110 Clouds 24 1014 57 10000 2 200 09:51 06.08.2022
111 Clouds 23 1015 60 10000 3.13 260 08:32 06.08.2022
112 Mist 18 1015 88 3600 2 260 03:51 06.08.2022
113 Mist 15 1016 93 4800 0 0 23:34 05.08.2022
114 Mist 16 1016 87 5000 0 0 22:22 05.08.2022
115 Clouds 17 1016 88 7000 0 0 19:33 05.08.2022
116 Clouds 18 1016 82 7000 0 0 18:44 05.08.2022
117 Clouds 20 1016 73 8000 0 0 17:54 05.08.2022
118 Clouds 21 1016 68 8000 0 0 16:49 05.08.2022
119 Clouds 21 1016 68 8000 0 0 16:49 05.08.2022
120 Clouds 23 1016 56 10000 2 310 15:22 05.08.2022
121 Clouds 23 1016 56 9000 2 300 14:19 05.08.2022
122 Clouds 22 1016 60 10000 1 320 13:23 05.08.2022
123 Clouds 23 1017 60 7000 6 360 12:28 05.08.2022
124 Clouds 25 1016 53 10000 4.02 290 10:49 05.08.2022
125 Clouds 24 1017 53 10000 4.02 260 08:25 05.08.2022
126 Clouds 22 1017 60 10000 3 260 06:41 05.08.2022
127 Clouds 15 1018 87 6000 3.13 280 00:30 05.08.2022
128 Clouds 16 1018 87 6000 3.13 280 22:29 04.08.2022
129 Clouds 17 1018 82 7000 2 280 21:26 04.08.2022
130 Clouds 18 1018 77 7000 2 280 20:43 04.08.2022
131 Clouds 18 1019 72 10000 3.13 280 19:40 04.08.2022
132 Clear 20 1019 64 10000 3.13 280 18:36 04.08.2022
133 Clear 21 1019 64 10000 3.13 280 17:38 04.08.2022
134 Clear 26 1019 44 10000 5 230 14:18 04.08.2022
135 Clouds 26 1019 36 10000 4.02 300 12:57 04.08.2022
136 Smoke 27 1020 36 5000 6 300 11:18 04.08.2022
137 Clear 25 1021 41 10000 4.02 250 07:53 04.08.2022
138 Clear 23 1021 46 10000 3.13 250 05:46 04.08.2022
139 Clear 13 1021 81 10000 1 280 02:33 04.08.2022
140 Clear 13 1022 81 10000 2 300 23:45 03.08.2022
141 Clear 13 1021 87 10000 1 300 22:55 03.08.2022
142 Clear 14 1021 82 10000 2 290 20:50 03.08.2022
143 Clear 16 1021 72 10000 0 0 19:46 03.08.2022
144 Clear 19 1021 59 10000 3.13 340 18:37 03.08.2022
145 Clear 23 1021 43 10000 3 340 16:25 03.08.2022
146 Clear 24 1021 41 10000 4.02 330 15:32 03.08.2022
147 Clear 24 1022 38 10000 4.92 330 12:41 03.08.2022
148 Clear 23 1022 40 10000 6 10 08:54 03.08.2022
149 Clear 19 1022 63 10000 4.02 340 04:47 03.08.2022
150 Clear 15 1021 87 10000 3.13 340 03:37 03.08.2022
151 Clear 13 1021 93 10000 2 310 01:45 03.08.2022
152 Clear 13 1021 87 10000 2 310 23:27 02.08.2022
153 Clear 14 1020 82 10000 2 350 21:55 02.08.2022
154 Clear 14 1020 82 10000 3.13 340 21:33 02.08.2022
155 Clear 15 1020 76 10000 3.13 330 19:38 02.08.2022
156 Clear 20 1019 49 10000 4 350 16:42 02.08.2022
157 Clear 21 1019 43 10000 6 350 13:21 02.08.2022
158 Clear 20 1019 42 10000 5 350 09:53 02.08.2022
159 Clear 18 1019 48 10000 5 10 08:26 02.08.2022
160 Clouds 18 1019 51 10000 4.02 10 07:50 02.08.2022
161 Clear 15 1019 62 10000 4.02 20 04:56 02.08.2022
162 Clouds 12 1018 76 10000 3.13 20 01:26 02.08.2022
163 Clear 10 1018 81 10000 3.13 40 23:21 01.08.2022
164 Clear 12 1017 76 10000 4.02 60 21:19 01.08.2022
165 Clear 14 1017 67 10000 3.13 20 19:44 01.08.2022
166 Clear 15 1016 62 10000 2 20 18:53 01.08.2022
167 Clear 18 1016 51 10000 4.02 30 16:55 01.08.2022
168 Clear 18 1016 51 10000 4.02 30 16:55 01.08.2022
169 Clear 18 1016 51 10000 4.02 30 16:55 01.08.2022
170 Clear 19 1016 45 10000 5 20 16:29 01.08.2022
171 Clear 19 1016 45 10000 4.02 20 15:33 01.08.2022
172 Clear 20 1016 42 10000 5 30 14:44 01.08.2022
173 Clear 20 1016 45 10000 5 30 12:57 01.08.2022
174 Clear 20 1016 45 10000 5 20 10:47 01.08.2022
175 Clear 19 1016 45 10000 6 10 08:45 01.08.2022
176 Clouds 17 1017 55 10000 5 50 06:50 01.08.2022
177 Clear 14 1017 62 10000 6 60 04:30 01.08.2022
178 Clear 10 1016 87 10000 4.02 20 00:56 01.08.2022
179 Clear 12 1015 76 10000 3.13 40 22:42 31.07.2022
180 Clear 13 1015 71 10000 3.13 30 22:18 31.07.2022
181 Clear 14 1015 67 10000 4.02 40 20:21 31.07.2022
182 Clear 16 1015 58 10000 4.02 50 18:38 31.07.2022
183 Clear 18 1014 51 10000 5 60 16:22 31.07.2022
184 Clear 19 1014 52 10000 6 40 13:59 31.07.2022
185 Clear 20 1014 49 10000 6 50 12:43 31.07.2022
186 Clear 19 1014 48 10000 7.15 50 10:53 31.07.2022
187 Clear 19 1014 48 10000 7.15 50 08:29 31.07.2022
188 Clouds 18 1013 72 10000 6 30 04:46 31.07.2022
189 Clear 20 1011 77 10000 5 40 00:56 31.07.2022
190 Clear 21 1011 64 10000 4.02 30 22:20 30.07.2022
191 Clear 20 1011 68 10000 3.13 20 21:50 30.07.2022
192 Clear 20 1011 68 10000 4.02 20 21:24 30.07.2022
193 Clear 21 1011 64 10000 3.13 20 20:24 30.07.2022
194 Clear 22 1011 60 10000 3 30 19:42 30.07.2022
195 Clear 24 1010 50 10000 3 30 17:52 30.07.2022
196 Clear 26 1010 44 10000 5 50 16:37 30.07.2022
197 Clouds 27 1010 39 10000 5 40 15:29 30.07.2022
198 Clouds 28 1011 34 10000 6 40 13:22 30.07.2022
199 Clouds 28 1011 34 10000 6 50 12:21 30.07.2022
200 Clouds 28 1011 34 10000 5 40 10:44 30.07.2022
201 Clouds 27 1011 36 10000 6 40 09:59 30.07.2022
202 Clear 27 1011 41 10000 5 360 08:49 30.07.2022
203 Clear 26 1012 50 10000 5 350 06:55 30.07.2022
204 Clear 19 1013 82 10000 3.13 350 02:33 30.07.2022
205 Clear 19 1013 82 10000 3.13 340 23:30 29.07.2022
206 Clear 20 1014 77 10000 3.13 340 21:36 29.07.2022
207 Clear 20 1014 77 10000 3.13 340 20:50 29.07.2022
208 Clear 21 1014 68 10000 3.13 340 19:34 29.07.2022
209 Clear 25 1014 50 10000 3 20 16:44 29.07.2022
210 Clear 26 1015 41 10000 5 360 14:38 29.07.2022
211 Clear 26 1015 41 10000 6 360 12:41 29.07.2022
212 Clear 23 1017 49 10000 4.02 20 08:52 29.07.2022
213 Clear 23 1017 49 10000 4.02 20 08:22 29.07.2022
214 Clear 19 1018 59 10000 4.02 60 04:39 29.07.2022
215 Clear 14 1017 82 10000 3.13 30 23:46 28.07.2022
216 Clear 15 1017 76 10000 3.13 40 21:38 28.07.2022
217 Clear 16 1017 72 10000 3.13 20 20:50 28.07.2022
218 Clear 16 1017 72 10000 3.13 20 20:18 28.07.2022
219 Clear 16 1016 77 10000 3.13 30 19:26 28.07.2022
220 Clear 18 1016 67 10000 2 50 17:46 28.07.2022
221 Clear 19 1016 63 10000 2 60 17:20 28.07.2022
222 Clouds 20 1016 56 10000 4 40 16:40 28.07.2022
223 Clouds 21 1016 49 10000 4.02 30 13:56 28.07.2022
224 Clouds 22 1016 49 10000 4.92 20 12:39 28.07.2022
225 Clouds 19 1016 59 10000 4.92 30 07:46 28.07.2022
226 Clear 17 1016 67 10000 6 30 05:39 28.07.2022
227 Clear 17 1016 67 10000 6 50 05:20 28.07.2022
228 Clear 13 1014 81 10000 3.13 30 23:20 27.07.2022
229 Clear 14 1013 76 10000 3.13 20 21:30 27.07.2022
230 Clear 15 1013 72 10000 4.02 20 19:53 27.07.2022
231 Clear 16 1013 67 10000 3.13 10 19:20 27.07.2022
232 Clouds 19 1012 55 10000 4.02 350 16:31 27.07.2022
233 Clouds 19 1012 55 10000 5 350 15:51 27.07.2022
234 Clouds 20 1011 49 10000 5 350 14:41 27.07.2022
235 Clouds 20 1011 49 10000 6 350 13:34 27.07.2022
236 Clear 20 1009 49 10000 6 350 09:29 27.07.2022
237 Clear 19 1009 55 10000 6 350 07:47 27.07.2022
238 Clouds 17 1008 77 10000 5 340 04:53 27.07.2022
239 Clouds 17 1004 88 10000 3 330 23:21 26.07.2022
240 Clouds 17 1004 88 10000 4.02 340 21:52 26.07.2022
241 Clouds 17 1004 93 10000 2 300 20:49 26.07.2022
242 Clouds 17 1004 93 10000 1 0 19:22 26.07.2022
243 Clouds 18 1004 88 10000 3 300 18:40 26.07.2022
244 Clouds 20 1004 88 10000 2 220 17:54 26.07.2022
245 Clouds 20 1004 93 10000 1 0 15:43 26.07.2022
246 Clouds 22 1004 73 10000 4.02 160 14:43 26.07.2022
247 Clouds 24 1004 60 10000 2 200 12:32 26.07.2022
248 Clouds 24 1004 64 10000 1 0 10:20 26.07.2022
249 Clear 21 1005 73 10000 3.13 180 08:27 26.07.2022
250 Clear 15 1005 100 10000 1 0 01:52 26.07.2022
251 Clear 15 1005 100 10000 2 150 00:20 26.07.2022
252 Clear 14 1006 87 10000 1 0 22:40 25.07.2022
253 Clear 15 1005 87 10000 3.13 90 21:43 25.07.2022
254 Clear 15 1005 82 10000 2 50 20:43 25.07.2022
255 Clear 15 1005 87 10000 0 0 20:24 25.07.2022
256 Clear 17 1006 77 10000 2 30 19:24 25.07.2022
257 Clouds 20 1005 64 10000 2 10 17:42 25.07.2022
258 Clouds 21 1005 60 10000 2 360 17:20 25.07.2022
259 Clouds 23 1004 56 10000 4.02 230 13:27 25.07.2022
260 Clouds 23 1003 49 10000 5 220 10:54 25.07.2022
261 Clear 21 1003 52 10000 5 220 07:53 25.07.2022
262 Clear 11 1002 87 10000 2 280 00:57 25.07.2022
263 Clear 11 1001 93 10000 3.13 280 23:45 24.07.2022
264 Clear 12 1001 87 10000 3.13 280 22:44 24.07.2022
265 Clear 14 1001 76 10000 3.13 280 21:42 24.07.2022
266 Clear 13 1000 81 10000 3.13 280 20:59 24.07.2022
267 Clear 13 1000 81 10000 3.13 280 20:41 24.07.2022
268 Clear 13 1000 81 10000 2 290 19:20 24.07.2022
269 Clear 17 1000 63 10000 2 310 17:57 24.07.2022
270 Clear 19 999 55 10000 6 320 15:55 24.07.2022
271 Clear 20 999 49 10000 7 310 14:47 24.07.2022
272 Clear 20 998 49 10000 8 320 13:49 24.07.2022
273 Clear 20 998 45 10000 7 320 12:28 24.07.2022
274 Clouds 19 998 52 10000 8.05 320 11:30 24.07.2022
275 Clouds 16 997 77 10000 4.02 330 09:48 24.07.2022
276 Rain 12 997 93 9000 6 310 08:22 24.07.2022
277 Rain 13 997 81 10000 8.05 310 07:41 24.07.2022
278 Rain 12 998 87 10000 6 280 03:18 24.07.2022
279 Clouds 12 999 81 10000 4.02 280 23:25 23.07.2022
280 Clear 12 1000 81 10000 4.02 290 20:47 23.07.2022
281 Clouds 10 1000 93 10000 3.13 280 19:29 23.07.2022
282 Clouds 11 1000 87 10000 4 280 18:40 23.07.2022
283 Clouds 14 1001 71 10000 6 290 17:27 23.07.2022
284 Clear 14 1001 76 10000 5 290 16:24 23.07.2022
285 Clouds 13 1001 81 10000 4.02 310 15:22 23.07.2022
286 Clouds 15 1001 67 10000 5 320 14:52 23.07.2022
287 Clear 15 1001 62 10000 5 320 14:23 23.07.2022
288 Clouds 16 1001 58 10000 7.15 310 11:56 23.07.2022
289 Clouds 15 1001 62 10000 7.15 300 10:41 23.07.2022
290 Clouds 16 1001 55 10000 5.81 310 09:38 23.07.2022
291 Clouds 15 1001 58 10000 5 330 07:18 23.07.2022
292 Clear 13 1001 81 10000 1 0 03:37 23.07.2022
293 Clear 7 1001 93 10000 2 300 00:37 23.07.2022
294 Clear 11 1001 71 10000 3.13 10 21:36 22.07.2022
295 Clear 12 1001 66 10000 2 10 20:31 22.07.2022
296 Clouds 13 1001 66 10000 3.13 330 18:42 22.07.2022
297 Clear 16 1001 55 10000 3.13 340 17:40 22.07.2022
298 Clear 17 1001 48 10000 3.13 350 16:26 22.07.2022
299 Clear 18 1001 48 10000 3.13 340 13:24 22.07.2022
300 Clouds 18 1000 51 10000 4.02 340 10:23 22.07.2022
301 Clouds 17 1000 59 10000 3.13 330 09:24 22.07.2022
302 Clouds 17 1000 55 10000 4.02 340 07:58 22.07.2022
303 Clear 15 1000 72 10000 4.02 340 04:23 22.07.2022
304 Clear 12 1000 87 10000 3.13 350 23:43 21.07.2022
305 Clear 10 1000 81 10000 2 330 21:55 21.07.2022
306 Clear 13 1000 71 10000 2 350 20:28 21.07.2022
307 Clear 15 1000 58 10000 2 10 18:43 21.07.2022
308 Clear 19 1000 45 10000 3 20 17:22 21.07.2022
309 Clear 19 1000 48 10000 4.02 20 16:31 21.07.2022
310 Clear 20 1000 45 10000 6 20 14:49 21.07.2022
311 Clouds 21 999 43 10000 5 360 13:58 21.07.2022
312 Clouds 21 999 43 10000 5 360 13:58 21.07.2022
313 Clouds 21 999 46 10000 5 350 12:18 21.07.2022
314 Clouds 22 999 40 10000 4.02 20 10:21 21.07.2022
315 Clouds 23 999 35 10000 3.13 30 08:53 21.07.2022
316 Clouds 22 999 37 10000 3.13 340 08:18 21.07.2022
317 Clouds 22 999 40 10000 4 20 07:22 21.07.2022
318 Clear 16 1000 77 10000 3.13 30 03:25 21.07.2022
319 Clear 12 1001 87 10000 0 0 22:51 20.07.2022
320 Clear 13 1001 87 10000 0 0 22:20 20.07.2022
321 Clear 14 1001 82 10000 0 0 20:46 20.07.2022
322 Clear 15 1002 82 10000 1 330 19:47 20.07.2022
323 Clear 17 1002 72 10000 0 0 18:56 20.07.2022
324 Clear 18 1003 72 10000 0 0 18:31 20.07.2022
325 Clear 21 1003 52 10000 3 50 17:33 20.07.2022
326 Clear 23 1003 40 10000 3 40 15:38 20.07.2022
327 Clear 24 1003 38 10000 4.02 30 14:49 20.07.2022
328 Clouds 23 1004 40 10000 3.13 320 13:44 20.07.2022
329 Clear 23 1005 43 10000 0 0 11:29 20.07.2022
330 Clear 22 1007 46 10000 3.13 270 06:49 20.07.2022
331 Clear 12 1008 87 10000 0 0 01:58 20.07.2022
332 Clear 13 1008 87 10000 1 310 00:43 20.07.2022
333 Clear 13 1009 87 10000 2 270 22:39 19.07.2022
334 Clear 13 1009 88 10000 2 270 22:21 19.07.2022
335 Clear 15 1009 82 10000 2 340 20:50 19.07.2022
336 Clear 17 1009 67 10000 3.13 350 19:38 19.07.2022
337 Clear 19 1010 63 10000 2 330 18:43 19.07.2022
338 Clear 21 1010 52 10000 2 10 17:56 19.07.2022
339 Clear 23 1010 43 10000 4 30 15:50 19.07.2022
340 Clear 24 1010 38 10000 5.81 340 13:51 19.07.2022
341 Clouds 24 1010 38 10000 6 340 11:35 19.07.2022
342 Clouds 24 1010 41 10000 6 350 09:58 19.07.2022
343 Clouds 24 1011 43 10000 6 360 08:48 19.07.2022
344 Clouds 23 1011 43 10000 7.15 360 08:21 19.07.2022
345 Clear 23 1011 46 10000 6 350 07:18 19.07.2022
346 Clear 21 1011 56 10000 4.02 350 05:23 19.07.2022
347 Clear 21 1011 60 10000 4.02 360 04:40 19.07.2022
348 Clear 15 1011 87 10000 4.02 310 00:21 19.07.2022
349 Clear 16 1011 82 10000 3.13 310 23:21 18.07.2022
350 Clear 16 1011 82 10000 3.13 300 22:55 18.07.2022
351 Clear 15 1011 82 10000 3.13 290 21:50 18.07.2022
352 Clear 15 1011 82 10000 3.13 290 20:50 18.07.2022
353 Clear 16 1012 77 10000 2 300 19:24 18.07.2022
354 Clear 21 1012 49 10000 3.13 20 16:50 18.07.2022
355 Clear 23 1012 43 10000 4 10 15:42 18.07.2022
356 Clear 23 1012 43 10000 4.02 20 13:45 18.07.2022
357 Clouds 22 1011 46 10000 5 30 12:37 18.07.2022
358 Clear 23 1011 43 10000 7.15 360 10:34 18.07.2022
359 Clear 23 1011 43 10000 7.15 10 08:50 18.07.2022
360 Clear 23 1011 43 10000 6 350 06:54 18.07.2022
361 Clouds 17 1010 72 10000 4 320 23:31 17.07.2022
362 Clouds 17 1011 72 10000 3 320 22:32 17.07.2022
363 Clouds 17 1011 72 10000 3 310 21:47 17.07.2022
364 Clouds 17 1011 67 10000 3 310 20:55 17.07.2022
365 Clouds 17 1011 67 10000 3.13 310 20:36 17.07.2022
366 Clouds 17 1011 67 10000 1 0 19:28 17.07.2022
367 Clouds 19 1011 59 10000 5 90 18:26 17.07.2022
368 Clouds 20 1011 56 10000 2 340 17:38 17.07.2022
369 Clouds 20 1011 56 10000 3.13 350 16:50 17.07.2022
370 Clouds 22 1011 43 10000 4 350 16:25 17.07.2022
371 Clouds 24 1011 38 10000 6 340 14:32 17.07.2022
372 Clouds 24 1011 41 10000 5 10 13:28 17.07.2022
373 Clouds 23 1011 43 10000 5 360 10:59 17.07.2022
374 Clouds 22 1012 43 10000 5.81 10 08:50 17.07.2022
375 Clear 18 1012 63 10000 4.02 40 03:40 17.07.2022
376 Clear 15 1012 76 10000 3.13 20 02:21 17.07.2022
377 Clear 15 1011 76 10000 3.13 360 23:19 16.07.2022
378 Clear 15 1011 76 10000 1 0 21:21 16.07.2022
379 Clear 15 1011 76 10000 2 10 19:25 16.07.2022
380 Clear 20 1011 52 10000 2 70 17:56 16.07.2022
381 Clouds 21 1010 52 10000 4.02 100 16:31 16.07.2022
382 Clouds 24 1009 38 10000 6 60 13:47 16.07.2022
383 Clouds 25 1008 41 10000 5 10 10:50 16.07.2022
384 Clouds 23 1009 49 10000 2 50 09:32 16.07.2022
385 Clouds 22 1009 53 10000 3.13 60 08:43 16.07.2022
386 Clouds 23 1010 49 10000 3 110 07:59 16.07.2022
387 Clouds 19 1010 72 10000 2 90 03:41 16.07.2022
388 Clear 17 1010 82 10000 3 90 02:40 16.07.2022
389 Clouds 14 1011 93 10000 1 0 23:29 15.07.2022
390 Clouds 15 1011 87 10000 3.13 90 22:39 15.07.2022
391 Clear 16 1011 82 10000 2 120 21:28 15.07.2022
392 Clear 16 1011 82 10000 3.13 90 20:24 15.07.2022
393 Clear 19 1011 77 10000 2 70 18:37 15.07.2022
394 Clear 21 1012 64 10000 2 120 17:36 15.07.2022
395 Clear 22 1012 56 10000 2 170 14:48 15.07.2022
396 Clear 21 1013 60 10000 2 200 12:49 15.07.2022
397 Clouds 21 1013 60 10000 2 200 11:20 15.07.2022
398 Clear 20 1014 59 10000 2 190 09:21 15.07.2022
399 Clouds 17 1014 77 10000 2 230 05:56 15.07.2022
400 Clear 12 1014 93 10000 1 70 00:53 15.07.2022
401 Clear 12 1013 93 10000 0 0 00:21 15.07.2022
402 Fog 13 1013 93 10000 0 0 22:45 14.07.2022
403 Clear 14 1013 94 10000 0 0 21:43 14.07.2022
404 Clear 15 1013 88 10000 0 0 21:25 14.07.2022
405 Clear 15 1013 88 10000 0 0 20:43 14.07.2022
406 Clear 16 1013 82 10000 2 190 20:19 14.07.2022
407 Clear 18 1013 72 10000 2 190 18:42 14.07.2022
408 Clear 19 1013 72 10000 3.13 170 16:22 14.07.2022
409 Clear 20 1012 64 10000 4.02 130 15:29 14.07.2022
410 Clouds 19 1012 72 10000 2 170 13:53 14.07.2022
411 Clouds 19 1013 72 10000 3.13 170 12:53 14.07.2022
412 Clouds 19 1013 72 10000 4.02 140 11:43 14.07.2022
413 Clouds 18 1013 77 10000 4.02 160 11:22 14.07.2022
414 Clouds 18 1013 82 10000 4.02 150 09:49 14.07.2022
415 Rain 15 1012 93 10000 5 200 06:54 14.07.2022
416 Clouds 16 1015 93 10000 2 220 01:24 14.07.2022
417 Clouds 16 1016 93 10000 2 210 00:53 14.07.2022
418 Clear 16 1016 87 10000 0 0 22:33 13.07.2022
419 Clear 17 1017 82 10000 1 0 21:56 13.07.2022
420 Clear 16 1017 82 10000 3.13 270 20:53 13.07.2022
421 Clear 17 1017 77 10000 2 280 19:30 13.07.2022
422 Clear 19 1017 68 10000 3 260 17:51 13.07.2022
423 Clear 21 1017 60 10000 4 270 16:39 13.07.2022
424 Clear 21 1018 56 10000 3.13 290 15:24 13.07.2022
425 Clouds 21 1018 52 10000 2 330 12:55 13.07.2022
426 Clear 20 1019 56 10000 2 220 10:45 13.07.2022
427 Clouds 19 1019 59 10000 2 360 09:58 13.07.2022
428 Clouds 20 1019 56 10000 1 0 09:22 13.07.2022
429 Clear 17 1020 72 10000 3.13 270 06:20 13.07.2022
430 Clear 15 1021 82 10000 2 230 02:21 13.07.2022
431 Rain 15 1022 76 10000 1.79 310 23:45 12.07.2022
432 Clear 15 1021 72 10000 0 0 21:57 12.07.2022
433 Clear 16 1022 72 10000 0 0 21:29 12.07.2022
434 Clear 16 1022 72 10000 0 0 20:41 12.07.2022
435 Clear 17 1023 67 10000 0 0 19:28 12.07.2022
436 Clear 19 1023 52 10000 2 10 17:50 12.07.2022
437 Clear 21 1023 40 10000 4.02 350 16:20 12.07.2022
438 Clear 22 1024 37 10000 4.02 360 14:31 12.07.2022
439 Clear 22 1024 43 10000 5 350 12:48 12.07.2022
440 Clear 22 1024 43 10000 4.02 350 11:26 12.07.2022
441 Clear 21 1025 46 10000 5.81 340 09:42 12.07.2022
442 Clear 20 1026 45 10000 5 360 08:23 12.07.2022
443 Clear 19 1025 52 10000 4.02 360 06:49 12.07.2022
444 Clear 19 1026 52 10000 4.02 20 05:42 12.07.2022
445 Clear 16 1025 67 10000 4.02 20 02:52 12.07.2022
446 Clear 15 1024 72 10000 2 340 23:30 11.07.2022
447 Clear 14 1024 82 10000 1 330 22:31 11.07.2022
448 Clear 17 1023 67 10000 2 330 20:41 11.07.2022
449 Clear 18 1023 59 10000 2 360 19:44 11.07.2022
450 Clear 20 1023 52 10000 4.02 20 18:32 11.07.2022
451 Clear 21 1022 46 10000 3 20 17:53 11.07.2022
452 Clear 23 1022 43 10000 5 10 16:21 11.07.2022
453 Clear 24 1021 43 10000 6 10 14:49 11.07.2022
454 Clear 25 1021 50 10000 7.15 360 11:59 11.07.2022
455 Clouds 26 1020 44 10000 5 350 10:37 11.07.2022
456 Clouds 26 1020 47 10000 5 350 09:49 11.07.2022
457 Clouds 25 1020 57 10000 4 20 08:34 11.07.2022
458 Clear 22 1020 78 10000 2 340 06:44 11.07.2022
459 Clear 16 1019 87 10000 0 0 00:22 11.07.2022
460 Clear 16 1018 87 10000 0 0 23:28 10.07.2022
461 Clear 17 1018 82 10000 0 0 21:55 10.07.2022
462 Clear 18 1018 77 10000 1 330 20:54 10.07.2022
463 Clear 19 1018 77 10000 0 0 19:50 10.07.2022
464 Clear 22 1017 64 10000 1.79 80 18:50 10.07.2022
465 Clear 23 1017 60 10000 2 70 17:41 10.07.2022
466 Clear 25 1017 50 10000 2 60 16:58 10.07.2022
467 Clear 26 1017 44 10000 4.02 90 16:20 10.07.2022
468 Clear 27 1016 39 10000 3.13 50 14:33 10.07.2022
469 Clear 27 1016 44 10000 4.02 70 12:33 10.07.2022
470 Clear 26 1016 47 10000 3.13 100 11:34 10.07.2022
471 Clouds 24 1016 60 10000 4.02 110 08:46 10.07.2022
472 Clouds 24 1016 60 10000 4.02 120 08:24 10.07.2022
473 Clouds 22 1014 64 10000 5.81 70 03:38 10.07.2022
474 Clear 21 1012 82 10000 0 0 23:30 09.07.2022
475 Clouds 21 1012 82 10000 3.13 60 22:25 09.07.2022
476 Clouds 21 1012 82 10000 1 0 21:31 09.07.2022
477 Clouds 24 1011 69 10000 0 0 18:59 09.07.2022
478 Clouds 26 1010 57 10000 0 0 17:59 09.07.2022
479 Clouds 28 1010 54 10000 3 320 16:59 09.07.2022
480 Clouds 30 1010 48 10000 6 280 15:44 09.07.2022
481 Clouds 30 1010 48 10000 6 280 15:25 09.07.2022
482 Clouds 32 1010 37 10000 6 270 13:51 09.07.2022
483 Clouds 31 1010 43 10000 6 250 12:53 09.07.2022
484 Clouds 31 1010 43 10000 7.15 240 11:33 09.07.2022
485 Clouds 31 1010 43 10000 7.15 240 11:33 09.07.2022
486 Clear 30 1011 45 10000 6 240 10:23 09.07.2022
487 Clear 28 1011 48 10000 6 240 07:54 09.07.2022
488 Clear 27 1012 50 10000 4.02 230 06:58 09.07.2022
489 Clear 22 1012 64 10000 3.13 240 04:34 09.07.2022
490 Clear 18 1013 77 10000 2 230 23:18 08.07.2022
491 Clear 18 1013 77 10000 0 0 21:59 08.07.2022
492 Clear 18 1013 77 10000 1 0 20:59 08.07.2022
493 Clear 19 1013 72 10000 0 0 20:25 08.07.2022
494 Clear 23 1013 56 10000 2 210 18:32 08.07.2022
495 Clear 26 1013 38 10000 3 240 17:25 08.07.2022
496 Clear 28 1014 30 10000 4.02 250 14:55 08.07.2022
497 Clear 28 1014 34 10000 5 240 14:29 08.07.2022
498 Clear 28 1015 34 10000 4.02 220 12:28 08.07.2022
499 Clear 27 1015 39 10000 5 260 10:45 08.07.2022
500 Clear 26 1016 41 10000 4.02 250 08:51 08.07.2022
501 Clear 25 1016 38 10000 3.13 260 06:55 08.07.2022
502 Clear 19 1016 59 10000 2 280 03:22 08.07.2022
503 Clear 14 1016 76 10000 1 280 23:45 07.07.2022
504 Clear 14 1016 76 10000 0 0 22:45 07.07.2022
505 Clear 16 1015 72 10000 0 0 20:59 07.07.2022
506 Clear 20 1015 56 10000 1 0 18:42 07.07.2022
507 Clear 24 1015 41 10000 1 0 17:41 07.07.2022
508 Clear 26 1015 34 10000 2 360 15:22 07.07.2022
509 Clear 26 1015 34 10000 3.13 310 13:30 07.07.2022
510 Clear 26 1015 34 10000 3 30 12:40 07.07.2022
511 Clear 25 1015 36 10000 3.13 30 12:20 07.07.2022
512 Clear 26 1015 34 10000 3.13 330 11:31 07.07.2022
513 Clear 25 1015 33 10000 3 300 10:44 07.07.2022
514 Clear 25 1015 33 10000 3.13 300 10:25 07.07.2022
515 Clear 23 1015 38 10000 3.13 340 07:40 07.07.2022
516 Clear 21 1014 49 10000 2 30 04:42 07.07.2022
517 Clouds 13 1013 69 10000 1.62 12 23:37 06.07.2022
518 Clear 13 1012 81 10000 0 0 23:19 06.07.2022
519 Clear 13 1012 81 10000 0 0 23:19 06.07.2022
520 Clear 13 1012 81 10000 0 0 22:57 06.07.2022
521 Clear 12 1012 87 10000 1 0 22:38 06.07.2022
522 Clear 13 1012 81 10000 1 0 21:46 06.07.2022
523 Clear 17 1011 63 10000 2 30 19:39 06.07.2022
524 Clear 19 1011 55 10000 2 20 18:29 06.07.2022
525 Clear 22 1010 40 10000 3.13 10 16:27 06.07.2022
526 Clear 22 1010 37 10000 3.13 360 14:58 06.07.2022
527 Clear 23 1010 38 10000 4 10 12:42 06.07.2022
528 Clear 23 1010 38 10000 4.02 330 11:49 06.07.2022
529 Clear 22 1009 37 10000 4.02 40 10:18 06.07.2022
530 Clouds 21 1009 40 10000 4 70 07:47 06.07.2022
531 Clouds 20 1009 42 10000 4.02 70 07:23 06.07.2022
532 Clear 19 1009 48 10000 3.13 90 05:28 06.07.2022
533 Clear 13 1008 66 10000 4.02 30 22:45 05.07.2022
534 Clear 13 1008 71 10000 4.02 30 21:53 05.07.2022
535 Clear 14 1008 67 10000 3.13 20 20:39 05.07.2022
536 Clear 14 1008 67 10000 3.13 20 19:43 05.07.2022
537 Clear 15 1008 63 10000 3 10 19:22 05.07.2022
538 Clear 18 1007 48 10000 2 20 17:47 05.07.2022
539 Clear 19 1007 45 10000 4 40 16:54 05.07.2022
540 Clear 19 1007 45 10000 4.02 30 15:25 05.07.2022
541 Clear 19 1007 45 10000 3.13 50 14:28 05.07.2022
542 Clear 19 1007 42 10000 4.02 40 12:43 05.07.2022
543 Clouds 18 1007 48 10000 4.02 40 11:33 05.07.2022
544 Clouds 18 1007 48 10000 4.02 10 10:40 05.07.2022
545 Clouds 17 1007 55 10000 4.02 30 09:22 05.07.2022
546 Clouds 17 1008 55 10000 4.02 50 07:45 05.07.2022
547 Clouds 13 1008 71 10000 4.02 30 04:49 05.07.2022
548 Clouds 12 1008 76 10000 4.02 20 04:23 05.07.2022
549 Clear 11 1009 76 10000 5 30 23:56 04.07.2022
550 Clouds 11 1009 76 10000 5 30 23:26 04.07.2022
551 Clouds 12 1009 71 10000 5 30 22:25 04.07.2022
552 Clouds 12 1009 71 10000 4.02 30 21:30 04.07.2022
553 Clouds 12 1009 71 10000 5 30 20:52 04.07.2022
554 Clouds 12 1009 76 10000 4.02 20 20:33 04.07.2022
555 Clouds 12 1009 76 10000 3.13 20 19:52 04.07.2022
556 Clouds 12 1009 76 10000 3.13 20 19:34 04.07.2022
557 Clouds 13 1009 71 10000 4.02 30 17:57 04.07.2022
558 Clear 14 1009 71 10000 5 10 15:50 04.07.2022
559 Clouds 15 1009 67 10000 5 350 14:54 04.07.2022
560 Clouds 16 1009 58 10000 4.02 10 13:29 04.07.2022
561 Clouds 15 1009 62 10000 5 360 12:20 04.07.2022
562 Clouds 14 1009 67 10000 6 350 10:34 04.07.2022
563 Clouds 14 1009 71 10000 5 360 09:40 04.07.2022
564 Clouds 13 1009 71 10000 4.02 360 07:21 04.07.2022
565 Clouds 10 1008 87 10000 3.13 30 03:35 04.07.2022
566 Clouds 11 1007 81 10000 4.02 30 00:35 04.07.2022
567 Clouds 11 1007 87 10000 4.02 30 22:58 03.07.2022
568 Clouds 11 1007 87 10000 4.02 30 22:58 03.07.2022
569 Clouds 12 1007 87 10000 4.02 10 20:51 03.07.2022
570 Clouds 12 1007 93 10000 3.13 360 20:25 03.07.2022
571 Rain 12 1007 93 10000 3.13 360 19:27 03.07.2022
572 Rain 12 1007 100 10000 3.13 340 18:35 03.07.2022
573 Rain 12 1007 100 10000 3.13 340 17:43 03.07.2022
574 Rain 12 1006 93 6000 4.02 340 15:49 03.07.2022
575 Clouds 13 1006 87 10000 4.02 360 14:58 03.07.2022
576 Clouds 13 1006 87 10000 5 10 13:59 03.07.2022
577 Rain 13 1006 93 10000 5 360 13:33 03.07.2022
578 Rain 14 1006 82 10000 5 360 12:32 03.07.2022
579 Clouds 14 1005 82 10000 5 10 11:18 03.07.2022
580 Clouds 14 1005 82 10000 4.02 20 10:38 03.07.2022
581 Clouds 14 1004 82 10000 3 10 08:59 03.07.2022
582 Clouds 14 1004 82 10000 2 60 07:34 03.07.2022
583 Rain 12 1004 93 10000 3.13 280 01:42 03.07.2022
584 Clouds 11 1005 93 10000 4.02 280 23:50 02.07.2022
585 Rain 12 1005 87 10000 2 310 22:33 02.07.2022
586 Clouds 14 1005 76 10000 3.13 300 20:37 02.07.2022
587 Clear 14 1005 71 10000 2 320 19:51 02.07.2022
588 Clear 14 1005 71 10000 3.13 330 19:19 02.07.2022
589 Clouds 14 1005 76 10000 3.13 320 17:41 02.07.2022
590 Clear 16 1006 63 10000 6 340 16:38 02.07.2022
591 Clear 17 1006 55 10000 5 330 13:51 02.07.2022
592 Clouds 17 1005 51 10000 5 330 11:52 02.07.2022
593 Clouds 17 1005 55 10000 5 350 10:53 02.07.2022
594 Clear 17 1005 55 10000 5 10 10:33 02.07.2022
595 Clear 15 1005 67 10000 5 340 08:54 02.07.2022
596 Clear 16 1005 63 10000 5 350 08:19 02.07.2022
597 Clouds 15 1004 62 10000 7.15 350 06:51 02.07.2022
598 Clear 11 1004 81 10000 3.13 330 00:55 02.07.2022
599 Clear 12 1004 76 10000 4.02 360 23:31 01.07.2022
600 Clear 12 1004 76 10000 4.02 340 22:40 01.07.2022
601 Clear 13 1004 71 10000 4.02 340 21:40 01.07.2022
602 Clear 14 1004 67 10000 4.02 340 20:59 01.07.2022
603 Clear 14 1004 67 10000 5 350 20:37 01.07.2022
604 Clear 15 1004 62 10000 6 360 19:41 01.07.2022
605 Clouds 17 1004 55 10000 7 340 17:52 01.07.2022
606 Clouds 19 1003 48 10000 7 360 15:26 01.07.2022
607 Clouds 18 1003 55 10000 8.05 350 13:54 01.07.2022
608 Clouds 18 1003 55 10000 8.05 350 13:54 01.07.2022
609 Clouds 18 1002 59 10000 9 350 11:50 01.07.2022
610 Clouds 17 1002 63 10000 9 340 10:20 01.07.2022
611 Clouds 16 1001 67 10000 9 350 08:50 01.07.2022
612 Clouds 14 999 82 10000 6 360 03:18 01.07.2022
613 Rain 14 998 93 10000 6 350 00:25 01.07.2022
614 Rain 14 998 93 9000 5 350 22:56 30.06.2022
615 Rain 14 998 93 10000 5 340 22:33 30.06.2022
616 Rain 14 998 93 9000 4.02 360 21:59 30.06.2022
617 Rain 14 998 93 9000 3.13 350 21:35 30.06.2022
618 Rain 14 998 93 10000 3.13 340 20:22 30.06.2022
619 Rain 14 998 93 10000 3.13 360 19:53 30.06.2022
620 Rain 14 998 93 9000 4.02 10 19:18 30.06.2022
621 Rain 14 998 93 7000 6 50 18:42 30.06.2022
622 Rain 14 997 93 4400 4.92 20 17:38 30.06.2022
623 Rain 14 997 93 10000 5 20 16:48 30.06.2022
624 Clouds 14 997 93 10000 5 30 15:27 30.06.2022
625 Rain 13 996 93 6000 4.02 20 13:30 30.06.2022
626 Rain 13 995 93 8000 6 20 12:35 30.06.2022
627 Rain 13 995 87 10000 5 20 11:28 30.06.2022
628 Clouds 13 993 87 10000 7.15 20 09:53 30.06.2022
629 Clouds 13 993 87 10000 6 30 09:32 30.06.2022
630 Clouds 11 993 93 10000 7.15 10 07:51 30.06.2022
631 Rain 10 993 93 9000 7.15 20 05:57 30.06.2022
632 Rain 9 994 87 8000 7.15 20 01:28 30.06.2022
633 Rain 9 994 87 10000 6 20 23:34 29.06.2022
634 Clear 10 995 81 10000 6 30 22:39 29.06.2022
635 Clear 10 996 81 10000 6 30 21:37 29.06.2022
636 Clouds 10 997 81 10000 6 40 20:34 29.06.2022
637 Clouds 10 997 81 10000 6 30 19:37 29.06.2022
638 Clouds 10 998 87 10000 4.92 30 17:45 29.06.2022
639 Clouds 10 998 87 10000 7.15 30 16:41 29.06.2022
640 Clouds 11 997 81 10000 6 20 15:19 29.06.2022
641 Clouds 10 998 93 9000 5 30 12:40 29.06.2022
642 Drizzle 10 998 100 5000 5 40 11:19 29.06.2022
643 Drizzle 11 997 93 3500 5 30 09:33 29.06.2022
644 Drizzle 12 996 93 3300 2 280 07:44 29.06.2022
645 Rain 10 995 100 6000 3.13 240 04:57 29.06.2022
646 Rain 10 995 93 10000 4.02 240 01:41 29.06.2022
647 Rain 10 995 93 10000 5 240 00:36 29.06.2022
648 Rain 10 995 93 10000 4.02 250 22:55 28.06.2022
649 Rain 10 996 93 10000 4.02 250 22:34 28.06.2022
650 Rain 10 996 93 10000 4.02 250 21:55 28.06.2022
651 Rain 10 996 93 10000 4.02 250 21:33 28.06.2022
652 Rain 10 996 93 10000 4.02 250 20:44 28.06.2022
653 Clouds 10 997 93 10000 5 250 19:34 28.06.2022
654 Clouds 10 997 93 10000 4.02 250 18:53 28.06.2022
655 Clouds 11 997 87 10000 5 260 17:42 28.06.2022
656 Clouds 11 997 87 10000 6 260 16:21 28.06.2022
657 Clouds 11 997 87 10000 5.81 260 15:42 28.06.2022
658 Rain 11 998 87 10000 6 260 14:21 28.06.2022
659 Rain 11 998 87 10000 5 260 13:54 28.06.2022
660 Rain 10 997 93 10000 6 260 12:57 28.06.2022
661 Rain 10 996 93 10000 7.15 270 11:18 28.06.2022
662 Rain 10 995 93 10000 7.15 260 09:30 28.06.2022
663 Rain 10 995 93 10000 7.15 270 08:44 28.06.2022
664 Rain 10 995 93 10000 6 280 07:42 28.06.2022
665 Rain 10 995 87 10000 6 290 07:19 28.06.2022
666 Rain 9 994 93 10000 5 290 01:32 28.06.2022
667 Rain 10 994 93 10000 5 310 23:41 27.06.2022
668 Rain 10 994 93 10000 6 320 22:52 27.06.2022
669 Rain 11 994 93 10000 5 320 21:38 27.06.2022
670 Rain 11 994 93 10000 4.02 320 20:52 27.06.2022
671 Rain 12 994 87 10000 5 330 19:33 27.06.2022
672 Rain 12 994 87 10000 4.02 330 18:26 27.06.2022
673 Rain 13 993 87 10000 8.05 340 16:27 27.06.2022
674 Rain 13 993 93 10000 7.15 350 15:23 27.06.2022
675 Rain 14 992 93 7000 5 340 13:37 27.06.2022
676 Rain 14 992 93 10000 7.15 340 12:56 27.06.2022
677 Rain 14 991 100 6000 5 360 10:34 27.06.2022
678 Rain 14 991 100 9000 4.02 360 09:20 27.06.2022
679 Rain 14 990 100 9000 7.15 350 08:29 27.06.2022
680 Rain 15 991 93 10000 4.02 310 06:39 27.06.2022
681 Clouds 15 991 93 10000 2 10 03:55 27.06.2022
682 Clouds 14 992 100 10000 2 10 00:56 27.06.2022
683 Clouds 14 993 100 10000 2 40 22:18 26.06.2022
684 Rain 14 993 93 10000 1 50 20:44 26.06.2022
685 Clouds 15 994 87 10000 2 60 19:40 26.06.2022
686 Clouds 16 994 82 10000 1 0 18:31 26.06.2022
687 Clouds 16 994 93 10000 2 310 16:45 26.06.2022
688 Rain 16 994 87 7000 4.02 110 15:26 26.06.2022
689 Clouds 20 994 68 10000 3.13 340 13:41 26.06.2022
690 Clouds 19 994 68 10000 3.13 330 13:20 26.06.2022
691 Clouds 18 994 72 10000 3.13 220 11:26 26.06.2022
692 Clouds 19 994 68 10000 4.02 120 10:26 26.06.2022
693 Clouds 17 994 82 10000 4.02 120 09:22 26.06.2022
694 Clouds 17 994 82 10000 3.13 120 07:44 26.06.2022
695 Clouds 14 994 87 10000 3.13 100 01:55 26.06.2022
696 Clouds 14 994 82 10000 4.02 100 00:21 26.06.2022
697 Clouds 14 994 82 10000 2 90 23:49 25.06.2022
698 Clouds 14 995 76 10000 1 0 23:20 25.06.2022
699 Clouds 13 995 81 10000 1 0 22:27 25.06.2022
700 Clear 14 995 76 10000 0.89 0 21:40 25.06.2022
701 Clear 14 996 76 10000 0 0 21:18 25.06.2022
702 Clear 15 996 76 10000 0 0 20:27 25.06.2022
703 Clear 15 996 72 10000 1 140 19:21 25.06.2022
704 Clear 17 996 55 10000 2 320 17:56 25.06.2022
705 Clear 18 996 51 10000 4.02 280 17:22 25.06.2022
706 Clear 21 997 40 10000 6 250 15:26 25.06.2022
707 Clouds 21 997 37 10000 7.15 270 13:27 25.06.2022
708 Clouds 21 997 40 10000 8 260 12:37 25.06.2022
709 Clear 22 996 43 10000 8.05 250 10:34 25.06.2022
710 Clouds 20 996 52 10000 5 240 08:58 25.06.2022
711 Clear 20 997 49 10000 6 220 08:35 25.06.2022
712 Clear 20 997 49 10000 6 210 07:54 25.06.2022
713 Clear 15 999 67 10000 6 260 03:33 25.06.2022
714 Clear 14 999 71 10000 4.02 260 00:34 25.06.2022
715 Clear 15 999 72 10000 4.92 280 22:53 24.06.2022
716 Clear 16 1000 72 10000 6 280 21:34 24.06.2022
717 Clear 17 1000 72 10000 6 280 20:45 24.06.2022
718 Clear 18 1000 67 10000 6 270 20:18 24.06.2022
719 Clouds 19 1000 68 10000 7.15 280 19:21 24.06.2022
720 Clouds 20 999 68 10000 5 280 18:48 24.06.2022
721 Clouds 21 999 64 10000 6 270 18:30 24.06.2022
722 Clouds 22 999 68 10000 2 260 17:19 24.06.2022
723 Clouds 23 999 64 10000 6 330 15:29 24.06.2022
724 Clouds 25 999 53 10000 7.15 250 14:26 24.06.2022
725 Clouds 24 999 57 10000 8.05 260 13:54 24.06.2022
726 Clouds 25 998 57 10000 6 260 11:43 24.06.2022
727 Clouds 25 998 61 10000 4.02 250 10:47 24.06.2022
728 Rain 23 999 68 10000 7 240 09:42 24.06.2022
729 Rain 23 999 68 10000 7 240 09:19 24.06.2022
730 Clouds 26 999 50 10000 5 200 08:42 24.06.2022
731 Clouds 24 999 60 10000 5 220 06:47 24.06.2022
732 Clouds 24 999 60 10000 5 220 06:29 24.06.2022
733 Clear 21 999 73 10000 4 200 05:51 24.06.2022
734 Rain 17 1000 93 9000 3.13 10 00:57 24.06.2022
735 Clear 18 1000 82 10000 1.79 240 22:44 23.06.2022
736 Clear 17 1000 88 10000 0 0 21:52 23.06.2022
737 Clear 18 1000 82 10000 0 0 20:53 23.06.2022
738 Clear 19 1000 77 10000 1 0 20:31 23.06.2022
739 Clear 20 1000 77 10000 0 0 18:43 23.06.2022
740 Clear 21 1000 68 10000 0 0 17:44 23.06.2022
741 Clouds 23 1000 60 10000 1 150 16:34 23.06.2022
742 Clouds 24 1000 50 10000 1 0 15:27 23.06.2022
743 Clouds 24 1000 53 10000 1 0 14:51 23.06.2022
744 Clouds 23 999 53 10000 2 90 12:39 23.06.2022
745 Clouds 23 999 53 10000 1 0 11:19 23.06.2022
746 Clouds 22 998 56 10000 2 60 09:20 23.06.2022
747 Clouds 20 997 72 10000 3.13 110 05:51 23.06.2022
748 Clear 15 995 93 10000 3.13 90 01:22 23.06.2022
749 Clear 14 994 100 10000 3.13 80 00:25 23.06.2022
750 Clear 15 994 93 10000 3.13 80 23:22 22.06.2022
751 Clear 15 994 93 10000 3.13 80 21:44 22.06.2022
752 Clear 15 994 100 10000 1 0 20:52 22.06.2022
753 Clear 16 994 93 10000 3.13 80 20:20 22.06.2022
754 Clear 17 994 88 10000 3.13 80 19:44 22.06.2022
755 Clear 19 993 77 10000 4 90 17:50 22.06.2022
756 Clear 20 992 73 10000 4 100 16:50 22.06.2022
757 Clear 21 992 56 10000 4 120 15:46 22.06.2022
758 Clouds 22 992 49 10000 4 130 15:22 22.06.2022
759 Clouds 22 992 49 10000 5 150 13:50 22.06.2022
760 Clouds 20 992 52 10000 4 140 13:25 22.06.2022
761 Clouds 20 992 64 10000 4 150 12:37 22.06.2022
762 Clouds 19 991 72 10000 3 160 11:46 22.06.2022
763 Clouds 20 991 77 10000 4 150 10:50 22.06.2022
764 Clouds 19 991 88 10000 5 130 09:42 22.06.2022
765 Clouds 21 991 73 10000 6 130 07:51 22.06.2022
766 Clouds 20 991 72 10000 5 130 02:56 22.06.2022
767 Clouds 20 991 77 10000 6 110 01:19 22.06.2022
768 Rain 18 992 88 10000 6 90 23:19 21.06.2022
769 Clear 20 993 77 10000 4.02 120 21:25 21.06.2022
770 Clear 19 993 82 10000 4.02 120 19:43 21.06.2022
771 Clouds 19 994 77 10000 4.02 120 17:57 21.06.2022
772 Clouds 19 994 82 10000 3.13 130 16:52 21.06.2022
773 Clouds 21 994 78 10000 4 120 12:36 21.06.2022
774 Thunderstorm 22 995 68 10000 4 200 10:55 21.06.2022
775 Clouds 27 994 41 10000 7 140 09:39 21.06.2022
776 Clouds 26 995 54 10000 6 130 07:56 21.06.2022
777 Clear 24 996 57 10000 4.02 120 05:33 21.06.2022
778 Clear 19 997 63 10000 2 140 00:35 21.06.2022
779 Clear 20 997 64 10000 4.02 130 22:22 20.06.2022
780 Clear 21 997 60 10000 4 120 21:41 20.06.2022
781 Clear 21 998 64 10000 3.13 120 20:30 20.06.2022
782 Clear 22 998 64 10000 3.13 120 19:37 20.06.2022
783 Clear 23 999 60 10000 2 130 18:44 20.06.2022
784 Clear 26 999 44 10000 2 50 17:50 20.06.2022
785 Clear 27 999 44 10000 3.13 120 16:55 20.06.2022
786 Clouds 28 999 39 10000 4.02 140 15:52 20.06.2022
787 Clouds 29 1000 32 10000 4.02 160 12:38 20.06.2022
788 Clouds 28 1001 34 10000 4.02 150 10:32 20.06.2022
789 Clouds 28 1001 34 10000 4.02 200 08:56 20.06.2022
790 Clouds 28 1001 34 10000 4.02 160 08:20 20.06.2022
791 Clear 25 1002 44 10000 3.13 190 05:35 20.06.2022
792 Clear 15 1002 76 10000 2 100 01:33 20.06.2022
793 Clear 14 1003 76 10000 2 90 00:25 20.06.2022
794 Clear 17 1003 59 10000 2 100 22:46 19.06.2022
795 Clear 18 1003 55 10000 2 120 21:51 19.06.2022
796 Clear 18 1003 55 10000 4.02 100 21:31 19.06.2022
797 Clear 18 1003 63 10000 2 80 20:38 19.06.2022
798 Clear 18 1003 67 10000 0 0 19:47 19.06.2022
799 Clear 20 1003 64 10000 1 0 18:43 19.06.2022
800 Clear 24 1003 50 10000 1 0 17:54 19.06.2022
801 Clear 25 1003 41 10000 2 130 17:22 19.06.2022
802 Clear 26 1004 34 10000 2 120 16:35 19.06.2022
803 Clear 26 1004 34 10000 3.13 130 15:41 19.06.2022
804 Clear 27 1004 32 10000 2 130 14:57 19.06.2022
805 Clear 27 1004 32 10000 1 0 14:19 19.06.2022
806 Clear 26 1004 31 10000 2 180 13:21 19.06.2022
807 Clear 26 1005 31 10000 4.02 150 11:21 19.06.2022
808 Clear 25 1005 31 10000 4.02 150 09:58 19.06.2022
809 Clear 25 1005 33 10000 2 170 08:47 19.06.2022
810 Clear 24 1006 33 10000 1 0 08:19 19.06.2022
811 Clear 23 1006 40 10000 1 0 05:37 19.06.2022
812 Clear 12 1007 81 10000 0 0 01:30 19.06.2022
813 Clear 10 1006 87 10000 0 0 00:25 19.06.2022
814 Clear 11 1007 87 10000 0 0 23:36 18.06.2022
815 Clear 11 1006 87 10000 1 0 22:39 18.06.2022
816 Clear 13 1007 76 10000 0 0 20:57 18.06.2022
817 Clear 14 1007 76 10000 0 0 20:38 18.06.2022
818 Clear 16 1007 67 10000 2 290 19:38 18.06.2022
819 Clear 18 1007 59 10000 0 0 18:45 18.06.2022
820 Clear 20 1006 56 10000 2 30 17:35 18.06.2022
821 Clear 21 1006 46 10000 2 50 16:56 18.06.2022
822 Clear 24 1007 33 10000 2 10 15:33 18.06.2022
823 Clear 23 1007 35 10000 3.13 350 14:45 18.06.2022
824 Clear 23 1007 38 10000 3.13 330 13:30 18.06.2022
825 Clear 23 1007 35 10000 4.02 360 11:56 18.06.2022
826 Clear 23 1007 35 10000 4.02 340 10:55 18.06.2022
827 Clear 22 1007 40 10000 5 360 09:27 18.06.2022
828 Clear 22 1007 43 10000 4.02 360 08:30 18.06.2022
829 Clear 22 1007 37 10000 5 360 07:20 18.06.2022
830 Clear 18 1007 59 10000 2 30 03:46 18.06.2022
831 Clear 15 1008 82 10000 3.13 10 01:26 18.06.2022
832 Clear 15 1007 87 10000 3.13 10 00:48 18.06.2022
833 Clear 15 1007 87 10000 3.13 360 23:58 17.06.2022
834 Clear 15 1007 87 10000 3.13 360 23:24 17.06.2022
835 Clouds 16 1007 87 10000 3.13 10 21:27 17.06.2022
836 Clouds 17 1008 82 10000 3.13 350 20:24 17.06.2022
837 Clouds 19 1007 72 10000 2 340 18:52 17.06.2022
838 Clouds 20 1007 68 10000 2 340 17:46 17.06.2022
839 Clouds 21 1007 60 10000 4.02 360 16:43 17.06.2022
840 Clouds 21 1007 60 10000 4.02 360 16:18 17.06.2022
841 Clouds 21 1007 60 10000 4.02 20 15:34 17.06.2022
842 Clouds 21 1007 60 10000 5 10 14:21 17.06.2022
843 Clouds 20 1007 68 10000 4.02 360 13:48 17.06.2022
844 Clouds 20 1007 64 10000 5 360 13:26 17.06.2022
845 Clouds 20 1007 59 10000 5 350 11:58 17.06.2022
846 Clouds 20 1007 59 10000 6 350 11:39 17.06.2022
847 Clouds 20 1007 59 10000 6 350 11:21 17.06.2022
848 Clouds 18 1006 59 10000 6 330 08:33 17.06.2022
849 Clear 17 1006 63 10000 7.15 350 07:51 17.06.2022
850 Clouds 16 1006 63 10000 6 350 06:32 17.06.2022
851 Clouds 14 1005 67 10000 6 350 03:20 17.06.2022
852 Clouds 14 1004 67 10000 5 340 00:46 17.06.2022
853 Clouds 14 1004 67 10000 4.02 340 23:25 16.06.2022
854 Rain 13 1004 81 10000 4.02 360 22:31 16.06.2022
855 Rain 15 1004 67 10000 6 340 21:19 16.06.2022
856 Rain 15 1004 67 10000 5 350 20:50 16.06.2022
857 Rain 15 1004 72 10000 5 340 19:59 16.06.2022
858 Clouds 15 1003 76 10000 5 330 18:48 16.06.2022
859 Rain 15 1003 82 10000 4.02 330 17:44 16.06.2022
860 Rain 15 1003 82 10000 4.02 330 17:22 16.06.2022
861 Clouds 15 1003 87 10000 4.02 310 15:58 16.06.2022
862 Rain 15 1003 87 10000 5 300 15:21 16.06.2022
863 Rain 14 1003 87 10000 6 310 14:22 16.06.2022
864 Rain 14 1003 93 10000 7.15 330 12:53 16.06.2022
865 Rain 14 1002 93 9000 6 330 12:34 16.06.2022
866 Rain 14 1002 93 10000 6 320 11:21 16.06.2022
867 Rain 13 1001 100 8000 6 330 10:41 16.06.2022
868 Rain 14 1001 93 10000 6 330 09:43 16.06.2022
869 Rain 14 1001 93 10000 7.15 320 08:56 16.06.2022
870 Rain 14 1001 87 10000 6 320 07:41 16.06.2022
871 Clouds 15 1000 76 10000 6 330 05:51 16.06.2022
872 Clouds 15 1000 76 10000 6 320 04:24 16.06.2022
873 Clouds 13 1000 81 10000 6 320 01:52 16.06.2022
874 Clouds 13 1000 81 10000 5 320 01:22 16.06.2022
875 Clouds 13 1000 81 10000 5 320 00:22 16.06.2022
876 Clouds 13 1001 87 10000 4.02 330 22:54 15.06.2022
877 Clouds 13 1001 87 10000 5 330 21:48 15.06.2022
878 Rain 13 1001 93 9000 5 330 21:19 15.06.2022
879 Clouds 13 1002 87 10000 5 340 20:37 15.06.2022
880 Clouds 14 1002 76 10000 5 340 20:18 15.06.2022
881 Clouds 14 1002 76 10000 7.15 330 18:41 15.06.2022
882 Clouds 15 1002 82 10000 5 330 17:53 15.06.2022
883 Clouds 14 1002 93 10000 5 310 16:27 15.06.2022
884 Clouds 14 1002 93 10000 5 330 15:19 15.06.2022
885 Rain 13 1002 100 10000 4.02 320 13:29 15.06.2022
886 Clouds 13 1002 93 10000 4.02 320 12:47 15.06.2022
887 Rain 13 1002 93 10000 4.02 320 11:28 15.06.2022
888 Rain 12 1002 94 6000 5 310 10:22 15.06.2022
889 Drizzle 12 1002 94 9000 5 330 09:34 15.06.2022
890 Clouds 12 1002 100 10000 5 330 07:58 15.06.2022
891 Rain 12 1002 100 9000 5 320 05:58 15.06.2022
892 Clouds 12 1002 100 10000 4.02 310 02:56 15.06.2022
893 Clouds 12 1002 100 10000 5 310 01:37 15.06.2022
894 Mist 12 1002 100 3400 4.02 310 00:37 15.06.2022
895 Mist 12 1002 100 5000 4.02 310 23:38 14.06.2022
896 Clouds 12 1003 100 9000 4.02 290 22:48 14.06.2022
897 Mist 12 1003 100 4800 3.13 290 21:44 14.06.2022
898 Drizzle 12 1003 100 3600 3.13 290 21:21 14.06.2022
899 Drizzle 12 1003 100 2500 3.13 290 20:41 14.06.2022
900 Drizzle 12 1004 100 8000 3.13 280 19:58 14.06.2022
901 Drizzle 12 1004 100 5000 3.13 280 18:45 14.06.2022
902 Clouds 12 1004 100 10000 4.02 270 17:20 14.06.2022
903 Clouds 13 1004 87 10000 4.02 250 16:43 14.06.2022
904 Clouds 13 1004 87 10000 3.13 250 15:49 14.06.2022
905 Clouds 12 1004 94 10000 3 270 14:56 14.06.2022
906 Clouds 12 1004 94 10000 4 260 14:18 14.06.2022
907 Clouds 13 1004 88 10000 3 260 13:28 14.06.2022
908 Clouds 12 1004 94 10000 4 270 12:19 14.06.2022
909 Clouds 13 1003 81 10000 4.02 260 10:59 14.06.2022
910 Clouds 12 1003 87 10000 5 290 10:29 14.06.2022
911 Clouds 12 1003 87 10000 4 290 09:26 14.06.2022
912 Clouds 12 1003 87 10000 5 290 08:40 14.06.2022
913 Clouds 11 1002 87 10000 4.02 270 06:53 14.06.2022
914 Clouds 11 1001 87 10000 5 290 04:23 14.06.2022
915 Clouds 10 1001 93 10000 5 290 01:38 14.06.2022
916 Clouds 11 1000 93 10000 4.02 300 00:24 14.06.2022
917 Mist 11 1000 93 4500 4.02 310 22:59 13.06.2022
918 Mist 11 1000 100 4200 4.02 320 22:23 13.06.2022
919 Clouds 12 1000 93 10000 4.02 310 21:41 13.06.2022
920 Drizzle 13 999 93 10000 5 300 19:59 13.06.2022
921 Drizzle 13 999 93 10000 5 290 19:18 13.06.2022
922 Drizzle 13 999 93 4900 5 300 17:56 13.06.2022
923 Drizzle 13 999 93 9000 5 300 17:25 13.06.2022
924 Clouds 14 998 87 10000 7.15 300 16:31 13.06.2022
925 Clouds 16 998 82 10000 6 290 14:52 13.06.2022
926 Rain 16 997 87 10000 5 290 14:32 13.06.2022
927 Rain 16 997 87 10000 6 300 13:36 13.06.2022
928 Rain 16 996 93 10000 3.13 290 12:23 13.06.2022
929 Rain 16 995 93 9000 5 320 10:58 13.06.2022
930 Rain 17 995 88 10000 4.02 290 10:26 13.06.2022
931 Rain 17 995 82 10000 4.02 300 08:59 13.06.2022
932 Clouds 17 994 82 10000 3.13 270 06:53 13.06.2022
933 Clouds 16 994 87 10000 2 240 05:35 13.06.2022
934 Rain 15 993 93 9000 1 0 02:27 13.06.2022
935 Rain 14 994 100 2300 3.13 280 01:36 13.06.2022
936 Clouds 14 993 100 9000 0 0 23:49 12.06.2022
937 Clouds 15 993 93 9000 0 0 22:44 12.06.2022
938 Clouds 15 993 93 6000 0 0 21:53 12.06.2022
939 Rain 15 993 100 7000 0 0 20:54 12.06.2022
940 Rain 15 993 100 8000 0 0 20:18 12.06.2022
941 Clouds 15 993 93 10000 1 0 19:30 12.06.2022
942 Clouds 15 993 93 10000 1 0 19:30 12.06.2022
943 Rain 16 993 93 10000 3.13 250 17:41 12.06.2022
944 Clouds 19 993 63 10000 2 210 15:57 12.06.2022
945 Thunderstorm 20 993 59 10000 3.13 200 14:51 12.06.2022
946 Clouds 20 993 56 10000 3.13 210 14:20 12.06.2022
947 Clouds 20 993 56 10000 3.13 210 13:49 12.06.2022
948 Clouds 21 993 52 10000 3.13 200 12:32 12.06.2022
949 Clouds 20 992 64 10000 5 240 11:22 12.06.2022
950 Clouds 21 992 56 10000 4.02 210 10:21 12.06.2022
951 Clouds 18 993 72 10000 5 210 08:54 12.06.2022
952 Clouds 19 992 68 10000 5 190 08:35 12.06.2022
953 Clouds 18 992 77 10000 3.13 230 07:31 12.06.2022
954 Clouds 15 993 93 10000 2 230 04:35 12.06.2022
955 Clouds 14 993 100 10000 1 0 02:33 12.06.2022
956 Clouds 14 993 100 9000 0 0 01:36 12.06.2022
957 Clouds 14 993 100 9000 1 0 00:58 12.06.2022
958 Clouds 14 993 100 10000 1 50 00:20 12.06.2022
959 Rain 15 993 93 10000 1 290 23:21 11.06.2022
960 Clouds 15 993 93 10000 3 110 22:38 11.06.2022
961 Clouds 15 993 93 10000 3 110 22:38 11.06.2022
962 Clear 15 994 93 10000 2 80 21:37 11.06.2022
963 Clouds 16 994 87 10000 3.13 90 20:33 11.06.2022
964 Clouds 16 994 87 10000 3.13 60 19:39 11.06.2022
965 Clouds 17 995 82 10000 4.02 130 18:56 11.06.2022
966 Clouds 18 995 77 10000 4.02 130 18:33 11.06.2022
967 Clouds 18 995 77 10000 5 90 17:50 11.06.2022
968 Clouds 18 995 77 10000 4.02 120 17:26 11.06.2022
969 Clouds 18 995 77 10000 4.02 100 16:50 11.06.2022
970 Clouds 18 996 77 10000 5 120 16:26 11.06.2022
971 Clouds 19 996 68 10000 6 110 15:27 11.06.2022
972 Clouds 20 996 68 10000 7.15 100 13:53 11.06.2022
973 Clouds 23 996 56 10000 4.02 110 12:25 11.06.2022
974 Clouds 21 997 60 10000 6 110 10:40 11.06.2022
975 Clear 22 997 53 10000 5.81 100 09:42 11.06.2022
976 Clear 22 998 53 10000 5 110 08:45 11.06.2022
977 Clear 21 998 56 10000 2 40 06:47 11.06.2022
978 Clear 20 999 59 10000 2 310 05:58 11.06.2022
979 Clear 18 999 67 10000 0 0 03:45 11.06.2022
980 Clear 13 999 87 10000 1 0 01:52 11.06.2022
981 Clear 12 999 93 10000 0 0 01:26 11.06.2022
982 Clouds 13 1000 87 10000 0 0 23:28 10.06.2022
983 Clouds 13 999 87 10000 2 100 22:27 10.06.2022
984 Clouds 14 1000 82 10000 3.13 100 21:46 10.06.2022
985 Clouds 16 1000 77 10000 2 60 20:39 10.06.2022
986 Clouds 16 1001 77 10000 2 60 20:20 10.06.2022
987 Clouds 17 1002 67 10000 2 70 19:19 10.06.2022
988 Clouds 17 1002 63 10000 4.02 80 18:46 10.06.2022
989 Clouds 19 1003 59 10000 6 100 17:54 10.06.2022
990 Clouds 20 1003 56 10000 7 100 17:23 10.06.2022
991 Clear 20 1003 56 10000 6 100 16:28 10.06.2022
992 Clear 20 1003 60 10000 7 110 15:40 10.06.2022
993 Clear 20 1004 59 10000 7.15 110 14:28 10.06.2022
994 Clear 19 1005 63 10000 8 100 12:58 10.06.2022
995 Clear 19 1005 59 10000 6 110 11:59 10.06.2022
996 Clear 17 1006 67 10000 5 120 10:51 10.06.2022
997 Clear 18 1006 63 10000 6 110 09:57 10.06.2022
998 Clear 17 1007 67 10000 7.15 130 08:48 10.06.2022
999 Clear 17 1007 67 10000 5 140 07:41 10.06.2022
1000 Clear 15 1007 72 10000 5 130 06:46 10.06.2022
1001 Clear 15 1007 72 10000 4.02 140 06:27 10.06.2022
1002 Clear 13 1007 81 10000 4.02 130 04:47 10.06.2022
1003 Clouds 13 1007 76 10000 4.02 120 01:59 10.06.2022
1004 Clouds 13 1007 76 10000 4.02 120 01:36 10.06.2022
1005 Clouds 13 1007 76 10000 4.02 120 01:36 10.06.2022
1006 Clouds 13 1007 71 10000 4.02 110 23:57 09.06.2022
1007 Clouds 14 1007 71 10000 4.02 120 22:24 09.06.2022
1008 Rain 13 1007 76 9000 4.02 110 21:38 09.06.2022
1009 Rain 13 1007 81 9000 4.02 110 21:18 09.06.2022
1010 Rain 16 1008 58 10000 5 130 20:27 09.06.2022
1011 Clear 16 1008 58 10000 5 120 19:31 09.06.2022
1012 Clear 17 1007 55 10000 6 120 18:35 09.06.2022
1013 Clear 18 1007 55 10000 5 100 17:25 09.06.2022
1014 Clouds 18 1007 55 10000 5 110 16:21 09.06.2022
1015 Clouds 18 1007 59 10000 4.92 80 14:42 09.06.2022
1016 Clouds 17 1007 67 10000 4.02 90 14:23 09.06.2022
1017 Clouds 16 1008 77 10000 3 80 13:29 09.06.2022
1018 Clouds 18 1008 51 10000 5 110 12:46 09.06.2022
1019 Clouds 18 1008 55 10000 7.15 120 11:19 09.06.2022
1020 Clouds 16 1009 63 10000 8.05 120 09:50 09.06.2022
1021 Clouds 15 1009 67 10000 9 110 09:31 09.06.2022
1022 Clouds 14 1009 71 10000 8.05 110 08:21 09.06.2022
1023 Clouds 13 1010 71 10000 6 120 06:55 09.06.2022
1024 Clouds 11 1011 87 10000 5 100 03:28 09.06.2022
1025 Rain 12 1012 76 10000 3.13 170 23:55 08.06.2022
1026 Clear 14 1012 50 10000 5 160 22:59 08.06.2022
1027 Clear 14 1012 50 10000 3.13 140 22:27 08.06.2022
1028 Clear 13 1012 54 10000 4.02 120 21:57 08.06.2022
1029 Clear 13 1012 58 10000 3.13 110 21:23 08.06.2022
1030 Clear 14 1012 54 10000 3.13 120 20:22 08.06.2022
1031 Clear 14 1012 54 10000 4 120 19:39 08.06.2022
1032 Clear 15 1012 51 10000 3.13 120 18:48 08.06.2022
1033 Clear 17 1012 41 10000 4.02 100 17:30 08.06.2022
1034 Clear 19 1013 34 10000 6 110 15:52 08.06.2022
1035 Clear 20 1013 30 10000 5 120 13:58 08.06.2022
1036 Clear 20 1014 30 10000 5 110 12:29 08.06.2022
1037 Clear 19 1015 32 10000 4.02 150 11:34 08.06.2022
1038 Clear 18 1015 31 10000 4.02 140 10:30 08.06.2022
1039 Clear 17 1015 33 10000 5 120 09:22 08.06.2022
1040 Clear 17 1015 36 10000 4.02 120 08:43 08.06.2022
1041 Clear 15 1016 38 10000 3.13 150 06:36 08.06.2022
1042 Clear 12 1017 50 10000 3.13 180 04:22 08.06.2022
1043 Clear 5 1017 86 10000 2 160 00:49 08.06.2022
1044 Clear 4 1017 86 10000 1 70 23:30 07.06.2022
1045 Clear 4 1017 86 10000 2 80 22:48 07.06.2022
1046 Clear 4 1017 86 10000 0 0 22:30 07.06.2022
1047 Clear 5 1017 86 10000 0 0 21:35 07.06.2022
1048 Clear 6 1017 81 10000 0 0 20:59 07.06.2022
1049 Clear 6 1017 81 10000 1 110 20:33 07.06.2022
1050 Clear 7 1018 75 10000 0 0 19:45 07.06.2022
1051 Clear 10 1017 61 10000 3.13 80 18:24 07.06.2022
1052 Clear 13 1017 50 10000 2 50 17:27 07.06.2022
1053 Clear 13 1017 47 10000 3.13 50 16:43 07.06.2022
1054 Clear 14 1017 44 10000 2 40 15:56 07.06.2022
1055 Clear 14 1018 44 10000 1 0 15:26 07.06.2022
1056 Clear 13 1018 43 10000 3.13 40 14:52 07.06.2022
1057 Clear 14 1018 41 10000 2 40 14:32 07.06.2022
1058 Clear 14 1018 41 10000 2 260 13:32 07.06.2022
1059 Clear 13 1018 43 10000 2 300 12:52 07.06.2022
1060 Clear 13 1018 43 10000 3.13 350 11:47 07.06.2022
1061 Clear 11 1018 46 10000 3.13 330 10:27 07.06.2022
1062 Clear 10 1019 46 10000 5 350 08:50 07.06.2022
1063 Clear 9 1019 49 10000 3.13 30 07:34 07.06.2022
1064 Clear 8 1019 49 10000 2 90 06:22 07.06.2022
1065 Clear 5 1019 70 10000 3.13 70 03:32 07.06.2022
1066 Clear 1 1018 86 10000 1 300 00:45 07.06.2022
1067 Clear 2 1018 86 10000 1 0 23:41 06.06.2022
1068 Clear 2 1018 86 10000 2 60 22:53 06.06.2022
1069 Clear 2 1018 86 10000 2 60 21:57 06.06.2022
1070 Clear 2 1018 87 10000 0 0 20:42 06.06.2022
1071 Clear 3 1018 87 10000 0 0 19:24 06.06.2022
1072 Clear 4 1018 86 10000 0 0 18:47 06.06.2022
1073 Clear 7 1018 65 10000 2 20 17:55 06.06.2022
1074 Clear 8 1018 56 10000 2 20 16:55 06.06.2022
1075 Clear 9 1018 49 10000 3.13 10 15:45 06.06.2022
1076 Clouds 9 1018 49 10000 3.13 20 14:59 06.06.2022
1077 Clouds 9 1018 49 10000 3.13 10 14:18 06.06.2022
1078 Clouds 9 1018 49 10000 2 50 13:20 06.06.2022
1079 Clouds 8 1018 52 10000 3.13 360 12:34 06.06.2022
1080 Clouds 8 1018 56 10000 3.13 20 11:47 06.06.2022
1081 Clouds 7 1018 70 10000 3.13 30 09:53 06.06.2022
1082 Clouds 7 1018 75 10000 3.13 50 08:57 06.06.2022
1083 Clouds 8 1018 70 10000 3.13 40 08:28 06.06.2022
1084 Clouds 8 1018 70 10000 3.13 30 07:19 06.06.2022
1085 Clear 6 1018 81 10000 3.13 30 04:38 06.06.2022
1086 Clear 5 1019 86 10000 2 310 01:57 06.06.2022
1087 Clear 5 1019 86 10000 3.13 340 00:57 06.06.2022
1088 Clear 5 1019 86 10000 2 320 00:34 06.06.2022
1089 Clouds 5 1019 80 10000 3.13 280 23:20 05.06.2022
1090 Clouds 5 1019 80 10000 2 280 22:21 05.06.2022
1091 Clouds 5 1019 80 10000 2 330 20:24 05.06.2022
1092 Clear 6 1019 70 10000 3.13 330 19:23 05.06.2022
1093 Clouds 7 1019 65 10000 1 0 18:19 05.06.2022
1094 Clouds 8 1019 61 10000 3.13 330 17:39 05.06.2022
1095 Clouds 8 1019 61 10000 3.13 330 17:21 05.06.2022
1096 Clouds 9 1019 57 10000 3.13 350 16:47 05.06.2022
1097 Clouds 9 1018 57 10000 4.02 20 15:28 05.06.2022
1098 Clouds 9 1018 53 10000 4.02 30 14:21 05.06.2022
1099 Clouds 9 1018 57 10000 4.02 360 11:59 05.06.2022
1100 Clouds 8 1018 61 10000 5 360 10:45 05.06.2022
1101 Clouds 7 1018 65 10000 5 20 10:24 05.06.2022
1102 Clouds 6 1018 75 10000 5 20 09:42 05.06.2022
1103 Clouds 6 1017 75 10000 4.02 360 08:25 05.06.2022
1104 Clouds 4 1017 80 10000 5 360 06:25 05.06.2022
1105 Clouds 3 1016 86 10000 5 30 05:19 05.06.2022
1106 Clouds 1 1015 93 10000 4.02 350 02:48 05.06.2022
1107 Snow 1 1014 93 8000 4.02 340 01:24 05.06.2022
1108 Clouds 1 1014 93 10000 4.02 350 23:36 04.06.2022
1109 Clouds 2 1014 93 10000 4.02 340 21:30 04.06.2022
1110 Clouds 1 1014 93 10000 4.02 320 19:46 04.06.2022
1111 Clouds 2 1014 80 10000 5 340 17:28 04.06.2022
1112 Clouds 2 1014 80 10000 5.81 330 16:22 04.06.2022
1113 Clouds 2 1014 80 10000 6 330 15:45 04.06.2022
1114 Clouds 2 1014 86 10000 7.15 330 14:18 04.06.2022
1115 Snow 3 1013 86 9000 6 330 11:45 04.06.2022
1116 Rain 3 1012 86 10000 7.15 330 10:55 04.06.2022
1117 Rain 3 1012 86 10000 7.15 330 10:19 04.06.2022
1118 Rain 4 1012 80 10000 7.15 340 09:39 04.06.2022
1119 Snow 3 1012 86 9000 8.05 320 08:39 04.06.2022
1120 Clouds 3 1012 86 8000 7.15 330 07:18 04.06.2022
1121 Snow 2 1012 86 9000 7.15 320 04:33 04.06.2022
1122 Rain 1 1013 93 6000 6 290 00:37 04.06.2022
1123 Rain 1 1013 93 9000 7.15 300 23:28 03.06.2022
1124 Clouds 2 1014 80 10000 7.15 300 22:20 03.06.2022
1125 Clouds 2 1015 80 10000 5 310 20:42 03.06.2022
1126 Clouds 2 1015 80 10000 5 310 20:42 03.06.2022
1127 Clouds 2 1015 80 10000 5 310 19:58 03.06.2022
1128 Clouds 3 1016 69 10000 5 320 17:00 03.06.2022
1129 Clouds 3 1017 64 10000 6 310 16:34 03.06.2022
1130 Clouds 4 1017 51 10000 7.15 320 14:52 03.06.2022
1131 Snow 3 1017 64 10000 8.05 320 12:28 03.06.2022
1132 Snow 3 1017 59 10000 7.15 320 10:18 03.06.2022
1133 Clouds 3 1017 55 10000 7.15 340 09:30 03.06.2022
1134 Clouds 2 1017 59 10000 7.15 340 07:53 03.06.2022
1135 Clouds 1 1017 69 10000 7.15 330 07:20 03.06.2022
1136 Snow 2 1017 74 9000 7.15 330 06:30 03.06.2022
1137 Clouds 2 1017 69 10000 6 330 04:40 03.06.2022
1138 Clouds 1 1016 80 10000 4.02 330 00:22 03.06.2022
1139 Clouds 1 1017 86 10000 5 330 22:35 02.06.2022
1140 Snow 2 1017 86 9000 5 330 21:29 02.06.2022
1141 Clouds 2 1017 74 10000 5 320 20:00 02.06.2022
1142 Clouds 1 1017 93 10000 3.13 320 19:41 02.06.2022
1143 Clouds 1 1017 93 10000 3.13 320 19:18 02.06.2022
1144 Clouds 3 1017 55 10000 6 330 16:30 02.06.2022
1145 Clouds 3 1017 51 10000 8.05 340 15:58 02.06.2022
1146 Snow 1 1017 93 9000 6 340 13:47 02.06.2022
1147 Snow 1 1017 93 8000 6 340 13:26 02.06.2022
1148 Clouds 3 1016 56 10000 8 330 11:18 02.06.2022
1149 Clouds 3 1016 56 10000 8 340 10:19 02.06.2022
1150 Clouds 3 1015 56 10000 10 340 09:27 02.06.2022
1151 Clouds 4 1015 65 10000 9 340 08:25 02.06.2022
1152 Clouds 5 1015 56 10000 5 340 06:50 02.06.2022
1153 Clouds 3 1015 80 10000 5 330 03:54 02.06.2022
1154 Clouds 3 1015 69 10000 4.02 360 02:22 02.06.2022
1155 Clouds 3 1015 74 10000 5 30 23:36 01.06.2022
1156 Rain 3 1015 80 10000 5 340 22:21 01.06.2022
1157 Clouds 4 1015 75 10000 5 20 21:26 01.06.2022
1158 Rain 4 1015 75 10000 4.02 360 20:39 01.06.2022
1159 Clouds 5 1015 65 10000 6 360 19:52 01.06.2022
1160 Clouds 5 1015 60 10000 6 10 18:52 01.06.2022
1161 Clouds 6 1015 60 10000 8 350 17:40 01.06.2022
1162 Clouds 6 1014 65 10000 9 350 16:22 01.06.2022
1163 Clouds 7 1013 57 10000 8 360 14:51 01.06.2022
1164 Clouds 9 1012 49 10000 7.15 10 13:44 01.06.2022
1165 Clouds 10 1011 53 10000 8.05 10 11:41 01.06.2022
1166 Clouds 12 1009 54 10000 9 350 09:34 01.06.2022
1167 Clouds 13 1008 47 10000 10 350 08:28 01.06.2022
1168 Clouds 14 1008 44 10000 10 340 07:21 01.06.2022
1169 Clear 12 1008 50 10000 7.15 350 04:59 01.06.2022
1170 Clear 10 1010 57 10000 4 360 23:57 31.05.2022
1171 Clear 11 1010 54 10000 4 360 22:51 31.05.2022
1172 Clear 11 1010 53 10000 4.02 10 22:29 31.05.2022
1173 Clear 11 1010 53 10000 4.02 10 21:45 31.05.2022
1174 Clear 12 1010 46 10000 5 20 20:45 31.05.2022
1175 Clear 12 1010 46 10000 5 20 20:45 31.05.2022
1176 Clear 12 1010 50 10000 3.13 360 19:52 31.05.2022
1177 Clear 13 1010 47 10000 4.02 10 18:45 31.05.2022
1178 Clear 14 1010 41 10000 4.02 20 17:49 31.05.2022
1179 Clear 15 1010 35 10000 5 30 16:48 31.05.2022
1180 Clear 16 1010 29 10000 7.15 30 15:40 31.05.2022
1181 Clear 16 1010 36 10000 6 10 13:38 31.05.2022
1182 Clear 16 1010 38 10000 7.15 350 12:19 31.05.2022
1183 Clear 16 1010 36 10000 6 10 10:52 31.05.2022
1184 Clear 15 1010 47 10000 5 20 08:37 31.05.2022
1185 Clear 13 1010 58 10000 5 350 06:52 31.05.2022
1186 Clear 12 1010 57 10000 4.02 30 04:46 31.05.2022
1187 Clear 7 1010 81 10000 3.13 40 23:53 30.05.2022
1188 Clear 8 1010 75 10000 3.13 40 23:25 30.05.2022
1189 Clear 9 1010 75 10000 3.13 30 22:44 30.05.2022
1190 Clear 9 1009 70 10000 3.13 30 21:47 30.05.2022
1191 Clear 9 1009 75 10000 3.13 30 21:29 30.05.2022
1192 Clear 10 1009 66 10000 3.13 10 19:51 30.05.2022
1193 Clear 12 1009 54 10000 2 30 18:26 30.05.2022
1194 Clear 15 1008 44 10000 3.13 20 17:23 30.05.2022
1195 Clear 16 1008 41 10000 4.02 40 16:36 30.05.2022
1196 Clear 16 1007 41 10000 4.02 40 13:44 30.05.2022
1197 Clear 13 1007 58 10000 4 50 11:54 30.05.2022
1198 Clouds 13 1006 62 10000 4.02 30 10:20 30.05.2022
1199 Clouds 12 1006 66 10000 3.13 30 09:18 30.05.2022
1200 Clouds 13 1003 81 10000 6 60 06:28 30.05.2022
1201 Clouds 13 1003 81 10000 4.02 60 05:38 30.05.2022
1202 Clouds 12 1001 100 10000 1 0 01:30 30.05.2022
1203 Rain 13 1002 93 10000 2 10 22:49 29.05.2022
1204 Rain 13 1002 93 9000 2 350 22:29 29.05.2022
1205 Rain 13 1003 93 8000 4 280 20:38 29.05.2022
1206 Clouds 15 1004 72 10000 7.15 280 19:30 29.05.2022
1207 Clouds 16 1004 77 10000 8.05 240 18:34 29.05.2022
1208 Clouds 18 1003 63 10000 5 280 16:40 29.05.2022
1209 Rain 21 1003 49 10000 6 110 15:47 29.05.2022
1210 Clouds 23 1004 33 10000 5 120 14:55 29.05.2022
1211 Clear 24 1004 31 10000 5 120 13:46 29.05.2022
1212 Clouds 25 1006 27 10000 4 120 11:31 29.05.2022
1213 Clear 24 1007 31 10000 3.13 160 10:37 29.05.2022
1214 Clear 23 1008 33 10000 3.13 190 08:36 29.05.2022
1215 Clear 18 1009 48 10000 3.13 160 04:59 29.05.2022
1216 Clear 18 1009 48 10000 3.13 160 04:39 29.05.2022
1217 Clear 11 1010 81 10000 2 70 01:52 29.05.2022
1218 Clear 10 1010 87 10000 0 0 23:48 28.05.2022
1219 Clear 11 1010 81 10000 1 0 23:25 28.05.2022
1220 Clear 13 1010 71 10000 2 160 22:21 28.05.2022
1221 Clear 14 1010 67 10000 3.13 190 21:19 28.05.2022
1222 Clear 14 1010 67 10000 3.13 190 21:19 28.05.2022
1223 Clear 16 1010 51 10000 3.13 190 19:21 28.05.2022
1224 Clear 16 1010 51 10000 4 210 18:45 28.05.2022
1225 Clear 17 1009 51 10000 5 190 17:34 28.05.2022
1226 Clear 18 1009 51 10000 6 210 16:22 28.05.2022
1227 Clear 18 1009 51 10000 6 190 15:38 28.05.2022
1228 Clear 19 1008 45 10000 4.92 180 13:42 28.05.2022
1229 Clear 19 1008 45 10000 5 170 12:43 28.05.2022
1230 Clouds 19 1008 48 10000 4.02 190 11:50 28.05.2022
1231 Clouds 18 1008 51 10000 5 170 10:43 28.05.2022
1232 Clouds 18 1008 51 10000 5 170 09:56 28.05.2022
1233 Clouds 14 1007 76 10000 5 160 08:39 28.05.2022
1234 Clouds 13 1007 76 10000 4.02 200 06:53 28.05.2022
1235 Clouds 15 1006 82 10000 5 200 05:24 28.05.2022
1236 Clouds 16 1006 63 10000 4.02 120 02:33 28.05.2022
1237 Clear 16 1006 58 10000 4.92 120 00:18 28.05.2022
1238 Clear 17 1006 51 10000 5 110 22:49 27.05.2022
1239 Clear 17 1007 51 10000 6 100 21:35 27.05.2022
1240 Clear 18 1007 48 10000 5 120 20:46 27.05.2022
1241 Clear 18 1006 48 10000 7.15 110 20:21 27.05.2022
1242 Clear 19 1007 45 10000 8 110 19:41 27.05.2022
1243 Clear 19 1007 45 10000 8.05 110 19:21 27.05.2022
1244 Clear 21 1007 40 10000 10 110 17:26 27.05.2022
1245 Clear 22 1007 35 10000 9 100 15:57 27.05.2022
1246 Clear 23 1007 31 10000 11.18 110 14:58 27.05.2022
1247 Clear 23 1008 31 10000 11 110 13:41 27.05.2022
1248 Clear 23 1008 31 10000 12.07 100 12:20 27.05.2022
1249 Clear 22 1009 35 10000 11.18 110 11:31 27.05.2022
1250 Clear 23 1009 33 10000 11.18 110 10:47 27.05.2022
1251 Clear 22 1010 35 10000 9 110 09:59 27.05.2022
1252 Clear 22 1010 37 10000 10 110 09:31 27.05.2022
1253 Clear 21 1011 43 10000 8 110 07:40 27.05.2022
1254 Clear 19 1012 48 10000 5 110 04:58 27.05.2022
1255 Clear 15 1013 62 10000 3.13 120 01:44 27.05.2022
1256 Clear 15 1014 62 10000 3.13 120 23:31 26.05.2022
1257 Clear 17 1014 55 10000 4.02 130 22:28 26.05.2022
1258 Clear 17 1014 55 10000 4.02 130 21:32 26.05.2022
1259 Clouds 19 1014 52 10000 4.02 130 19:39 26.05.2022
1260 Clouds 20 1014 49 10000 4.92 120 18:52 26.05.2022
1261 Clouds 21 1014 49 10000 5 120 17:36 26.05.2022
1262 Clouds 22 1014 46 10000 6 110 16:31 26.05.2022
1263 Clouds 22 1014 46 10000 8.05 110 15:32 26.05.2022
1264 Clouds 23 1015 46 10000 7.15 100 14:20 26.05.2022
1265 Clear 25 1015 41 10000 7.15 110 12:18 26.05.2022
1266 Clear 24 1016 43 10000 8.05 110 11:21 26.05.2022
1267 Clouds 23 1016 46 10000 9 100 09:39 26.05.2022
1268 Clouds 22 1017 49 10000 9 110 08:48 26.05.2022
1269 Clear 20 1017 56 10000 7.15 120 06:47 26.05.2022
1270 Clouds 16 1019 63 10000 6 120 02:54 26.05.2022
1271 Clear 15 1019 72 10000 5 120 00:19 26.05.2022
1272 Clear 16 1019 72 10000 4.02 120 22:58 25.05.2022
1273 Clear 15 1019 76 10000 3.13 120 21:44 25.05.2022
1274 Clear 16 1019 67 10000 5 110 20:50 25.05.2022
1275 Clear 17 1019 63 10000 5 110 19:56 25.05.2022
1276 Clear 18 1019 59 10000 5 110 18:48 25.05.2022
1277 Clear 20 1019 56 10000 5 110 17:26 25.05.2022
1278 Clear 20 1019 52 10000 6 110 16:35 25.05.2022
1279 Clear 20 1019 52 10000 5 110 15:49 25.05.2022
1280 Clear 20 1019 56 10000 7.15 100 14:51 25.05.2022
1281 Clear 21 1019 49 10000 6 120 14:32 25.05.2022
1282 Clear 21 1019 46 10000 6 120 13:27 25.05.2022
1283 Clouds 21 1020 52 10000 4.46 94 11:51 25.05.2022
1284 Clouds 21 1020 52 10000 5.81 90 10:42 25.05.2022
1285 Clouds 19 1020 59 10000 5 100 09:46 25.05.2022
1286 Clouds 19 1020 63 10000 4.02 110 08:21 25.05.2022
1287 Clouds 18 1020 61 10000 3.19 90 06:37 25.05.2022
1288 Clear 12 1019 93 10000 2 80 02:46 25.05.2022
1289 Clear 9 1018 93 10000 0 0 23:52 24.05.2022
1290 Clear 9 1018 93 10000 0 0 23:23 24.05.2022
1291 Clear 10 1017 93 10000 0 0 22:18 24.05.2022
1292 Clear 9 1017 100 10000 1.79 90 21:38 24.05.2022
1293 Clear 10 1017 93 10000 0 0 21:19 24.05.2022
1294 Clear 13 1016 87 10000 1 0 19:32 24.05.2022
1295 Clear 13 1016 87 10000 1 60 18:40 24.05.2022
1296 Clouds 16 1015 63 10000 1 0 16:40 24.05.2022
1297 Clouds 15 1014 67 10000 2 190 15:54 24.05.2022
1298 Clouds 16 1014 63 10000 3.13 200 14:45 24.05.2022
1299 Clouds 15 1014 67 10000 2 150 13:48 24.05.2022
1300 Clouds 14 1014 71 10000 2 180 12:42 24.05.2022
1301 Clouds 13 1013 76 10000 2 150 10:18 24.05.2022
1302 Clouds 13 1013 76 10000 1 0 09:41 24.05.2022
1303 Clouds 13 1013 76 10000 2 150 08:43 24.05.2022
1304 Clouds 12 1012 81 10000 3.13 140 06:45 24.05.2022
1305 Clouds 11 1011 81 10000 2 110 03:48 24.05.2022
1306 Clouds 8 1011 93 10000 0 0 01:49 24.05.2022
1307 Clear 7 1010 93 10000 2 90 01:18 24.05.2022
1308 Clouds 10 1010 76 10000 1 0 22:50 23.05.2022
1309 Clouds 11 1010 71 10000 2 160 21:54 23.05.2022
1310 Clouds 9 1010 87 10000 1 0 20:59 23.05.2022
1311 Clouds 8 1010 93 10000 3.13 100 20:26 23.05.2022
1312 Clouds 8 1009 93 10000 4.02 90 19:31 23.05.2022
1313 Clouds 9 1009 87 10000 4.02 90 18:43 23.05.2022
1314 Clouds 9 1009 87 10000 4.02 80 18:22 23.05.2022
1315 Clouds 10 1009 76 10000 5 120 16:51 23.05.2022
1316 Thunderstorm 10 1009 81 10000 2 150 14:52 23.05.2022
1317 Rain 9 1008 81 7000 5 140 12:50 23.05.2022
1318 Clouds 14 1007 41 10000 4.02 160 11:26 23.05.2022
1319 Clear 14 1007 38 10000 5 230 09:50 23.05.2022
1320 Clear 13 1007 47 10000 6 220 09:23 23.05.2022
1321 Clear 11 1005 57 10000 7.15 220 07:48 23.05.2022
1322 Clouds 10 1004 61 10000 8.94 240 06:45 23.05.2022
1323 Clouds 8 1004 81 10000 6 230 05:21 23.05.2022
1324 Rain 8 1000 93 10000 5 210 02:19 23.05.2022
1325 Rain 8 1000 93 10000 4.02 210 01:36 23.05.2022
1326 Rain 8 1000 93 9000 6 230 23:51 22.05.2022
1327 Rain 12 998 81 10000 5 220 22:35 22.05.2022
1328 Clouds 12 997 81 10000 5 240 21:55 22.05.2022
1329 Clouds 13 997 81 10000 3.13 230 20:53 22.05.2022
1330 Clouds 13 997 81 10000 3.13 230 20:27 22.05.2022
1331 Clouds 14 997 77 10000 5 240 19:56 22.05.2022
1332 Clouds 14 996 76 10000 5 270 18:55 22.05.2022
1333 Thunderstorm 15 996 77 10000 7 250 18:25 22.05.2022
1334 Clouds 21 993 49 10000 9 120 17:33 22.05.2022
1335 Clear 21 993 49 10000 11.18 110 16:31 22.05.2022
1336 Clear 22 994 46 10000 11.18 110 14:48 22.05.2022
1337 Clear 23 994 43 10000 12.07 110 13:45 22.05.2022
1338 Clear 22 994 43 10000 11 100 12:50 22.05.2022
1339 Clear 21 995 46 10000 11 110 11:42 22.05.2022
1340 Clear 19 996 48 10000 12.07 110 09:45 22.05.2022
1341 Clear 16 996 55 10000 11.18 110 08:37 22.05.2022
1342 Clear 14 998 58 10000 12.07 110 07:22 22.05.2022
1343 Clear 13 999 58 10000 9 110 05:44 22.05.2022
1344 Clear 8 1002 81 10000 7.15 90 02:23 22.05.2022
1345 Clear 6 1003 93 10000 5 80 00:43 22.05.2022
1346 Clear 6 1003 93 10000 5 90 23:55 21.05.2022
1347 Rain 6 1003 93 10000 5 80 23:20 21.05.2022
1348 Rain 6 1005 86 10000 5 90 21:43 21.05.2022
1349 Rain 6 1006 86 10000 4.02 80 21:23 21.05.2022
1350 Clear 5 1007 86 10000 1 0 20:24 21.05.2022
1351 Clear 5 1005 86 10000 3.13 90 19:35 21.05.2022
1352 Clear 6 1005 81 10000 2 70 17:51 21.05.2022
1353 Clear 7 1005 70 10000 2 50 16:46 21.05.2022
1354 Clear 8 1005 65 10000 3.13 340 14:38 21.05.2022
1355 Clear 8 1005 70 10000 3.13 330 13:52 21.05.2022
1356 Clear 8 1004 65 10000 4.02 290 12:50 21.05.2022
1357 Clear 8 1004 65 10000 5 280 12:26 21.05.2022
1358 Clouds 7 1003 75 10000 6 270 10:34 21.05.2022
1359 Rain 7 1003 75 10000 7 250 09:44 21.05.2022
1360 Rain 6 1003 81 10000 7.15 250 08:57 21.05.2022
1361 Rain 6 1002 86 10000 6 260 07:54 21.05.2022
1362 Clouds 5 999 75 10000 8.05 240 04:29 21.05.2022
1363 Clouds 5 996 80 10000 7.15 230 23:54 20.05.2022
1364 Rain 6 996 75 10000 9 240 22:57 20.05.2022
1365 Clouds 6 996 75 10000 7.15 240 22:24 20.05.2022
1366 Clouds 6 996 75 10000 9 230 21:43 20.05.2022
1367 Rain 6 996 86 10000 9 250 20:56 20.05.2022
1368 Clouds 8 996 65 10000 9 240 19:59 20.05.2022
1369 Clouds 9 996 61 10000 7.15 240 19:26 20.05.2022
1370 Clouds 9 996 61 10000 8.05 230 18:46 20.05.2022
1371 Clouds 10 995 62 10000 5 240 17:24 20.05.2022
1372 Clouds 10 995 71 10000 6 250 16:19 20.05.2022
1373 Clouds 10 995 71 10000 8.05 270 15:47 20.05.2022
1374 Clouds 11 995 66 10000 7.15 250 14:30 20.05.2022
1375 Clouds 12 994 57 10000 8.05 240 13:55 20.05.2022
1376 Clouds 10 994 76 10000 8.94 230 11:38 20.05.2022
1377 Clouds 10 993 76 10000 9 220 10:19 20.05.2022
1378 Clouds 10 992 87 9000 10 220 08:45 20.05.2022
1379 Rain 10 991 93 10000 7.15 220 07:18 20.05.2022
1380 Rain 10 990 93 9000 7.15 220 06:32 20.05.2022
1381 Rain 10 990 93 5000 6 200 04:42 20.05.2022
1382 Clouds 9 990 93 10000 4.02 200 00:54 20.05.2022
1383 Clear 9 991 93 10000 3 180 22:48 19.05.2022
1384 Clear 9 991 93 10000 2 190 22:20 19.05.2022
1385 Clear 10 992 87 10000 3.13 170 21:48 19.05.2022
1386 Clouds 9 992 93 10000 1 0 21:22 19.05.2022
1387 Clear 9 992 93 10000 1 0 20:34 19.05.2022
1388 Clear 9 993 93 10000 2 140 19:50 19.05.2022
1389 Clouds 11 993 87 10000 4.02 140 18:22 19.05.2022
1390 Rain 11 995 93 10000 1 0 16:35 19.05.2022
1391 Rain 12 995 93 10000 2 310 14:52 19.05.2022
1392 Rain 12 995 93 10000 2 300 14:24 19.05.2022
1393 Rain 12 996 93 10000 3.13 210 13:20 19.05.2022
1394 Rain 16 996 67 10000 5 260 11:29 19.05.2022
1395 Clouds 21 996 35 10000 4.02 170 09:27 19.05.2022
1396 Clear 20 997 45 10000 3.13 180 07:50 19.05.2022
1397 Clear 16 998 63 10000 3.13 140 05:32 19.05.2022
1398 Clear 11 999 93 10000 4.02 80 02:23 19.05.2022
1399 Clouds 11 1002 93 10000 1 0 23:57 18.05.2022
1400 Clear 12 1001 87 10000 3.13 140 22:47 18.05.2022
1401 Clear 12 1002 87 10000 4.02 120 21:51 18.05.2022
1402 Clear 12 1002 87 10000 4.02 120 21:29 18.05.2022
1403 Clouds 12 1002 81 10000 4.02 130 20:41 18.05.2022
1404 Clouds 12 1003 87 10000 3.13 130 20:18 18.05.2022
1405 Clouds 12 1003 87 10000 3.13 110 18:28 18.05.2022
1406 Clouds 12 1003 93 10000 4.02 100 17:41 18.05.2022
1407 Clouds 13 1003 87 10000 4.02 100 17:23 18.05.2022
1408 Clouds 14 1003 82 10000 3.13 100 16:34 18.05.2022
1409 Clouds 14 1004 82 10000 3 200 15:41 18.05.2022
1410 Clouds 14 1003 87 10000 4.02 70 14:35 18.05.2022
1411 Thunderstorm 14 1004 82 10000 1 0 13:35 18.05.2022
1412 Clouds 15 1003 72 10000 4 100 12:42 18.05.2022
1413 Thunderstorm 14 1003 88 10000 3 140 11:34 18.05.2022
1414 Thunderstorm 16 1003 67 8000 5 240 10:56 18.05.2022
1415 Thunderstorm 16 1003 67 8000 5 240 10:56 18.05.2022
1416 Clouds 20 1002 49 10000 3.13 220 09:31 18.05.2022
1417 Clear 17 1002 59 10000 3.13 160 07:36 18.05.2022
1418 Clear 15 1001 72 10000 1 0 05:56 18.05.2022
1419 Clouds 7 999 93 10000 0 0 01:20 18.05.2022
1420 Clear 7 998 100 10000 1 0 00:22 18.05.2022
1421 Clear 9 997 93 10000 2 290 21:56 17.05.2022
1422 Clear 9 997 93 10000 2 280 21:20 17.05.2022
1423 Clear 10 996 87 10000 4.02 280 19:59 17.05.2022
1424 Clouds 11 996 87 10000 3.13 280 19:27 17.05.2022
1425 Clouds 13 995 76 10000 3.13 230 17:50 17.05.2022
1426 Thunderstorm 15 995 58 10000 2 350 16:59 17.05.2022
1427 Clouds 16 995 51 10000 3.13 10 16:29 17.05.2022
1428 Clear 16 994 63 10000 3.13 360 15:25 17.05.2022
1429 Clear 17 994 55 10000 4.02 360 14:30 17.05.2022
1430 Clear 17 993 55 10000 5 320 13:34 17.05.2022
1431 Clouds 17 993 51 10000 4.02 10 11:43 17.05.2022
1432 Clouds 13 993 81 10000 4.02 360 09:27 17.05.2022
1433 Clouds 13 993 76 10000 3.13 30 08:25 17.05.2022
1434 Clouds 14 993 77 10000 3 80 06:46 17.05.2022
1435 Clouds 11 994 93 10000 1 0 03:20 17.05.2022
1436 Clear 11 995 93 10000 1.79 90 00:43 17.05.2022
1437 Clouds 11 996 93 10000 3 280 22:43 16.05.2022
1438 Clouds 11 996 93 10000 1 0 21:41 16.05.2022
1439 Clouds 12 997 93 10000 1 0 20:47 16.05.2022
1440 Rain 12 998 87 9000 1.79 170 19:43 16.05.2022
1441 Rain 13 999 87 6000 4.02 160 18:20 16.05.2022
1442 Clear 18 999 45 10000 3.13 120 15:50 16.05.2022
1443 Clouds 19 1000 45 10000 2 310 13:56 16.05.2022
1444 Clouds 17 1000 55 10000 4.02 290 13:23 16.05.2022
1445 Clear 21 1000 32 10000 6 220 11:25 16.05.2022
1446 Clear 19 1001 39 10000 5 210 09:37 16.05.2022
1447 Clear 16 1002 51 10000 4.02 200 06:56 16.05.2022
1448 Clouds 13 1002 62 10000 3.13 210 03:58 16.05.2022
1449 Clear 9 1002 81 10000 0 0 23:38 15.05.2022
1450 Clear 11 1002 66 10000 0 0 22:32 15.05.2022
1451 Clear 11 1003 66 10000 0 0 21:47 15.05.2022
1452 Clouds 13 1002 58 10000 1 0 20:57 15.05.2022
1453 Clear 13 1002 58 10000 0 0 19:52 15.05.2022
1454 Clear 18 1002 39 10000 2 200 17:52 15.05.2022
1455 Clear 20 1002 30 10000 3 230 16:29 15.05.2022
1456 Clear 20 1002 30 10000 6 250 13:58 15.05.2022
1457 Clear 20 1002 30 10000 6 240 12:50 15.05.2022
1458 Clear 19 1002 37 10000 6 240 11:40 15.05.2022
1459 Clear 19 1002 42 10000 4.02 230 10:27 15.05.2022
1460 Clouds 16 1002 58 10000 4.02 230 08:45 15.05.2022
1461 Clouds 13 1002 87 10000 4.02 220 06:58 15.05.2022
1462 Clouds 13 1002 87 10000 4.02 240 05:52 15.05.2022
1463 Clouds 12 1002 93 10000 2 160 00:49 15.05.2022
1464 Clouds 12 1002 93 10000 3 160 23:39 14.05.2022
1465 Clouds 13 1002 87 10000 3.13 150 22:59 14.05.2022
1466 Clouds 12 1003 100 10000 2 90 21:29 14.05.2022
1467 Rain 14 1003 76 10000 1 0 20:53 14.05.2022
1468 Clouds 14 1003 76 10000 0.89 0 19:38 14.05.2022
1469 Clouds 15 1003 62 10000 0 0 19:19 14.05.2022
1470 Clouds 16 1003 58 10000 1 210 18:44 14.05.2022
1471 Clouds 17 1003 55 10000 4.02 230 16:46 14.05.2022
1472 Clear 21 1002 35 10000 5 210 15:30 14.05.2022
1473 Clouds 22 1002 33 10000 5 190 14:34 14.05.2022
1474 Clouds 23 1001 31 10000 6 200 12:24 14.05.2022
1475 Rain 21 1002 35 9000 5 170 10:59 14.05.2022
1476 Clouds 24 1001 25 10000 6 160 10:21 14.05.2022
1477 Clouds 24 1001 25 10000 7.15 150 09:53 14.05.2022
1478 Clear 25 1002 22 10000 7.15 160 08:49 14.05.2022
1479 Clear 20 1003 37 10000 5 130 06:41 14.05.2022
1480 Clear 10 1007 81 10000 3 100 02:39 14.05.2022
1481 Clear 10 1008 87 10000 3.13 90 23:36 13.05.2022
1482 Clear 11 1009 81 10000 4.02 90 22:58 13.05.2022
1483 Clear 10 1009 87 10000 2 80 22:27 13.05.2022
1484 Clear 11 1009 81 10000 3.13 90 21:52 13.05.2022
1485 Clear 12 1010 81 10000 4.02 100 20:45 13.05.2022
1486 Clear 13 1010 76 10000 4.02 90 20:27 13.05.2022
1487 Clear 15 1010 62 10000 4.02 100 19:28 13.05.2022
1488 Clear 16 1011 58 10000 2 80 17:50 13.05.2022
1489 Clear 17 1011 55 10000 3.13 90 17:27 13.05.2022
1490 Clear 19 1011 45 10000 4.02 120 16:20 13.05.2022
1491 Clear 20 1012 39 10000 2 180 15:28 13.05.2022
1492 Clear 20 1012 37 10000 3 200 13:41 13.05.2022
1493 Clear 20 1013 39 10000 3.13 190 12:28 13.05.2022
1494 Clear 18 1014 45 10000 3.13 300 10:53 13.05.2022
1495 Clouds 17 1015 55 10000 3.13 210 09:34 13.05.2022
1496 Clouds 16 1015 58 10000 3.13 220 08:24 13.05.2022
1497 Clouds 16 1015 63 10000 4.02 190 07:48 13.05.2022
1498 Clouds 14 1016 76 10000 2 210 06:33 13.05.2022
1499 Clouds 11 1015 93 10000 1 0 02:48 13.05.2022
1500 Clear 11 1015 87 10000 2 240 23:56 12.05.2022
1501 Clear 12 1015 81 10000 3.13 230 22:44 12.05.2022
1502 Clear 13 1015 71 10000 3.13 230 21:54 12.05.2022
1503 Clear 13 1014 71 10000 2 200 20:27 12.05.2022
1504 Clear 16 1014 55 10000 2 250 18:51 12.05.2022
1505 Clear 18 1014 42 10000 2 210 16:58 12.05.2022
1506 Clear 18 1014 39 10000 2 200 15:50 12.05.2022
1507 Clear 19 1014 34 10000 4.02 140 14:40 12.05.2022
1508 Clear 19 1014 37 10000 5 170 13:38 12.05.2022
1509 Clear 18 1015 34 10000 5 200 10:45 12.05.2022
1510 Clear 18 1015 27 10000 5 140 09:28 12.05.2022
1511 Clear 18 1015 27 10000 5 150 08:50 12.05.2022
1512 Clear 16 1015 31 10000 4.02 140 07:40 12.05.2022
1513 Clear 14 1016 38 10000 3.13 160 05:46 12.05.2022
1514 Clear 11 1016 46 10000 2 160 02:49 12.05.2022
1515 Clear 12 1016 43 10000 3.13 140 00:35 12.05.2022
1516 Clear 12 1017 46 10000 2 130 22:34 11.05.2022
1517 Clear 12 1017 43 10000 2 130 21:38 11.05.2022
1518 Clear 13 1017 40 10000 2 140 20:55 11.05.2022
1519 Clear 16 1017 33 10000 3.13 170 18:33 11.05.2022
1520 Clear 18 1017 32 10000 3 170 16:53 11.05.2022
1521 Clear 19 1017 29 10000 3.13 150 14:58 11.05.2022
1522 Clear 19 1017 29 10000 4 160 14:38 11.05.2022
1523 Clear 19 1018 27 10000 4.02 160 14:18 11.05.2022
1524 Clear 20 1019 26 10000 8.05 160 11:52 11.05.2022
1525 Clear 20 1019 28 10000 5 180 10:44 11.05.2022
1526 Clear 19 1020 29 10000 5 190 08:40 11.05.2022
1527 Clear 15 1021 41 10000 2 210 05:27 11.05.2022
1528 Clear 12 1020 46 10000 2 170 00:42 11.05.2022
1529 Clear 10 1020 53 10000 1 0 22:31 10.05.2022
1530 Clear 11 1020 50 10000 2 140 21:56 10.05.2022
1531 Clear 12 1020 46 10000 1 100 20:56 10.05.2022
1532 Clear 15 1021 38 10000 3.13 140 19:27 10.05.2022
1533 Clear 17 1020 33 10000 2 160 17:58 10.05.2022
1534 Clear 18 1020 29 10000 2 160 17:21 10.05.2022
1535 Clear 21 1020 22 10000 4.02 180 15:28 10.05.2022
1536 Clear 22 1021 19 10000 4.02 200 12:39 10.05.2022
1537 Clear 22 1021 19 10000 5 170 11:50 10.05.2022
1538 Clear 22 1022 18 10000 4.02 220 11:20 10.05.2022
1539 Clear 22 1022 19 10000 3.13 230 10:26 10.05.2022
1540 Clear 21 1022 22 10000 4.02 200 09:25 10.05.2022
1541 Clear 18 1023 34 10000 4.02 180 06:54 10.05.2022
1542 Clear 10 1023 61 10000 1 0 03:30 10.05.2022
1543 Clear 6 1022 75 10000 2 30 00:57 10.05.2022
1544 Clear 9 1022 61 10000 2 160 22:56 09.05.2022
1545 Clear 10 1022 61 10000 2 130 21:50 09.05.2022
1546 Clear 11 1022 58 10000 2 120 20:52 09.05.2022
1547 Clear 11 1022 53 10000 2 150 19:23 09.05.2022
1548 Clear 13 1022 47 10000 3 110 17:51 09.05.2022
1549 Clear 16 1022 36 10000 2 170 16:34 09.05.2022
1550 Clear 17 1022 34 10000 3 180 15:52 09.05.2022
1551 Clear 18 1022 29 10000 3.13 200 15:24 09.05.2022
1552 Clear 19 1022 25 10000 4.02 230 14:29 09.05.2022
1553 Clouds 18 1022 27 10000 4.02 210 13:49 09.05.2022
1554 Clouds 17 1022 33 10000 6 220 12:26 09.05.2022
1555 Clouds 18 1022 29 10000 5 230 11:32 09.05.2022
1556 Clouds 18 1022 31 10000 5 240 10:42 09.05.2022
1557 Clear 17 1022 39 10000 4 230 08:45 09.05.2022
1558 Clear 15 1022 47 10000 3 230 07:54 09.05.2022
1559 Clouds 7 1022 81 10000 2 180 03:21 09.05.2022
1560 Clear 6 1022 81 10000 2 160 23:37 08.05.2022
1561 Clear 6 1023 81 10000 3 160 22:55 08.05.2022
1562 Clear 5 1023 81 10000 3 160 21:55 08.05.2022
1563 Clear 5 1023 81 10000 3 150 20:35 08.05.2022
1564 Clear 4 1023 86 10000 3 160 19:45 08.05.2022
1565 Clear 5 1023 81 10000 2 150 18:54 08.05.2022
1566 Clear 6 1023 75 10000 1 120 17:59 08.05.2022
1567 Clear 8 1024 66 10000 3 210 16:44 08.05.2022
1568 Clear 8 1024 61 10000 3 210 15:39 08.05.2022
1569 Clear 8 1024 61 10000 4 210 14:45 08.05.2022
1570 Clouds 7 1024 56 10000 5 220 12:27 08.05.2022
1571 Clouds 6 1024 56 10000 5 200 10:32 08.05.2022
1572 Clouds 6 1024 56 10000 5 220 09:57 08.05.2022
1573 Clouds 6 1024 56 10000 4 220 08:56 08.05.2022
1574 Clear 5 1024 56 10000 5 220 07:25 08.05.2022
1575 Clear 0 1023 74 10000 3.13 240 03:40 08.05.2022
1576 Clear -2 1022 79 10000 2 230 02:45 08.05.2022
1577 Clear -6 1022 92 10000 0 0 00:28 08.05.2022
1578 Clear -6 1022 85 10000 1 110 23:50 07.05.2022
1579 Clear -6 1022 85 10000 2 100 22:46 07.05.2022
1580 Clear -5 1022 80 10000 2 110 21:59 07.05.2022
1581 Clear -5 1022 74 10000 2 100 21:34 07.05.2022
1582 Clear -4 1021 68 10000 1 90 20:28 07.05.2022
1583 Clear -4 1021 74 10000 1 0 19:44 07.05.2022
1584 Clear -2 1021 64 10000 0 0 17:35 07.05.2022
1585 Clear 1 1021 47 10000 4 320 15:46 07.05.2022
1586 Clear 1 1020 43 10000 8.05 320 13:39 07.05.2022
1587 Clouds -1 1019 46 10000 10 300 10:41 07.05.2022
1588 Clouds -2 1017 54 10000 11.18 300 09:19 07.05.2022
1589 Clouds -3 1016 58 10000 10 320 07:50 07.05.2022
1590 Clouds -3 1015 58 9000 11 320 06:43 07.05.2022
1591 Clouds -4 1011 62 8000 9.83 320 04:41 07.05.2022
1592 Clouds -3 1007 73 8000 10 320 01:19 07.05.2022
1593 Clouds -2 1004 64 8000 9 340 23:36 06.05.2022
1594 Clouds -3 1003 68 2200 13 360 22:26 06.05.2022
1595 Clouds -3 1002 73 1000 12 350 21:41 06.05.2022
1596 Clouds -3 1001 86 450 13 340 20:24 06.05.2022
1597 Clouds -3 1000 92 700 13 350 19:29 06.05.2022
1598 Snow -3 1000 92 800 12.07 360 18:56 06.05.2022
1599 Snow -3 999 92 350 12.96 360 17:38 06.05.2022
1600 Snow -2 997 92 150 10 20 15:56 06.05.2022
1601 Snow -2 997 92 200 9.83 20 15:38 06.05.2022
1602 Snow -1 998 86 1600 8.05 30 14:23 06.05.2022
1603 Clouds 0 998 92 10000 9 30 12:53 06.05.2022
1604 Clouds 1 998 86 10000 7.15 30 12:30 06.05.2022
1605 Clouds 1 997 86 10000 10 60 11:38 06.05.2022
1606 Clouds 1 1000 93 10000 6 50 09:49 06.05.2022
1607 Clouds 1 1000 93 10000 6 50 09:19 06.05.2022
1608 Clouds 1 1001 93 10000 9 70 07:57 06.05.2022
1609 Snow 0 1003 100 2400 9 70 06:29 06.05.2022
1610 Snow 0 1006 100 1900 8.05 70 04:37 06.05.2022
1611 Snow 1 1008 93 1400 7.15 60 02:43 06.05.2022
1612 Snow 2 1010 93 10000 4.02 100 23:34 05.05.2022
1613 Clear 3 1011 80 10000 3.13 100 21:52 05.05.2022
1614 Clear 3 1011 80 10000 4.02 90 20:53 05.05.2022
1615 Clear 3 1011 80 10000 2 50 19:49 05.05.2022
1616 Clouds 4 1011 80 10000 2 20 16:53 05.05.2022
1617 Clouds 4 1010 80 10000 2 20 15:52 05.05.2022
1618 Clouds 4 1010 86 10000 5.81 10 14:37 05.05.2022
1619 Clouds 4 1009 86 10000 4.02 360 13:18 05.05.2022
1620 Rain 3 1008 93 10000 6 350 12:24 05.05.2022
1621 Clear 6 1006 70 10000 8.05 330 10:30 05.05.2022
1622 Clear 10 1004 49 10000 8.05 320 09:34 05.05.2022
1623 Clear 14 1003 30 10000 8.05 240 07:19 05.05.2022
1624 Clear 9 1003 42 10000 5 190 02:33 05.05.2022
1625 Clear 9 1003 42 10000 5 190 01:47 05.05.2022
1626 Clear 10 1003 40 10000 6 190 01:20 05.05.2022
1627 Clear 10 1004 39 10000 6 190 23:28 04.05.2022
1628 Clear 10 1005 42 10000 6 190 22:25 04.05.2022
1629 Clear 10 1005 42 10000 6 190 21:48 04.05.2022
1630 Clear 10 1005 42 10000 6 190 21:26 04.05.2022
1631 Clear 11 1006 40 10000 7.15 190 20:22 04.05.2022
1632 Clear 11 1006 40 10000 6 190 19:51 04.05.2022
1633 Clear 12 1006 37 10000 6 190 18:45 04.05.2022
1634 Clear 12 1007 37 10000 5 190 18:20 04.05.2022
1635 Clear 13 1006 33 10000 5 190 17:28 04.05.2022
1636 Clear 14 1007 30 10000 6 200 15:38 04.05.2022
1637 Clear 15 1007 28 10000 7 200 14:49 04.05.2022
1638 Clear 15 1007 28 10000 6 200 14:20 04.05.2022
1639 Clear 14 1008 33 10000 8.05 190 12:58 04.05.2022
1640 Clear 14 1008 30 10000 8.05 190 12:24 04.05.2022
1641 Clear 13 1009 32 10000 9 200 10:30 04.05.2022
1642 Clear 12 1010 32 10000 7.15 190 09:23 04.05.2022
1643 Clouds 10 1011 34 10000 7.15 190 08:33 04.05.2022
1644 Clear 6 1013 38 10000 7.15 200 05:44 04.05.2022
1645 Clear 1 1015 50 10000 4.02 200 02:43 04.05.2022
1646 Clear 0 1015 50 10000 4.02 200 23:31 03.05.2022
1647 Clear 1 1015 47 10000 4.02 190 22:20 03.05.2022
1648 Clear 1 1015 47 10000 3.13 190 21:33 03.05.2022
1649 Clear 1 1015 47 10000 3.13 200 20:52 03.05.2022
1650 Clear 1 1015 51 10000 3 190 19:39 03.05.2022
1651 Clear 1 1015 51 10000 3 190 18:48 03.05.2022
1652 Clear 3 1015 44 10000 2 220 17:34 03.05.2022
1653 Clear 3 1015 41 10000 3 290 16:28 03.05.2022
1654 Clear 4 1014 41 10000 5 300 14:43 03.05.2022
1655 Clear 4 1013 44 10000 6 330 12:47 03.05.2022
1656 Clear 4 1013 44 10000 6 320 12:25 03.05.2022
1657 Clouds 3 1012 51 10000 5 320 10:52 03.05.2022
1658 Clouds 4 1011 65 10000 5 270 08:38 03.05.2022
1659 Clear 2 1010 74 10000 4.02 220 06:46 03.05.2022
1660 Clear -2 1009 86 10000 3.13 320 03:34 03.05.2022
1661 Snow -1 1006 100 6000 7.15 320 23:44 02.05.2022
1662 Snow 0 1004 92 900 8.05 310 22:34 02.05.2022
1663 Snow 0 1004 100 1400 7.15 320 21:49 02.05.2022
1664 Snow 0 1003 100 2300 5 290 20:50 02.05.2022
1665 Snow 1 1002 93 6000 4.02 250 18:35 02.05.2022
1666 Snow 1 1002 93 5000 4.02 260 17:44 02.05.2022
1667 Rain 3 1002 93 10000 5 240 16:50 02.05.2022
1668 Rain 4 1002 75 10000 8.05 250 15:56 02.05.2022
1669 Clear 7 1001 39 10000 1 0 14:57 02.05.2022
1670 Clear 7 1002 42 10000 2 240 13:48 02.05.2022
1671 Clear 7 1002 36 10000 1 0 12:18 02.05.2022
1672 Clear 8 1002 31 10000 1 0 10:20 02.05.2022
1673 Clear 7 1002 36 10000 2 310 08:46 02.05.2022
1674 Clouds 7 1003 36 10000 2 250 07:30 02.05.2022
1675 Clear -2 1006 74 10000 2 90 01:28 02.05.2022
1676 Clear -2 1007 74 10000 1 0 00:23 02.05.2022
1677 Clear -1 1007 68 10000 2 110 23:46 01.05.2022
1678 Clear -2 1009 74 10000 3.13 90 21:56 01.05.2022
1679 Clear -1 1009 68 10000 3.13 80 20:50 01.05.2022
1680 Clear 0 1010 64 10000 3 90 19:46 01.05.2022
1681 Clear 1 1011 55 10000 2 100 18:53 01.05.2022
1682 Clear 3 1011 44 10000 2 90 17:57 01.05.2022
1683 Clear 6 1012 31 10000 2 160 16:46 01.05.2022
1684 Clear 7 1012 29 10000 3 160 16:23 01.05.2022
1685 Clear 7 1012 26 10000 4 150 15:22 01.05.2022
1686 Clear 7 1014 30 10000 2 200 13:23 01.05.2022
1687 Clear 7 1017 28 10000 5 180 10:46 01.05.2022
1688 Clear 6 1018 33 10000 6 210 08:51 01.05.2022
1689 Clear 4 1020 44 10000 6 190 06:53 01.05.2022
1690 Clear -1 1021 63 10000 0 0 02:51 01.05.2022
1691 Clear -3 1021 73 10000 0 0 22:58 30.04.2022
1692 Clear -3 1021 79 10000 0 0 21:35 30.04.2022
1693 Clear -3 1021 79 10000 0 0 20:35 30.04.2022
1694 Clear -2 1021 69 10000 1 250 19:33 30.04.2022
1695 Clear 0 1021 55 10000 0 0 17:38 30.04.2022
1696 Clear 3 1021 44 10000 4 280 16:34 30.04.2022
1697 Clear 4 1021 44 10000 5 290 15:19 30.04.2022
1698 Clear 3 1021 40 10000 5 260 14:31 30.04.2022
1699 Clear 3 1021 37 10000 4.02 290 12:36 30.04.2022
1700 Clouds 3 1021 44 10000 5 270 11:32 30.04.2022
1701 Clouds 2 1021 43 10000 4.02 290 10:31 30.04.2022
1702 Clouds 1 1022 50 10000 4.02 300 08:34 30.04.2022
1703 Clouds -1 1021 74 10000 2 270 05:19 30.04.2022
1704 Clouds -1 1020 80 10000 2 330 00:35 30.04.2022
1705 Clouds -1 1020 74 10000 4 330 23:36 29.04.2022
1706 Clouds -1 1020 74 10000 3.13 320 22:30 29.04.2022
1707 Clouds -1 1020 80 10000 4.02 330 21:26 29.04.2022
1708 Clouds -1 1019 80 10000 4 330 20:36 29.04.2022
1709 Clouds 0 1019 80 10000 3.13 320 19:36 29.04.2022
1710 Clouds 0 1019 80 10000 4.02 310 17:48 29.04.2022
1711 Clouds 1 1018 74 10000 4.02 310 16:43 29.04.2022
1712 Clouds 1 1017 74 10000 6 290 14:38 29.04.2022
1713 Clouds 1 1017 74 10000 6 290 14:38 29.04.2022
1714 Clouds 1 1017 74 10000 6 290 14:38 29.04.2022
1715 Clouds 1 1016 80 10000 7.15 290 13:59 29.04.2022
1716 Clouds 2 1016 74 10000 8.05 290 12:41 29.04.2022
1717 Clouds 3 1013 80 10000 9 280 10:57 29.04.2022
1718 Clouds 4 1009 93 10000 9 260 08:18 29.04.2022
1719 Drizzle 4 1007 100 9000 10 250 07:27 29.04.2022
1720 Mist 4 1007 100 2300 7.15 250 06:34 29.04.2022
1721 Fog 2 1005 100 100 1 0 03:23 29.04.2022
1722 Fog 2 1006 100 150 2 90 00:18 29.04.2022
1723 Fog 2 1006 100 300 2 90 23:26 28.04.2022
1724 Fog 2 1006 100 500 2 70 22:37 28.04.2022
1725 Fog 2 1006 100 500 3.13 80 21:45 28.04.2022
1726 Mist 2 1006 100 2700 2 80 20:49 28.04.2022
1727 Fog 2 1006 100 500 2 40 19:57 28.04.2022
1728 Fog 2 1006 100 500 2 40 19:39 28.04.2022
1729 Mist 2 1006 100 1500 2 20 19:19 28.04.2022
1730 Clouds 3 1007 100 6000 2 50 17:56 28.04.2022
1731 Clouds 3 1007 100 10000 3.13 120 16:58 28.04.2022
1732 Clouds 3 1007 100 10000 3.13 130 16:21 28.04.2022
1733 Clouds 3 1007 100 10000 2 80 15:52 28.04.2022
1734 Rain 3 1008 100 10000 4.02 20 15:21 28.04.2022
1735 Rain 4 1008 100 9000 3.13 350 13:43 28.04.2022
1736 Clouds 5 1009 93 10000 2 290 12:32 28.04.2022
1737 Clouds 5 1009 93 10000 3.13 260 11:51 28.04.2022
1738 Clouds 5 1009 93 10000 5 260 10:29 28.04.2022
1739 Clouds 6 1009 93 10000 6 260 09:50 28.04.2022
1740 Mist 6 1009 100 4300 7.15 250 07:45 28.04.2022
1741 Mist 7 1007 100 3200 6 250 06:54 28.04.2022
1742 Mist 7 1007 100 2400 7.15 260 05:54 28.04.2022
1743 Fog 8 1006 100 550 5 240 04:43 28.04.2022
1744 Fog 8 1006 100 150 1 0 03:28 28.04.2022
1745 Fog 8 1006 100 300 2 140 23:43 27.04.2022
1746 Fog 8 1007 100 100 1 0 22:25 27.04.2022
1747 Fog 8 1007 100 100 0 0 21:50 27.04.2022
1748 Fog 9 1007 100 200 2 160 20:51 27.04.2022
1749 Rain 9 1008 93 200 3.13 170 20:32 27.04.2022
1750 Fog 8 1008 100 150 1.79 170 19:36 27.04.2022
1751 Fog 8 1008 100 600 2 170 18:45 27.04.2022
1752 Rain 8 1008 100 4100 3.13 180 18:21 27.04.2022
1753 Fog 8 1008 93 10000 0 0 16:21 27.04.2022
1754 Clear 13 1007 58 10000 4 230 13:29 27.04.2022
1755 Clear 13 1007 54 10000 6 220 11:37 27.04.2022
1756 Clear 13 1007 54 10000 7 220 11:18 27.04.2022
1757 Rain 9 1007 61 10000 4 190 08:53 27.04.2022
1758 Clouds 9 1009 45 10000 5 190 06:44 27.04.2022
1759 Clear 5 1011 52 10000 5 180 03:30 27.04.2022
1760 Clear 1 1013 69 10000 3.13 140 01:27 27.04.2022
1761 Clear 1 1014 64 10000 3.13 140 00:35 27.04.2022
1762 Clear 2 1014 59 10000 4.02 150 23:24 26.04.2022
1763 Clear 2 1015 59 10000 4.02 160 22:52 26.04.2022
1764 Clear 2 1015 59 10000 4.02 140 22:32 26.04.2022
1765 Clear 1 1015 64 10000 3.13 130 21:25 26.04.2022
1766 Clear 1 1016 64 10000 4.02 130 20:40 26.04.2022
1767 Clear 1 1016 64 10000 4.02 130 20:40 26.04.2022
1768 Clear 1 1016 64 10000 4.02 120 19:48 26.04.2022
1769 Clear -1 1016 74 10000 3.13 110 19:26 26.04.2022
1770 Clear -1 1017 74 10000 0 0 18:40 26.04.2022
1771 Clear 0 1017 69 10000 0 0 17:50 26.04.2022
1772 Clear 4 1017 44 10000 2 360 16:19 26.04.2022
1773 Clear 5 1017 52 10000 4 350 13:58 26.04.2022
1774 Clear 5 1017 52 10000 5 340 13:29 26.04.2022
1775 Clear 4 1016 55 10000 4.02 360 11:32 26.04.2022
1776 Clear 4 1016 55 10000 5 10 10:31 26.04.2022
1777 Clear 4 1016 55 10000 5 350 08:47 26.04.2022
1778 Clear 3 1014 65 10000 4 360 05:46 26.04.2022
1779 Clear 1 1014 74 10000 4.02 360 04:23 26.04.2022
1780 Clear -1 1012 86 10000 2 50 00:53 26.04.2022
1781 Clear 0 1011 80 10000 3.13 40 23:52 25.04.2022
1782 Clear 1 1011 74 10000 1 100 22:18 25.04.2022
1783 Clear 3 1011 64 10000 2 80 21:33 25.04.2022
1784 Clear 3 1011 64 10000 3.13 90 20:26 25.04.2022
1785 Clear 4 1011 60 10000 3 70 18:52 25.04.2022
1786 Clear 4 1011 60 10000 3 80 17:40 25.04.2022
1787 Clear 5 1011 56 10000 3 70 16:50 25.04.2022
1788 Clear 7 1011 53 10000 4 70 15:23 25.04.2022
1789 Clear 10 1011 37 10000 2 90 14:34 25.04.2022
1790 Clear 11 1011 25 10000 3 300 13:21 25.04.2022
1791 Clear 10 1011 32 10000 3 210 10:44 25.04.2022
1792 Clear 9 1011 34 10000 2 220 09:42 25.04.2022
1793 Clear 7 1011 42 10000 3 220 07:56 25.04.2022
1794 Clear 5 1012 48 10000 3 220 05:55 25.04.2022
1795 Clear 3 1012 55 10000 5 250 01:49 25.04.2022
1796 Clear 3 1013 51 10000 4.02 220 23:57 24.04.2022
1797 Clear 3 1013 51 10000 4.02 220 23:28 24.04.2022
1798 Clear 3 1013 51 10000 4.02 220 22:39 24.04.2022
1799 Clear 2 1014 55 10000 3.13 190 21:56 24.04.2022
1800 Clear 2 1014 55 10000 2 200 21:22 24.04.2022
1801 Clear 2 1014 55 10000 2 200 21:22 24.04.2022
1802 Clear 3 1014 47 10000 2 210 20:46 24.04.2022
1803 Clear 3 1015 51 10000 2 210 20:21 24.04.2022
1804 Clear 3 1016 51 10000 3.13 190 18:44 24.04.2022
1805 Clear 3 1016 47 10000 3.13 190 17:54 24.04.2022
1806 Clear 3 1016 47 10000 3.13 190 17:54 24.04.2022
1807 Clear 3 1017 47 10000 3.13 190 17:21 24.04.2022
1808 Clear 3 1017 47 10000 2 200 16:55 24.04.2022
1809 Clear 4 1017 48 10000 2 200 16:29 24.04.2022
1810 Clear 4 1017 45 10000 3 230 15:43 24.04.2022
1811 Clear 4 1018 41 10000 4 220 14:36 24.04.2022
1812 Clear 4 1018 38 10000 6 210 13:27 24.04.2022
1813 Clear 4 1018 38 10000 6 220 12:56 24.04.2022
1814 Clear 3 1019 40 10000 6 220 11:50 24.04.2022
1815 Clear 2 1020 40 10000 6 220 10:47 24.04.2022
1816 Clear 1 1020 43 10000 6 220 09:47 24.04.2022
1817 Clear -1 1021 46 10000 5 220 07:55 24.04.2022
1818 Clear -4 1022 58 10000 4.02 220 05:45 24.04.2022
1819 Clear -12 1023 85 10000 0 0 02:30 24.04.2022
1820 Clear -12 1022 78 10000 0 0 00:45 24.04.2022
1821 Clear -11 1023 85 10000 0 0 23:46 23.04.2022
1822 Clear -12 1023 92 10000 0 0 23:25 23.04.2022
1823 Clear -11 1023 85 10000 2 280 21:59 23.04.2022
1824 Clear -10 1022 79 10000 2 280 21:38 23.04.2022
1825 Clear -10 1023 85 10000 1 290 20:59 23.04.2022
1826 Clear -9 1023 78 10000 2 290 19:56 23.04.2022
1827 Clear -8 1023 72 10000 3.13 340 19:20 23.04.2022
1828 Clear -8 1023 72 10000 3.13 330 18:53 23.04.2022
1829 Clear -8 1023 72 10000 2 330 18:31 23.04.2022
1830 Clear -8 1023 72 10000 2 320 17:44 23.04.2022
1831 Clear -7 1023 73 10000 4.02 330 16:44 23.04.2022
1832 Clear -5 1023 62 10000 5 330 15:36 23.04.2022
1833 Clear -5 1022 62 10000 7.15 340 12:59 23.04.2022
1834 Clear -6 1022 67 10000 8.05 330 11:24 23.04.2022
1835 Clouds -7 1021 67 10000 8.05 330 09:38 23.04.2022
1836 Clouds -9 1020 72 10000 7.15 330 07:52 23.04.2022
1837 Snow -11 1018 78 7000 6 330 03:56 23.04.2022
1838 Snow -10 1018 85 2800 5 340 01:59 23.04.2022
1839 Snow -9 1017 78 3600 3.13 330 23:34 22.04.2022
1840 Snow -10 1017 85 5000 3.13 330 22:32 22.04.2022
1841 Snow -10 1017 85 5000 3.13 320 21:44 22.04.2022
1842 Snow -11 1017 85 8000 4.02 320 21:20 22.04.2022
1843 Snow -11 1017 78 7000 4.02 310 20:28 22.04.2022
1844 Clear -12 1017 85 10000 3.13 300 19:23 22.04.2022
1845 Clouds -12 1017 78 10000 3.13 290 18:52 22.04.2022
1846 Clouds -11 1017 66 10000 3.13 300 17:54 22.04.2022
1847 Clouds -10 1017 61 10000 3.13 320 16:52 22.04.2022
1848 Clouds -10 1016 56 10000 3.13 330 15:56 22.04.2022
1849 Clouds -9 1016 56 10000 4.02 340 15:22 22.04.2022
1850 Clouds -8 1016 52 10000 5 330 13:54 22.04.2022
1851 Snow -9 1015 61 10000 5 330 13:27 22.04.2022
1852 Snow -9 1015 61 1100 6 320 12:29 22.04.2022
1853 Snow -9 1014 61 9000 5 330 11:22 22.04.2022
1854 Snow -10 1014 66 7000 6 320 10:52 22.04.2022
1855 Snow -10 1014 72 8000 7.15 300 10:31 22.04.2022
1856 Clouds -9 1013 61 10000 7.15 290 09:53 22.04.2022
1857 Snow -10 1013 66 7000 6 320 08:56 22.04.2022
1858 Snow -10 1012 61 5000 7.15 290 07:44 22.04.2022
1859 Snow -11 1011 72 10000 7.15 310 05:20 22.04.2022
1860 Clouds -11 1011 78 10000 5 280 00:53 22.04.2022
1861 Snow -11 1011 85 10000 5 280 23:28 21.04.2022
1862 Clouds -11 1011 78 10000 4.02 320 22:29 21.04.2022
1863 Snow -10 1012 85 6000 5 300 20:55 21.04.2022
1864 Snow -10 1012 78 10000 4.02 290 20:26 21.04.2022
1865 Snow -10 1012 72 9000 4.02 300 18:48 21.04.2022
1866 Clouds -10 1013 72 10000 4.02 290 18:19 21.04.2022
1867 Snow -10 1013 78 6000 5 330 16:49 21.04.2022
1868 Clouds -8 1012 61 10000 6 350 15:23 21.04.2022
1869 Snow -8 1012 61 10000 5 330 14:51 21.04.2022
1870 Snow -8 1012 67 6000 6 340 13:52 21.04.2022
1871 Snow -8 1012 72 9000 7.15 350 13:19 21.04.2022
1872 Clouds -7 1012 52 10000 7.15 350 11:25 21.04.2022
1873 Clouds -7 1011 52 10000 7.15 350 08:59 21.04.2022
1874 Clouds -7 1011 67 10000 6 10 07:55 21.04.2022
1875 Clear -7 1011 57 10000 5 10 06:21 21.04.2022
1876 Clear -7 1010 73 10000 3.13 50 03:35 21.04.2022
1877 Clear -7 1010 73 10000 3.13 30 02:48 21.04.2022
1878 Clear -7 1010 73 10000 3.13 20 01:50 21.04.2022
1879 Clear -6 1010 67 10000 3.13 40 23:53 20.04.2022
1880 Clear -6 1010 73 10000 3.13 40 23:23 20.04.2022
1881 Clear -5 1010 74 10000 3 30 22:51 20.04.2022
1882 Clear -5 1009 73 10000 4.02 30 22:32 20.04.2022
1883 Clouds -3 1009 68 10000 6 30 21:33 20.04.2022
1884 Clouds -2 1009 80 10000 5 30 20:42 20.04.2022
1885 Clouds -1 1008 80 10000 4 350 19:53 20.04.2022
1886 Clouds -1 1008 80 10000 5 360 19:25 20.04.2022
1887 Snow -1 1008 92 4600 6 360 18:33 20.04.2022
1888 Clouds 1 1007 93 9000 6 340 16:58 20.04.2022
1889 Rain 1 1007 93 10000 5.81 340 16:38 20.04.2022
1890 Clouds 4 1007 69 10000 5 300 14:48 20.04.2022
1891 Clear 5 1007 60 10000 7 270 11:56 20.04.2022
1892 Clear 4 1007 64 10000 8.05 280 11:29 20.04.2022
1893 Clouds 4 1007 64 10000 8.05 280 10:27 20.04.2022
1894 Clouds 5 1007 60 10000 5 250 09:26 20.04.2022
1895 Clouds 4 1008 64 10000 5 250 08:24 20.04.2022
1896 Clouds 4 1008 64 10000 5 250 08:24 20.04.2022
1897 Clouds 4 1008 64 10000 5 270 07:42 20.04.2022
1898 Clear 3 1009 74 10000 4.92 280 04:37 20.04.2022
1899 Clear 2 1010 74 10000 3.13 280 00:55 20.04.2022
1900 Clear 2 1010 69 10000 3.13 280 00:20 20.04.2022
1901 Clear 2 1011 69 10000 3.13 280 22:28 19.04.2022
1902 Clear 2 1012 69 10000 3.13 270 21:57 19.04.2022
1903 Clear 2 1012 74 10000 3.13 280 21:34 19.04.2022
1904 Clear 2 1012 69 10000 3.13 280 20:50 19.04.2022
1905 Clear 3 1012 59 10000 4.02 260 20:32 19.04.2022
1906 Clear 3 1013 64 10000 3.13 280 19:24 19.04.2022
1907 Clear 4 1013 51 10000 2 280 17:59 19.04.2022
1908 Clear 4 1013 55 10000 0 0 16:44 19.04.2022
1909 Clear 5 1014 48 10000 1 300 16:24 19.04.2022
1910 Clear 6 1014 45 10000 4 290 14:51 19.04.2022
1911 Clear 6 1015 52 10000 4 290 14:30 19.04.2022
1912 Clear 5 1015 48 10000 6 280 12:51 19.04.2022
1913 Clear 5 1015 52 10000 5 270 12:26 19.04.2022
1914 Clear 4 1015 55 10000 6 280 11:22 19.04.2022
1915 Clear 4 1016 51 10000 5 240 09:25 19.04.2022
1916 Clear 2 1016 64 10000 6 280 06:34 19.04.2022
1917 Clear 2 1015 59 10000 6 260 04:19 19.04.2022
1918 Clear 2 1016 64 10000 5 250 00:56 19.04.2022
1919 Clear 2 1016 64 10000 6 270 23:38 18.04.2022
1920 Clear 2 1017 64 10000 6 260 21:39 18.04.2022
1921 Clear 2 1017 64 10000 6 260 21:20 18.04.2022
1922 Clear 2 1017 64 10000 5 260 20:36 18.04.2022
1923 Clear 2 1018 59 10000 5 250 19:59 18.04.2022
1924 Clear 2 1018 59 10000 5 250 19:27 18.04.2022
1925 Clear 1 1018 64 10000 4.02 250 18:33 18.04.2022
1926 Clear 2 1018 55 10000 3.13 240 17:38 18.04.2022
1927 Clear 2 1018 55 10000 3.13 240 17:18 18.04.2022
1928 Clear 3 1018 51 10000 5 250 16:35 18.04.2022
1929 Clear 3 1018 51 10000 5 250 16:35 18.04.2022
1930 Clear 3 1019 51 10000 7.15 280 15:27 18.04.2022
1931 Clear 3 1020 48 10000 6 250 13:42 18.04.2022
1932 Clear 3 1020 48 10000 6 250 13:42 18.04.2022
1933 Clouds 3 1020 51 10000 6 240 12:40 18.04.2022
1934 Clouds 2 1021 51 10000 7.15 260 11:43 18.04.2022
1935 Clouds 1 1021 50 10000 7.15 290 10:43 18.04.2022
1936 Clouds 1 1021 50 10000 6 270 09:31 18.04.2022
1937 Clouds 1 1022 64 10000 4.02 230 08:29 18.04.2022
1938 Clouds -2 1022 68 10000 3.13 210 05:58 18.04.2022
1939 Clear -9 1021 92 10000 0 0 01:37 18.04.2022
1940 Clear -9 1021 92 10000 0 0 22:44 17.04.2022
1941 Clear -9 1021 92 10000 0 0 21:51 17.04.2022
1942 Clear -9 1020 92 10000 0 0 21:32 17.04.2022
1943 Clear -8 1021 85 10000 0 0 20:50 17.04.2022
1944 Clear -8 1020 92 10000 1 0 19:53 17.04.2022
1945 Clear -6 1020 79 10000 1 0 18:32 17.04.2022
1946 Clear -3 1020 68 10000 4.02 310 16:33 17.04.2022
1947 Clouds -3 1019 68 10000 5 310 15:32 17.04.2022
1948 Clouds -2 1019 68 10000 6 310 14:28 17.04.2022
1949 Clouds -2 1018 74 10000 6 320 13:20 17.04.2022
1950 Clouds -2 1018 74 10000 6 290 12:29 17.04.2022
1951 Snow -3 1017 79 7000 6 290 10:48 17.04.2022
1952 Snow -3 1016 86 3000 6 300 10:29 17.04.2022
1953 Snow -4 1016 85 4800 6 290 09:49 17.04.2022
1954 Snow -4 1015 85 1800 5 300 08:54 17.04.2022
1955 Snow -4 1015 79 2400 6 320 08:26 17.04.2022
1956 Snow -3 1013 79 9000 5 320 04:52 17.04.2022
1957 Clouds -3 1011 79 10000 4.92 320 01:40 17.04.2022
1958 Clouds -3 1010 79 10000 4.02 330 23:59 16.04.2022
1959 Clouds -2 1009 79 10000 6 330 22:50 16.04.2022
1960 Clouds -1 1008 80 10000 6 330 21:42 16.04.2022
1961 Clouds 0 1007 80 10000 6 310 20:45 16.04.2022
1962 Clouds 1 1007 86 10000 6 290 19:20 16.04.2022
1963 Clouds 1 1006 93 10000 6 280 18:32 16.04.2022
1964 Clouds 2 1005 86 10000 7 260 16:41 16.04.2022
1965 Clouds 3 1004 80 10000 7.15 260 15:46 16.04.2022
1966 Clouds 3 1004 80 10000 9 260 14:57 16.04.2022
1967 Clouds 3 1003 86 10000 9 280 13:58 16.04.2022
1968 Clouds 3 1003 86 10000 9 260 13:40 16.04.2022
1969 Clouds 6 1000 81 10000 9 250 12:33 16.04.2022
1970 Clouds 10 999 62 7000 8 250 11:19 16.04.2022
1971 Clouds 11 997 43 6000 6 210 09:59 16.04.2022
1972 Clouds 11 997 43 6000 6 200 09:18 16.04.2022
1973 Clouds 10 997 42 7000 5 160 08:31 16.04.2022
1974 Clouds 7 999 56 6000 3.13 70 06:59 16.04.2022
1975 Haze 9 1002 43 5000 4 170 03:48 16.04.2022
1976 Haze 10 1005 46 5000 3 190 00:35 16.04.2022
1977 Clouds 10 1005 50 6000 3 180 23:27 15.04.2022
1978 Clouds 11 1006 50 7000 4 190 22:37 15.04.2022
1979 Clouds 11 1006 58 8000 4 180 21:58 15.04.2022
1980 Clouds 12 1007 54 9000 5 190 21:18 15.04.2022
1981 Clouds 12 1007 54 9000 5 190 21:18 15.04.2022
1982 Clouds 12 1007 54 9000 5 190 21:18 15.04.2022
1983 Clear 11 1008 66 10000 3 170 20:27 15.04.2022
1984 Clear 9 1008 75 10000 3.13 140 19:40 15.04.2022
1985 Clear 10 1009 71 10000 2 140 18:54 15.04.2022
1986 Clear 9 1010 76 10000 2 150 18:25 15.04.2022
1987 Clear 9 1010 76 10000 3 150 17:48 15.04.2022
1988 Clear 9 1011 81 10000 2 150 17:21 15.04.2022
1989 Clear 9 1011 81 10000 3 130 16:23 15.04.2022
1990 Clear 9 1012 87 10000 3 110 15:24 15.04.2022
1991 Clouds 8 1013 100 10000 3.13 130 13:42 15.04.2022
1992 Rain 8 1015 93 5000 3.13 150 12:43 15.04.2022
1993 Rain 9 1015 81 9000 3 170 11:58 15.04.2022
1994 Rain 10 1015 76 9000 3 140 11:35 15.04.2022
1995 Rain 10 1015 76 10000 1 0 10:45 15.04.2022
1996 Rain 12 1015 54 10000 3 180 09:47 15.04.2022
1997 Clear 11 1016 58 10000 4 230 09:21 15.04.2022
1998 Clear 10 1016 62 10000 4 220 07:53 15.04.2022
1999 Clear 7 1016 70 10000 3.13 220 06:37 15.04.2022
2000 Clouds 2 1016 93 9000 2 240 03:21 15.04.2022
2001 Clear 4 1015 80 10000 3.13 250 23:32 14.04.2022
2002 Clear 3 1015 80 10000 3.13 270 22:49 14.04.2022
2003 Clear 4 1014 75 10000 4.02 260 22:31 14.04.2022
2004 Clear 5 1014 75 10000 3.13 250 21:59 14.04.2022
2005 Clear 5 1014 70 10000 2 240 20:57 14.04.2022
2006 Clear 8 1014 57 10000 3 230 19:23 14.04.2022
2007 Clouds 8 1014 61 10000 3 190 18:30 14.04.2022
2008 Clouds 8 1015 61 10000 4 170 17:44 14.04.2022
2009 Rain 8 1015 61 10000 3 160 17:44 14.04.2022
2010 Clouds 6 1015 81 10000 1 0 16:46 14.04.2022
2011 Clouds 7 1016 81 10000 3.13 120 15:28 14.04.2022
2012 Rain 10 1017 53 10000 6 190 13:47 14.04.2022
2013 Clear 11 1017 43 10000 4 160 12:58 14.04.2022
2014 Clear 12 1017 40 10000 6 180 12:31 14.04.2022
2015 Clear 11 1018 43 10000 3 160 11:30 14.04.2022
2016 Clear 11 1019 43 10000 4 150 10:54 14.04.2022
2017 Clear 10 1019 43 10000 5 150 10:27 14.04.2022
2018 Clear 10 1020 43 10000 4 150 09:25 14.04.2022
2019 Clear 8 1022 46 10000 3 150 07:33 14.04.2022
2020 Clouds 4 1024 51 10000 2 140 04:28 14.04.2022
2021 Clear 4 1026 45 10000 2 200 23:29 13.04.2022
2022 Clear 5 1027 42 10000 2 190 22:24 13.04.2022
2023 Clear 5 1027 42 10000 0 0 21:42 13.04.2022
2024 Clear 6 1027 39 10000 2 210 20:24 13.04.2022
2025 Clear 6 1027 39 10000 2 170 19:39 13.04.2022
2026 Clear 7 1028 36 10000 2 150 18:36 13.04.2022
2027 Clear 8 1028 34 10000 3 190 17:24 13.04.2022
2028 Clear 10 1028 27 10000 3 200 16:41 13.04.2022
2029 Clear 10 1028 27 10000 3 200 15:43 13.04.2022
2030 Clear 12 1028 26 10000 4 210 14:53 13.04.2022
2031 Clear 13 1028 24 10000 4 200 14:30 13.04.2022
2032 Clear 13 1029 26 10000 4 200 13:36 13.04.2022
2033 Clear 13 1029 26 10000 3 210 12:38 13.04.2022
2034 Clear 12 1030 28 10000 4 200 10:58 13.04.2022
2035 Clear 11 1030 30 10000 4 210 09:45 13.04.2022
2036 Clear 10 1030 32 10000 3 230 08:43 13.04.2022
2037 Clear 8 1030 36 10000 3 210 07:23 13.04.2022
2038 Clear 7 1030 39 10000 2 210 06:46 13.04.2022
2039 Clear 6 1030 42 10000 3 220 06:18 13.04.2022
2040 Clear 0 1030 63 10000 2 210 00:25 13.04.2022
2041 Clear 0 1030 63 10000 0 0 23:46 12.04.2022
2042 Clear 0 1030 69 10000 1 0 22:20 12.04.2022
2043 Clear 1 1030 59 10000 0 0 21:39 12.04.2022
2044 Clear 2 1030 59 10000 3.13 190 20:42 12.04.2022
2045 Clear 4 1030 52 10000 3 190 19:54 12.04.2022
2046 Clear 4 1030 52 10000 3 190 19:35 12.04.2022
2047 Clouds 4 1030 52 10000 3 190 18:50 12.04.2022
2048 Clouds 4 1030 52 10000 3 190 18:50 12.04.2022
2049 Clouds 5 1030 52 10000 2 190 17:36 12.04.2022
2050 Clouds 7 1030 42 10000 2 160 16:32 12.04.2022
2051 Clouds 9 1030 37 10000 2 150 15:33 12.04.2022
2052 Clear 10 1030 34 10000 3 200 14:33 12.04.2022
2053 Clear 10 1030 32 10000 4 210 13:39 12.04.2022
2054 Clear 10 1030 32 10000 3 220 12:59 12.04.2022
2055 Clear 10 1031 32 10000 4 220 11:47 12.04.2022
2056 Clear 9 1031 34 10000 4 230 11:24 12.04.2022
2057 Clear 8 1031 39 10000 3 210 09:25 12.04.2022
2058 Clear 7 1031 42 10000 3 240 08:18 12.04.2022
2059 Clear 4 1031 51 10000 3.13 220 06:33 12.04.2022
2060 Clear 2 1031 55 10000 3.13 220 05:36 12.04.2022
2061 Clear -1 1031 63 10000 0 0 01:47 12.04.2022
2062 Clear 0 1031 59 10000 2 220 23:19 11.04.2022
2063 Clear 2 1031 51 10000 2 240 21:50 11.04.2022
2064 Clear 3 1031 48 10000 2 230 21:18 11.04.2022
2065 Clear 3 1030 48 10000 3 200 20:30 11.04.2022
2066 Clear 3 1030 48 10000 3 200 19:57 11.04.2022
2067 Clear 4 1030 45 10000 3 200 19:22 11.04.2022
2068 Clear 5 1031 45 10000 3 200 18:49 11.04.2022
2069 Clear 5 1030 45 10000 3 200 17:57 11.04.2022
2070 Clear 6 1030 45 10000 3 190 16:57 11.04.2022
2071 Clear 7 1030 42 10000 3 190 16:20 11.04.2022
2072 Clear 8 1031 36 10000 4 200 14:36 11.04.2022
2073 Clear 8 1031 34 10000 5 210 12:54 11.04.2022
2074 Clear 8 1031 36 10000 6 220 12:35 11.04.2022
2075 Clear 7 1031 39 10000 4 230 11:42 11.04.2022
2076 Clear 7 1032 36 10000 6 230 10:34 11.04.2022
2077 Clear 6 1032 42 10000 6 210 09:22 11.04.2022
2078 Clear 3 1032 47 10000 4.02 220 07:19 11.04.2022
2079 Clear -2 1032 50 10000 3.13 200 02:32 11.04.2022
2080 Clear -2 1033 54 10000 3.13 200 22:54 10.04.2022
2081 Clear -1 1033 50 10000 3.13 200 22:26 10.04.2022
2082 Clear -1 1033 50 10000 2 200 21:33 10.04.2022
2083 Clear -1 1033 50 10000 3.13 190 20:33 10.04.2022
2084 Clear -1 1033 50 10000 2 200 19:45 10.04.2022
2085 Clear -2 1033 58 10000 2 160 19:23 10.04.2022
2086 Clear -2 1033 58 10000 2 160 18:45 10.04.2022
2087 Clear -3 1033 63 10000 2 150 17:55 10.04.2022
2088 Clear -2 1033 58 10000 2 140 17:35 10.04.2022
2089 Clear -1 1033 54 10000 2 140 16:25 10.04.2022
2090 Clear 0 1033 46 10000 3.13 160 15:20 10.04.2022
2091 Clear 0 1033 46 10000 3.13 140 14:22 10.04.2022
2092 Clear 0 1034 43 10000 2 170 12:35 10.04.2022
2093 Clear 0 1034 39 10000 3.13 180 11:49 10.04.2022
2094 Clear -1 1034 42 10000 3.13 200 11:29 10.04.2022
2095 Clear -1 1034 39 10000 3.13 210 10:54 10.04.2022
2096 Clear -1 1034 39 10000 3.13 210 10:54 10.04.2022
2097 Clear -2 1035 46 10000 3.13 190 09:56 10.04.2022
2098 Clear -2 1035 46 10000 3.13 180 09:28 10.04.2022
2099 Clear -4 1035 53 10000 3.13 170 08:22 10.04.2022
2100 Clear -5 1035 53 10000 2 170 07:21 10.04.2022
2101 Clear -9 1035 72 10000 1 0 05:27 10.04.2022
2102 Clear -19 1033 77 10000 0 0 02:21 10.04.2022
2103 Clear -18 1032 84 10000 2 290 00:25 10.04.2022
2104 Clear -17 1032 84 10000 1 280 23:43 09.04.2022
2105 Clear -19 1031 77 10000 1 0 22:45 09.04.2022
2106 Clear -17 1031 77 10000 0 0 21:34 09.04.2022
2107 Clear -16 1030 91 10000 1 300 20:48 09.04.2022
2108 Clear -15 1030 78 10000 0 0 20:25 09.04.2022
2109 Clear -14 1030 85 10000 1 290 19:41 09.04.2022
2110 Clear -14 1030 85 10000 0 0 18:55 09.04.2022
2111 Clear -14 1030 85 10000 0 0 18:19 09.04.2022
2112 Clear -12 1030 79 10000 2 340 17:34 09.04.2022
2113 Clear -10 1030 67 10000 2 350 16:47 09.04.2022
2114 Clear -8 1029 62 10000 2 340 15:55 09.04.2022
2115 Clear -7 1029 57 10000 3.13 340 15:28 09.04.2022
2116 Clear -7 1028 57 10000 3.13 350 14:27 09.04.2022
2117 Clear -7 1028 57 10000 3.13 10 13:54 09.04.2022
2118 Clear -7 1028 57 10000 4.02 320 12:59 09.04.2022
2119 Clear -7 1028 57 10000 4.02 320 12:34 09.04.2022
2120 Clear -8 1027 61 10000 4.02 340 11:21 09.04.2022
2121 Clear -8 1027 57 10000 3.13 330 10:20 09.04.2022
2122 Clear -9 1026 61 10000 3.13 340 09:37 09.04.2022
2123 Clear -9 1026 61 10000 4.02 20 08:50 09.04.2022
2124 Clear -13 1024 71 10000 3.13 340 05:58 09.04.2022
2125 Clear -16 1020 84 10000 3.13 350 01:31 09.04.2022
2126 Clear -14 1018 77 10000 3.13 330 23:25 08.04.2022
2127 Clear -12 1017 78 10000 4.02 330 21:58 08.04.2022
2128 Clear -11 1016 72 10000 4.02 340 20:47 08.04.2022
2129 Clear -11 1015 78 10000 3.13 320 19:58 08.04.2022
2130 Clear -10 1015 72 10000 3.13 330 19:18 08.04.2022
2131 Clear -10 1014 78 10000 4.02 330 18:28 08.04.2022
2132 Clear -9 1014 72 10000 4.02 330 17:45 08.04.2022
2133 Clear -9 1013 72 10000 4.02 320 17:22 08.04.2022
2134 Clear -9 1013 72 10000 5 330 16:38 08.04.2022
2135 Clear -8 1012 72 10000 6 330 15:53 08.04.2022
2136 Clouds -7 1011 67 10000 5 330 15:23 08.04.2022
2137 Snow -6 1010 79 5000 6 330 14:26 08.04.2022
2138 Snow -6 1010 79 2900 7.15 340 13:44 08.04.2022
2139 Clear -6 1009 73 10000 7.15 330 13:25 08.04.2022
2140 Clear -5 1007 73 10000 7.15 330 11:53 08.04.2022
2141 Clear -5 1005 73 10000 7.15 360 10:32 08.04.2022
2142 Snow -4 1004 73 10000 6 360 09:26 08.04.2022
2143 Snow -4 1003 85 5000 6 10 08:34 08.04.2022
2144 Snow -4 1002 92 2600 5 20 06:47 08.04.2022
2145 Snow -4 1002 92 2600 5 20 06:47 08.04.2022
2146 Snow -3 1001 92 1500 6 50 04:34 08.04.2022
2147 Snow -4 1002 92 1900 4.02 60 00:42 08.04.2022
2148 Snow -3 1002 79 1900 4.02 60 00:19 08.04.2022
2149 Clear -2 1003 74 10000 3.13 90 22:58 07.04.2022
2150 Clear -2 1003 74 10000 3.13 90 22:37 07.04.2022
2151 Clear -2 1003 74 10000 3.13 90 22:19 07.04.2022
2152 Clear -2 1004 68 10000 3.13 110 21:49 07.04.2022
2153 Clear -1 1004 68 10000 3.13 90 20:58 07.04.2022
2154 Clear -1 1005 63 10000 2 100 20:30 07.04.2022
2155 Clear -3 1006 68 10000 1 0 18:29 07.04.2022
2156 Clear -3 1006 68 10000 1 70 17:25 07.04.2022
2157 Clear -2 1006 68 10000 0.89 60 16:44 07.04.2022
2158 Clear 0 1006 59 10000 0 0 16:20 07.04.2022
2159 Clear 2 1007 51 10000 5 290 14:42 07.04.2022
2160 Clear 2 1007 51 10000 5 280 13:42 07.04.2022
2161 Clear 2 1008 43 10000 7.15 280 12:41 07.04.2022
2162 Clear 1 1008 43 10000 9 270 11:29 07.04.2022
2163 Clear 0 1008 50 10000 10 270 09:37 07.04.2022
2164 Clear 0 1008 50 10000 10 270 09:37 07.04.2022
2165 Clear -1 1007 50 10000 11.18 270 08:37 07.04.2022
2166 Clear -2 1007 54 10000 7.15 250 06:42 07.04.2022
2167 Clear -5 1005 67 10000 5 250 02:47 07.04.2022
2168 Clear -4 1005 62 10000 7.15 250 02:20 07.04.2022
2169 Clear -3 1005 63 10000 9 260 00:26 07.04.2022
2170 Clear -3 1004 58 10000 8.05 250 22:49 06.04.2022
2171 Clear -3 1004 63 10000 8.05 260 22:26 06.04.2022
2172 Clear -3 1004 63 10000 9 260 21:34 06.04.2022
2173 Clear -3 1004 68 10000 9 260 20:35 06.04.2022
2174 Clear -3 1003 68 10000 8.05 250 19:53 06.04.2022
2175 Clear -2 1003 63 10000 9 250 18:51 06.04.2022
2176 Clear -2 1003 68 10000 9 250 18:22 06.04.2022
2177 Clouds -2 1003 68 10000 9 250 17:35 06.04.2022
2178 Clear -2 1003 68 10000 9 250 16:38 06.04.2022
2179 Clouds -1 1002 68 10000 9 250 15:48 06.04.2022
2180 Clouds -1 1002 68 10000 11.18 260 14:57 06.04.2022
2181 Clouds -1 1001 68 10000 9 250 13:24 06.04.2022
2182 Snow -1 1001 74 4800 12.07 250 12:26 06.04.2022
2183 Snow 0 1000 69 10000 10 260 10:47 06.04.2022
2184 Clouds 0 999 69 10000 12.07 260 10:25 06.04.2022
2185 Snow 0 999 69 9000 11.18 250 09:40 06.04.2022
2186 Snow 0 999 69 9000 11.18 250 09:40 06.04.2022
2187 Clouds 0 998 74 10000 10 250 08:32 06.04.2022
2188 Clouds 0 998 69 10000 10 250 07:50 06.04.2022
2189 Clouds 2 994 74 10000 12.07 250 03:54 06.04.2022
2190 Clear 2 992 80 10000 8.05 220 23:53 05.04.2022
2191 Clear 3 993 80 10000 8.05 210 22:57 05.04.2022
2192 Clear 2 993 86 10000 7.15 210 21:23 05.04.2022
2193 Clear 3 993 80 10000 7.15 230 20:26 05.04.2022
2194 Clouds 3 992 86 10000 6 240 19:47 05.04.2022
2195 Clouds 4 992 93 10000 8.05 230 18:18 05.04.2022
2196 Rain 4 990 93 9000 5 230 16:54 05.04.2022
2197 Rain 6 990 81 9000 8.05 240 15:57 05.04.2022
2198 Rain 6 990 81 9000 8 240 15:34 05.04.2022
2199 Clouds 7 989 70 10000 2 190 14:36 05.04.2022
2200 Clear 7 989 70 10000 3 160 13:35 05.04.2022
2201 Clouds 6 991 75 10000 6 130 11:51 05.04.2022
2202 Clouds 6 991 75 10000 6 130 11:51 05.04.2022
2203 Clouds 5 992 80 10000 5 110 11:32 05.04.2022
2204 Clear 5 995 86 10000 6 120 09:59 05.04.2022
2205 Clear 6 996 75 10000 5 100 08:55 05.04.2022
2206 Clear 5 998 81 10000 4 110 07:22 05.04.2022
2207 Mist 4 1002 100 5000 3.13 180 01:58 05.04.2022
2208 Rain 4 1002 100 10000 3.13 190 22:44 04.04.2022
2209 Rain 4 1002 93 10000 3.13 190 22:26 04.04.2022
2210 Rain 5 1002 86 10000 5 200 21:21 04.04.2022
2211 Clouds 6 1002 75 10000 3 210 20:50 04.04.2022
2212 Clouds 5 1002 80 10000 3.13 190 19:58 04.04.2022
2213 Clouds 6 1002 75 10000 3 190 19:26 04.04.2022
2214 Clouds 5 1002 75 10000 3.13 190 18:33 04.04.2022
2215 Clouds 7 1002 70 10000 4 200 16:37 04.04.2022
2216 Clear 7 1001 70 10000 5 200 15:58 04.04.2022
2217 Clear 7 1001 70 10000 4 190 15:33 04.04.2022
2218 Clear 8 1001 66 10000 3 190 14:46 04.04.2022
2219 Clear 7 1000 76 10000 3 180 13:33 04.04.2022
2220 Clear 7 1001 70 10000 4 200 12:23 04.04.2022
2221 Clouds 5 1001 81 10000 4 190 11:29 04.04.2022
2222 Clouds 3 1001 93 10000 5 180 09:20 04.04.2022
2223 Rain 0 1003 100 10000 5 140 05:27 04.04.2022
2224 Clouds 0 1006 86 10000 7 150 02:41 04.04.2022
2225 Snow -2 1011 92 1400 7.15 130 22:47 03.04.2022
2226 Snow -2 1013 79 2400 7.15 150 21:48 03.04.2022
2227 Clouds -1 1014 63 10000 7.15 150 21:19 03.04.2022
2228 Clear -2 1015 54 10000 6 130 19:52 03.04.2022
2229 Clear -2 1017 54 10000 6 130 18:33 03.04.2022
2230 Clear -2 1017 50 10000 6 120 17:49 03.04.2022
2231 Clear -2 1018 50 10000 7.15 110 17:27 03.04.2022
2232 Clear -2 1019 50 10000 5 110 16:48 03.04.2022
2233 Clear -2 1020 50 10000 5 90 15:32 03.04.2022
2234 Clear -1 1020 46 10000 6 90 13:58 03.04.2022
2235 Clear -1 1021 50 10000 4.02 90 12:56 03.04.2022
2236 Clear -1 1021 46 10000 4.02 120 11:33 03.04.2022
2237 Clouds 0 1021 43 10000 2 90 09:40 03.04.2022
2238 Clouds 0 1021 43 10000 0 0 08:50 03.04.2022
2239 Clear -7 1020 62 10000 1 320 05:44 03.04.2022
2240 Clear -14 1020 85 10000 1 320 02:55 03.04.2022
2241 Clear -12 1019 85 10000 1 260 23:22 02.04.2022
2242 Clear -12 1019 85 10000 1 260 23:22 02.04.2022
2243 Clear -10 1019 73 10000 2 290 22:40 02.04.2022
2244 Clear -10 1019 73 10000 2 280 21:54 02.04.2022
2245 Clear -9 1019 73 10000 1 270 21:19 02.04.2022
2246 Clear -8 1019 73 10000 0 0 20:35 02.04.2022
2247 Clear -7 1018 68 10000 2 240 18:47 02.04.2022
2248 Clear -6 1018 63 10000 2 280 18:19 02.04.2022
2249 Clear -2 1018 54 10000 4 250 16:45 02.04.2022
2250 Clear 0 1018 51 10000 5 250 15:27 02.04.2022
2251 Clear 1 1017 44 10000 5 220 14:52 02.04.2022
2252 Clear 1 1017 43 10000 5 220 14:20 02.04.2022
2253 Clear 1 1017 37 10000 7.15 240 13:29 02.04.2022
2254 Clear 1 1017 40 10000 6 220 12:20 02.04.2022
2255 Clear -1 1017 42 10000 5 220 10:22 02.04.2022
2256 Clear -4 1017 53 10000 4.02 210 07:48 02.04.2022
2257 Clear -11 1016 78 10000 3.13 250 04:34 02.04.2022
2258 Clear -13 1014 78 10000 2 250 01:21 02.04.2022
2259 Clear -13 1014 85 10000 2 270 23:54 01.04.2022
2260 Clear -13 1014 78 10000 0 0 22:46 01.04.2022
2261 Clear -12 1014 79 10000 0 0 20:55 01.04.2022
2262 Clear -11 1014 73 10000 0 0 20:35 01.04.2022
2263 Clear -11 1014 73 10000 0 0 19:45 01.04.2022
2264 Clear -10 1014 73 10000 0 0 19:25 01.04.2022
2265 Clear -10 1014 67 10000 0 0 18:37 01.04.2022
2266 Clear -8 1015 62 10000 2 290 17:38 01.04.2022
2267 Clear -3 1015 46 10000 2 230 15:46 01.04.2022
2268 Clear -1 1016 40 10000 4 230 14:53 01.04.2022
2269 Clear -1 1016 39 10000 5 240 13:40 01.04.2022
2270 Clear -1 1017 42 10000 6 250 13:20 01.04.2022
2271 Clear -1 1017 46 10000 7.15 240 12:24 01.04.2022
2272 Clear -1 1017 50 10000 6 260 10:50 01.04.2022
2273 Clear -2 1017 54 10000 8.05 250 09:39 01.04.2022
2274 Clear -5 1017 57 10000 5.81 250 07:41 01.04.2022
2275 Clear -7 1016 62 10000 5 250 05:38 01.04.2022
2276 Clear -9 1016 72 10000 4.02 250 04:41 01.04.2022
2277 Clear -11 1015 79 10000 3 250 03:18 01.04.2022
2278 Clear -11 1014 78 10000 3 250 01:35 01.04.2022
2279 Clear -9 1014 72 10000 2 230 22:31 31.03.2022
2280 Clear -8 1014 67 10000 4 240 21:44 31.03.2022
2281 Clear -8 1014 67 10000 3 230 20:51 31.03.2022
2282 Clear -8 1014 67 10000 3.13 220 20:28 31.03.2022
2283 Clear -8 1014 67 10000 3.13 220 19:43 31.03.2022
2284 Clear -7 1014 67 10000 3.13 230 18:34 31.03.2022
2285 Clear -4 1014 58 10000 6 240 16:53 31.03.2022
2286 Clouds -4 1013 58 10000 6 250 15:56 31.03.2022
2287 Clouds -3 1013 53 10000 8.05 250 15:29 31.03.2022
2288 Clouds -3 1012 58 10000 8.94 250 14:48 31.03.2022
2289 Clouds -2 1012 54 10000 12 250 13:42 31.03.2022
2290 Clouds -3 1010 73 6000 11.18 270 11:31 31.03.2022
2291 Snow -3 1009 86 900 10 250 10:26 31.03.2022
2292 Snow -3 1008 79 4800 9 260 09:39 31.03.2022
2293 Clouds -4 1005 73 6000 12.07 280 07:48 31.03.2022
2294 Snow -2 993 92 500 5 150 02:33 31.03.2022
2295 Clouds -4 1000 92 10000 3.13 120 23:25 30.03.2022
2296 Clouds -4 1002 92 10000 4.02 190 21:57 30.03.2022
2297 Clouds -4 1002 85 10000 3.13 200 21:31 30.03.2022
2298 Clouds -4 1002 85 10000 5 210 20:44 30.03.2022
2299 Clouds -3 1003 86 10000 6 200 19:47 30.03.2022
2300 Clear -4 1003 85 10000 6 220 18:41 30.03.2022
2301 Clear -4 1002 85 10000 7.15 230 17:51 30.03.2022
2302 Clear -4 1002 79 10000 6 230 17:20 30.03.2022
2303 Clouds -3 1002 68 10000 6 240 16:40 30.03.2022
2304 Clouds -3 1001 68 10000 8.05 240 15:55 30.03.2022
2305 Snow -1 999 63 10000 10 250 14:35 30.03.2022
2306 Snow -1 998 86 4500 10 250 13:22 30.03.2022
2307 Snow 0 997 92 1000 7.15 220 12:22 30.03.2022
2308 Snow 0 996 92 1600 4.02 190 10:48 30.03.2022
2309 Snow 0 996 86 1400 4.02 160 09:55 30.03.2022
2310 Snow -1 997 86 4200 4.92 130 08:21 30.03.2022
2311 Snow -1 997 86 1900 5 120 06:50 30.03.2022
2312 Clouds -2 998 86 10000 5 130 05:40 30.03.2022
2313 Clear -2 1001 86 10000 5 120 01:48 30.03.2022
2314 Clear -1 1003 86 10000 4.02 140 22:39 29.03.2022
2315 Clear -1 1003 86 10000 4.02 150 21:48 29.03.2022
2316 Clear -1 1004 86 10000 3.13 150 21:28 29.03.2022
2317 Clear -1 1004 86 10000 4.02 150 20:25 29.03.2022
2318 Clouds 0 1004 80 10000 4.02 150 19:31 29.03.2022
2319 Clouds 1 1005 80 10000 4.02 160 18:53 29.03.2022
2320 Clouds 1 1005 80 10000 4.02 160 17:52 29.03.2022
2321 Clouds 1 1005 80 10000 5 160 17:18 29.03.2022
2322 Clouds 1 1005 80 10000 5 160 16:52 29.03.2022
2323 Clouds 2 1005 69 10000 4.02 160 15:29 29.03.2022
2324 Clouds 2 1005 69 10000 5 170 14:43 29.03.2022
2325 Clouds 2 1005 69 10000 5 170 13:34 29.03.2022
2326 Clouds 2 1005 69 10000 5 200 12:21 29.03.2022
2327 Clouds 2 1005 69 10000 7.15 190 10:59 29.03.2022
2328 Clear 2 1006 64 10000 5 160 09:51 29.03.2022
2329 Clear 1 1006 69 10000 5.81 150 08:43 29.03.2022
2330 Clear -2 1006 79 10000 5 160 06:21 29.03.2022
2331 Clear -4 1005 79 10000 4.02 180 02:19 29.03.2022
2332 Clear -2 1005 68 10000 4.02 170 23:26 28.03.2022
2333 Clear -2 1005 68 10000 4.02 170 23:26 28.03.2022
2334 Clear -2 1005 68 10000 4.02 170 23:26 28.03.2022
2335 Clear -2 1005 68 10000 4.02 180 22:56 28.03.2022
2336 Clear -2 1005 68 10000 4.02 180 22:31 28.03.2022
2337 Clear -2 1006 68 10000 3.13 170 21:38 28.03.2022
2338 Clear -2 1006 63 10000 3.13 170 20:32 28.03.2022
2339 Clear -2 1006 58 10000 4.02 170 19:48 28.03.2022
2340 Clear -2 1006 58 10000 4.02 170 19:30 28.03.2022
2341 Clear -2 1006 54 10000 4.02 160 18:44 28.03.2022
2342 Clear -2 1007 54 10000 4.02 160 17:41 28.03.2022
2343 Clear -1 1007 50 10000 5 170 16:47 28.03.2022
2344 Clear 0 1006 43 10000 5 160 14:53 28.03.2022
2345 Clear 0 1006 43 10000 6 160 14:23 28.03.2022
2346 Clear 0 1007 43 10000 6 150 13:18 28.03.2022
2347 Clear -1 1007 42 10000 6 150 11:43 28.03.2022
2348 Clear -3 1008 45 10000 5 150 09:55 28.03.2022
2349 Clear -4 1008 49 10000 5 150 09:20 28.03.2022
2350 Clear -5 1009 49 10000 5 150 08:23 28.03.2022
2351 Clear -6 1009 53 10000 5 150 07:56 28.03.2022
2352 Clear -9 1010 56 10000 4.02 170 05:55 28.03.2022
2353 Clear -7 1010 48 10000 4.02 180 00:19 28.03.2022
2354 Clear -7 1011 44 10000 3.13 180 22:34 27.03.2022
2355 Clear -6 1011 42 10000 3 180 21:42 27.03.2022
2356 Clear -6 1011 45 10000 3.13 180 20:58 27.03.2022
2357 Clear -6 1011 41 10000 3.13 190 20:21 27.03.2022
2358 Clear -5 1011 39 10000 5 190 19:36 27.03.2022
2359 Clear -5 1011 39 10000 4 190 18:30 27.03.2022
2360 Clear -5 1011 39 10000 4 190 17:55 27.03.2022
2361 Clear -5 1011 39 10000 4 190 17:35 27.03.2022
2362 Clear -5 1011 39 10000 4 190 17:35 27.03.2022
2363 Clear -4 1011 33 10000 3 190 15:47 27.03.2022
2364 Clear -3 1011 33 10000 5 200 13:57 27.03.2022
2365 Clear -2 1012 30 10000 6 190 12:58 27.03.2022
2366 Clear -3 1011 33 10000 6 180 11:30 27.03.2022
2367 Clear -5 1012 38 10000 6 200 09:37 27.03.2022
2368 Clear -8 1012 48 10000 5 220 06:54 27.03.2022
2369 Clear -11 1012 56 10000 4.02 200 01:55 27.03.2022
2370 Clear -10 1012 56 10000 4.02 220 00:25 27.03.2022
2371 Clear -10 1012 56 10000 4.02 220 22:45 26.03.2022
2372 Clear -11 1012 61 10000 3.13 220 21:50 26.03.2022
2373 Clear -11 1013 61 10000 3.13 210 21:28 26.03.2022
2374 Clear -9 1012 52 10000 3.13 240 19:31 26.03.2022
2375 Clear -8 1012 52 10000 5 240 18:40 26.03.2022
2376 Clear -8 1012 57 10000 5 240 17:34 26.03.2022
2377 Clear -7 1011 57 10000 5 250 16:30 26.03.2022
2378 Clear -6 1011 53 10000 5.81 250 15:35 26.03.2022
2379 Clouds -5 1012 53 10000 9 260 13:55 26.03.2022
2380 Clouds -5 1011 53 10000 10 250 13:19 26.03.2022
2381 Clouds -5 1011 57 10000 11.18 270 11:42 26.03.2022
2382 Clouds -5 1010 57 10000 11.18 260 10:32 26.03.2022
2383 Clouds -7 1010 62 10000 9 260 08:46 26.03.2022
2384 Clouds -10 1010 66 10000 8.05 290 06:37 26.03.2022
2385 Clouds -12 1009 72 10000 9 290 05:29 26.03.2022
2386 Clouds -14 1004 77 10000 10 290 00:41 26.03.2022
2387 Snow -11 999 85 2500 9 290 21:56 25.03.2022
2388 Snow -10 998 78 2200 10 300 20:46 25.03.2022
2389 Snow -10 998 78 3000 10 290 20:20 25.03.2022
2390 Snow -9 996 85 2400 10 280 18:59 25.03.2022
2391 Snow -9 995 85 1800 10 290 17:53 25.03.2022
2392 Snow -8 995 78 1800 11.18 290 17:27 25.03.2022
2393 Snow -7 994 85 3600 11.18 290 16:21 25.03.2022
2394 Snow -5 992 79 9000 10 290 14:54 25.03.2022
2395 Clouds -3 990 86 4800 13 280 13:26 25.03.2022
2396 Snow -1 989 86 1600 6 220 10:35 25.03.2022
2397 Snow -2 989 86 3700 5 200 09:28 25.03.2022
2398 Snow -3 990 86 2500 5 200 08:36 25.03.2022
2399 Snow -3 991 86 1700 7.15 180 07:30 25.03.2022
2400 Snow -4 992 85 1900 7.15 180 06:29 25.03.2022
2401 Snow -4 992 85 1900 7.15 180 06:29 25.03.2022
2402 Snow -7 1001 85 4000 5 170 01:57 25.03.2022
2403 Clear -8 1004 85 10000 3.13 190 22:56 24.03.2022
2404 Clear -8 1005 85 10000 3.13 200 21:52 24.03.2022
2405 Clear -9 1006 85 10000 3 220 20:40 24.03.2022
2406 Clear -9 1006 85 10000 3.13 230 19:48 24.03.2022
2407 Clear -12 1006 92 10000 1 250 18:22 24.03.2022
2408 Clear -11 1006 85 10000 2 250 17:29 24.03.2022
2409 Clouds -8 1005 79 10000 3 280 15:52 24.03.2022
2410 Clouds -6 1005 73 10000 4 290 14:50 24.03.2022
2411 Clear -6 1005 73 10000 4 290 14:20 24.03.2022
2412 Clouds -4 1004 68 10000 4.02 320 13:24 24.03.2022
2413 Clouds -3 1002 79 10000 5 340 11:59 24.03.2022
2414 Clouds -3 1001 79 10000 4.02 330 10:28 24.03.2022
2415 Snow -3 999 79 10000 4.02 330 09:22 24.03.2022
2416 Clouds -3 998 86 10000 5 310 07:39 24.03.2022
2417 Clouds -7 995 92 10000 2 280 04:34 24.03.2022
2418 Clouds -7 993 93 10000 1 0 23:21 23.03.2022
2419 Snow -7 993 92 9000 1 0 21:53 23.03.2022
2420 Snow -8 993 92 5000 1 0 21:20 23.03.2022
2421 Clouds -9 994 92 10000 1 150 19:46 23.03.2022
2422 Clouds -11 994 85 6000 0 0 18:59 23.03.2022
2423 Snow -10 994 92 7000 0.89 0 17:38 23.03.2022
2424 Snow -9 995 92 6000 1 0 16:50 23.03.2022
2425 Clouds -8 995 85 10000 3.13 280 14:52 23.03.2022
2426 Clouds -7 995 85 10000 2 290 14:32 23.03.2022
2427 Snow -6 995 85 10000 5 280 13:21 23.03.2022
2428 Snow -5 994 85 8000 2 200 10:20 23.03.2022
2429 Snow -7 994 92 6000 3.13 130 07:44 23.03.2022
2430 Snow -9 994 92 8000 2 130 05:27 23.03.2022
2431 Snow -12 995 92 10000 1 0 01:18 23.03.2022
2432 Snow -12 996 92 3200 2 190 00:23 23.03.2022
2433 Mist -12 998 92 5000 1 0 21:31 22.03.2022
2434 Mist -11 998 92 3600 2 210 20:51 22.03.2022
2435 Snow -9 999 92 6000 1 230 19:52 22.03.2022
2436 Snow -9 999 92 5000 2 260 19:25 22.03.2022
2437 Snow -8 1000 86 5000 2 230 18:45 22.03.2022
2438 Clouds -9 1001 92 10000 1 0 17:42 22.03.2022
2439 Clouds -8 1002 86 10000 0 0 16:32 22.03.2022
2440 Clouds -8 1002 86 10000 2 320 15:23 22.03.2022
2441 Clouds -7 1002 79 10000 2 320 14:59 22.03.2022
2442 Clouds -7 1002 79 10000 2 320 14:41 22.03.2022
2443 Clouds -6 1003 79 10000 3.13 320 13:36 22.03.2022
2444 Clouds -6 1004 79 10000 3.13 330 11:52 22.03.2022
2445 Snow -6 1005 79 9000 3.13 340 10:46 22.03.2022
2446 Snow -6 1005 85 9000 5 350 08:38 22.03.2022
2447 Snow -6 1006 85 8000 5 350 06:58 22.03.2022
2448 Snow -4 1006 93 5000 3 10 03:52 22.03.2022
2449 Snow -5 1005 85 9000 4.02 40 00:34 22.03.2022
2450 Snow -5 1005 92 10000 3.13 20 22:42 21.03.2022
2451 Snow -5 1005 92 8000 3.13 20 21:18 21.03.2022
2452 Snow -5 1005 92 8000 3.13 20 21:18 21.03.2022
2453 Snow -5 1005 92 5000 3.13 20 20:41 21.03.2022
2454 Snow -5 1004 92 9000 4.02 40 19:59 21.03.2022
2455 Snow -5 1004 92 7000 3.13 40 19:34 21.03.2022
2456 Snow -5 1004 92 6000 4.02 60 18:36 21.03.2022
2457 Snow -5 1003 93 9000 4 50 17:19 21.03.2022
2458 Snow -4 1003 93 7000 4 70 16:53 21.03.2022
2459 Snow -3 1002 93 2300 5 60 16:24 21.03.2022
2460 Snow -3 1001 93 7000 5 70 15:21 21.03.2022
2461 Snow -3 1001 92 1900 4.02 60 14:28 21.03.2022
2462 Snow -2 1000 92 10000 4.02 80 12:43 21.03.2022
2463 Snow -2 999 92 7000 4.02 100 11:54 21.03.2022
2464 Snow -2 998 92 2200 3.13 90 10:49 21.03.2022
2465 Snow -2 997 92 2700 1 0 09:21 21.03.2022
2466 Snow -3 995 92 1700 3.13 180 06:59 21.03.2022
2467 Snow -3 993 92 2000 3.13 160 03:29 21.03.2022
2468 Snow -3 992 92 4000 4.02 190 00:35 21.03.2022
2469 Snow -3 993 92 4200 4.02 190 22:56 20.03.2022
2470 Snow -3 993 92 5000 4.02 190 21:57 20.03.2022
2471 Snow -2 994 86 1700 4.02 180 21:30 20.03.2022
2472 Snow -2 994 86 2500 5 190 20:47 20.03.2022
2473 Clouds -1 994 68 10000 4.02 190 20:24 20.03.2022
2474 Clear -2 994 74 10000 4.02 190 19:43 20.03.2022
2475 Clear -2 995 74 10000 4.02 200 18:44 20.03.2022
2476 Clouds -1 996 68 10000 4.02 200 17:38 20.03.2022
2477 Clouds -1 996 68 10000 3.13 200 16:58 20.03.2022
2478 Clouds -2 997 86 10000 2 160 15:56 20.03.2022
2479 Clouds -1 998 74 10000 2 190 14:36 20.03.2022
2480 Clouds -1 999 74 10000 3.13 200 13:20 20.03.2022
2481 Clouds -1 1001 74 10000 4.02 220 11:37 20.03.2022
2482 Clouds -2 1001 86 10000 5 220 09:57 20.03.2022
2483 Clouds -2 1003 79 10000 4.02 240 07:51 20.03.2022
2484 Snow -4 1004 86 10000 3 240 05:49 20.03.2022
2485 Clear -5 1006 80 10000 4 240 03:18 20.03.2022
2486 Clear -5 1007 80 10000 5 240 00:48 20.03.2022
2487 Clear -5 1008 74 10000 5 230 23:35 19.03.2022
2488 Clear -5 1011 73 10000 5 230 21:54 19.03.2022
2489 Clear -5 1011 73 10000 5 230 21:20 19.03.2022
2490 Clear -4 1014 68 10000 5 230 19:21 19.03.2022
2491 Clear -4 1015 68 10000 5 250 18:25 19.03.2022
2492 Clear -4 1016 73 10000 4.02 240 17:45 19.03.2022
2493 Clear -4 1017 73 10000 4.02 240 16:40 19.03.2022
2494 Clear -3 1018 68 10000 3.13 240 15:21 19.03.2022
2495 Clear -1 1019 58 10000 5 250 13:40 19.03.2022
2496 Clear -1 1019 58 10000 6 250 12:42 19.03.2022
2497 Clear -1 1020 58 10000 5 240 12:19 19.03.2022
2498 Clear -1 1020 58 10000 7 240 11:42 19.03.2022
2499 Clear -3 1022 63 10000 5 240 08:34 19.03.2022
2500 Clear -5 1024 73 10000 4.02 240 04:24 19.03.2022
2501 Clouds -4 1024 73 10000 4.02 250 02:31 19.03.2022
2502 Clouds -4 1025 79 10000 4.02 260 23:50 18.03.2022
2503 Clouds -3 1026 73 10000 5 260 22:43 18.03.2022
2504 Clouds -3 1026 73 10000 5 260 22:20 18.03.2022
2505 Clouds -3 1027 73 10000 6 260 20:25 18.03.2022
2506 Clouds -3 1027 73 10000 6 270 19:24 18.03.2022
2507 Clouds -3 1027 73 10000 7.15 260 18:35 18.03.2022
2508 Clouds -3 1028 79 10000 8.05 280 16:53 18.03.2022
2509 Clouds -3 1028 79 10000 7.15 270 16:18 18.03.2022
2510 Snow -3 1029 79 9000 5 260 14:25 18.03.2022
2511 Clouds -3 1029 73 10000 5 250 13:18 18.03.2022
2512 Clouds -4 1029 73 10000 6 250 11:28 18.03.2022
2513 Clouds -5 1030 79 10000 5.81 250 09:41 18.03.2022
2514 Clouds -5 1030 73 10000 5 240 08:45 18.03.2022
2515 Clouds -7 1030 85 10000 3.13 230 06:45 18.03.2022
2516 Clouds -9 1030 86 10000 1 0 04:38 18.03.2022
2517 Clouds -22 1032 100 3423 1.79 307 00:55 18.03.2022
2518 Clouds -12 1030 92 10000 2 290 23:52 17.03.2022
2519 Clouds -12 1030 92 10000 2 290 23:52 17.03.2022
2520 Clouds -12 1030 92 10000 2 290 23:52 17.03.2022
2521 Clouds -12 1030 92 10000 2 290 23:52 17.03.2022
2522 Clouds -12 1030 92 10000 2 290 23:52 17.03.2022
2523 Clouds -12 1030 92 10000 2 290 23:52 17.03.2022
2524 Clouds -13 1030 92 10000 2 280 22:43 17.03.2022
2525 Clouds -13 1030 92 10000 2 280 22:18 17.03.2022
2526 Clear -13 1030 85 10000 2 300 21:27 17.03.2022
2527 Clear -11 1029 85 10000 2 300 20:52 17.03.2022
2528 Clouds -9 1030 79 10000 3 330 20:18 17.03.2022
2529 Clouds -10 1029 92 10000 3 320 19:37 17.03.2022
2530 Clear -10 1029 85 10000 3 320 18:51 17.03.2022
2531 Clouds -8 1029 79 10000 4 330 17:27 17.03.2022
2532 Clouds -7 1028 79 10000 4 340 15:57 17.03.2022
2533 Clouds -7 1028 79 10000 4 340 15:36 17.03.2022
2534 Clouds -8 1028 86 10000 3 340 14:58 17.03.2022
2535 Clear -6 1027 79 10000 3.13 340 13:28 17.03.2022
2536 Clear -5 1027 79 10000 4.02 350 12:38 17.03.2022
2537 Clouds -4 1027 73 10000 4.02 360 11:31 17.03.2022
2538 Clouds -4 1026 73 10000 5 350 10:38 17.03.2022
2539 Snow -4 1025 79 9000 5 350 08:46 17.03.2022
2540 Clouds -4 1025 85 10000 4.02 350 08:18 17.03.2022
2541 Snow -5 1023 85 10000 4.02 360 05:49 17.03.2022
2542 Clouds -7 1023 85 10000 3.13 320 04:24 17.03.2022
2543 Snow -8 1022 92 4300 5 290 00:24 17.03.2022
2544 Snow -8 1022 92 3000 5 280 22:52 16.03.2022
2545 Snow -8 1022 92 3700 5 280 22:33 16.03.2022
2546 Snow -8 1022 92 4300 6 280 21:55 16.03.2022
2547 Snow -7 1022 85 4000 6 270 20:32 16.03.2022
2548 Snow -7 1023 85 3500 7.15 280 19:22 16.03.2022
2549 Snow -7 1023 85 1400 7.15 280 18:40 16.03.2022
2550 Snow -7 1023 85 1700 7.15 280 17:45 16.03.2022
2551 Snow -7 1023 85 3400 6 260 17:27 16.03.2022
2552 Snow -7 1024 85 2200 7.15 270 15:56 16.03.2022
2553 Snow -7 1024 67 8000 8.05 280 14:35 16.03.2022
2554 Clear -7 1025 62 10000 8.05 270 13:34 16.03.2022
2555 Clear -7 1026 52 10000 7.15 250 11:59 16.03.2022
2556 Clear -7 1026 52 10000 7.15 250 11:22 16.03.2022
2557 Clear -7 1026 48 10000 6 250 10:28 16.03.2022
2558 Clear -7 1026 44 10000 6 260 09:55 16.03.2022
2559 Clear -12 1028 51 10000 4.02 240 06:33 16.03.2022
2560 Clear -18 1031 65 10000 4 280 02:29 16.03.2022
2561 Clear -16 1032 59 10000 4.02 280 22:51 15.03.2022
2562 Clear -16 1032 59 10000 4.02 280 22:32 15.03.2022
2563 Clear -15 1032 60 10000 5 280 20:36 15.03.2022
2564 Clear -16 1033 59 10000 5 280 18:58 15.03.2022
2565 Clear -16 1033 59 10000 4.02 280 17:24 15.03.2022
2566 Clear -16 1033 59 10000 5 280 16:34 15.03.2022
2567 Clear -14 1034 55 10000 3.13 260 15:21 15.03.2022
2568 Clear -10 1034 48 10000 4 250 14:46 15.03.2022
2569 Clear -8 1034 41 10000 4 250 13:55 15.03.2022
2570 Clear -7 1035 41 10000 6 280 12:29 15.03.2022
2571 Clear -7 1035 37 10000 6 280 11:31 15.03.2022
2572 Clear -7 1035 37 10000 5 290 09:46 15.03.2022
2573 Clear -8 1036 44 10000 4.02 280 08:49 15.03.2022
2574 Clear -9 1036 40 10000 4.92 300 07:52 15.03.2022
2575 Clear -9 1036 40 10000 5 300 07:34 15.03.2022
2576 Clear -19 1036 59 10000 3.13 290 04:20 15.03.2022
2577 Clear -19 1036 65 10000 3 280 23:57 14.03.2022
2578 Clear -20 1036 71 10000 4 280 23:24 14.03.2022
2579 Clear -18 1036 65 10000 3 280 22:30 14.03.2022
2580 Clear -20 1035 71 10000 3 290 21:30 14.03.2022
2581 Clear -20 1035 71 10000 2 280 20:54 14.03.2022
2582 Clear -19 1035 71 10000 2 280 20:20 14.03.2022
2583 Clear -18 1035 70 10000 1 280 18:55 14.03.2022
2584 Clear -17 1035 66 10000 2 290 17:54 14.03.2022
2585 Clear -18 1035 64 10000 1 280 17:23 14.03.2022
2586 Clear -14 1035 56 10000 1 280 15:56 14.03.2022
2587 Clear -9 1035 38 10000 1 300 14:41 14.03.2022
2588 Clear -6 1035 29 10000 3.13 250 12:29 14.03.2022
2589 Clear -6 1035 32 10000 3.13 220 10:54 14.03.2022
2590 Clear -5 1035 30 10000 2 220 09:52 14.03.2022
2591 Clear -6 1035 33 10000 1 0 09:22 14.03.2022
2592 Clear -6 1035 35 10000 1 0 08:55 14.03.2022
2593 Clear -8 1034 41 10000 1 0 07:32 14.03.2022
2594 Clear -13 1034 60 10000 2 220 05:45 14.03.2022
2595 Clear -21 1032 77 10000 0 0 01:55 14.03.2022
2596 Clear -20 1032 77 10000 0 0 01:28 14.03.2022
2597 Clear -15 1031 61 10000 2 240 22:44 13.03.2022
2598 Clear -15 1030 72 10000 0 0 21:31 13.03.2022
2599 Clear -16 1030 78 10000 1 0 20:56 13.03.2022
2600 Clear -16 1030 72 10000 1 0 20:31 13.03.2022
2601 Clear -15 1029 66 10000 2 180 19:49 13.03.2022
2602 Clear -14 1029 61 10000 2 190 19:28 13.03.2022
2603 Clear -13 1029 61 10000 3 190 18:59 13.03.2022
2604 Clear -13 1029 61 10000 3 190 18:35 13.03.2022
2605 Clear -13 1029 61 10000 3 190 17:46 13.03.2022
2606 Clear -12 1029 56 10000 3 190 17:19 13.03.2022
2607 Clear -12 1028 56 10000 2 190 16:30 13.03.2022
2608 Clear -12 1028 56 10000 2 190 15:47 13.03.2022
2609 Clear -12 1028 61 10000 2 160 14:56 13.03.2022
2610 Clear -9 1028 48 10000 2 160 13:43 13.03.2022
2611 Clear -8 1028 45 10000 3 190 12:55 13.03.2022
2612 Clear -8 1028 40 10000 3.13 200 11:52 13.03.2022
2613 Clear -9 1028 44 10000 4.02 190 11:32 13.03.2022
2614 Clear -9 1028 44 10000 4.02 190 10:47 13.03.2022
2615 Clear -9 1028 44 10000 4.02 220 10:22 13.03.2022
2616 Clear -9 1028 44 10000 5 220 09:40 13.03.2022
2617 Clear -11 1027 47 10000 5 200 08:45 13.03.2022
2618 Clear -12 1028 51 10000 4.02 210 07:41 13.03.2022
2619 Clear -16 1027 59 10000 4.02 200 05:40 13.03.2022
2620 Clear -20 1027 76 10000 4.02 190 02:39 13.03.2022
2621 Clear -19 1027 70 10000 2 190 23:33 12.03.2022
2622 Clear -17 1026 65 10000 3.13 220 21:53 12.03.2022
2623 Clear -16 1026 59 10000 3.13 200 20:29 12.03.2022
2624 Clear -16 1026 59 10000 4.02 220 19:47 12.03.2022
2625 Clear -16 1026 59 10000 3.13 210 18:58 12.03.2022
2626 Clear -16 1026 59 10000 3.13 200 18:22 12.03.2022
2627 Clear -14 1027 55 10000 5 210 17:23 12.03.2022
2628 Clear -14 1027 55 10000 3.13 200 16:23 12.03.2022
2629 Clear -15 1027 60 10000 3.13 200 15:22 12.03.2022
2630 Clear -14 1027 55 10000 2 200 14:27 12.03.2022
2631 Clear -12 1028 47 10000 4.02 230 12:35 12.03.2022
2632 Clear -12 1028 47 10000 5 230 11:56 12.03.2022
2633 Clear -13 1028 51 10000 6 230 11:34 12.03.2022
2634 Clear -13 1029 51 10000 6 230 10:52 12.03.2022
2635 Clear -14 1029 50 10000 5 210 09:44 12.03.2022
2636 Clear -15 1029 55 10000 5 220 08:53 12.03.2022
2637 Clear -17 1030 59 10000 3.13 210 06:53 12.03.2022
2638 Clear -23 1031 83 10000 2 240 01:44 12.03.2022
2639 Clear -21 1031 70 10000 2 230 23:51 11.03.2022
2640 Clear -21 1032 76 10000 3.13 230 22:52 11.03.2022
2641 Clear -21 1032 76 10000 3.13 230 21:35 11.03.2022
2642 Clear -22 1032 76 10000 2 230 20:54 11.03.2022
2643 Clear -21 1032 70 10000 2 250 20:28 11.03.2022
2644 Clear -21 1032 76 10000 3.13 240 19:42 11.03.2022
2645 Clear -22 1033 83 10000 2 230 18:51 11.03.2022
2646 Clear -23 1033 76 10000 0 0 17:28 11.03.2022
2647 Clear -23 1034 76 10000 2 200 16:27 11.03.2022
2648 Clear -21 1034 71 10000 1 0 15:52 11.03.2022
2649 Clear -18 1035 60 10000 1 250 14:18 11.03.2022
2650 Clouds -15 1037 51 10000 5 240 12:43 11.03.2022
2651 Clouds -15 1037 50 10000 5 240 12:20 11.03.2022
2652 Clear -15 1037 50 10000 5 240 11:40 11.03.2022
2653 Clear -15 1038 55 10000 3.13 230 09:37 11.03.2022
2654 Clear -16 1038 59 10000 4.02 280 08:29 11.03.2022
2655 Clear -17 1039 59 10000 5 280 07:48 11.03.2022
2656 Clear -20 1039 76 10000 4.02 280 06:55 11.03.2022
2657 Clear -26 1039 75 10000 3.13 280 04:44 11.03.2022
2658 Clear -27 1040 76 10000 3 280 01:51 11.03.2022
2659 Clear -26 1040 76 10000 3 280 22:33 10.03.2022
2660 Clear -26 1040 76 10000 3 280 21:58 10.03.2022
2661 Clear -26 1040 76 10000 3 280 21:26 10.03.2022
2662 Clear -26 1040 84 10000 3 280 20:39 10.03.2022
2663 Clear -26 1040 76 10000 4 280 19:22 10.03.2022
2664 Clear -25 1039 77 10000 3 280 18:18 10.03.2022
2665 Clear -25 1039 77 10000 3 280 16:53 10.03.2022
2666 Clear -23 1040 77 10000 2 280 15:34 10.03.2022
2667 Clear -19 1040 60 10000 2 300 13:51 10.03.2022
2668 Clear -18 1040 59 10000 3.13 310 12:43 10.03.2022
2669 Clear -18 1040 59 10000 4.02 300 11:29 10.03.2022
2670 Clear -19 1040 64 10000 3.13 290 09:54 10.03.2022
2671 Clear -19 1039 64 10000 4.02 290 08:39 10.03.2022
2672 Clear -30 1038 76 10000 2 280 05:33 10.03.2022
2673 Clear -33 1037 75 10000 0 0 02:39 10.03.2022
2674 Clear -32 1035 68 10000 1 310 23:37 09.03.2022
2675 Clear -30 1035 76 10000 1 0 22:28 09.03.2022
2676 Clear -31 1035 69 10000 1 0 21:47 09.03.2022
2677 Clear -29 1034 76 10000 1 0 20:44 09.03.2022
2678 Clear -26 1033 76 10000 4 10 18:58 09.03.2022
2679 Clear -25 1032 70 10000 3 340 17:28 09.03.2022
2680 Clear -25 1032 70 10000 3 330 16:45 09.03.2022
2681 Clear -26 1032 76 10000 1 350 15:37 09.03.2022
2682 Clear -23 1031 64 10000 2 320 14:23 09.03.2022
2683 Clear -22 1030 59 10000 3 320 13:25 09.03.2022
2684 Clear -22 1030 64 10000 4 300 12:20 09.03.2022
2685 Clear -22 1030 64 10000 4 310 11:45 09.03.2022
2686 Clear -22 1029 64 10000 4 290 10:50 09.03.2022
2687 Clear -24 1027 70 10000 5 320 09:22 09.03.2022
2688 Clear -24 1027 64 10000 5 300 08:42 09.03.2022
2689 Clear -29 1024 75 10000 5 310 04:49 09.03.2022
2690 Clear -28 1021 69 10000 4 300 00:56 09.03.2022
2691 Clear -28 1020 76 10000 4 300 23:37 08.03.2022
2692 Clear -27 1019 76 10000 4 300 22:45 08.03.2022
2693 Clear -26 1018 70 10000 5 310 21:43 08.03.2022
2694 Clear -26 1018 70 10000 5 310 21:18 08.03.2022
2695 Clear -25 1016 69 10000 5 320 19:59 08.03.2022
2696 Clear -25 1015 76 10000 5 330 18:53 08.03.2022
2697 Clear -23 1015 69 10000 6 320 17:51 08.03.2022
2698 Clear -23 1013 69 10000 6 310 16:35 08.03.2022
2699 Clear -23 1011 69 10000 6 310 14:23 08.03.2022
2700 Clear -22 1009 69 10000 8.05 320 12:44 08.03.2022
2701 Clear -22 1008 69 10000 7.15 320 11:53 08.03.2022
2702 Clouds -22 1007 63 10000 7.15 320 11:34 08.03.2022
2703 Snow -23 1005 69 10000 7.15 320 10:27 08.03.2022
2704 Snow -23 1003 69 2800 6 320 08:28 08.03.2022
2705 Snow -24 1000 69 7000 5 340 05:47 08.03.2022
2706 Snow -23 996 76 3000 5 340 00:43 08.03.2022
2707 Snow -22 995 76 4500 5 350 22:23 07.03.2022
2708 Snow -21 994 76 2100 5 340 21:35 07.03.2022
2709 Snow -20 994 76 1800 5 340 20:54 07.03.2022
2710 Snow -20 994 76 2700 5 360 20:22 07.03.2022
2711 Snow -20 994 76 2100 5 360 19:38 07.03.2022
2712 Snow -20 993 76 2800 5 360 18:47 07.03.2022
2713 Snow -19 993 77 3700 5 360 17:54 07.03.2022
2714 Snow -19 993 77 2600 5 10 16:56 07.03.2022
2715 Snow -19 993 77 4000 5 10 16:20 07.03.2022
2716 Snow -17 992 77 3700 4.02 20 14:19 07.03.2022
2717 Snow -17 992 71 2900 4.02 30 12:33 07.03.2022
2718 Snow -17 991 77 2200 5 50 10:39 07.03.2022
2719 Snow -17 991 71 1700 6 40 09:47 07.03.2022
2720 Snow -18 992 70 1500 6 40 06:20 07.03.2022
2721 Snow -20 993 76 1600 6 40 00:23 07.03.2022
2722 Snow -21 993 76 1200 6 40 23:41 06.03.2022
2723 Snow -21 993 76 1400 6 40 22:57 06.03.2022
2724 Snow -21 994 76 1500 6 40 22:24 06.03.2022
2725 Snow -21 994 76 1500 6 40 22:24 06.03.2022
2726 Snow -21 994 76 1800 6 50 20:51 06.03.2022
2727 Snow -21 994 76 2100 6 50 20:26 06.03.2022
2728 Snow -21 995 76 2600 7.15 40 19:23 06.03.2022
2729 Snow -21 995 70 2500 7.15 50 18:25 06.03.2022
2730 Snow -21 996 70 4500 7.15 50 17:21 06.03.2022
2731 Clouds -21 997 76 3000 7 60 16:44 06.03.2022
2732 Clouds -21 997 70 3000 7.15 60 16:18 06.03.2022
2733 Clear -21 999 70 10000 5 50 14:57 06.03.2022
2734 Clear -21 999 70 10000 6 60 14:33 06.03.2022
2735 Clear -21 999 70 10000 7.15 50 13:30 06.03.2022
2736 Clear -21 1000 70 10000 7.15 50 12:35 06.03.2022
2737 Clear -21 1000 70 10000 7.15 50 11:21 06.03.2022
2738 Clear -20 1001 64 10000 6 60 10:28 06.03.2022
2739 Clear -21 1003 70 10000 6 60 08:30 06.03.2022
2740 Clear -21 1003 70 10000 7.15 70 07:45 06.03.2022
2741 Clear -22 1004 69 10000 6 70 06:19 06.03.2022
2742 Clear -24 1008 76 10000 5 90 00:53 06.03.2022
2743 Clear -24 1009 76 10000 5 70 00:31 06.03.2022
2744 Clear -24 1009 76 10000 5 70 23:23 05.03.2022
2745 Clear -24 1010 76 10000 3.13 90 22:53 05.03.2022
2746 Clear -24 1011 76 10000 3.13 70 21:56 05.03.2022
2747 Clear -24 1011 76 10000 4.02 70 21:23 05.03.2022
2748 Clear -24 1012 76 10000 3.13 70 19:49 05.03.2022
2749 Clear -24 1012 76 10000 4.02 60 18:56 05.03.2022
2750 Clear -24 1013 76 10000 4.02 60 18:27 05.03.2022
2751 Clear -24 1014 77 10000 2 60 16:49 05.03.2022
2752 Clear -22 1014 71 10000 4 20 15:31 05.03.2022
2753 Clear -22 1014 71 10000 3 10 14:47 05.03.2022
2754 Clear -22 1014 71 10000 3 10 14:29 05.03.2022
2755 Clear -20 1015 64 10000 3.13 10 13:22 05.03.2022
2756 Clear -19 1015 64 10000 3.13 350 11:48 05.03.2022
2757 Clear -19 1015 64 10000 4.02 10 11:19 05.03.2022
2758 Clear -19 1015 64 10000 3.13 360 10:18 05.03.2022
2759 Clear -19 1015 64 10000 2 360 08:59 05.03.2022
2760 Clear -20 1015 70 10000 3.13 20 07:38 05.03.2022
2761 Clear -24 1015 76 10000 1 300 05:43 05.03.2022
2762 Clear -28 1015 75 10000 1 0 03:18 05.03.2022
2763 Clear -25 1014 77 10000 4 360 23:37 04.03.2022
2764 Clear -24 1014 77 10000 3 340 22:42 04.03.2022
2765 Clear -24 1014 77 10000 3 340 21:49 04.03.2022
2766 Clear -24 1014 84 10000 3 330 20:54 04.03.2022
2767 Clear -23 1014 77 10000 3 340 20:24 04.03.2022
2768 Clear -23 1014 84 10000 3 350 19:36 04.03.2022
2769 Clear -22 1014 77 10000 4 350 18:44 04.03.2022
2770 Clear -20 1013 77 10000 4 340 17:32 04.03.2022
2771 Clear -19 1013 78 10000 3 330 16:46 04.03.2022
2772 Clear -17 1012 71 10000 4 320 15:29 04.03.2022
2773 Clear -16 1012 72 10000 3 330 14:29 04.03.2022
2774 Clear -15 1011 71 10000 4.02 340 13:26 04.03.2022
2775 Clear -13 1011 66 10000 5.81 340 11:41 04.03.2022
2776 Clear -13 1010 66 10000 5 350 10:50 04.03.2022
2777 Clear -14 1009 65 10000 5 340 09:52 04.03.2022
2778 Clear -14 1009 71 10000 4.02 340 08:39 04.03.2022
2779 Clear -14 1008 77 10000 5 340 07:34 04.03.2022
2780 Clouds -6 1005 86 10000 5 330 03:53 04.03.2022
2781 Clear -5 1004 85 10000 4.02 250 00:28 04.03.2022
2782 Clouds -2 1004 74 10000 5 260 22:27 03.03.2022
2783 Clouds -2 1004 74 10000 6 260 21:42 03.03.2022
2784 Clouds -2 1004 74 10000 6 260 21:24 03.03.2022
2785 Clouds -2 1004 74 10000 7.15 270 19:52 03.03.2022
2786 Clouds -2 1004 74 10000 5 240 18:54 03.03.2022
2787 Clouds -2 1004 74 10000 6 250 18:23 03.03.2022
2788 Clouds -2 1004 74 10000 5 240 17:30 03.03.2022
2789 Clouds -1 1004 68 10000 4.02 230 16:24 03.03.2022
2790 Clouds -1 1005 68 10000 5 240 15:21 03.03.2022
2791 Clouds -1 1005 74 10000 5 230 14:42 03.03.2022
2792 Clouds 0 1005 69 10000 5 230 13:24 03.03.2022
2793 Clouds -1 1006 74 10000 6 250 11:54 03.03.2022
2794 Clouds -1 1006 74 10000 6 250 10:42 03.03.2022
2795 Clouds -1 1006 74 10000 5 250 09:38 03.03.2022
2796 Clouds -2 1006 79 10000 6 260 07:48 03.03.2022
2797 Clouds -3 1005 79 10000 6 270 06:35 03.03.2022
2798 Clouds -5 1004 79 10000 6 280 02:23 03.03.2022
2799 Clouds -6 1003 79 10000 4.02 240 23:31 02.03.2022
2800 Snow -7 1003 85 10000 4.02 230 22:52 02.03.2022
2801 Clouds -7 1005 73 10000 4.02 200 21:32 02.03.2022
2802 Clouds -7 1005 73 10000 4.02 200 20:46 02.03.2022
2803 Clouds -7 1005 73 10000 4.02 190 20:24 02.03.2022
2804 Clear -7 1007 67 10000 5 190 19:36 02.03.2022
2805 Clouds -7 1009 67 10000 4.02 200 18:46 02.03.2022
2806 Clouds -7 1009 67 10000 4.02 200 18:18 02.03.2022
2807 Clear -8 1010 61 10000 4.02 210 17:32 02.03.2022
2808 Clear -8 1011 61 10000 4.02 210 16:51 02.03.2022
2809 Clear -10 1012 66 10000 2 200 14:48 02.03.2022
2810 Clear -8 1014 57 10000 3.13 230 13:25 02.03.2022
2811 Clear -8 1014 57 10000 4 240 12:44 02.03.2022
2812 Clear -9 1014 61 10000 5 260 11:51 02.03.2022
2813 Clear -9 1014 61 10000 5 240 11:24 02.03.2022
2814 Clear -9 1014 61 10000 5 240 11:24 02.03.2022
2815 Clear -10 1014 61 10000 5 230 09:47 02.03.2022
2816 Clear -9 1014 56 10000 4.02 240 09:23 02.03.2022
2817 Clear -11 1014 66 10000 6 280 07:51 02.03.2022
2818 Clouds -13 1014 71 10000 6 280 06:54 02.03.2022
2819 Clear -15 1013 77 10000 6 290 02:54 02.03.2022
2820 Clear -13 1012 71 10000 6 300 00:33 02.03.2022
2821 Clear -12 1011 72 10000 8.05 300 22:50 01.03.2022
2822 Clear -12 1010 72 10000 7.15 300 22:31 01.03.2022
2823 Clear -11 1009 72 10000 8.05 310 21:25 01.03.2022
2824 Clouds -10 1008 72 10000 9 330 20:32 01.03.2022
2825 Clouds -9 1007 72 10000 9 320 19:45 01.03.2022
2826 Clouds -8 1006 72 10000 9 330 18:51 01.03.2022
2827 Clouds -8 1005 72 10000 10 320 18:21 01.03.2022
2828 Clouds -8 1004 78 10000 10 310 17:30 01.03.2022
2829 Snow -7 1003 73 6000 11.18 320 16:35 01.03.2022
2830 Snow -7 1002 79 6000 9.83 310 15:42 01.03.2022
2831 Clouds -6 1001 73 10000 9 320 14:41 01.03.2022
2832 Snow -6 1000 85 4400 9 300 14:23 01.03.2022
2833 Snow -5 999 79 4500 10 300 13:25 01.03.2022
2834 Snow -4 998 68 8000 10 300 12:34 01.03.2022
2835 Snow -2 996 74 8000 12.07 290 10:37 01.03.2022
2836 Clouds -1 995 68 10000 12.07 280 09:18 01.03.2022
2837 Clear -2 994 74 10000 11.18 280 07:54 01.03.2022
2838 Clouds -2 994 74 10000 9 260 06:27 01.03.2022
2839 Clouds -2 996 68 10000 8.05 250 02:45 01.03.2022
2840 Clouds -2 997 79 10000 8.94 240 00:39 01.03.2022
2841 Clouds -2 999 92 10000 8.05 240 23:33 28.02.2022
2842 Snow -1 1000 74 1700 9 250 22:24 28.02.2022
2843 Clear 0 999 63 10000 8.05 240 21:41 28.02.2022
2844 Clear 0 1001 63 10000 8.05 230 20:28 28.02.2022
2845 Clouds -1 1002 68 10000 9 230 19:41 28.02.2022
2846 Clear -1 1004 68 10000 8.05 230 18:49 28.02.2022
2847 Clear -1 1006 68 10000 9 230 17:33 28.02.2022
2848 Clear -1 1006 68 10000 8.05 230 16:53 28.02.2022
2849 Clouds -1 1009 68 10000 7.15 240 15:31 28.02.2022
2850 Clouds -2 1010 79 10000 7.15 230 14:32 28.02.2022
2851 Clouds -2 1011 79 10000 8.05 240 13:48 28.02.2022
2852 Clear -2 1012 68 10000 7.15 210 12:53 28.02.2022
2853 Clear -4 1014 73 10000 7.15 220 11:59 28.02.2022
2854 Clouds -4 1015 68 10000 6 210 11:18 28.02.2022
2855 Clear -6 1017 73 10000 6 210 10:22 28.02.2022
2856 Clear -7 1017 79 10000 5 220 09:41 28.02.2022
2857 Clear -8 1019 72 10000 5 220 08:48 28.02.2022
2858 Clear -10 1020 72 10000 5 220 07:43 28.02.2022
2859 Clear -15 1022 84 10000 1 0 05:52 28.02.2022
2860 Clear -20 1022 84 10000 3 270 04:30 28.02.2022
2861 Clear -20 1022 84 10000 3 270 04:30 28.02.2022
2862 Clear -20 1022 84 10000 3 270 04:30 28.02.2022
2863 Clear -14 1023 85 10000 4 340 00:34 28.02.2022
2864 Clear -11 1022 85 10000 4 330 22:38 27.02.2022
2865 Clear -10 1021 79 10000 4 330 21:58 27.02.2022
2866 Clear -9 1021 78 10000 5 330 21:36 27.02.2022
2867 Clear -8 1020 78 10000 5 330 20:41 27.02.2022
2868 Clouds -7 1020 79 10000 7.15 340 20:18 27.02.2022
2869 Snow -2 1018 92 1900 6 320 19:36 27.02.2022
2870 Snow -2 1018 92 1900 6 320 19:18 27.02.2022
2871 Clouds -1 1017 80 10000 6 270 17:57 27.02.2022
2872 Clouds -1 1017 80 10000 7.15 260 17:34 27.02.2022
2873 Clouds -1 1017 74 10000 6 260 16:22 27.02.2022
2874 Clouds -1 1017 74 10000 7.15 250 14:28 27.02.2022
2875 Clouds -1 1016 74 10000 8.05 260 12:35 27.02.2022
2876 Clouds -2 1016 74 10000 9 260 11:36 27.02.2022
2877 Clouds -2 1015 74 10000 8.05 260 10:36 27.02.2022
2878 Clouds -2 1015 74 10000 7.15 250 09:52 27.02.2022
2879 Clouds -3 1015 79 10000 7.15 240 09:21 27.02.2022
2880 Clouds -3 1015 73 10000 7.15 240 08:44 27.02.2022
2881 Clear -4 1015 73 10000 6 240 05:43 27.02.2022
2882 Clear -5 1015 73 10000 7.15 250 03:26 27.02.2022
2883 Clear -6 1017 73 10000 5 240 23:51 26.02.2022
2884 Clear -7 1017 79 10000 4.02 230 22:42 26.02.2022
2885 Clear -6 1018 73 10000 5 250 21:27 26.02.2022
2886 Clear -7 1018 79 10000 5 250 20:41 26.02.2022
2887 Clear -7 1018 79 10000 4.02 240 19:55 26.02.2022
2888 Clear -6 1018 73 10000 5 250 19:33 26.02.2022
2889 Clear -6 1019 73 10000 4.02 240 18:33 26.02.2022
2890 Clear -6 1019 73 10000 5 240 17:34 26.02.2022
2891 Clear -5 1019 67 10000 5 240 16:39 26.02.2022
2892 Clear -5 1019 73 10000 5 220 15:37 26.02.2022
2893 Clear -5 1019 73 10000 5 220 15:18 26.02.2022
2894 Clear -5 1019 73 10000 4.02 230 14:41 26.02.2022
2895 Clear -4 1019 68 10000 4.02 240 13:51 26.02.2022
2896 Clear -4 1019 68 10000 4.02 230 12:53 26.02.2022
2897 Clear -4 1019 68 10000 5 230 11:50 26.02.2022
2898 Clear -4 1019 68 10000 5 230 11:25 26.02.2022
2899 Clear -6 1019 73 10000 5 240 09:31 26.02.2022
2900 Clear -6 1019 73 10000 6 250 08:26 26.02.2022
2901 Clear -11 1019 85 10000 4 230 04:23 26.02.2022
2902 Clear -12 1018 85 10000 2 250 23:50 25.02.2022
2903 Clouds -9 1017 79 10000 4 250 22:31 25.02.2022
2904 Clouds -9 1017 79 10000 3 250 21:31 25.02.2022
2905 Clear -9 1017 79 10000 3 250 20:47 25.02.2022
2906 Clear -9 1017 73 10000 3 250 20:25 25.02.2022
2907 Clear -10 1017 78 10000 3.13 250 17:57 25.02.2022
2908 Clear -10 1017 72 10000 4.02 250 16:54 25.02.2022
2909 Clear -10 1017 78 10000 5 250 15:55 25.02.2022
2910 Clear -10 1017 79 10000 5 250 15:23 25.02.2022
2911 Clear -10 1017 79 10000 4 260 14:55 25.02.2022
2912 Clear -9 1016 79 10000 5 250 14:24 25.02.2022
2913 Clear -8 1016 79 10000 5 250 13:30 25.02.2022
2914 Clear -6 1015 68 10000 6 290 12:21 25.02.2022
2915 Clear -6 1015 67 10000 7.15 290 11:22 25.02.2022
2916 Clear -6 1014 73 10000 7.15 290 10:23 25.02.2022
2917 Clear -6 1013 73 10000 8.05 290 09:46 25.02.2022
2918 Snow -6 1012 86 6000 9 280 08:22 25.02.2022
2919 Snow -5 1011 80 7000 8 290 07:31 25.02.2022
2920 Snow -5 1010 80 10000 7 290 05:42 25.02.2022
2921 Clouds -5 1008 86 10000 7 280 02:46 25.02.2022
2922 Clouds -3 1005 93 10000 7 280 22:47 24.02.2022
2923 Clouds -2 1004 92 10000 8.05 280 21:51 24.02.2022
2924 Snow -2 1004 92 10000 7.15 290 21:30 24.02.2022
2925 Snow -1 1003 92 7000 5 280 20:47 24.02.2022
2926 Clouds 0 1002 92 10000 4.02 280 19:32 24.02.2022
2927 Clouds 0 1002 92 10000 4.02 280 18:21 24.02.2022
2928 Clouds 0 1002 92 10000 4.02 280 17:58 24.02.2022
2929 Clouds 0 1002 100 10000 4.02 270 17:21 24.02.2022
2930 Clouds 0 1001 92 10000 4.02 270 16:28 24.02.2022
2931 Snow 0 1001 100 1800 3.13 250 15:44 24.02.2022
2932 Snow 0 1002 92 2100 2 230 14:48 24.02.2022
2933 Snow 0 1002 92 2200 3.13 210 14:19 24.02.2022
2934 Snow 0 1002 92 7000 2 200 13:39 24.02.2022
2935 Clouds 0 1002 92 10000 4.02 190 11:56 24.02.2022
2936 Snow 0 1003 92 7000 4.02 190 10:34 24.02.2022
2937 Snow -1 1004 100 4500 4.02 190 08:46 24.02.2022
2938 Snow -1 1004 100 4200 4.02 190 08:22 24.02.2022
2939 Snow -1 1005 92 10000 5 190 05:50 24.02.2022
2940 Snow -2 1007 92 8000 4.02 190 00:32 24.02.2022
2941 Snow -3 1007 92 7000 4.02 190 22:29 23.02.2022
2942 Snow -3 1008 92 10000 5 190 20:52 23.02.2022
2943 Snow -3 1008 92 10000 4.02 180 20:30 23.02.2022
2944 Snow -3 1008 92 10000 3.13 170 19:37 23.02.2022
2945 Snow -3 1008 86 10000 4.02 160 18:31 23.02.2022
2946 Snow -3 1009 86 10000 5 160 17:21 23.02.2022
2947 Clear -3 1010 68 10000 4.02 150 14:34 23.02.2022
2948 Clouds -2 1010 63 10000 3.13 150 12:37 23.02.2022
2949 Clouds -1 1010 59 10000 3 160 11:23 23.02.2022
2950 Clouds -1 1010 64 10000 3 170 10:30 23.02.2022
2951 Clouds -3 1010 68 10000 2 210 08:57 23.02.2022
2952 Clouds -4 1011 73 10000 4.02 220 07:57 23.02.2022
2953 Snow -6 1010 86 9000 2 220 03:48 23.02.2022
2954 Clouds -6 1009 79 10000 3 240 00:19 23.02.2022
2955 Clouds -6 1008 79 10000 3 230 23:35 22.02.2022
2956 Snow -6 1008 79 10000 3 240 22:31 22.02.2022
2957 Clouds -6 1008 79 10000 2 240 21:49 22.02.2022
2958 Clouds -6 1008 79 9000 3 240 21:28 22.02.2022
2959 Clouds -6 1008 79 10000 3 230 20:51 22.02.2022
2960 Clouds -7 1007 86 10000 2 230 20:29 22.02.2022
2961 Clouds -8 1007 93 10000 2 240 19:36 22.02.2022
2962 Clouds -8 1007 93 10000 2 240 19:18 22.02.2022
2963 Clouds -6 1007 86 10000 3 230 17:40 22.02.2022
2964 Clouds -6 1007 86 10000 3 230 17:19 22.02.2022
2965 Clouds -5 1006 80 10000 3 230 16:36 22.02.2022
2966 Clear -6 1006 79 10000 3.13 220 15:38 22.02.2022
2967 Clouds -6 1006 79 10000 3.13 210 14:43 22.02.2022
2968 Clouds -2 1005 68 10000 6 230 12:20 22.02.2022
2969 Clouds -2 1004 74 10000 7.15 240 10:28 22.02.2022
2970 Clouds -3 1003 73 10000 7.15 230 07:48 22.02.2022
2971 Clouds -4 1003 79 10000 6 230 07:25 22.02.2022
2972 Clouds -5 1002 85 10000 5 200 02:52 22.02.2022
2973 Clouds -5 1002 85 10000 4.02 200 00:49 22.02.2022
2974 Snow -6 1002 92 10000 4.92 200 22:41 21.02.2022
2975 Snow -6 1002 85 10000 5 200 21:30 21.02.2022
2976 Snow -6 1002 85 9000 4.02 200 20:29 21.02.2022
2977 Snow -6 1002 85 10000 5 200 18:41 21.02.2022
2978 Snow -7 1002 85 9000 5 200 16:50 21.02.2022
2979 Snow -6 1002 85 9000 5 190 14:24 21.02.2022
2980 Snow -6 1002 85 8000 4.02 190 13:59 21.02.2022
2981 Snow -6 1002 85 9000 4.02 190 12:59 21.02.2022
2982 Snow -6 1002 85 3700 4.02 200 12:22 21.02.2022
2983 Snow -7 1001 79 4100 6 160 10:45 21.02.2022
2984 Clouds -8 1002 67 10000 6 150 08:44 21.02.2022
2985 Clear -10 1006 66 10000 5 160 02:58 21.02.2022
2986 Clear -8 1008 61 10000 6 180 23:29 20.02.2022
2987 Clear -8 1009 61 10000 5 190 22:19 20.02.2022
2988 Clear -7 1009 57 10000 6 200 21:41 20.02.2022
2989 Clear -6 1009 58 10000 6 180 20:52 20.02.2022
2990 Clear -6 1010 58 10000 5 180 20:22 20.02.2022
2991 Clear -6 1010 53 10000 5 180 19:29 20.02.2022
2992 Clear -6 1011 53 10000 5 190 18:49 20.02.2022
2993 Clear -6 1011 53 10000 6 190 18:30 20.02.2022
2994 Clear -6 1012 53 10000 5 190 17:30 20.02.2022
2995 Clear -5 1013 53 10000 5 190 15:30 20.02.2022
2996 Clear -4 1013 49 10000 5 190 14:39 20.02.2022
2997 Clear -3 1013 54 10000 5 190 13:22 20.02.2022
2998 Clear -3 1013 54 10000 5 190 13:22 20.02.2022
2999 Clear -3 1013 54 10000 5 190 13:22 20.02.2022
3000 Clear -3 1014 49 10000 6 190 11:56 20.02.2022
3001 Clear -3 1014 49 10000 6 190 11:56 20.02.2022
3002 Clear -3 1014 49 10000 6 190 11:56 20.02.2022
3003 Clear -2 1014 46 10000 6 200 10:21 20.02.2022
3004 Clear -2 1014 43 10000 7 190 09:46 20.02.2022
3005 Clear -7 1015 52 10000 5 200 06:30 20.02.2022
3006 Clear -9 1016 67 10000 5 190 00:32 20.02.2022
3007 Clear -8 1016 67 10000 5 190 23:33 19.02.2022
3008 Clear -8 1016 67 10000 4.02 200 22:24 19.02.2022
3009 Clear -7 1017 67 10000 5 200 21:47 19.02.2022
3010 Clear -6 1017 67 10000 5 200 20:28 19.02.2022
3011 Clear -5 1017 62 10000 5 200 19:34 19.02.2022
3012 Clear -5 1017 62 10000 5 200 18:40 19.02.2022
3013 Clear -5 1017 62 10000 5 200 18:40 19.02.2022
3014 Clear -5 1017 67 10000 5 200 17:57 19.02.2022
3015 Clear -4 1017 62 10000 4.02 200 17:21 19.02.2022
3016 Clear -3 1017 58 10000 6 200 15:59 19.02.2022
3017 Clear -3 1017 58 10000 5 200 14:54 19.02.2022
3018 Clear -4 1018 68 10000 5 210 13:57 19.02.2022
3019 Clear -3 1017 63 10000 5 200 11:47 19.02.2022
3020 Clear -3 1017 63 10000 5 200 10:48 19.02.2022
3021 Clear -5 1017 67 10000 5 220 08:56 19.02.2022
3022 Clear -7 1017 73 10000 5 210 06:45 19.02.2022
3023 Clear -4 1016 80 10000 6 210 00:38 19.02.2022
3024 Clear -3 1015 73 10000 5 210 22:24 18.02.2022
3025 Clear -3 1015 73 10000 5 220 21:21 18.02.2022
3026 Clouds -3 1015 73 10000 5 220 19:56 18.02.2022
3027 Clouds -3 1014 73 10000 5 220 18:51 18.02.2022
3028 Clouds -3 1014 79 10000 5 220 18:28 18.02.2022
3029 Clear -3 1014 79 10000 4.02 220 17:56 18.02.2022
3030 Clouds -3 1014 86 10000 4.02 210 15:57 18.02.2022
3031 Clouds -4 1014 85 10000 4.02 190 13:56 18.02.2022
3032 Snow -4 1014 85 9000 4.02 200 13:32 18.02.2022
3033 Clouds -4 1014 85 10000 3.13 200 12:48 18.02.2022
3034 Clouds -4 1014 79 10000 5 220 11:56 18.02.2022
3035 Clouds -4 1014 85 10000 5 210 10:42 18.02.2022
3036 Clouds -5 1013 85 10000 5 230 07:20 18.02.2022
3037 Clouds -4 1013 85 10000 4.02 230 05:43 18.02.2022
3038 Clouds -4 1012 85 10000 4.02 250 03:47 18.02.2022
3039 Snow -5 1010 92 3500 4.02 230 21:56 17.02.2022
3040 Snow -5 1010 92 3400 4.02 230 21:33 17.02.2022
3041 Snow -5 1010 92 1800 4.02 230 20:42 17.02.2022
3042 Snow -5 1010 92 6000 4.02 240 19:54 17.02.2022
3043 Snow -5 1009 92 6000 4.02 230 18:57 17.02.2022
3044 Clouds -5 1009 92 9000 4.02 230 18:18 17.02.2022
3045 Clouds -6 1009 92 9000 4.02 220 16:43 17.02.2022
3046 Snow -6 1009 85 8000 4.02 220 15:50 17.02.2022
3047 Snow -7 1009 92 6000 4.02 210 14:29 17.02.2022
3048 Snow -7 1009 93 9000 3 200 13:30 17.02.2022
3049 Snow -8 1009 85 8000 3.13 200 11:36 17.02.2022
3050 Snow -9 1008 85 6000 4.02 200 09:38 17.02.2022
3051 Snow -11 1010 85 5000 5 160 06:44 17.02.2022
3052 Clouds -15 1015 84 10000 3.13 180 23:23 16.02.2022
3053 Clouds -15 1015 84 10000 3.13 200 22:27 16.02.2022
3054 Clouds -15 1016 84 7000 4.02 190 20:21 16.02.2022
3055 Snow -16 1017 84 9000 3.13 190 18:50 16.02.2022
3056 Snow -16 1017 84 9000 3.13 200 17:56 16.02.2022
3057 Snow -15 1018 84 8000 3.13 200 16:44 16.02.2022
3058 Snow -15 1018 84 2100 4.02 180 15:21 16.02.2022
3059 Snow -17 1019 84 2300 4.02 160 13:38 16.02.2022
3060 Clear -18 1019 78 10000 3 160 12:24 16.02.2022
3061 Clear -19 1019 84 10000 3 160 11:45 16.02.2022
3062 Clear -21 1020 84 10000 3 140 10:34 16.02.2022
3063 Clear -21 1020 84 10000 3 170 09:34 16.02.2022
3064 Clouds -24 1021 77 10000 2 150 06:43 16.02.2022
3065 Mist -29 1022 75 5000 0 0 00:37 16.02.2022
3066 Clouds -30 1021 75 10000 2 290 22:34 15.02.2022
3067 Clear -29 1021 75 10000 1 290 21:50 15.02.2022
3068 Clear -30 1021 75 10000 2 280 21:29 15.02.2022
3069 Clear -29 1022 75 10000 1 300 20:57 15.02.2022
3070 Clear -29 1021 75 10000 2 300 20:19 15.02.2022
3071 Clear -28 1021 75 10000 2 290 19:33 15.02.2022
3072 Clear -28 1021 75 10000 1 290 18:24 15.02.2022
3073 Clear -28 1021 82 10000 2 280 17:52 15.02.2022
3074 Clouds -27 1021 83 10000 0 0 17:26 15.02.2022
3075 Clear -24 1021 83 10000 1 0 15:36 15.02.2022
3076 Clear -23 1020 76 10000 2 340 13:49 15.02.2022
3077 Clear -23 1020 83 10000 2 350 13:25 15.02.2022
3078 Clear -20 1020 76 10000 2 300 11:41 15.02.2022
3079 Clear -20 1020 76 10000 2 300 11:41 15.02.2022
3080 Clouds -19 1019 77 10000 2 60 09:54 15.02.2022
3081 Clouds -24 1018 77 10000 0 0 07:00 15.02.2022
3082 Clouds -26 1018 76 10000 0 0 06:19 15.02.2022
3083 Clouds -26 1017 76 10000 0 0 23:34 14.02.2022
3084 Clouds -27 1017 83 10000 1 0 21:55 14.02.2022
3085 Clouds -27 1017 83 10000 1 330 20:51 14.02.2022
3086 Clouds -25 1017 84 10000 1 10 19:46 14.02.2022
3087 Clouds -25 1017 77 10000 0 0 19:26 14.02.2022
3088 Clouds -24 1017 77 10000 1 50 18:23 14.02.2022
3089 Clouds -24 1017 77 10000 1 0 17:27 14.02.2022
3090 Clouds -23 1017 76 10000 2 100 16:27 14.02.2022
3091 Clouds -22 1017 76 10000 3.13 80 14:43 14.02.2022
3092 Clouds -20 1016 76 10000 1 40 13:34 14.02.2022
3093 Clouds -20 1016 76 10000 2 50 12:58 14.02.2022
3094 Clouds -20 1016 77 10000 3 90 11:56 14.02.2022
3095 Clouds -20 1016 77 10000 3 90 11:37 14.02.2022
3096 Clouds -20 1015 77 10000 3 80 09:25 14.02.2022
3097 Clouds -22 1015 77 10000 3 90 07:34 14.02.2022
3098 Clear -24 1015 84 10000 0 0 06:54 14.02.2022
3099 Clear -24 1015 76 10000 4.02 100 22:44 13.02.2022
3100 Clear -24 1016 76 10000 4.02 90 22:26 13.02.2022
3101 Clear -25 1016 83 10000 4.02 90 21:48 13.02.2022
3102 Clear -25 1016 83 10000 4.02 90 20:42 13.02.2022
3103 Clear -24 1016 76 10000 3.13 100 19:51 13.02.2022
3104 Clear -24 1016 83 10000 4.02 90 18:56 13.02.2022
3105 Clear -24 1016 83 10000 5 110 18:38 13.02.2022
3106 Clear -22 1017 76 10000 6 100 16:40 13.02.2022
3107 Clear -22 1017 76 10000 6 110 15:42 13.02.2022
3108 Clear -20 1018 70 10000 5.81 110 14:38 13.02.2022
3109 Clear -20 1018 70 10000 5 100 12:52 13.02.2022
3110 Clear -20 1018 76 10000 5 100 12:33 13.02.2022
3111 Clear -20 1018 76 10000 5 110 10:38 13.02.2022
3112 Clouds -20 1018 76 10000 5 100 09:49 13.02.2022
3113 Clear -22 1019 76 10000 5 90 08:33 13.02.2022
3114 Clouds -24 1021 76 10000 5 110 01:24 13.02.2022
3115 Clear -24 1021 76 10000 4.02 110 00:21 13.02.2022
3116 Clear -23 1021 83 10000 5 120 22:34 12.02.2022
3117 Clear -23 1022 83 10000 5 120 21:40 12.02.2022
3118 Clear -23 1022 83 10000 5 120 20:55 12.02.2022
3119 Clear -23 1022 83 10000 5 120 19:56 12.02.2022
3120 Clear -23 1022 83 10000 6 120 18:54 12.02.2022
3121 Clouds -23 1022 83 10000 6 120 18:36 12.02.2022
3122 Clear -22 1022 76 10000 7.15 120 17:39 12.02.2022
3123 Clouds -22 1022 76 10000 6 120 16:45 12.02.2022
3124 Clouds -22 1023 76 10000 6 120 15:53 12.02.2022
3125 Clouds -22 1023 76 10000 4.02 120 15:20 12.02.2022
3126 Clouds -21 1023 76 10000 5 120 14:25 12.02.2022
3127 Clear -19 1024 70 10000 5 120 11:31 12.02.2022
3128 Clear -20 1025 77 10000 5 110 10:30 12.02.2022
3129 Clear -20 1026 70 10000 4.02 120 09:37 12.02.2022
3130 Clear -21 1026 77 10000 4 120 08:46 12.02.2022
3131 Clouds -22 1027 77 10000 3 120 07:44 12.02.2022
3132 Clouds -26 1029 75 10000 4.02 100 04:47 12.02.2022
3133 Clear -24 1031 76 10000 4.02 110 02:19 12.02.2022
3134 Clear -23 1033 83 10000 3.13 120 23:21 11.02.2022
3135 Clear -23 1033 83 10000 4.02 100 22:21 11.02.2022
3136 Clear -22 1034 76 10000 4.02 120 21:32 11.02.2022
3137 Clear -22 1035 83 10000 3.13 110 20:26 11.02.2022
3138 Clear -21 1035 76 10000 4.02 120 19:28 11.02.2022
3139 Clear -20 1036 76 10000 4.02 120 18:29 11.02.2022
3140 Clear -20 1036 76 10000 5 120 17:27 11.02.2022
3141 Clear -20 1036 76 10000 5 120 16:39 11.02.2022
3142 Clear -20 1037 76 10000 4.02 120 15:19 11.02.2022
3143 Clear -19 1038 77 10000 3.13 120 14:37 11.02.2022
3144 Clear -19 1038 77 10000 3.13 120 14:37 11.02.2022
3145 Clear -19 1038 77 10000 3.13 120 14:19 11.02.2022
3146 Clear -19 1038 77 10000 4.02 120 13:40 11.02.2022
3147 Clear -19 1038 70 10000 3.13 120 13:21 11.02.2022
3148 Clear -19 1039 71 10000 4 130 10:55 11.02.2022
3149 Clear -19 1040 71 10000 4 130 09:32 11.02.2022
3150 Clouds -19 1040 77 10000 4.02 140 08:31 11.02.2022
3151 Clouds -21 1040 84 10000 4 140 07:40 11.02.2022
3152 Clouds -23 1041 77 6000 3 150 05:34 11.02.2022
3153 Clear -22 1041 77 10000 3 140 02:21 11.02.2022
3154 Clear -20 1042 84 10000 3.13 140 23:45 10.02.2022
3155 Clear -19 1042 78 10000 3 150 22:25 10.02.2022
3156 Clear -19 1042 78 10000 2 140 21:40 10.02.2022
3157 Clear -19 1042 84 10000 2 140 20:48 10.02.2022
3158 Clear -18 1042 78 10000 3 140 19:49 10.02.2022
3159 Clear -18 1042 77 10000 3.13 140 19:21 10.02.2022
3160 Clear -17 1042 78 10000 4 150 17:53 10.02.2022
3161 Clear -17 1042 77 10000 4.02 160 17:21 10.02.2022
3162 Clear -17 1042 77 10000 4.02 160 16:31 10.02.2022
3163 Clear -16 1042 77 10000 4.02 160 15:37 10.02.2022
3164 Clear -16 1042 71 10000 4.02 160 15:18 10.02.2022
3165 Clear -16 1042 77 10000 4.02 160 14:33 10.02.2022
3166 Clear -16 1042 77 10000 4.02 150 13:34 10.02.2022
3167 Clear -16 1042 77 10000 3.13 150 12:53 10.02.2022
3168 Clear -16 1042 77 10000 3.13 140 11:48 10.02.2022
3169 Clear -16 1042 77 10000 3.13 140 11:28 10.02.2022
3170 Clear -17 1042 84 10000 3.13 150 10:21 10.02.2022
3171 Clear -18 1042 84 10000 3.13 130 09:27 10.02.2022
3172 Clear -19 1042 77 10000 2 140 08:21 10.02.2022
3173 Clear -21 1042 76 10000 3.13 160 06:19 10.02.2022
3174 Clear -24 1041 76 10000 2 140 02:28 10.02.2022
3175 Clear -23 1041 83 10000 2 150 00:51 10.02.2022
3176 Clear -22 1041 76 10000 2 150 00:30 10.02.2022
3177 Clear -21 1041 84 10000 2 150 23:49 09.02.2022
3178 Clear -23 1041 83 10000 3.13 160 22:45 09.02.2022
3179 Clear -23 1041 76 10000 2 150 22:25 09.02.2022
3180 Clear -23 1041 76 10000 2 120 21:38 09.02.2022
3181 Clear -24 1041 83 10000 2 120 21:18 09.02.2022
3182 Clouds -23 1041 83 10000 2 110 20:41 09.02.2022
3183 Clouds -22 1041 76 10000 2 110 20:20 09.02.2022
3184 Clouds -22 1041 83 10000 2 110 19:38 09.02.2022
3185 Clouds -21 1041 76 10000 3.13 100 17:43 09.02.2022
3186 Clouds -22 1041 83 10000 3.13 120 16:53 09.02.2022
3187 Clouds -22 1041 83 10000 3.13 120 15:55 09.02.2022
3188 Clear -21 1040 76 10000 3.13 100 14:43 09.02.2022
3189 Clear -20 1040 84 10000 3.13 120 12:42 09.02.2022
3190 Clear -20 1040 84 10000 3.13 120 12:42 09.02.2022
3191 Clear -19 1039 84 10000 3 130 11:20 09.02.2022
3192 Clear -19 1039 84 10000 3 130 10:31 09.02.2022
3193 Clouds -20 1039 84 10000 3 130 09:42 09.02.2022
3194 Clouds -20 1039 84 10000 3 130 09:19 09.02.2022
3195 Clouds -20 1039 76 10000 2 130 08:26 09.02.2022
3196 Clouds -25 1038 83 10000 3.13 100 05:30 09.02.2022
3197 Clouds -25 1038 83 10000 3.13 100 05:30 09.02.2022
3198 Clouds -24 1038 76 10000 3.13 100 03:50 09.02.2022
3199 Clouds -23 1037 76 10000 4.02 100 01:28 09.02.2022
3200 Clouds -23 1037 83 10000 3.13 110 23:39 08.02.2022
3201 Clouds -23 1036 83 10000 3.13 120 22:51 08.02.2022
3202 Clouds -22 1036 76 10000 3.13 120 22:22 08.02.2022
3203 Clouds -22 1036 76 10000 4.02 120 21:52 08.02.2022
3204 Clouds -22 1037 76 10000 3.13 120 21:21 08.02.2022
3205 Clouds -23 1037 83 10000 4.02 110 20:45 08.02.2022
3206 Clouds -22 1036 76 10000 4.02 110 19:52 08.02.2022
3207 Clouds -22 1036 76 10000 5 100 18:52 08.02.2022
3208 Clear -22 1035 83 10000 5 110 17:50 08.02.2022
3209 Clear -21 1035 83 10000 4.02 120 16:35 08.02.2022
3210 Clear -21 1035 83 10000 4.02 120 15:39 08.02.2022
3211 Clear -21 1035 83 10000 4.02 120 14:56 08.02.2022
3212 Clear -20 1035 76 10000 4.02 120 13:29 08.02.2022
3213 Clear -19 1035 77 10000 4.02 120 12:18 08.02.2022
3214 Clear -17 1034 71 10000 3.13 120 10:39 08.02.2022
3215 Clear -18 1034 77 10000 5 120 09:46 08.02.2022
3216 Clear -20 1034 84 10000 4.02 120 08:25 08.02.2022
3217 Clouds -22 1034 76 10000 4 120 05:41 08.02.2022
3218 Clouds -23 1034 83 10000 4.02 120 04:39 08.02.2022
3219 Clouds -23 1034 83 10000 4.02 120 04:21 08.02.2022
3220 Clouds -22 1034 76 10000 5 120 03:36 08.02.2022
3221 Clouds -22 1034 76 10000 5 120 03:18 08.02.2022
3222 Clear -22 1034 76 10000 5 120 02:59 08.02.2022
3223 Clouds -22 1034 83 10000 4.02 120 02:36 08.02.2022
3224 Clouds -22 1034 83 10000 4.02 120 02:18 08.02.2022
3225 Clouds -22 1034 83 10000 5 110 01:44 08.02.2022
3226 Clouds -22 1033 83 10000 5 110 01:24 08.02.2022
3227 Clear -21 1033 76 10000 6 110 00:55 08.02.2022
3228 Clear -21 1033 83 10000 6 110 23:58 07.02.2022
3229 Clear -21 1033 83 10000 6 110 23:40 07.02.2022
3230 Clear -21 1033 83 10000 6 110 23:40 07.02.2022
3231 Clear -20 1033 76 10000 6 110 23:18 07.02.2022
3232 Clear -20 1033 84 10000 5 120 22:54 07.02.2022
3233 Clear -20 1033 84 10000 5 110 22:18 07.02.2022
3234 Clouds -20 1033 84 10000 5 120 21:44 07.02.2022
3235 Clouds -20 1033 84 10000 5 120 21:25 07.02.2022
3236 Clouds -19 1033 77 10000 4.02 120 20:41 07.02.2022
3237 Clear -19 1033 77 10000 4.02 120 19:56 07.02.2022
3238 Clear -19 1033 77 10000 5 100 19:38 07.02.2022
3239 Clear -19 1033 84 10000 6 100 18:21 07.02.2022
3240 Clear -19 1033 84 10000 6 100 16:53 07.02.2022
3241 Clear -18 1032 84 10000 6 90 16:20 07.02.2022
3242 Clear -18 1032 84 10000 6 90 16:20 07.02.2022
3243 Clear -18 1032 84 10000 6 100 15:48 07.02.2022
3244 Clear -17 1032 84 10000 5 90 13:37 07.02.2022
3245 Clear -17 1032 84 10000 5 90 13:19 07.02.2022
3246 Clear -15 1032 84 10000 5.81 90 11:58 07.02.2022
3247 Clear -15 1032 84 10000 5.81 90 11:58 07.02.2022
3248 Clear -15 1031 84 10000 5.81 100 11:37 07.02.2022
3249 Clear -14 1032 77 10000 7.15 100 10:52 07.02.2022
3250 Clear -14 1032 77 10000 4.92 120 10:32 07.02.2022
3251 Clear -14 1031 84 10000 4.92 120 09:53 07.02.2022
3252 Clear -15 1031 77 10000 4.92 90 09:18 07.02.2022
3253 Clear -16 1031 84 10000 4.92 90 08:39 07.02.2022
3254 Clouds -18 1031 77 10000 4.92 80 07:19 07.02.2022
3255 Clear -19 1031 84 10000 4.92 90 06:34 07.02.2022
3256 Clear -21 1030 83 10000 5.81 100 03:27 07.02.2022
3257 Clear -21 1029 83 10000 1.79 70 00:45 07.02.2022
3258 Clear -21 1028 83 10000 3.13 80 23:49 06.02.2022
3259 Clear -20 1027 84 10000 3.13 90 22:49 06.02.2022
3260 Clear -20 1027 84 10000 3.13 80 21:56 06.02.2022
3261 Clear -19 1027 84 10000 4.02 70 21:35 06.02.2022
3262 Clear -20 1027 84 10000 0.89 0 20:55 06.02.2022
3263 Clear -20 1027 84 10000 0.89 0 20:55 06.02.2022
3264 Clear -19 1026 84 10000 3.13 70 20:31 06.02.2022
3265 Clear -19 1026 84 10000 4.92 70 19:38 06.02.2022
3266 Clear -18 1025 84 10000 1.79 70 18:41 06.02.2022
3267 Clear -18 1025 84 10000 1.79 80 17:56 06.02.2022
3268 Clear -17 1024 84 10000 3.13 80 17:21 06.02.2022
3269 Clear -17 1024 84 10000 4.02 70 16:47 06.02.2022
3270 Clear -16 1024 84 10000 4.92 60 15:49 06.02.2022
3271 Clear -15 1023 84 10000 4.02 70 15:27 06.02.2022
3272 Clear -15 1023 84 10000 4.92 60 14:45 06.02.2022
3273 Clear -13 1022 92 10000 4.02 50 13:27 06.02.2022
3274 Clouds -12 1022 85 10000 4.02 60 12:58 06.02.2022
3275 Snow -10 1021 78 4400 4.02 50 11:35 06.02.2022
3276 Snow -9 1020 78 7000 4.92 60 10:31 06.02.2022
3277 Snow -9 1020 85 7000 5.81 70 08:59 06.02.2022
3278 Clouds -9 1019 85 10000 5.81 70 08:30 06.02.2022
3279 Snow -10 1020 85 10000 4.92 80 05:31 06.02.2022
3280 Snow -10 1020 85 10000 4.92 80 05:31 06.02.2022
3281 Snow -10 1020 85 3200 5.81 90 02:50 06.02.2022
3282 Snow -10 1020 92 2000 5.81 90 02:24 06.02.2022
3283 Snow -9 1021 85 2000 4.92 90 00:29 06.02.2022
3284 Snow -10 1021 92 1700 4.92 80 22:31 05.02.2022
3285 Snow -10 1021 92 1900 4.92 90 21:32 05.02.2022
3286 Snow -10 1022 92 6000 4.92 80 20:24 05.02.2022
3287 Snow -10 1022 92 10000 4.02 90 19:46 05.02.2022
3288 Snow -9 1022 85 3200 4.02 80 18:58 05.02.2022
3289 Clear -10 1022 92 10000 4.02 90 17:45 05.02.2022
3290 Clear -10 1022 92 10000 3.13 110 17:25 05.02.2022
3291 Clouds -10 1023 92 10000 4.02 90 15:40 05.02.2022
3292 Clouds -10 1023 92 10000 4.02 90 15:21 05.02.2022
3293 Clouds -9 1022 92 10000 1.79 50 12:47 05.02.2022
3294 Clouds -9 1023 85 10000 1.79 60 12:27 05.02.2022
3295 Clouds -8 1022 85 10000 0.89 10 10:48 05.02.2022
3296 Clouds -8 1022 85 10000 0 0 10:20 05.02.2022
3297 Clear -8 1022 85 10000 0.89 0 09:43 05.02.2022
3298 Clouds -9 1021 92 10000 1.79 240 07:51 05.02.2022
3299 Clouds -9 1021 92 10000 3.13 280 06:57 05.02.2022
3300 Clouds -8 1020 86 10000 2 290 04:30 05.02.2022
3301 Clouds -7 1018 86 10000 5 280 01:19 05.02.2022
3302 Clouds -7 1018 86 10000 4 290 00:53 05.02.2022
3303 Snow -6 1017 86 9000 6 300 23:41 04.02.2022
3304 Snow -6 1017 86 9000 6 300 23:23 04.02.2022
3305 Clouds -5 1016 85 10000 4.92 250 21:54 04.02.2022
3306 Clouds -4 1016 85 10000 4.92 250 21:36 04.02.2022
3307 Clouds -4 1016 85 10000 4.92 250 21:18 04.02.2022
3308 Clouds -4 1015 85 10000 5.81 250 19:39 04.02.2022
3309 Clouds -4 1015 85 10000 4.02 230 17:43 04.02.2022
3310 Snow -4 1015 85 7000 4.02 230 15:39 04.02.2022
3311 Snow -5 1015 92 10000 4.02 220 14:54 04.02.2022
3312 Snow -5 1015 92 7000 4.02 230 13:31 04.02.2022
3313 Snow -5 1015 92 7000 4.92 220 12:43 04.02.2022
3314 Clouds -5 1014 85 10000 4.02 230 11:41 04.02.2022
3315 Snow -6 1014 92 10000 4.92 230 10:36 04.02.2022
3316 Snow -6 1013 85 9000 4.92 230 08:34 04.02.2022
3317 Snow -7 1013 92 5000 4.02 220 06:18 04.02.2022
3318 Snow -6 1014 85 2100 4.92 190 02:44 04.02.2022
3319 Snow -6 1015 92 1100 4.02 180 01:48 04.02.2022
3320 Clouds -5 1017 85 10000 4.02 170 23:29 03.02.2022
3321 Snow -5 1018 85 10000 4.02 150 22:33 03.02.2022
3322 Snow -5 1020 85 10000 4.92 190 21:49 03.02.2022
3323 Snow -5 1020 85 2300 4.02 190 20:38 03.02.2022
3324 Snow -6 1020 92 2300 4.02 190 20:18 03.02.2022
3325 Snow -6 1021 92 1100 4.92 190 19:30 03.02.2022
3326 Snow -6 1021 92 2300 4.92 170 18:34 03.02.2022
3327 Snow -6 1022 85 3200 4.92 190 17:32 03.02.2022
3328 Clouds -7 1023 92 10000 4.02 190 16:25 03.02.2022
3329 Clear -7 1024 92 10000 3.13 200 14:37 03.02.2022
3330 Clouds -5 1024 85 10000 4.92 230 12:51 03.02.2022
3331 Clouds -4 1023 85 10000 4.92 220 10:45 03.02.2022
3332 Snow -4 1023 85 4500 4.92 230 08:35 03.02.2022
3333 Snow -5 1020 92 2600 4.92 210 03:57 03.02.2022
3334 Clouds -6 1020 92 10000 4.92 190 00:30 03.02.2022
3335 Snow -6 1020 92 7000 4.02 200 23:36 02.02.2022
3336 Snow -6 1020 92 4100 4.02 190 21:54 02.02.2022
3337 Snow -6 1020 92 3000 4.02 180 21:30 02.02.2022
3338 Snow -6 1020 92 3100 3.13 170 20:38 02.02.2022
3339 Snow -6 1021 92 3700 4.02 170 19:55 02.02.2022
3340 Snow -6 1021 92 5000 3.13 170 19:26 02.02.2022
3341 Clouds -6 1021 92 10000 3.13 180 18:34 02.02.2022
3342 Clouds -7 1021 92 10000 3.13 160 17:38 02.02.2022
3343 Clouds -8 1022 92 10000 3.13 160 17:19 02.02.2022
3344 Clouds -8 1022 92 10000 3.13 150 16:30 02.02.2022
3345 Snow -14 1023 84 6000 1.79 140 12:54 02.02.2022
3346 Snow -13 1023 92 3800 1.79 160 12:18 02.02.2022
3347 Snow -14 1023 84 3000 1.79 130 11:31 02.02.2022
3348 Clouds -16 1023 92 10000 2 120 09:46 02.02.2022
3349 Snow -18 1024 84 7000 1.79 100 07:32 02.02.2022
3350 Clear -24 1024 76 10000 0 0 22:46 01.02.2022
3351 Clear -23 1023 84 10000 1 230 21:36 01.02.2022
3352 Clouds -23 1023 84 9000 1 250 19:57 01.02.2022
3353 Clouds -23 1022 83 9000 0.89 0 17:38 01.02.2022
3354 Clear -23 1022 84 10000 2 250 16:36 01.02.2022
3355 Clouds -21 1021 84 10000 1 0 13:32 01.02.2022
3356 Mist -19 1021 77 5000 0.89 240 12:30 01.02.2022
3357 Clouds -19 1020 78 10000 1 260 11:19 01.02.2022
3358 Clouds -20 1018 84 10000 0.89 0 02:32 01.02.2022
3359 Clouds -20 1017 84 10000 0.89 150 23:41 31.01.2022
3360 Snow -20 1017 84 8000 1.79 120 22:48 31.01.2022
3361 Snow -19 1017 84 9000 1.79 120 21:38 31.01.2022
3362 Snow -17 1017 84 7000 1.79 150 20:50 31.01.2022
3363 Snow -17 1017 84 10000 1.79 150 20:27 31.01.2022
3364 Clouds -16 1017 91 10000 1.79 140 19:20 31.01.2022
3365 Clouds -15 1017 84 10000 1.79 150 18:20 31.01.2022
3366 Clouds -15 1017 84 10000 1.79 160 17:25 31.01.2022
3367 Clouds -15 1017 92 10000 1.79 160 16:26 31.01.2022
3368 Snow -14 1017 84 9000 3.13 160 14:54 31.01.2022
3369 Snow -13 1017 84 7000 4.02 160 13:51 31.01.2022
3370 Clouds -13 1016 84 10000 3.13 160 12:38 31.01.2022
3371 Clouds -13 1016 84 10000 3.13 160 11:42 31.01.2022
3372 Clouds -13 1016 84 10000 3.13 160 10:50 31.01.2022
3373 Clouds -13 1016 84 10000 3.13 150 09:59 31.01.2022
3374 Clouds -13 1016 84 10000 3.13 150 08:59 31.01.2022
3375 Clouds -13 1016 84 10000 3.13 150 08:39 31.01.2022
3376 Clouds -13 1016 84 10000 3.13 150 08:20 31.01.2022
3377 Snow -13 1016 92 6000 3.13 150 06:18 31.01.2022
3378 Snow -13 1016 85 10000 3 160 00:46 31.01.2022
3379 Clouds -15 1016 85 10000 2 130 22:40 30.01.2022
3380 Clouds -15 1016 84 10000 1.79 130 22:22 30.01.2022
3381 Clouds -15 1016 84 10000 4.02 150 21:38 30.01.2022
3382 Clouds -15 1016 84 10000 3.13 130 21:18 30.01.2022
3383 Clouds -16 1016 91 10000 1.79 130 20:45 30.01.2022
3384 Clouds -15 1016 84 10000 3.13 120 20:27 30.01.2022
3385 Clouds -16 1017 84 10000 4.02 110 19:24 30.01.2022
3386 Clouds -15 1017 84 10000 4.02 120 18:36 30.01.2022
3387 Clouds -15 1017 84 10000 4.02 110 17:54 30.01.2022
3388 Clouds -15 1017 84 10000 4.02 120 17:21 30.01.2022
3389 Clear -15 1017 84 10000 4.02 110 16:39 30.01.2022
3390 Clear -15 1017 84 10000 4.02 110 16:21 30.01.2022
3391 Clear -15 1017 84 10000 4.02 110 15:49 30.01.2022
3392 Clear -15 1017 85 10000 4 110 15:31 30.01.2022
3393 Clear -15 1018 85 10000 3 120 14:45 30.01.2022
3394 Clear -16 1018 85 10000 4 110 12:46 30.01.2022
3395 Clear -16 1019 85 10000 4 100 11:53 30.01.2022
3396 Clouds -16 1019 85 10000 4 110 10:29 30.01.2022
3397 Clouds -16 1019 85 10000 3 100 09:50 30.01.2022
3398 Clouds -16 1020 85 10000 3 120 08:52 30.01.2022
3399 Clouds -17 1020 85 10000 3 100 06:55 30.01.2022
3400 Clouds -19 1022 84 7000 1.79 160 01:55 30.01.2022
3401 Clear -19 1022 84 10000 0.89 0 00:22 30.01.2022
3402 Clouds -19 1022 84 10000 1.79 160 22:58 29.01.2022
3403 Clear -19 1023 84 10000 1.79 150 21:47 29.01.2022
3404 Clear -20 1023 84 10000 0.89 150 21:23 29.01.2022
3405 Clouds -19 1023 84 10000 1.79 190 20:22 29.01.2022
3406 Clouds -19 1023 77 9000 1.79 190 19:33 29.01.2022
3407 Clouds -20 1023 84 8000 1.79 190 18:52 29.01.2022
3408 Clouds -20 1023 84 8000 1.79 190 18:18 29.01.2022
3409 Mist -20 1023 84 10000 0 0 17:28 29.01.2022
3410 Clouds -19 1023 84 10000 3 190 15:50 29.01.2022
3411 Mist -22 1023 76 5000 0.89 150 13:59 29.01.2022
3412 Clouds -22 1023 76 8000 0.89 150 13:41 29.01.2022
3413 Clouds -21 1023 83 8000 1 0 13:22 29.01.2022
3414 Clouds -21 1023 83 10000 1.79 220 11:47 29.01.2022
3415 Clouds -20 1023 84 10000 1.79 210 10:54 29.01.2022
3416 Clouds -20 1023 76 10000 0.89 220 08:42 29.01.2022
3417 Clouds -22 1022 83 6000 1.79 220 06:37 29.01.2022
3418 Clear -21 1021 84 10000 1 230 00:34 29.01.2022
3419 Clear -21 1021 84 10000 1 210 23:51 28.01.2022
3420 Clear -21 1021 84 10000 1 220 22:50 28.01.2022
3421 Clear -21 1021 84 10000 1 0 22:21 28.01.2022
3422 Clear -20 1021 84 10000 2 220 21:35 28.01.2022
3423 Clear -20 1020 84 10000 1.79 220 20:29 28.01.2022
3424 Clear -20 1020 84 10000 1.79 210 19:28 28.01.2022
3425 Clouds -20 1020 84 10000 1.79 200 18:42 28.01.2022
3426 Clear -18 1020 84 10000 3.13 220 16:45 28.01.2022
3427 Clear -17 1020 91 10000 4.02 220 14:59 28.01.2022
3428 Clear -16 1019 84 10000 3.13 210 13:34 28.01.2022
3429 Clear -15 1019 84 10000 3.13 200 12:26 28.01.2022
3430 Clear -15 1018 84 10000 4.02 200 10:41 28.01.2022
3431 Clear -15 1018 84 10000 4.02 210 09:48 28.01.2022
3432 Clouds -16 1018 84 10000 4.02 200 07:43 28.01.2022
3433 Clouds -17 1018 85 10000 3 200 06:32 28.01.2022
3434 Clouds -16 1018 85 10000 4 190 03:52 28.01.2022
3435 Clouds -15 1018 84 10000 4.02 200 02:29 28.01.2022
3436 Clouds -15 1018 84 10000 3.13 200 01:57 28.01.2022
3437 Clouds -15 1017 84 10000 3.13 200 01:30 28.01.2022
3438 Clouds -13 1017 84 10000 4.02 200 22:40 27.01.2022
3439 Clouds -13 1017 84 10000 4.02 190 21:41 27.01.2022
3440 Clouds -13 1018 84 10000 4.02 190 21:21 27.01.2022
3441 Snow -12 1018 85 9000 4.02 200 19:47 27.01.2022
3442 Snow -12 1018 92 7000 4.02 190 18:23 27.01.2022
3443 Clouds -12 1018 92 10000 4.92 180 17:18 27.01.2022
3444 Clear -13 1019 92 10000 4.92 160 14:24 27.01.2022
3445 Clear -14 1021 84 10000 4.92 160 12:53 27.01.2022
3446 Clear -14 1021 84 10000 4.02 150 12:20 27.01.2022
3447 Clouds -15 1022 84 10000 3.13 150 09:51 27.01.2022
3448 Clouds -16 1022 85 8000 3 150 08:40 27.01.2022
3449 Clouds -16 1022 84 10000 1.79 140 07:58 27.01.2022
3450 Snow -17 1023 84 10000 3.13 150 03:34 27.01.2022
3451 Snow -16 1023 85 10000 3 160 00:24 27.01.2022
3452 Snow -15 1023 85 3000 4 190 22:28 26.01.2022
3453 Snow -15 1023 85 7000 3 190 21:44 26.01.2022
3454 Snow -15 1023 85 4900 4 190 20:57 26.01.2022
3455 Snow -15 1023 92 4800 4 190 20:33 26.01.2022
3456 Snow -15 1023 85 4900 3 190 19:49 26.01.2022
3457 Clouds -15 1022 84 10000 3.13 190 18:52 26.01.2022
3458 Clouds -15 1022 84 10000 3.13 190 18:24 26.01.2022
3459 Snow -15 1022 84 9000 3.13 180 17:34 26.01.2022
3460 Snow -15 1022 84 10000 3.13 170 16:56 26.01.2022
3461 Snow -15 1022 84 10000 3.13 180 16:23 26.01.2022
3462 Snow -16 1022 84 10000 3.13 170 14:54 26.01.2022
3463 Clouds -18 1022 84 8000 3.13 160 12:22 26.01.2022
3464 Clouds -18 1022 84 10000 3.13 160 10:52 26.01.2022
3465 Clouds -17 1022 84 9000 3.13 180 09:55 26.01.2022
3466 Clouds -18 1022 84 9000 1.79 170 09:36 26.01.2022
3467 Clouds -18 1022 84 8000 1.79 180 06:42 26.01.2022
3468 Clouds -15 1022 85 10000 1 0 00:24 26.01.2022
3469 Clouds -15 1022 85 10000 2 140 23:41 25.01.2022
3470 Clouds -15 1022 85 10000 1 160 22:49 25.01.2022
3471 Clouds -15 1022 85 10000 1 160 22:19 25.01.2022
3472 Clouds -15 1022 85 10000 1 130 21:27 25.01.2022
3473 Clouds -16 1021 92 10000 2 130 20:45 25.01.2022
3474 Clouds -16 1021 85 10000 2 150 19:57 25.01.2022
3475 Clouds -16 1021 85 10000 2 130 19:28 25.01.2022
3476 Snow -18 1021 84 8000 3.13 90 17:56 25.01.2022
3477 Snow -18 1021 84 8000 3.13 90 17:20 25.01.2022
3478 Snow -18 1021 84 7000 3.13 90 16:34 25.01.2022
3479 Clouds -18 1021 84 10000 1.79 100 15:39 25.01.2022
3480 Clouds -18 1021 84 10000 1.79 100 15:19 25.01.2022
3481 Clouds -19 1021 84 10000 3.13 100 14:51 25.01.2022
3482 Clouds -18 1021 84 10000 4.02 110 12:20 25.01.2022
3483 Clouds -16 1021 85 10000 4 120 09:35 25.01.2022
3484 Clouds -16 1022 85 7000 3 120 07:52 25.01.2022
3485 Snow -16 1022 85 7000 3 120 07:20 25.01.2022
3486 Snow -16 1022 84 8000 0.89 0 05:23 25.01.2022
3487 Snow -16 1022 84 8000 0.89 0 05:23 25.01.2022
3488 Snow -16 1024 84 10000 3.13 150 00:31 25.01.2022
3489 Snow -16 1025 84 10000 3.13 160 23:36 24.01.2022
3490 Snow -16 1025 84 10000 3.13 160 23:18 24.01.2022
3491 Snow -16 1025 84 10000 4.02 150 22:42 24.01.2022
3492 Snow -16 1026 84 10000 3.13 150 22:19 24.01.2022
3493 Clouds -16 1026 91 10000 3.13 160 21:40 24.01.2022
3494 Clouds -15 1027 84 10000 3.13 160 21:19 24.01.2022
3495 Clouds -16 1027 85 10000 3 190 20:26 24.01.2022
3496 Clouds -16 1027 85 10000 3 190 20:26 24.01.2022
3497 Clouds -15 1027 92 10000 3 190 19:38 24.01.2022
3498 Clouds -14 1027 85 10000 3 190 18:50 24.01.2022
3499 Snow -14 1028 85 6000 2 170 17:25 24.01.2022
3500 Snow -15 1029 85 9000 2 170 16:59 24.01.2022
3501 Snow -15 1029 85 7000 2 190 16:30 24.01.2022
3502 Clouds -15 1030 85 10000 2 210 14:56 24.01.2022
3503 Clouds -14 1030 85 10000 2 210 13:39 24.01.2022
3504 Clouds -13 1030 85 10000 2 200 12:33 24.01.2022
3505 Clouds -12 1030 85 10000 3.13 210 11:21 24.01.2022
3506 Clouds -12 1031 85 10000 1.79 220 10:18 24.01.2022
3507 Clouds -12 1031 85 10000 1.79 220 09:44 24.01.2022
3508 Snow -12 1031 85 10000 1.79 200 07:40 24.01.2022
3509 Snow -12 1032 85 6000 2 240 01:38 24.01.2022
3510 Snow -12 1032 92 9000 0.89 200 00:50 24.01.2022
3511 Snow -12 1032 92 5000 0.89 200 00:29 24.01.2022
3512 Snow -12 1032 92 10000 0.89 0 22:58 23.01.2022
3513 Clouds -12 1032 85 10000 2 110 21:52 23.01.2022
3514 Snow -12 1032 85 10000 1 0 21:27 23.01.2022
3515 Snow -12 1033 85 8000 1 0 20:55 23.01.2022
3516 Snow -12 1033 85 9000 0 0 20:21 23.01.2022
3517 Snow -12 1033 85 10000 0 0 18:53 23.01.2022
3518 Snow -13 1033 92 9000 0.89 190 17:56 23.01.2022
3519 Snow -13 1033 92 7000 0 0 16:55 23.01.2022
3520 Snow -12 1033 85 10000 1 230 15:46 23.01.2022
3521 Snow -12 1033 85 8000 1 230 14:48 23.01.2022
3522 Snow -12 1033 92 6000 2 230 14:18 23.01.2022
3523 Snow -12 1032 92 5000 2 210 12:44 23.01.2022
3524 Snow -11 1032 85 5000 1 0 12:19 23.01.2022
3525 Snow -12 1032 85 5000 0.89 0 11:25 23.01.2022
3526 Snow -12 1031 85 7000 0 0 10:57 23.01.2022
3527 Snow -13 1031 92 10000 0.89 220 10:24 23.01.2022
3528 Snow -12 1031 85 6000 1.79 210 09:26 23.01.2022
3529 Snow -12 1030 85 4400 2 230 06:18 23.01.2022
3530 Snow -12 1030 85 10000 2 230 03:20 23.01.2022
3531 Snow -12 1029 92 10000 1 0 01:36 23.01.2022
3532 Snow -12 1029 92 10000 1 0 00:46 23.01.2022
3533 Clouds -22 1031 100 2701 1.41 221 23:58 22.01.2022
3534 Clouds -12 1029 92 10000 2 230 22:48 22.01.2022
3535 Clouds -21 1031 100 2554 1.3 209 22:19 22.01.2022
3536 Clouds -11 1028 85 10000 2 210 20:33 22.01.2022
3537 Clouds -11 1028 85 10000 2 200 19:41 22.01.2022
3538 Clouds -22 1030 100 5018 1.45 221 18:37 22.01.2022
3539 Clouds -22 1030 100 5289 1.5 225 17:45 22.01.2022
3540 Clouds -11 1028 85 10000 2 210 17:19 22.01.2022
3541 Clouds -11 1028 85 10000 2 220 16:54 22.01.2022
3542 Clouds -11 1027 85 10000 2 200 15:45 22.01.2022
3543 Clouds -11 1027 85 10000 2 210 14:42 22.01.2022
3544 Clouds -11 1026 85 10000 2 230 13:28 22.01.2022
3545 Clouds -11 1026 85 10000 2 210 12:37 22.01.2022
3546 Clouds -11 1026 85 10000 2 210 12:18 22.01.2022
3547 Clouds -11 1026 85 10000 3 200 10:54 22.01.2022
3548 Clouds -11 1025 85 10000 3.13 220 10:23 22.01.2022
3549 Clouds -11 1025 85 10000 4.02 230 08:56 22.01.2022
3550 Clouds -11 1025 85 10000 4.02 230 08:38 22.01.2022
3551 Clouds -11 1024 85 10000 3.13 230 06:46 22.01.2022
3552 Snow -11 1023 85 10000 3.13 200 02:39 22.01.2022
3553 Snow -11 1022 85 6000 4.02 210 23:50 21.01.2022
3554 Snow -11 1022 85 6000 4.02 220 23:20 21.01.2022
3555 Snow -11 1021 85 1700 4.92 200 21:18 21.01.2022
3556 Snow -11 1020 92 2200 4.92 200 19:30 21.01.2022
3557 Snow -10 1020 85 1700 4.92 200 17:50 21.01.2022
3558 Snow -10 1020 85 1800 4.92 180 15:56 21.01.2022
3559 Clear -10 1020 85 10000 4.02 170 14:58 21.01.2022
3560 Clouds -10 1022 89 10000 5.32 187 12:43 21.01.2022
3561 Clear -10 1020 85 10000 5.81 170 11:29 21.01.2022
3562 Clear -10 1020 85 10000 5.81 180 10:33 21.01.2022
3563 Clear -10 1020 85 10000 4.92 190 08:58 21.01.2022
3564 Clear -10 1020 85 10000 4.02 190 07:48 21.01.2022
3565 Clear -12 1020 92 10000 5.81 190 01:51 21.01.2022
3566 Clear -11 1021 85 10000 4.02 190 22:47 20.01.2022
3567 Clear -11 1021 92 10000 4.02 190 21:49 20.01.2022
3568 Clear -11 1021 92 10000 4.02 190 21:25 20.01.2022
3569 Clouds -9 1021 92 10000 4.92 200 19:47 20.01.2022
3570 Clouds -8 1020 85 10000 4.92 210 19:18 20.01.2022
3571 Clouds -7 1020 92 10000 4.92 210 17:37 20.01.2022
3572 Clouds -6 1020 86 10000 6 210 16:19 20.01.2022
3573 Clouds -6 1019 93 10000 6 210 15:29 20.01.2022
3574 Clouds -6 1019 93 10000 6 200 14:19 20.01.2022
3575 Clouds -5 1019 86 10000 4 210 12:49 20.01.2022
3576 Snow -5 1019 86 8000 5 210 12:29 20.01.2022
3577 Snow -5 1018 93 3000 5 220 11:19 20.01.2022
3578 Clouds -5 1018 92 10000 5.81 230 09:50 20.01.2022
3579 Clouds -5 1017 93 10000 6 230 08:45 20.01.2022
3580 Snow -5 1016 93 10000 6 230 06:49 20.01.2022
3581 Clouds -6 1014 93 10000 5 230 00:40 20.01.2022
3582 Clouds -6 1013 86 10000 5 220 22:38 19.01.2022
3583 Clouds -6 1013 86 10000 5 230 21:34 19.01.2022
3584 Clouds -6 1013 86 10000 6 230 20:56 19.01.2022
3585 Clouds -6 1013 86 10000 6 230 20:30 19.01.2022
3586 Clouds -7 1012 93 10000 5 230 18:52 19.01.2022
3587 Clouds -7 1012 86 10000 5 220 17:51 19.01.2022
3588 Clouds -7 1012 86 10000 5 230 17:18 19.01.2022
3589 Clouds -7 1012 86 10000 5 230 17:18 19.01.2022
3590 Clouds -7 1012 86 10000 5 230 17:18 19.01.2022
3591 Clouds -7 1012 86 10000 5 230 17:18 19.01.2022
3592 Clouds -8 1011 92 10000 4.92 220 15:32 19.01.2022
3593 Clouds -8 1011 85 10000 5.81 220 13:25 19.01.2022
3594 Snow -7 1010 85 8000 4.92 230 11:58 19.01.2022
3595 Snow -7 1010 85 8000 4.92 230 11:38 19.01.2022
3596 Clouds -8 1009 85 10000 4.92 230 09:35 19.01.2022
3597 Clouds -7 1008 79 10000 4.92 230 08:33 19.01.2022
3598 Clouds -7 1008 85 10000 5.81 240 05:19 19.01.2022
3599 Clouds -7 1006 85 10000 5.81 230 00:21 19.01.2022
3600 Clouds -7 1006 85 10000 5.81 220 23:18 18.01.2022
3601 Clouds -7 1006 85 10000 5.81 220 23:18 18.01.2022
3602 Snow -7 1006 85 1900 5.81 220 21:44 18.01.2022
3603 Snow -8 1005 85 1700 4.92 220 20:34 18.01.2022
3604 Clouds -8 1005 85 10000 5.81 210 19:49 18.01.2022
3605 Snow -8 1005 85 3900 5.81 210 19:31 18.01.2022
3606 Snow -8 1005 85 1600 5.81 210 18:19 18.01.2022
3607 Snow -9 1005 92 2500 4.92 210 17:32 18.01.2022
3608 Snow -9 1005 85 4400 4.02 200 16:20 18.01.2022
3609 Snow -10 1005 85 9000 4.02 200 15:25 18.01.2022
3610 Snow -11 1005 85 10000 4.02 210 14:22 18.01.2022
3611 Snow -12 1005 78 6000 3.13 210 11:31 18.01.2022
3612 Snow -13 1004 84 8000 4.02 200 10:25 18.01.2022
3613 Snow -14 1004 77 7000 4.02 200 08:29 18.01.2022
3614 Snow -15 1003 84 6000 3.13 200 07:42 18.01.2022
3615 Clouds -16 1000 77 10000 7.15 230 00:38 18.01.2022
3616 Clouds -17 999 77 10000 7.15 230 22:39 17.01.2022
3617 Clouds -17 997 77 10000 7.15 220 21:41 17.01.2022
3618 Clouds -17 996 77 10000 8.94 230 20:39 17.01.2022
3619 Snow -15 994 77 7000 8.94 230 18:46 17.01.2022
3620 Snow -15 994 77 3400 9.83 230 18:24 17.01.2022
3621 Snow -14 992 77 3000 8.94 230 17:19 17.01.2022
3622 Clouds -13 990 78 1900 11.18 230 15:47 17.01.2022
3623 Clouds -12 988 85 900 9.83 230 14:58 17.01.2022
3624 Clouds -11 987 85 900 11.18 230 14:22 17.01.2022
3625 Clouds -10 986 85 1300 12.07 230 13:18 17.01.2022
3626 Clouds -9 983 85 1300 9.83 210 11:51 17.01.2022
3627 Clouds -8 981 85 1600 8.94 200 10:47 17.01.2022
3628 Clouds -7 979 85 900 8.94 190 09:35 17.01.2022
3629 Clouds -7 979 85 1000 8.05 200 08:43 17.01.2022
3630 Clouds -5 978 85 1700 8.05 180 07:20 17.01.2022
3631 Snow -6 982 85 6000 5.81 140 00:58 17.01.2022
3632 Clouds -6 983 85 1400 5.81 130 23:27 16.01.2022
3633 Snow -7 988 92 1500 7.15 120 20:41 16.01.2022
3634 Snow -7 990 92 9000 5.81 120 19:55 16.01.2022
3635 Clouds -7 992 92 10000 5.81 130 18:45 16.01.2022
3636 Clouds -7 993 92 10000 4.92 130 17:46 16.01.2022
3637 Clouds -6 995 85 10000 5.81 130 16:50 16.01.2022
3638 Clouds -6 996 85 10000 4.92 150 15:34 16.01.2022
3639 Clouds -7 997 92 10000 4.92 170 14:29 16.01.2022
3640 Clouds -8 997 92 10000 4.02 160 12:51 16.01.2022
3641 Clouds -8 997 85 10000 4.02 160 11:48 16.01.2022
3642 Clouds -9 997 92 10000 4.02 160 10:58 16.01.2022
3643 Clouds -9 997 85 10000 4.02 170 10:26 16.01.2022
3644 Clouds -9 997 85 10000 4.02 160 09:54 16.01.2022
3645 Clouds -9 997 85 10000 4.02 170 09:22 16.01.2022
3646 Snow -9 997 85 9000 4.02 180 08:38 16.01.2022
3647 Clouds -12 994 85 10000 4.92 160 03:21 16.01.2022
3648 Snow -14 994 84 7000 4.02 130 23:50 15.01.2022
3649 Snow -14 994 84 7000 4.02 130 23:50 15.01.2022
3650 Snow -14 994 78 5000 5 120 22:19 15.01.2022
3651 Snow -14 994 84 1700 4.02 120 21:19 15.01.2022
3652 Snow -14 994 84 6000 4.02 120 20:40 15.01.2022
3653 Snow -14 995 84 10000 4.02 120 19:30 15.01.2022
3654 Snow -14 994 84 10000 4.92 110 18:45 15.01.2022
3655 Snow -14 996 84 7000 4.92 130 17:30 15.01.2022
3656 Snow -14 996 84 7000 4.92 120 15:59 15.01.2022
3657 Snow -14 997 84 7000 5.81 140 13:56 15.01.2022
3658 Snow -14 997 84 7000 4.92 130 12:18 15.01.2022
3659 Snow -14 997 84 6000 4.92 130 10:38 15.01.2022
3660 Snow -14 998 84 9000 5.81 130 08:31 15.01.2022
3661 Clear -16 1003 84 10000 4.92 150 00:28 15.01.2022
3662 Clouds -17 1005 77 9000 5.81 150 21:52 14.01.2022
3663 Clouds -18 1005 84 8000 5.81 150 20:41 14.01.2022
3664 Clouds -18 1005 84 8000 4.92 150 20:20 14.01.2022
3665 Mist -17 1007 77 10000 4.02 150 18:49 14.01.2022
3666 Clear -17 1007 84 10000 5.81 160 17:57 14.01.2022
3667 Clear -15 1007 77 10000 7.15 160 16:48 14.01.2022
3668 Clear -14 1007 77 10000 7.15 170 15:39 14.01.2022
3669 Clear -13 1008 66 10000 7.15 180 14:42 14.01.2022
3670 Clear -12 1008 66 10000 7.15 180 13:35 14.01.2022
3671 Clear -11 1008 66 10000 5.81 190 12:28 14.01.2022
3672 Clear -10 1008 72 10000 5.81 190 10:53 14.01.2022
3673 Clear -10 1009 66 10000 5.81 190 08:54 14.01.2022
3674 Clear -10 1009 66 10000 5.81 190 08:34 14.01.2022
3675 Clear -8 1009 67 10000 8.05 220 05:29 14.01.2022
3676 Clear -12 1010 72 10000 5.81 200 01:20 14.01.2022
3677 Clear -14 1011 72 10000 5 210 22:52 13.01.2022
3678 Clear -14 1011 65 10000 7.15 210 21:31 13.01.2022
3679 Clear -14 1011 65 10000 4.92 210 20:57 13.01.2022
3680 Clear -17 1012 78 10000 4 200 19:40 13.01.2022
3681 Clear -17 1012 77 10000 4.02 200 19:21 13.01.2022
3682 Clear -17 1013 77 10000 4.02 210 17:52 13.01.2022
3683 Clear -15 1014 71 10000 4.02 220 16:21 13.01.2022
3684 Clear -13 1014 72 10000 5 240 15:37 13.01.2022
3685 Clear -13 1014 78 10000 4 240 14:40 13.01.2022
3686 Clear -16 1014 84 10000 4.02 230 12:37 13.01.2022
3687 Clear -19 1015 84 10000 3.13 230 10:23 13.01.2022
3688 Clear -20 1015 84 10000 3 230 08:58 13.01.2022
3689 Clear -21 1015 84 10000 3 230 08:26 13.01.2022
3690 Clear -21 1015 77 10000 3 230 07:23 13.01.2022
3691 Clear -22 1016 84 10000 3 220 05:59 13.01.2022
3692 Clouds -21 1016 77 10000 3 220 05:19 13.01.2022
3693 Clouds -20 1017 76 10000 3.13 230 01:56 13.01.2022
3694 Clouds -20 1018 76 10000 3.13 230 00:49 13.01.2022
3695 Clouds -20 1018 84 10000 3.13 220 23:46 12.01.2022
3696 Clouds -19 1018 84 10000 3 240 22:59 12.01.2022
3697 Snow -18 1019 85 10000 3 220 21:57 12.01.2022
3698 Snow -18 1019 85 10000 3 220 21:57 12.01.2022
3699 Snow -18 1019 85 10000 2 220 21:22 12.01.2022
3700 Snow -18 1019 85 10000 2 200 20:56 12.01.2022
3701 Snow -18 1019 85 10000 2 240 19:41 12.01.2022
3702 Snow -18 1019 85 10000 2 240 18:30 12.01.2022
3703 Snow -18 1019 85 10000 2 240 17:20 12.01.2022
3704 Snow -18 1019 85 10000 3 250 16:28 12.01.2022
3705 Snow -18 1020 85 10000 3 250 14:48 12.01.2022
3706 Snow -18 1019 84 7000 1.79 220 12:59 12.01.2022
3707 Snow -18 1019 84 7000 1.79 220 12:59 12.01.2022
3708 Snow -19 1020 84 7000 1.79 240 10:48 12.01.2022
3709 Snow -20 1020 76 5000 1.79 190 08:38 12.01.2022
3710 Clear -21 1020 76 10000 1.79 190 07:49 12.01.2022
3711 Clear -22 1021 83 10000 0.89 230 07:31 12.01.2022
3712 Fog -26 1023 76 5000 2 290 23:40 11.01.2022
3713 Mist -26 1023 76 2800 2 290 22:49 11.01.2022
3714 Clouds -26 1023 83 10000 3.13 300 22:22 11.01.2022
3715 Clouds -26 1023 75 10000 3.13 290 20:51 11.01.2022
3716 Clear -24 1023 84 10000 3 290 19:48 11.01.2022
3717 Clouds -23 1022 83 10000 3.13 280 18:31 11.01.2022
3718 Clouds -21 1022 83 10000 1.79 290 17:24 11.01.2022
3719 Clear -23 1022 83 10000 1.79 290 16:37 11.01.2022
3720 Clouds -22 1022 76 10000 3.13 280 15:35 11.01.2022
3721 Clear -20 1021 84 10000 1.79 290 14:42 11.01.2022
3722 Clouds -19 1021 84 10000 3.13 290 13:55 11.01.2022
3723 Clouds -18 1021 84 10000 3.13 280 13:34 11.01.2022
3724 Clouds -17 1021 84 10000 3.13 280 12:42 11.01.2022
3725 Clouds -16 1020 84 10000 1.79 280 11:40 11.01.2022
3726 Clouds -13 1019 84 10000 3.13 260 09:29 11.01.2022
3727 Snow -13 1019 84 6000 3.13 240 06:37 11.01.2022
3728 Snow -13 1020 85 3800 4 220 00:31 11.01.2022
3729 Snow -14 1020 85 8000 3 220 23:41 10.01.2022
3730 Clouds -15 1020 85 10000 3 220 22:51 10.01.2022
3731 Snow -15 1020 92 10000 3 210 22:19 10.01.2022
3732 Snow -14 1020 85 10000 3 220 21:54 10.01.2022
3733 Snow -14 1020 85 10000 3 230 21:20 10.01.2022
3734 Snow -15 1020 92 6000 2 220 20:56 10.01.2022
3735 Clouds -15 1020 85 10000 3 220 20:28 10.01.2022
3736 Snow -14 1020 85 8000 4 220 19:42 10.01.2022
3737 Snow -14 1020 85 8000 4 220 19:20 10.01.2022
3738 Snow -14 1020 85 2400 4 210 18:48 10.01.2022
3739 Snow -14 1020 85 2200 4 210 17:41 10.01.2022
3740 Snow -14 1021 78 1800 4 210 16:42 10.01.2022
3741 Snow -14 1021 77 3300 4.92 210 15:45 10.01.2022
3742 Snow -15 1021 84 3200 4.92 220 14:26 10.01.2022
3743 Snow -15 1022 77 5000 4.02 210 11:58 10.01.2022
3744 Snow -16 1022 85 4200 3 210 11:25 10.01.2022
3745 Clear -16 1023 84 10000 4.92 230 09:48 10.01.2022
3746 Clouds -17 1022 84 10000 4.92 240 06:47 10.01.2022
3747 Clear -17 1022 77 10000 4.92 240 05:49 10.01.2022
3748 Clear -19 1023 84 10000 4.02 240 01:30 10.01.2022
3749 Clear -18 1022 77 10000 4.02 250 00:24 10.01.2022
3750 Clear -19 1021 84 10000 4.92 250 23:29 09.01.2022
3751 Clear -19 1021 77 10000 4.92 250 22:37 09.01.2022
3752 Clear -20 1020 84 10000 4.92 250 21:46 09.01.2022
3753 Clear -20 1020 76 10000 4.02 250 21:23 09.01.2022
3754 Clear -20 1020 76 10000 4.02 250 21:23 09.01.2022
3755 Clear -21 1020 83 10000 4.92 260 20:50 09.01.2022
3756 Clear -21 1019 83 10000 4.92 250 20:32 09.01.2022
3757 Clear -21 1019 83 10000 4.02 250 19:44 09.01.2022
3758 Clear -21 1018 83 10000 4.02 250 19:23 09.01.2022
3759 Clear -22 1018 83 10000 4.02 250 18:51 09.01.2022
3760 Clear -21 1018 76 10000 3.13 240 18:33 09.01.2022
3761 Clear -21 1017 76 10000 4.02 240 17:31 09.01.2022
3762 Clear -20 1017 76 10000 4.02 240 16:53 09.01.2022
3763 Clear -21 1016 83 10000 5.81 270 15:57 09.01.2022
3764 Clear -21 1015 83 10000 5.81 270 15:35 09.01.2022
3765 Clear -21 1015 76 10000 7.15 280 14:40 09.01.2022
3766 Clear -20 1014 76 10000 5.81 270 13:50 09.01.2022
3767 Clear -20 1013 84 10000 7.15 260 12:50 09.01.2022
3768 Clear -19 1011 84 10000 4.92 250 11:51 09.01.2022
3769 Clear -18 1010 85 10000 5 250 10:52 09.01.2022
3770 Clear -18 1009 84 10000 4.02 250 09:42 09.01.2022
3771 Clouds -17 1007 85 10000 4 250 08:34 09.01.2022
3772 Clouds -18 1004 85 10000 3 250 03:55 09.01.2022
3773 Clouds -19 1003 84 10000 3.13 250 01:23 09.01.2022
3774 Clear -20 1002 76 10000 1.79 260 23:44 08.01.2022
3775 Clear -21 1002 84 10000 3 280 23:26 08.01.2022
3776 Clear -19 1001 84 10000 3 280 22:19 08.01.2022
3777 Clouds -17 1001 84 10000 3.13 280 21:25 08.01.2022
3778 Clouds -17 1000 84 10000 3.13 280 20:41 08.01.2022
3779 Clear -16 1000 84 10000 3.13 270 20:19 08.01.2022
3780 Clouds -15 999 84 10000 4.02 280 18:40 08.01.2022
3781 Clouds -14 998 85 10000 5 280 17:22 08.01.2022
3782 Snow -11 997 85 10000 4.92 280 15:52 08.01.2022
3783 Snow -9 996 85 6000 4.92 290 14:44 08.01.2022
3784 Snow -7 994 92 7000 1.79 270 13:25 08.01.2022
3785 Snow -6 992 92 3500 0.89 320 11:25 08.01.2022
3786 Snow -5 992 92 1200 1.79 90 10:25 08.01.2022
3787 Snow -5 993 92 3200 1.79 120 09:47 08.01.2022
3788 Snow -5 994 92 1700 3.13 130 07:50 08.01.2022
3789 Snow -4 1000 92 1400 3.13 150 02:50 08.01.2022
3790 Snow -4 1002 92 3100 3.13 200 00:41 08.01.2022
3791 Snow -4 1003 100 3900 4.02 190 22:47 07.01.2022
3792 Snow -4 1003 92 5000 7.15 190 20:58 07.01.2022
3793 Snow -4 1003 92 5000 7.15 190 20:19 07.01.2022
3794 Snow -4 1002 85 10000 5.81 190 19:23 07.01.2022
3795 Snow -4 1002 85 8000 7.15 190 18:44 07.01.2022
3796 Snow -5 1003 85 10000 7.15 180 17:28 07.01.2022
3797 Snow -7 1003 92 1000 5.81 160 16:39 07.01.2022
3798 Snow -11 1006 92 700 8 150 13:56 07.01.2022
3799 Snow -11 1006 92 700 8 150 13:38 07.01.2022
3800 Snow -12 1008 85 2400 8 150 12:49 07.01.2022
3801 Snow -17 1013 85 1900 6 140 09:42 07.01.2022
3802 Clouds -27 1023 75 10000 4.02 120 02:56 07.01.2022
3803 Clouds -28 1024 75 10000 3.13 120 01:54 07.01.2022
3804 Mist -26 1025 75 5000 3.13 150 01:28 07.01.2022
3805 Mist -27 1025 75 2700 3.13 140 00:59 07.01.2022
3806 Mist -28 1026 75 6000 3.13 150 23:53 06.01.2022
3807 Mist -29 1027 75 6000 1.79 150 21:34 06.01.2022
3808 Clouds -29 1027 75 10000 1.79 140 20:22 06.01.2022
3809 Clouds -29 1027 75 8000 3.13 140 19:45 06.01.2022
3810 Clouds -29 1027 75 9000 1.79 140 18:34 06.01.2022
3811 Clouds -29 1027 75 10000 1.79 160 17:41 06.01.2022
3812 Clouds -29 1027 75 10000 0.89 0 16:52 06.01.2022
3813 Clear -30 1026 75 10000 0.89 0 15:48 06.01.2022
3814 Clear -30 1027 76 10000 2 180 15:26 06.01.2022
3815 Clear -29 1026 76 10000 1 170 14:51 06.01.2022
3816 Clear -30 1026 76 10000 1 200 14:18 06.01.2022
3817 Clear -29 1025 76 10000 1 220 12:50 06.01.2022
3818 Clear -29 1024 76 10000 2 200 11:43 06.01.2022
3819 Clear -28 1024 69 10000 2 220 11:22 06.01.2022
3820 Clear -28 1023 75 10000 1.79 240 08:52 06.01.2022
3821 Clear -30 1017 75 10000 3.13 280 01:24 06.01.2022
3822 Clear -29 1016 75 10000 3.13 250 23:38 05.01.2022
3823 Clear -29 1015 82 10000 3.13 240 22:59 05.01.2022
3824 Clear -28 1015 75 10000 3.13 250 22:33 05.01.2022
3825 Clear -30 1014 83 10000 3 260 21:49 05.01.2022
3826 Clear -28 1014 75 10000 3.13 250 21:20 05.01.2022
3827 Clear -28 1013 75 10000 4.02 260 20:18 05.01.2022
3828 Clear -27 1011 75 10000 4.02 270 18:44 05.01.2022
3829 Clear -27 1009 76 10000 4 280 17:26 05.01.2022
3830 Clear -26 1009 76 10000 5 280 16:51 05.01.2022
3831 Clouds -24 1007 77 10000 8 280 15:26 05.01.2022
3832 Clouds -21 1005 76 10000 4.02 250 13:52 05.01.2022
3833 Clouds -21 1005 77 10000 6 250 13:22 05.01.2022
3834 Snow -19 1001 77 10000 5.81 230 10:34 05.01.2022
3835 Clouds -19 999 77 9000 5.81 230 07:47 05.01.2022
3836 Clouds -19 999 77 9000 5.81 230 07:47 05.01.2022
3837 Clouds -19 998 77 10000 4.92 210 06:25 05.01.2022
3838 Snow -20 995 84 8000 4.02 200 00:58 05.01.2022
3839 Clouds -21 995 76 10000 4.02 200 23:28 04.01.2022
3840 Clouds -21 995 76 10000 4.02 200 23:28 04.01.2022
3841 Clouds -22 994 76 10000 4.02 200 22:46 04.01.2022
3842 Clear -22 995 76 10000 4.92 240 21:24 04.01.2022
3843 Clear -21 992 76 10000 4.02 240 19:20 04.01.2022
3844 Clear -21 991 76 10000 4.92 240 17:51 04.01.2022
3845 Clear -18 990 70 10000 8.05 230 16:44 04.01.2022
3846 Snow -18 990 70 10000 8.05 230 16:24 04.01.2022
3847 Clouds -16 988 77 10000 7.15 250 14:54 04.01.2022
3848 Clouds -15 988 78 3000 8 240 14:34 04.01.2022
3849 Snow -13 987 84 3400 8.05 250 13:27 04.01.2022
3850 Clouds -10 985 78 10000 4.92 230 10:41 04.01.2022
3851 Clouds -8 983 85 10000 5.81 230 09:20 04.01.2022
3852 Snow -7 983 79 9000 6 240 08:30 04.01.2022
3853 Snow -6 984 85 1200 5.81 130 02:31 04.01.2022
3854 Snow -6 987 85 3100 4.92 140 00:41 04.01.2022
3855 Snow -7 989 92 3400 4.02 150 23:26 03.01.2022
3856 Snow -8 991 92 2300 4.02 160 21:52 03.01.2022
3857 Snow -8 991 92 2300 4.02 160 21:32 03.01.2022
3858 Snow -8 992 85 1900 4.02 160 20:22 03.01.2022
3859 Snow -8 993 85 6000 4.02 160 18:54 03.01.2022
3860 Snow -9 993 92 7000 4.02 170 18:28 03.01.2022
3861 Snow -8 994 85 2100 4.02 180 16:58 03.01.2022
3862 Clouds -8 996 85 10000 4.02 190 14:56 03.01.2022
3863 Clouds -8 996 85 10000 4.02 180 14:30 03.01.2022
3864 Clouds -8 996 85 10000 4.02 180 12:46 03.01.2022
3865 Clouds -8 996 85 10000 4.02 180 11:35 03.01.2022
3866 Snow -8 996 92 7000 4.02 170 10:27 03.01.2022
3867 Snow -8 997 85 9000 4.02 180 08:47 03.01.2022
3868 Clouds -8 997 92 10000 4.02 160 07:34 03.01.2022
3869 Clouds -8 997 92 10000 4.02 160 07:34 03.01.2022
3870 Snow -10 1003 92 10000 3.13 140 23:56 02.01.2022
3871 Clouds -10 1003 92 10000 3.13 150 23:22 02.01.2022
3872 Clouds -10 1003 92 10000 3.13 170 22:53 02.01.2022
3873 Snow -10 1004 85 10000 1.79 180 21:42 02.01.2022
3874 Clouds -10 1004 85 10000 2 190 20:33 02.01.2022
3875 Clouds -10 1004 85 10000 2 190 19:55 02.01.2022
3876 Clouds -10 1004 85 10000 3.13 200 19:30 02.01.2022
3877 Clouds -11 1005 92 10000 2 200 18:46 02.01.2022
3878 Clouds -11 1005 92 10000 2 200 18:46 02.01.2022
3879 Clouds -11 1005 85 10000 3.13 210 17:54 02.01.2022
3880 Clouds -10 1005 85 10000 3 210 17:36 02.01.2022
3881 Clouds -10 1005 85 10000 3 210 17:18 02.01.2022
3882 Snow -10 1005 85 10000 4 220 16:25 02.01.2022
3883 Clouds -10 1005 92 10000 3 220 14:32 02.01.2022
3884 Snow -10 1004 92 5000 3 230 12:50 02.01.2022
3885 Clouds -10 1004 85 9000 3.13 230 11:58 02.01.2022
3886 Clouds -10 1004 85 10000 3.13 230 11:26 02.01.2022
3887 Snow -10 1004 92 10000 4.02 230 10:46 02.01.2022
3888 Snow -10 1003 85 8000 4.02 220 09:45 02.01.2022
3889 Snow -11 1003 85 5000 3.13 190 05:21 02.01.2022
3890 Snow -11 1005 85 10000 4.02 190 01:41 02.01.2022
3891 Clouds -11 1005 85 10000 4.92 190 23:39 01.01.2022
3892 Snow -12 1006 92 10000 3.13 160 22:57 01.01.2022
3893 Snow -11 1006 85 10000 3.13 150 22:22 01.01.2022
3894 Snow -12 1007 92 9000 4.02 180 21:43 01.01.2022
3895 Snow -11 1007 85 7000 3.13 190 20:53 01.01.2022
3896 Snow -12 1008 92 8000 3.13 190 19:57 01.01.2022
3897 Clouds -12 1008 92 10000 3.13 190 19:19 01.01.2022
3898 Clouds -12 1009 85 10000 3.13 190 17:58 01.01.2022
3899 Snow -12 1009 85 10000 1.79 190 16:37 01.01.2022
3900 Snow -12 1009 85 10000 1.79 190 16:19 01.01.2022
3901 Snow -13 1010 84 10000 3.13 190 15:26 01.01.2022
3902 Snow -13 1011 84 9000 3.13 190 13:58 01.01.2022
3903 Snow -13 1011 84 10000 3.13 200 12:50 01.01.2022
3904 Snow -14 1012 84 10000 3.13 190 11:56 01.01.2022
3905 Snow -14 1012 84 10000 3.13 190 11:22 01.01.2022
3906 Snow -13 1012 78 10000 3.13 190 10:27 01.01.2022
3907 Snow -14 1012 84 10000 3.13 200 09:46 01.01.2022
3908 Snow -14 1013 84 10000 3.13 200 08:26 01.01.2022
3909 Snow -14 1013 84 10000 3.13 200 07:44 01.01.2022
3910 Snow -15 1014 84 10000 3.13 200 06:47 01.01.2022
3911 Clear -15 1014 84 10000 3.13 200 05:27 01.01.2022
3912 Snow -15 1014 77 10000 3.13 200 04:38 01.01.2022
3913 Clear -16 1015 77 10000 3.13 210 01:59 01.01.2022
3914 Clear -17 1016 84 10000 3.13 220 23:39 31.12.2021
3915 Clear -17 1017 84 10000 4.02 220 21:53 31.12.2021
3916 Clear -16 1017 77 10000 4.02 230 20:38 31.12.2021
3917 Snow -16 1017 77 9000 4.02 230 19:30 31.12.2021
3918 Clear -17 1018 85 10000 4 230 18:37 31.12.2021
3919 Snow -17 1018 84 10000 3.13 220 17:40 31.12.2021
3920 Snow -17 1018 84 5000 3.13 220 17:18 31.12.2021
3921 Snow -17 1018 84 9000 4.02 230 16:38 31.12.2021
3922 Snow -17 1018 84 5000 4.02 220 15:57 31.12.2021
3923 Snow -17 1018 84 4900 4.02 210 15:28 31.12.2021
3924 Snow -17 1019 84 8000 4.02 210 14:56 31.12.2021
3925 Snow -17 1019 84 8000 3.13 210 14:30 31.12.2021
3926 Snow -17 1019 84 5000 3.13 200 13:36 31.12.2021
3927 Snow -17 1019 84 5000 3.13 200 12:45 31.12.2021
3928 Clouds -18 1020 84 10000 1.79 210 11:51 31.12.2021
3929 Clouds -18 1019 84 10000 3.13 200 11:30 31.12.2021
3930 Clouds -18 1019 77 10000 3.13 200 10:38 31.12.2021
3931 Clouds -19 1020 84 10000 3 200 09:55 31.12.2021
3932 Snow -19 1020 84 9000 3 210 09:33 31.12.2021
3933 Snow -19 1020 84 5000 3 230 08:39 31.12.2021
3934 Snow -19 1020 84 6000 3 210 07:31 31.12.2021
3935 Clouds -21 1021 77 10000 2 200 23:32 30.12.2021
3936 Clear -22 1022 84 10000 3 220 22:33 30.12.2021
3937 Clear -22 1022 84 10000 3 230 21:59 30.12.2021
3938 Clear -22 1022 84 10000 3 230 21:59 30.12.2021
3939 Clear -22 1022 84 10000 3 230 21:37 30.12.2021
3940 Clear -22 1022 77 10000 3 220 20:47 30.12.2021
3941 Clouds -22 1022 76 10000 3.13 210 20:28 30.12.2021
3942 Clouds -23 1022 83 10000 1.79 220 19:48 30.12.2021
3943 Clear -23 1022 77 10000 2 200 18:51 30.12.2021
3944 Clear -23 1021 77 10000 2 210 18:20 30.12.2021
3945 Snow -22 1021 76 10000 3.13 240 16:27 30.12.2021
3946 Snow -23 1021 83 9000 3.13 220 15:52 30.12.2021
3947 Clear -24 1021 76 10000 3.13 200 14:41 30.12.2021
3948 Clear -25 1021 83 10000 3.13 230 13:57 30.12.2021
3949 Clear -27 1021 75 10000 3.13 230 12:52 30.12.2021
3950 Clear -28 1021 76 10000 3 230 11:22 30.12.2021
3951 Clear -28 1021 76 10000 2 210 09:59 30.12.2021
3952 Clear -28 1021 76 10000 2 210 09:23 30.12.2021
3953 Clear -31 1020 76 10000 3 240 06:54 30.12.2021
3954 Clear -31 1020 74 10000 1.79 250 04:20 30.12.2021
3955 Clear -31 1020 74 10000 1.79 250 04:20 30.12.2021
3956 Clear -31 1019 74 10000 3.13 250 03:38 30.12.2021
3957 Clear -30 1018 76 10000 3 250 23:57 29.12.2021
3958 Clear -29 1018 76 10000 4 250 23:31 29.12.2021
3959 Clear -28 1017 76 10000 3 250 22:24 29.12.2021
3960 Clear -29 1017 83 10000 3 260 21:53 29.12.2021
3961 Clouds -27 1016 76 10000 4 280 20:40 29.12.2021
3962 Snow -25 1016 77 9000 4 280 19:54 29.12.2021
3963 Snow -25 1016 84 6000 4 270 19:24 29.12.2021
3964 Snow -24 1015 77 3800 4 280 18:19 29.12.2021
3965 Snow -24 1015 84 2200 4 270 17:28 29.12.2021
3966 Snow -24 1015 84 5000 3 250 16:49 29.12.2021
3967 Snow -24 1015 84 3700 2 250 16:19 29.12.2021
3968 Snow -24 1014 76 4200 1.79 230 14:40 29.12.2021
3969 Clear -25 1014 76 10000 1.79 200 12:48 29.12.2021
3970 Clouds -25 1014 83 10000 0.89 0 12:27 29.12.2021
3971 Clear -24 1014 76 10000 1.79 200 10:36 29.12.2021
3972 Clouds -23 1015 76 10000 3.13 200 08:24 29.12.2021
3973 Clouds -24 1015 83 10000 1.79 190 06:45 29.12.2021
3974 Clouds -24 1015 83 10000 1.79 190 06:24 29.12.2021
3975 Clouds -24 1015 83 10000 1.79 200 05:42 29.12.2021
3976 Snow -23 1014 83 10000 3.13 210 03:20 29.12.2021
3977 Snow -23 1014 83 10000 3.13 210 03:20 29.12.2021
3978 Clouds -21 1014 83 10000 3.13 200 00:24 29.12.2021
3979 Clouds -20 1014 76 10000 3.13 200 23:47 28.12.2021
3980 Clouds -20 1014 84 10000 3.13 180 22:45 28.12.2021
3981 Clouds -20 1014 84 10000 3.13 190 22:24 28.12.2021
3982 Snow -20 1014 84 10000 3.13 200 21:53 28.12.2021
3983 Snow -19 1014 84 9000 1.79 200 20:47 28.12.2021
3984 Snow -18 1015 85 10000 3 200 19:44 28.12.2021
3985 Snow -18 1015 85 10000 3 210 18:44 28.12.2021
3986 Clouds -18 1015 84 10000 3.13 210 18:23 28.12.2021
3987 Clouds -17 1015 84 10000 3.13 200 16:35 28.12.2021
3988 Clouds -17 1015 84 10000 4.02 200 15:51 28.12.2021
3989 Clouds -17 1015 84 10000 3.13 200 15:25 28.12.2021
3990 Clouds -16 1015 85 10000 3 190 14:52 28.12.2021
3991 Clouds -16 1015 84 10000 3.13 190 14:21 28.12.2021
3992 Clouds -16 1015 84 10000 3.13 190 13:51 28.12.2021
3993 Clouds -16 1015 84 10000 3.13 190 13:31 28.12.2021
3994 Clouds -16 1015 84 10000 1.79 200 12:49 28.12.2021
3995 Clouds -16 1015 84 10000 1.79 180 11:51 28.12.2021
3996 Clouds -15 1014 84 10000 1.79 200 09:27 28.12.2021
3997 Clouds -15 1014 84 10000 3.13 200 07:31 28.12.2021
3998 Clear -14 1013 84 10000 4.02 190 02:22 28.12.2021
3999 Snow -14 1013 84 5000 4.02 180 23:26 27.12.2021
4000 Clear -15 1013 84 10000 4.02 180 21:54 27.12.2021
4001 Clouds -15 1014 84 10000 4.02 170 21:26 27.12.2021
4002 Snow -15 1014 85 2500 4 170 20:24 27.12.2021
4003 Snow -15 1014 85 2200 4 160 19:45 27.12.2021
4004 Snow -14 1014 84 1400 4.02 150 18:54 27.12.2021
4005 Snow -16 1015 85 1600 4 130 17:50 27.12.2021
4006 Snow -17 1015 85 2900 5 120 17:18 27.12.2021
4007 Snow -17 1017 85 10000 5 120 15:53 27.12.2021
4008 Clear -17 1019 78 10000 4 130 14:34 27.12.2021
4009 Clear -18 1020 78 10000 4 130 13:58 27.12.2021
4010 Clear -18 1021 78 10000 4 130 12:47 27.12.2021
4011 Clear -19 1024 84 10000 4.02 150 10:36 27.12.2021
4012 Clear -19 1024 84 10000 4.02 150 10:18 27.12.2021
4013 Clear -20 1025 76 10000 4.02 140 08:41 27.12.2021
4014 Clear -22 1026 83 10000 4.02 140 07:33 27.12.2021
4015 Mist -22 1028 76 5000 4.02 140 02:26 27.12.2021
4016 Mist -23 1028 83 3500 3.13 140 00:29 27.12.2021
4017 Mist -22 1029 76 3000 3.13 140 23:42 26.12.2021
4018 Mist -23 1029 83 3300 3.13 140 22:49 26.12.2021
4019 Mist -23 1030 76 3300 1.79 140 21:30 26.12.2021
4020 Mist -24 1030 76 3000 1.79 150 19:52 26.12.2021
4021 Mist -23 1030 76 2400 3.13 140 18:25 26.12.2021
4022 Mist -24 1030 84 2400 3 140 17:51 26.12.2021
4023 Clear -23 1031 76 10000 3.13 160 15:31 26.12.2021
4024 Clear -23 1031 83 10000 3.13 160 13:43 26.12.2021
4025 Clear -23 1031 83 10000 3.13 150 13:21 26.12.2021
4026 Clear -23 1031 83 10000 3.13 160 12:34 26.12.2021
4027 Clear -22 1031 76 10000 3.13 160 11:18 26.12.2021
4028 Clear -21 1031 76 10000 3.13 190 09:30 26.12.2021
4029 Clear -21 1031 76 10000 3.13 190 08:44 26.12.2021
4030 Clear -22 1031 83 10000 3.13 200 08:23 26.12.2021
4031 Clear -23 1029 83 10000 4.92 200 01:37 26.12.2021
4032 Clear -23 1028 83 10000 4.92 190 00:28 26.12.2021
4033 Clear -23 1029 83 10000 4.92 190 23:35 25.12.2021
4034 Clear -22 1028 76 10000 4.92 190 22:29 25.12.2021
4035 Clear -22 1028 83 10000 4.02 190 21:29 25.12.2021
4036 Clear -21 1028 76 10000 4.02 200 19:46 25.12.2021
4037 Clear -21 1028 76 10000 4.92 200 19:18 25.12.2021
4038 Clear -21 1028 76 10000 4.92 200 18:26 25.12.2021
4039 Clear -21 1027 76 10000 4.92 190 16:49 25.12.2021
4040 Clear -22 1027 76 10000 4.92 190 15:30 25.12.2021
4041 Clear -21 1027 76 10000 4.92 190 14:22 25.12.2021
4042 Clear -20 1026 76 10000 4.92 190 12:21 25.12.2021
4043 Clear -21 1026 76 10000 5.81 180 10:38 25.12.2021
4044 Clear -21 1026 76 10000 4.92 190 09:48 25.12.2021
4045 Clear -21 1025 76 10000 5.81 190 07:27 25.12.2021
4046 Clouds -16 1021 71 10000 8.05 190 01:36 25.12.2021
4047 Clouds -16 1020 77 10000 8.05 200 00:19 25.12.2021
4048 Snow -14 1018 71 5000 8.05 190 21:57 24.12.2021
4049 Clouds -11 1014 72 10000 8.05 210 19:27 24.12.2021
4050 Snow -11 1014 78 10000 8.94 200 18:55 24.12.2021
4051 Snow -10 1011 78 9000 7.15 210 16:44 24.12.2021
4052 Snow -10 1010 78 9000 8.05 200 15:50 24.12.2021
4053 Snow -10 1010 78 9000 8.05 200 15:50 24.12.2021
4054 Snow -9 1010 72 8000 8.94 200 15:20 24.12.2021
4055 Clouds -9 1008 85 10000 5.81 190 14:34 24.12.2021
4056 Clouds -9 1008 85 10000 4.02 190 13:54 24.12.2021
4057 Snow -10 1007 92 9000 4.02 170 13:32 24.12.2021
4058 Snow -11 1007 92 5000 5 150 12:40 24.12.2021
4059 Snow -11 1007 85 3900 4 130 11:43 24.12.2021
4060 Snow -12 1006 85 3900 5 130 11:24 24.12.2021
4061 Snow -12 1007 85 2100 5 120 10:35 24.12.2021
4062 Snow -12 1008 85 2200 5.81 120 08:58 24.12.2021
4063 Snow -12 1009 85 1200 7.15 120 07:58 24.12.2021
4064 Snow -12 1009 92 800 8.94 110 07:31 24.12.2021
4065 Clouds -18 1021 84 10000 5.81 90 00:47 24.12.2021
4066 Clouds -19 1021 84 10000 4.92 100 23:50 23.12.2021
4067 Clear -20 1022 84 10000 4.02 90 22:53 23.12.2021
4068 Clear -20 1022 84 10000 3.13 90 22:24 23.12.2021
4069 Clear -20 1022 84 10000 3.13 80 21:47 23.12.2021
4070 Clear -20 1023 84 10000 1.79 70 20:31 23.12.2021
4071 Clear -20 1022 84 10000 0.89 0 19:30 23.12.2021
4072 Clear -20 1022 84 10000 0.89 0 19:30 23.12.2021
4073 Clear -19 1023 84 10000 0.89 0 18:27 23.12.2021
4074 Clear -18 1022 84 10000 1.79 200 17:46 23.12.2021
4075 Clear -16 1021 78 10000 2 220 16:27 23.12.2021
4076 Clear -16 1021 85 10000 3 240 15:48 23.12.2021
4077 Clear -15 1020 78 10000 3 230 15:30 23.12.2021
4078 Clear -14 1019 78 10000 5 250 14:42 23.12.2021
4079 Clear -14 1018 78 10000 4 220 13:43 23.12.2021
4080 Clear -13 1015 84 10000 4.02 240 11:52 23.12.2021
4081 Clouds -8 1011 78 10000 7.15 230 09:55 23.12.2021
4082 Snow -5 1010 80 9000 8 230 09:34 23.12.2021
4083 Snow -3 1008 86 6000 5 210 08:38 23.12.2021
4084 Snow -3 1005 92 6000 4.92 180 05:43 23.12.2021
4085 Snow -3 1002 92 3100 5.81 160 02:56 23.12.2021
4086 Snow -3 1003 79 10000 4.92 150 22:53 22.12.2021
4087 Clouds -3 1003 86 10000 5.81 150 22:22 22.12.2021
4088 Clouds -3 1004 86 10000 4.92 150 21:37 22.12.2021
4089 Clouds -3 1004 86 10000 4.92 150 21:19 22.12.2021
4090 Clouds -3 1004 86 10000 4.92 160 20:40 22.12.2021
4091 Clouds -3 1004 86 10000 5.81 160 19:57 22.12.2021
4092 Clouds -3 1005 79 10000 5.81 160 18:55 22.12.2021
4093 Clouds -3 1005 79 10000 4.92 160 17:38 22.12.2021
4094 Clouds -3 1005 86 10000 4.92 160 16:25 22.12.2021
4095 Clouds -3 1007 86 10000 5.81 160 14:34 22.12.2021
4096 Clouds -3 1007 79 10000 5.81 150 12:59 22.12.2021
4097 Clouds -3 1008 79 10000 4.92 150 11:50 22.12.2021
4098 Snow -3 1008 86 10000 4.92 150 09:53 22.12.2021
4099 Snow -4 1009 92 10000 5.81 160 08:34 22.12.2021
4100 Clouds -6 1011 92 10000 5.81 130 05:56 22.12.2021
4101 Clouds -6 1011 92 10000 5.81 130 05:37 22.12.2021
4102 Clouds -7 1011 92 10000 5.81 130 05:19 22.12.2021
4103 Clouds -7 1012 85 10000 4.92 130 04:40 22.12.2021
4104 Clouds -8 1013 92 10000 4.92 130 03:53 22.12.2021
4105 Snow -9 1013 92 10000 6 130 03:31 22.12.2021
4106 Snow -11 1016 92 6000 4.92 120 23:49 21.12.2021
4107 Snow -11 1017 85 10000 4.02 120 22:41 21.12.2021
4108 Clouds -12 1017 85 10000 4.02 120 21:58 21.12.2021
4109 Clouds -13 1018 92 10000 4 120 21:33 21.12.2021
4110 Clouds -13 1018 85 10000 4 110 20:42 21.12.2021
4111 Clouds -13 1018 84 10000 4.02 110 20:18 21.12.2021
4112 Snow -14 1018 85 9000 4 120 19:34 21.12.2021
4113 Snow -15 1019 85 9000 3 120 18:28 21.12.2021
4114 Snow -16 1019 92 9000 3 120 17:58 21.12.2021
4115 Snow -16 1018 85 7000 4 120 17:40 21.12.2021
4116 Snow -17 1019 78 10000 4 120 15:46 21.12.2021
4117 Snow -19 1018 84 10000 4 120 14:24 21.12.2021
4118 Snow -20 1019 84 8000 4 110 13:42 21.12.2021
4119 Snow -21 1019 84 6000 5 120 12:29 21.12.2021
4120 Snow -22 1018 77 8000 5 120 10:52 21.12.2021
4121 Snow -22 1018 77 4000 5 120 09:56 21.12.2021
4122 Snow -23 1018 77 3000 5 120 08:57 21.12.2021
4123 Snow -24 1019 77 3700 5 120 07:45 21.12.2021
4124 Snow -25 1019 77 4900 5 120 07:23 21.12.2021
4125 Snow -27 1019 76 1900 6 120 04:26 21.12.2021
4126 Snow -27 1019 76 3000 5 120 02:30 21.12.2021
4127 Snow -28 1020 76 7000 6 120 23:54 20.12.2021
4128 Clouds -28 1020 69 10000 6 110 22:36 20.12.2021
4129 Clouds -28 1020 76 10000 6 120 21:59 20.12.2021
4130 Snow -28 1020 76 10000 7 110 21:27 20.12.2021
4131 Snow -28 1020 76 9000 5 110 20:54 20.12.2021
4132 Snow -28 1020 76 7000 5 120 20:23 20.12.2021
4133 Snow -27 1020 69 3300 6 120 19:38 20.12.2021
4134 Snow -27 1020 69 3300 6 120 19:19 20.12.2021
4135 Snow -27 1019 76 2400 7 100 18:33 20.12.2021
4136 Snow -27 1020 76 2400 7 110 17:50 20.12.2021
4137 Snow -26 1019 76 5000 6 120 16:47 20.12.2021
4138 Snow -26 1019 76 3000 6 110 16:18 20.12.2021
4139 Snow -26 1019 76 6000 7 100 15:40 20.12.2021
4140 Snow -27 1019 76 10000 8 90 13:49 20.12.2021
4141 Clear -27 1019 76 10000 7 90 12:30 20.12.2021
4142 Clear -27 1019 76 10000 7 90 10:46 20.12.2021
4143 Clear -27 1019 76 10000 6 90 09:40 20.12.2021
4144 Clear -27 1019 76 10000 7 90 08:50 20.12.2021
4145 Clear -27 1019 76 10000 7 90 08:31 20.12.2021
4146 Clear -28 1019 76 10000 6 90 07:35 20.12.2021
4147 Clear -28 1019 76 10000 7 100 06:39 20.12.2021
4148 Clear -26 1019 75 10000 5.81 100 00:20 20.12.2021
4149 Clear -25 1019 76 10000 8.05 110 22:56 19.12.2021
4150 Clear -25 1019 76 10000 7.15 110 22:32 19.12.2021
4151 Clear -25 1019 76 10000 7.15 110 21:32 19.12.2021
4152 Clear -25 1019 76 10000 7.15 110 20:42 19.12.2021
4153 Clear -25 1019 76 10000 7.15 110 20:23 19.12.2021
4154 Clear -25 1019 76 10000 7.15 110 19:41 19.12.2021
4155 Clear -25 1019 76 10000 7.15 110 18:42 19.12.2021
4156 Clear -25 1019 76 10000 5.81 110 17:53 19.12.2021
4157 Clouds -26 1019 75 10000 5.81 110 17:30 19.12.2021
4158 Clear -26 1019 83 10000 4.92 110 16:41 19.12.2021
4159 Clouds -26 1019 75 10000 5.81 110 15:55 19.12.2021
4160 Clear -26 1019 75 10000 4.92 110 15:24 19.12.2021
4161 Clouds -26 1020 75 10000 4.92 110 14:45 19.12.2021
4162 Clouds -26 1020 75 10000 5.81 110 13:32 19.12.2021
4163 Clouds -26 1020 75 10000 4.92 110 12:59 19.12.2021
4164 Clear -27 1020 75 10000 4.92 100 12:29 19.12.2021
4165 Clear -28 1020 75 10000 4.92 90 11:37 19.12.2021
4166 Clouds -28 1020 75 10000 4.02 90 10:49 19.12.2021
4167 Clouds -28 1020 75 10000 4.02 80 10:22 19.12.2021
4168 Clouds -30 1020 75 10000 3.13 90 08:46 19.12.2021
4169 Clouds -31 1020 74 10000 3.13 110 06:45 19.12.2021
4170 Clouds -35 1020 75 10000 4 90 01:51 19.12.2021
4171 Clouds -35 1020 75 10000 4 100 00:54 19.12.2021
4172 Clear -36 1020 68 10000 4 90 22:59 18.12.2021
4173 Clouds -37 1020 74 10000 3 90 22:24 18.12.2021
4174 Clouds -37 1020 74 10000 2 120 21:43 18.12.2021
4175 Clear -36 1019 68 10000 3 100 21:22 18.12.2021
4176 Clear -36 1019 68 10000 3 100 20:25 18.12.2021
4177 Clear -36 1019 75 10000 2 80 19:35 18.12.2021
4178 Clear -35 1019 68 10000 2 70 18:24 18.12.2021
4179 Clear -35 1019 68 10000 2 80 17:49 18.12.2021
4180 Clear -35 1019 68 10000 2 60 16:36 18.12.2021
4181 Clear -35 1019 68 10000 2 60 16:18 18.12.2021
4182 Clear -34 1018 75 10000 1 0 14:54 18.12.2021
4183 Clear -33 1018 68 10000 1 0 13:44 18.12.2021
4184 Clear -32 1017 75 10000 1 350 11:55 18.12.2021
4185 Clear -31 1016 76 10000 2 330 09:54 18.12.2021
4186 Clear -30 1016 69 10000 2 330 09:30 18.12.2021
4187 Clear -30 1015 76 10000 2 360 08:36 18.12.2021
4188 Clear -30 1015 76 10000 2 360 08:36 18.12.2021
4189 Clear -30 1014 76 10000 2 360 06:28 18.12.2021
4190 Clear -28 1012 83 10000 1 0 00:58 18.12.2021
4191 Clear -26 1011 76 10000 1 0 23:47 17.12.2021
4192 Clouds -25 1010 84 10000 2 350 22:37 17.12.2021
4193 Clouds -24 1009 84 9000 2 340 21:29 17.12.2021
4194 Snow -23 1009 77 3900 2 360 20:43 17.12.2021
4195 Clouds -23 1008 84 10000 2 360 19:51 17.12.2021
4196 Clouds -21 1007 77 10000 3 360 18:39 17.12.2021
4197 Clouds -21 1007 84 10000 3 10 17:47 17.12.2021
4198 Clouds -20 1006 84 10000 3 10 16:50 17.12.2021
4199 Clouds -19 1006 84 10000 3 10 16:27 17.12.2021
4200 Clouds -17 1005 85 10000 2 20 15:27 17.12.2021
4201 Clouds -15 1005 85 10000 3 20 14:42 17.12.2021
4202 Snow -14 1004 85 10000 3 20 13:35 17.12.2021
4203 Snow -13 1004 84 3500 3.13 30 12:28 17.12.2021
4204 Snow -12 1003 85 3300 1.79 50 10:41 17.12.2021
4205 Snow -12 1003 85 3200 3.13 70 09:47 17.12.2021
4206 Snow -12 1003 85 3200 3.13 70 09:47 17.12.2021
4207 Snow -12 1004 92 2700 3.13 80 08:31 17.12.2021
4208 Snow -12 1004 92 1900 3.13 90 07:21 17.12.2021
4209 Snow -12 1005 92 5000 4.02 100 04:40 17.12.2021
4210 Snow -12 1009 92 8000 1.79 120 23:58 16.12.2021
4211 Snow -12 1010 92 1700 0.89 0 22:24 16.12.2021
4212 Snow -12 1011 92 2100 0.89 0 21:51 16.12.2021
4213 Snow -12 1011 92 3200 0.89 130 21:33 16.12.2021
4214 Snow -12 1012 85 8000 0.89 0 20:31 16.12.2021
4215 Snow -12 1012 85 10000 0.89 0 19:51 16.12.2021
4216 Snow -13 1013 92 5000 0.89 0 18:41 16.12.2021
4217 Snow -13 1014 92 7000 0.89 150 17:57 16.12.2021
4218 Clouds -12 1014 85 9000 1 160 17:32 16.12.2021
4219 Snow -14 1014 92 9000 0.89 160 16:23 16.12.2021
4220 Snow -13 1015 85 9000 1 0 15:20 16.12.2021
4221 Clouds -16 1016 84 9000 0.89 90 13:43 16.12.2021
4222 Clouds -18 1017 84 9000 0.89 0 11:46 16.12.2021
4223 Clouds -19 1017 84 9000 0 0 11:18 16.12.2021
4224 Mist -17 1017 84 4000 0 0 10:27 16.12.2021
4225 Clouds -16 1017 85 10000 0 0 08:37 16.12.2021
4226 Clouds -16 1017 92 10000 0 0 06:22 16.12.2021
4227 Clouds -15 1018 85 10000 1 290 02:59 16.12.2021
4228 Clouds -17 1017 92 10000 2 290 23:35 15.12.2021
4229 Clouds -17 1017 85 10000 2 280 22:48 15.12.2021
4230 Clouds -20 1017 84 10000 1.79 280 21:58 15.12.2021
4231 Clouds -19 1017 84 10000 1.79 280 21:28 15.12.2021
4232 Clouds -19 1017 84 10000 3.13 280 20:31 15.12.2021
4233 Clouds -19 1017 84 10000 1.79 280 19:52 15.12.2021
4234 Clouds -18 1016 84 9000 1.79 290 18:39 15.12.2021
4235 Mist -17 1016 91 5000 3.13 300 17:56 15.12.2021
4236 Mist -16 1016 84 5000 3.13 300 17:37 15.12.2021
4237 Mist -17 1016 84 4600 1.79 290 16:35 15.12.2021
4238 Clouds -16 1015 84 9000 1.79 290 15:47 15.12.2021
4239 Mist -15 1015 84 4500 3.13 330 15:28 15.12.2021
4240 Clouds -15 1015 84 8000 3.13 310 14:42 15.12.2021
4241 Fog -13 1014 92 700 1.79 320 12:52 15.12.2021
4242 Snow -12 1013 92 5000 0.89 280 10:44 15.12.2021
4243 Snow -11 1013 92 9000 0.89 210 09:28 15.12.2021
4244 Snow -10 1013 92 9000 1.79 220 07:44 15.12.2021
4245 Snow -11 1013 92 9000 3.13 190 01:39 15.12.2021
4246 Snow -12 1014 85 6000 1.79 160 23:42 14.12.2021
4247 Snow -13 1015 84 5000 3.13 170 22:49 14.12.2021
4248 Snow -14 1015 92 5000 3.13 160 22:25 14.12.2021
4249 Snow -15 1016 84 4300 3.13 160 20:57 14.12.2021
4250 Snow -17 1017 85 2500 3 160 19:44 14.12.2021
4251 Snow -17 1017 85 2500 3 160 19:44 14.12.2021
4252 Snow -17 1017 85 1900 3 160 19:20 14.12.2021
4253 Snow -18 1018 84 4000 3.13 170 18:29 14.12.2021
4254 Snow -19 1019 84 1600 4.02 170 17:33 14.12.2021
4255 Snow -19 1019 77 1400 3.13 160 16:42 14.12.2021
4256 Snow -21 1021 76 1300 3.13 150 15:37 14.12.2021
4257 Mist -24 1023 77 2200 3 140 13:32 14.12.2021
4258 Clouds -24 1024 76 6000 3.13 150 12:21 14.12.2021
4259 Clear -24 1025 76 10000 4.02 150 11:24 14.12.2021
4260 Clear -25 1026 76 10000 3.13 150 10:25 14.12.2021
4261 Clear -25 1026 76 10000 3.13 150 09:53 14.12.2021
4262 Clear -25 1027 76 10000 3.13 150 08:28 14.12.2021
4263 Clear -26 1028 75 10000 1.79 150 07:59 14.12.2021
4264 Clouds -29 1029 68 7000 0.89 0 05:38 14.12.2021
4265 Clear -34 1031 74 10000 0.89 90 22:59 13.12.2021
4266 Clouds -33 1032 74 9000 0.89 0 21:54 13.12.2021
4267 Clouds -33 1032 74 10000 1.79 280 21:34 13.12.2021
4268 Clouds -32 1032 74 10000 0.89 280 20:45 13.12.2021
4269 Clear -32 1032 74 10000 0.89 50 19:57 13.12.2021
4270 Clear -32 1032 74 10000 0.89 280 19:20 13.12.2021
4271 Clear -30 1032 75 10000 0.89 0 17:26 13.12.2021
4272 Clear -29 1032 75 10000 0.89 0 16:20 13.12.2021
4273 Clear -30 1032 82 10000 1.79 290 15:38 13.12.2021
4274 Clear -28 1031 82 10000 0.89 300 13:49 13.12.2021
4275 Clear -26 1031 75 10000 1.79 320 13:18 13.12.2021
4276 Clear -25 1031 76 10000 1.79 360 12:22 13.12.2021
4277 Clear -24 1030 76 10000 3.13 360 11:36 13.12.2021
4278 Clear -24 1030 76 10000 3.13 360 10:53 13.12.2021
4279 Clear -23 1030 76 10000 3.13 350 10:21 13.12.2021
4280 Clear -20 1029 84 10000 3.13 360 08:28 13.12.2021
4281 Clouds -15 1026 78 10000 4 30 05:37 13.12.2021
4282 Clear -14 1025 85 10000 2 340 03:32 13.12.2021
4283 Snow -14 1023 92 6000 1.79 280 23:39 12.12.2021
4284 Clear -14 1023 84 10000 1.79 280 21:52 12.12.2021
4285 Clear -14 1023 84 10000 3.13 290 20:45 12.12.2021
4286 Clouds -15 1023 84 10000 3.13 280 19:30 12.12.2021
4287 Clouds -15 1023 92 10000 1.79 280 17:46 12.12.2021
4288 Clouds -15 1023 92 10000 0.89 260 16:28 12.12.2021
4289 Clouds -16 1023 84 10000 0 0 15:51 12.12.2021
4290 Clouds -16 1023 84 10000 0 0 15:26 12.12.2021
4291 Clouds -16 1023 91 10000 0 0 14:37 12.12.2021
4292 Snow -13 1023 92 7000 0.89 260 13:34 12.12.2021
4293 Snow -12 1022 85 4600 1.79 240 12:32 12.12.2021
4294 Snow -12 1023 85 5000 3.13 240 11:44 12.12.2021
4295 Snow -12 1023 85 3700 1 0 11:25 12.12.2021
4296 Snow -11 1023 85 10000 2 260 10:39 12.12.2021
4297 Snow -12 1022 92 10000 2 240 09:44 12.12.2021
4298 Snow -12 1023 85 10000 2 260 08:38 12.12.2021
4299 Snow -12 1023 85 4500 2 320 06:34 12.12.2021
4300 Clouds -13 1023 85 10000 3 310 05:27 12.12.2021
4301 Snow -11 1023 79 5000 5 350 03:58 12.12.2021
4302 Snow -11 1021 85 4200 4 300 00:36 12.12.2021
4303 Clouds -13 1021 84 10000 5.81 310 22:24 11.12.2021
4304 Clouds -13 1021 84 10000 5.81 310 21:52 11.12.2021
4305 Snow -13 1020 84 10000 7.15 320 21:21 11.12.2021
4306 Snow -14 1020 84 10000 5.81 290 19:40 11.12.2021
4307 Snow -14 1020 84 8000 5.81 300 18:53 11.12.2021
4308 Snow -14 1020 77 7000 4.92 290 18:30 11.12.2021
4309 Clouds -15 1019 84 10000 4.92 290 17:41 11.12.2021
4310 Clouds -16 1018 85 10000 6 280 15:57 11.12.2021
4311 Clouds -16 1018 85 10000 6 280 15:35 11.12.2021
4312 Clouds -15 1018 77 10000 7.15 280 13:46 11.12.2021
4313 Clouds -15 1017 84 10000 5.81 250 11:55 11.12.2021
4314 Clouds -14 1017 77 10000 7.15 250 10:24 11.12.2021
4315 Snow -14 1016 84 3600 8.05 260 09:37 11.12.2021
4316 Clouds -12 1016 78 10000 8.05 270 03:25 11.12.2021
4317 Snow -9 1014 85 3100 7.15 280 00:44 11.12.2021
4318 Snow -8 1014 78 800 9.83 270 23:39 10.12.2021
4319 Snow -6 1013 85 5000 4.92 240 22:27 10.12.2021
4320 Snow -6 1013 85 6000 5.81 240 21:37 10.12.2021
4321 Snow -7 1014 85 7000 4.92 240 19:55 10.12.2021
4322 Snow -7 1014 85 8000 5.81 240 19:18 10.12.2021
4323 Snow -7 1015 79 9000 5.81 230 17:23 10.12.2021
4324 Clear -7 1015 79 10000 7.15 210 16:32 10.12.2021
4325 Clear -7 1016 79 10000 4.92 200 15:42 10.12.2021
4326 Clear -7 1016 79 10000 4.92 200 15:23 10.12.2021
4327 Clear -8 1017 85 10000 4.02 180 13:53 10.12.2021
4328 Clear -8 1018 85 10000 4.02 190 13:31 10.12.2021
4329 Clear -8 1019 85 10000 4.02 190 12:51 10.12.2021
4330 Clear -9 1020 92 10000 3.13 170 11:34 10.12.2021
4331 Clouds -9 1021 92 10000 4.02 180 10:55 10.12.2021
4332 Clouds -10 1022 92 10000 4.02 160 09:33 10.12.2021
4333 Snow -10 1025 85 10000 4.02 160 07:24 10.12.2021
4334 Snow -13 1029 92 2100 3.13 150 02:53 10.12.2021
4335 Snow -13 1029 92 3100 3.13 180 02:29 10.12.2021
4336 Snow -15 1031 92 10000 1.79 200 23:39 09.12.2021
4337 Snow -15 1031 85 5000 3 240 22:41 09.12.2021
4338 Snow -15 1031 85 5000 3 240 22:21 09.12.2021
4339 Snow -16 1031 92 5000 2 240 21:38 09.12.2021
4340 Snow -16 1031 84 8000 3.13 240 20:34 09.12.2021
4341 Snow -16 1031 84 9000 3.13 240 19:22 09.12.2021
4342 Snow -16 1030 91 4100 4.02 250 18:59 09.12.2021
4343 Snow -16 1030 84 6000 4.02 250 17:58 09.12.2021
4344 Snow -16 1031 84 3000 4.02 250 17:28 09.12.2021
4345 Snow -16 1030 84 2400 4.92 250 16:57 09.12.2021
4346 Snow -16 1030 84 5000 4.02 250 16:20 09.12.2021
4347 Snow -17 1030 77 2200 4.02 270 14:58 09.12.2021
4348 Clouds -17 1030 84 10000 4.92 250 13:52 09.12.2021
4349 Clouds -18 1029 84 10000 4.92 250 12:47 09.12.2021
4350 Clear -18 1029 77 10000 4.02 250 11:29 09.12.2021
4351 Clear -19 1029 84 10000 4.02 240 10:20 09.12.2021
4352 Clear -20 1029 84 10000 4.92 250 06:59 09.12.2021
4353 Clear -20 1030 84 10000 4.92 250 03:55 09.12.2021
4354 Clear -20 1030 84 10000 5.81 250 00:25 09.12.2021
4355 Clear -20 1030 84 10000 4.92 250 23:36 08.12.2021
4356 Clear -20 1030 84 10000 4.92 250 22:57 08.12.2021
4357 Clear -19 1031 84 10000 4.92 250 21:50 08.12.2021
4358 Clear -19 1031 84 10000 4.92 250 21:32 08.12.2021
4359 Clear -18 1031 84 10000 4.92 250 20:31 08.12.2021
4360 Clear -18 1031 84 10000 4.92 240 19:55 08.12.2021
4361 Clear -18 1031 84 10000 4.02 240 18:58 08.12.2021
4362 Clouds -17 1032 84 10000 4.92 250 18:22 08.12.2021
4363 Clouds -16 1031 84 10000 4.92 240 16:49 08.12.2021
4364 Clouds -16 1031 85 10000 4 250 15:41 08.12.2021
4365 Clouds -16 1031 85 10000 4 250 15:22 08.12.2021
4366 Snow -15 1032 85 9000 5 260 13:21 08.12.2021
4367 Clouds -15 1031 85 10000 5 280 10:44 08.12.2021
4368 Clouds -17 1030 85 10000 3 280 09:32 08.12.2021
4369 Clouds -21 1030 83 10000 3.13 280 08:31 08.12.2021
4370 Clear -23 1028 83 10000 4.92 280 05:37 08.12.2021
4371 Snow -22 1025 76 5000 4.92 280 00:27 08.12.2021
4372 Snow -23 1024 83 7000 5.81 280 22:52 07.12.2021
4373 Clouds -23 1024 76 10000 5.81 280 21:25 07.12.2021
4374 Clouds -24 1023 83 10000 4.92 260 20:25 07.12.2021
4375 Clouds -23 1023 76 10000 4.92 250 18:59 07.12.2021
4376 Clouds -23 1022 76 10000 4.92 250 18:21 07.12.2021
4377 Clouds -23 1022 83 10000 4.92 270 17:24 07.12.2021
4378 Clouds -23 1021 76 10000 4.92 270 16:42 07.12.2021
4379 Snow -23 1021 84 8000 6 280 15:59 07.12.2021
4380 Clear -23 1020 77 10000 5 240 14:38 07.12.2021
4381 Snow -24 1020 77 7000 4 240 13:40 07.12.2021
4382 Clear -25 1020 84 10000 4 250 12:22 07.12.2021
4383 Clouds -26 1019 84 10000 3 240 10:56 07.12.2021
4384 Clouds -26 1019 75 10000 3.13 240 09:20 07.12.2021
4385 Clouds -35 1019 75 10000 3 270 07:35 07.12.2021
4386 Clear -37 1018 74 10000 3 270 05:51 07.12.2021
4387 Clear -37 1018 67 10000 2 290 03:25 07.12.2021
4388 Clear -35 1016 75 10000 1 290 23:24 06.12.2021
4389 Clear -34 1016 68 10000 1 320 22:40 06.12.2021
4390 Clear -34 1016 75 10000 1 340 21:59 06.12.2021
4391 Clear -34 1016 75 10000 2 320 21:31 06.12.2021
4392 Clear -33 1016 68 10000 1 0 20:32 06.12.2021
4393 Clouds -33 1016 75 10000 1 0 19:24 06.12.2021
4394 Clouds -32 1016 75 10000 1 340 18:40 06.12.2021
4395 Clouds -32 1016 75 10000 1 0 17:54 06.12.2021
4396 Clouds -32 1016 68 10000 1 0 17:33 06.12.2021
4397 Clouds -32 1016 68 10000 1 0 15:51 06.12.2021
4398 Clouds -32 1017 75 10000 2 290 14:38 06.12.2021
4399 Clouds -32 1016 68 10000 0 0 13:23 06.12.2021
4400 Clear -32 1016 75 10000 2 330 12:37 06.12.2021
4401 Clear -31 1016 76 10000 2 320 09:56 06.12.2021
4402 Clear -31 1016 76 10000 2 340 07:40 06.12.2021
4403 Clear -30 1015 76 10000 3 320 02:26 06.12.2021
4404 Clouds -24 1012 77 10000 3 10 22:25 05.12.2021
4405 Clouds -23 1012 77 10000 4 360 21:25 05.12.2021
4406 Snow -22 1012 76 9000 3.13 10 20:43 05.12.2021
4407 Snow -22 1011 76 9000 3.13 10 20:18 05.12.2021
4408 Clouds -23 1011 77 10000 2 360 19:23 05.12.2021
4409 Clouds -22 1011 77 10000 3 40 18:28 05.12.2021
4410 Clouds -21 1011 76 10000 3.13 30 17:49 05.12.2021
4411 Clouds -21 1010 76 10000 4.02 40 17:18 05.12.2021
4412 Clouds -21 1010 76 10000 1.79 10 16:28 05.12.2021
4413 Clouds -21 1010 76 10000 1.79 30 15:59 05.12.2021
4414 Clouds -20 1009 77 10000 5 50 14:48 05.12.2021
4415 Clouds -19 1009 77 10000 4.92 60 14:29 05.12.2021
4416 Clouds -19 1009 77 10000 3.13 50 13:32 05.12.2021
4417 Snow -19 1009 77 7000 4.02 50 12:42 05.12.2021
4418 Snow -19 1008 78 7000 5 70 12:23 05.12.2021
4419 Snow -18 1008 78 10000 5 60 11:41 05.12.2021
4420 Snow -18 1007 77 10000 4.92 60 10:24 05.12.2021
4421 Snow -18 1007 77 1900 5.81 70 09:35 05.12.2021
4422 Snow -18 1008 77 2000 7.15 80 04:57 05.12.2021
4423 Snow -19 1011 77 1000 7.15 90 01:23 05.12.2021
4424 Snow -19 1014 77 2800 4.02 80 22:42 04.12.2021
4425 Snow -20 1016 84 7000 4 70 21:37 04.12.2021
4426 Snow -20 1016 84 10000 2 70 20:46 04.12.2021
4427 Clear -20 1016 84 10000 2 50 19:43 04.12.2021
4428 Clouds -19 1016 77 10000 1.79 10 19:23 04.12.2021
4429 Clouds -17 1016 84 10000 1.79 340 17:52 04.12.2021
4430 Snow -16 1016 84 10000 1.79 270 17:22 04.12.2021
4431 Snow -15 1016 84 9000 1.79 300 16:46 04.12.2021
4432 Snow -15 1016 84 9000 3.13 300 16:27 04.12.2021
4433 Snow -11 1013 85 1800 1.79 330 12:44 04.12.2021
4434 Snow -11 1013 92 3000 1.79 280 11:39 04.12.2021
4435 Snow -11 1012 92 7000 1.79 280 10:59 04.12.2021
4436 Snow -11 1011 85 8000 1.79 280 09:42 04.12.2021
4437 Snow -10 1010 85 8000 4.02 300 08:29 04.12.2021
4438 Clouds -7 1006 86 10000 7 280 04:43 04.12.2021
4439 Snow -6 1002 92 7000 5.81 250 00:56 04.12.2021
4440 Snow -5 1000 92 6000 4.92 250 23:43 03.12.2021
4441 Snow -5 1000 92 5000 4.92 270 22:53 03.12.2021
4442 Snow -5 999 92 6000 7.15 270 21:57 03.12.2021
4443 Snow -5 999 92 7000 7.15 260 21:23 03.12.2021
4444 Snow -5 999 92 6000 5.81 260 20:42 03.12.2021
4445 Snow -5 997 92 3000 3.13 250 19:28 03.12.2021
4446 Snow -6 997 92 2600 3.13 230 18:23 03.12.2021
4447 Snow -6 996 85 7000 3.13 250 17:31 03.12.2021
4448 Clouds -6 995 85 10000 5.81 260 13:40 03.12.2021
4449 Clouds -6 994 92 10000 7.15 260 12:44 03.12.2021
4450 Snow -6 993 93 7000 5 240 11:23 03.12.2021
4451 Snow -8 993 92 4600 4.02 230 09:22 03.12.2021
4452 Snow -8 993 85 7000 7.15 250 08:18 03.12.2021
4453 Clear -9 993 78 10000 7.15 260 06:44 03.12.2021
4454 Snow 0 987 100 3100 4.02 240 00:50 03.12.2021
4455 Snow 0 987 100 8000 4.92 240 00:21 03.12.2021
4456 Snow 0 987 100 10000 4.92 230 23:38 02.12.2021
4457 Snow 0 987 100 5000 4.02 220 21:41 02.12.2021
4458 Snow 0 988 92 3200 4.02 210 20:46 02.12.2021
4459 Snow 0 988 92 1500 4.92 220 20:26 02.12.2021
4460 Snow 0 988 92 3900 4.02 210 19:23 02.12.2021
4461 Snow 0 989 92 1300 4.92 210 17:30 02.12.2021
4462 Snow 0 990 92 10000 4.92 200 15:41 02.12.2021
4463 Snow 0 990 92 8000 5.81 200 14:57 02.12.2021
4464 Clouds 1 991 86 8000 4.92 200 13:45 02.12.2021
4465 Clouds 1 992 86 10000 4.92 200 12:52 02.12.2021
4466 Clouds 1 992 86 10000 4.92 200 11:53 02.12.2021
4467 Rain 2 993 86 9000 5.81 200 09:28 02.12.2021
4468 Clear 3 994 69 10000 5.81 210 08:20 02.12.2021
4469 Mist 0 1000 100 3600 4.02 170 01:59 02.12.2021
4470 Mist 0 1000 100 2500 4.02 170 00:50 02.12.2021
4471 Mist 0 1003 92 2700 4.02 190 22:34 01.12.2021
4472 Mist -1 1002 100 1900 4.02 180 21:55 01.12.2021
4473 Fog -1 1003 100 900 3.13 180 20:35 01.12.2021
4474 Mist -1 1004 100 2900 3.13 200 19:51 01.12.2021
4475 Mist -1 1004 92 2400 3.13 200 18:57 01.12.2021
4476 Mist -1 1004 92 3200 4.02 200 17:39 01.12.2021
4477 Clouds -1 1004 92 10000 4.02 200 16:38 01.12.2021
4478 Snow -1 1004 92 9000 4.02 210 14:48 01.12.2021
4479 Clouds -1 1005 92 10000 4.02 220 13:38 01.12.2021
4480 Clouds 0 1004 86 10000 4.92 220 11:34 01.12.2021
4481 Clouds 0 1004 92 10000 5.81 210 10:41 01.12.2021
4482 Clouds 0 1003 92 8000 5.81 220 08:54 01.12.2021
4483 Mist 0 1003 92 4700 5.81 220 08:26 01.12.2021
4484 Mist -1 1003 100 4000 4.02 220 07:32 01.12.2021
4485 Snow -9 1004 92 1200 6 130 04:18 01.12.2021
4486 Snow -12 1006 92 2400 6 120 03:38 01.12.2021
4487 Snow -14 1010 85 1100 7 120 00:48 01.12.2021
4488 Snow -16 1014 84 1500 7.15 110 23:35 30.11.2021
4489 Snow -16 1015 77 2200 7.15 110 22:42 30.11.2021
4490 Snow -17 1017 77 1700 5.81 100 20:53 30.11.2021
4491 Snow -17 1017 77 1000 7.15 90 20:34 30.11.2021
4492 Snow -17 1017 77 1600 7.15 100 19:51 30.11.2021
4493 Snow -17 1018 77 1400 4.92 90 19:24 30.11.2021
4494 Clear -16 1017 71 10000 4.92 80 17:57 30.11.2021
4495 Clear -16 1017 77 10000 4.02 50 16:25 30.11.2021
4496 Clear -15 1017 72 10000 3 350 14:35 30.11.2021
4497 Clouds -14 1017 78 10000 6 10 13:52 30.11.2021
4498 Clouds -11 1016 79 10000 5 350 13:23 30.11.2021
4499 Clouds -10 1016 79 10000 4 360 12:44 30.11.2021
4500 Clouds -8 1014 86 10000 6 350 11:26 30.11.2021
4501 Clouds -2 1012 86 10000 5 270 10:37 30.11.2021
4502 Clouds -2 1012 86 10000 5 260 09:44 30.11.2021
4503 Clouds -2 1012 86 10000 6 260 08:48 30.11.2021
4504 Snow -3 1011 92 10000 4.92 250 08:19 30.11.2021
4505 Snow -3 1011 92 10000 5.81 260 07:35 30.11.2021
4506 Clouds -3 1010 86 10000 4.02 240 01:52 30.11.2021
4507 Clouds -3 1010 86 10000 4.92 250 01:31 30.11.2021
4508 Clouds -3 1010 86 10000 4.92 240 23:55 29.11.2021
4509 Clouds -3 1010 79 10000 4.92 240 23:20 29.11.2021
4510 Clouds -3 1010 79 10000 5.81 240 22:44 29.11.2021
4511 Clouds -3 1009 79 10000 4.92 240 22:25 29.11.2021
4512 Clouds -3 1009 79 10000 4.92 240 21:21 29.11.2021
4513 Clouds -3 1009 79 10000 5.81 240 20:56 29.11.2021
4514 Clouds -4 1009 85 10000 5.81 230 20:22 29.11.2021
4515 Clouds -4 1009 79 10000 4.92 230 19:44 29.11.2021
4516 Clouds -4 1009 79 10000 4.92 230 19:44 29.11.2021
4517 Clouds -4 1010 79 10000 4.92 240 19:26 29.11.2021
4518 Clouds -3 1011 94 1650 6.06 243 18:47 29.11.2021
4519 Clouds -4 1011 93 2434 6.5 243 17:22 29.11.2021
4520 Clouds -4 1011 93 2434 6.5 243 16:56 29.11.2021
4521 Clouds -5 1011 92 3792 6.55 236 16:25 29.11.2021
4522 Clouds -5 1011 91 6451 6.55 234 15:24 29.11.2021
4523 Clouds -5 1011 91 6451 6.55 234 14:41 29.11.2021
4524 Clouds -5 1011 90 10000 6.11 225 13:25 29.11.2021
4525 Clouds -5 1012 89 10000 6.32 221 12:20 29.11.2021
4526 Clouds -5 1012 89 10000 6.32 221 11:31 29.11.2021
4527 Clouds -4 1012 84 10000 6.59 221 10:27 29.11.2021
4528 Snow -6 1012 93 1200 6 200 08:30 29.11.2021
4529 Clear -5 1013 80 10000 5 190 05:54 29.11.2021
4530 Snow -3 1016 93 10000 3 200 01:31 29.11.2021
4531 Snow -5 1017 100 9000 1 0 00:35 29.11.2021
4532 Snow -6 1017 93 9000 2 120 23:41 28.11.2021
4533 Snow -8 1018 100 4100 2 110 22:29 28.11.2021
4534 Snow -9 1019 92 4500 3 120 21:41 28.11.2021
4535 Snow -9 1020 92 10000 3 120 20:44 28.11.2021
4536 Snow -10 1021 85 10000 3 120 19:54 28.11.2021
4537 Snow -11 1022 92 9000 4 120 18:42 28.11.2021
4538 Snow -11 1022 92 9000 4 120 18:23 28.11.2021
4539 Snow -11 1022 92 10000 4 110 17:46 28.11.2021
4540 Snow -11 1022 92 10000 3 110 17:18 28.11.2021
4541 Clouds -11 1023 92 10000 3 100 16:28 28.11.2021
4542 Clouds -11 1023 85 10000 2 90 15:51 28.11.2021
4543 Clear -12 1022 92 10000 2 80 14:56 28.11.2021
4544 Clouds -11 1022 85 10000 2 20 14:29 28.11.2021
4545 Clear -12 1022 92 10000 1 290 12:54 28.11.2021
4546 Clear -10 1022 85 10000 2 290 11:51 28.11.2021
4547 Clear -8 1021 86 10000 5 290 10:37 28.11.2021
4548 Clear -8 1021 86 10000 5 290 10:18 28.11.2021
4549 Clouds -7 1020 86 10000 6 290 09:36 28.11.2021
4550 Snow -1 1014 100 3700 8 260 05:23 28.11.2021
4551 Snow 0 1009 100 7000 6 250 22:58 27.11.2021
4552 Snow 0 1007 93 10000 7 250 20:28 27.11.2021
4553 Snow -1 1007 100 2100 5 240 18:44 27.11.2021
4554 Snow -2 1006 100 10000 5 240 16:19 27.11.2021
4555 Snow -2 1006 93 7000 4 230 15:32 27.11.2021
4556 Snow -5 1005 100 10000 5 220 13:41 27.11.2021
4557 Snow -6 1005 100 9000 3 210 12:27 27.11.2021
4558 Snow -9 1006 100 8000 3 180 10:30 27.11.2021
4559 Snow -10 1006 100 3400 3 170 09:25 27.11.2021
4560 Snow -12 1007 100 2200 4 170 07:44 27.11.2021
4561 Snow -14 1010 85 3300 4 160 04:55 27.11.2021
4562 Clear -17 1014 85 10000 3 170 00:31 27.11.2021
4563 Clouds -18 1015 85 10000 2 190 23:29 26.11.2021
4564 Clear -18 1015 85 10000 2 200 22:25 26.11.2021
4565 Clear -18 1015 78 10000 2 220 21:34 26.11.2021
4566 Clear -18 1015 78 10000 2 220 21:34 26.11.2021
4567 Clear -19 1015 84 10000 3 230 20:45 26.11.2021
4568 Clear -18 1015 85 10000 3 230 19:56 26.11.2021
4569 Clear -18 1015 85 10000 3 230 19:28 26.11.2021
4570 Clouds -16 1014 85 10000 4 240 17:55 26.11.2021
4571 Snow -16 1014 85 6000 5 250 17:21 26.11.2021
4572 Snow -15 1013 85 8000 5 250 15:46 26.11.2021
4573 Snow -15 1012 85 6000 4 240 13:35 26.11.2021
4574 Snow -15 1011 85 8000 5 240 12:30 26.11.2021
4575 Snow -14 1010 85 8000 4 230 10:37 26.11.2021
4576 Snow -15 1009 85 10000 4 220 08:58 26.11.2021
4577 Snow -15 1009 85 10000 4 210 08:21 26.11.2021
4578 Snow -17 1009 85 9000 3 190 07:26 26.11.2021
4579 Snow -18 1009 85 9000 4 200 06:26 26.11.2021
4580 Clear -20 1008 77 10000 3 210 03:59 26.11.2021
4581 Clear -21 1008 84 10000 2 220 01:55 26.11.2021
4582 Clear -20 1007 77 10000 3 240 23:18 25.11.2021
4583 Clear -21 1006 84 10000 2 230 21:26 25.11.2021
4584 Clear -20 1005 84 10000 3 250 20:27 25.11.2021
4585 Clear -20 1005 84 10000 3 250 18:47 25.11.2021
4586 Clear -19 1004 78 10000 3 250 17:48 25.11.2021
4587 Clear -19 1004 84 10000 4 250 17:25 25.11.2021
4588 Clouds -19 1004 84 10000 3 250 16:33 25.11.2021
4589 Clear -19 1003 78 10000 3 230 15:33 25.11.2021
4590 Clouds -19 1003 84 10000 3 240 13:50 25.11.2021
4591 Clear -19 1003 84 10000 3 240 12:27 25.11.2021
4592 Clouds -19 1003 84 10000 3 230 11:50 25.11.2021
4593 Clear -18 1002 78 10000 3 250 09:28 25.11.2021
4594 Snow -19 1001 84 10000 4 230 06:22 25.11.2021
4595 Clouds -20 1001 84 10000 3 220 02:50 25.11.2021
4596 Clear -20 1000 77 10000 3 220 23:28 24.11.2021
4597 Clear -20 1000 84 10000 3 210 22:25 24.11.2021
4598 Clear -20 1000 84 10000 3 210 21:37 24.11.2021
4599 Clear -20 1000 84 10000 3 220 20:53 24.11.2021
4600 Clear -19 1000 78 10000 4 230 20:26 24.11.2021
4601 Clear -19 999 84 10000 4 240 18:31 24.11.2021
4602 Clear -19 999 84 10000 4 240 17:58 24.11.2021
4603 Clouds -17 999 78 10000 5 240 15:47 24.11.2021
4604 Clear -17 999 85 10000 3 230 14:53 24.11.2021
4605 Clear -18 999 85 10000 4 230 14:20 24.11.2021
4606 Clear -17 999 85 10000 3 230 12:50 24.11.2021
4607 Clear -17 998 85 10000 3 230 11:22 24.11.2021
4608 Clear -17 998 85 10000 3 230 10:49 24.11.2021
4609 Clear -16 997 78 10000 4 240 10:26 24.11.2021
4610 Clear -16 996 92 10000 4 240 07:55 24.11.2021
4611 Clouds -16 996 92 10000 4 230 06:55 24.11.2021
4612 Clouds -18 994 92 10000 5 250 03:55 24.11.2021
4613 Clouds -14 992 92 10000 6 260 00:53 24.11.2021
4614 Snow -12 990 92 6000 3 220 22:40 23.11.2021
4615 Snow -12 990 92 6000 3 220 22:20 23.11.2021
4616 Snow -13 990 100 3600 4 220 21:44 23.11.2021
4617 Snow -13 989 100 10000 3 230 20:19 23.11.2021
4618 Snow -12 988 100 5000 3 240 18:43 23.11.2021
4619 Snow -12 988 100 5000 3 240 18:22 23.11.2021
4620 Snow -11 988 92 10000 5 250 17:19 23.11.2021
4621 Snow -11 987 92 7000 5 250 16:34 23.11.2021
4622 Snow -11 987 92 5000 4 240 15:23 23.11.2021
4623 Snow -11 986 100 8000 5 250 14:26 23.11.2021
4624 Snow -9 985 92 8000 2 230 11:48 23.11.2021
4625 Snow -9 984 92 9000 3 240 10:22 23.11.2021
4626 Snow -8 983 93 2500 3 240 09:22 23.11.2021
4627 Snow -7 982 100 3600 5 240 06:46 23.11.2021
4628 Snow -7 981 100 3200 6 230 03:54 23.11.2021
4629 Snow -6 981 93 2700 4 210 02:58 23.11.2021
4630 Snow -8 980 100 8000 3 210 23:21 22.11.2021
4631 Snow -8 980 93 5000 3 220 22:53 22.11.2021
4632 Snow -8 980 93 5000 3 210 22:27 22.11.2021
4633 Snow -9 980 100 6000 3 220 21:43 22.11.2021
4634 Snow -9 980 100 3500 3 220 20:52 22.11.2021
4635 Snow -9 979 92 7000 3 220 19:58 22.11.2021
4636 Snow -9 979 92 6000 3 220 19:19 22.11.2021
4637 Snow -9 979 92 5000 3 220 18:40 22.11.2021
4638 Snow -10 979 100 6000 3 220 17:45 22.11.2021
4639 Snow -10 979 100 2300 2 210 16:22 22.11.2021
4640 Snow -10 980 100 1300 3 160 14:20 22.11.2021
4641 Snow -10 980 100 1600 3 150 12:26 22.11.2021
4642 Snow -10 981 100 8000 3 160 10:43 22.11.2021
4643 Snow -10 982 100 10000 4 160 09:48 22.11.2021
4644 Snow -10 982 100 10000 5 160 08:40 22.11.2021
4645 Clouds -10 984 100 10000 5 140 06:22 22.11.2021
4646 Clear -8 990 93 10000 6 160 23:35 21.11.2021
4647 Clear -8 990 93 10000 5 160 22:51 21.11.2021
4648 Clear -8 991 93 10000 5 160 22:18 21.11.2021
4649 Clear -8 993 93 10000 5 160 20:42 21.11.2021
4650 Clear -7 993 93 10000 6 160 19:59 21.11.2021
4651 Clear -7 994 93 10000 5 160 18:25 21.11.2021
4652 Clear -7 995 93 10000 5 160 17:39 21.11.2021
4653 Clear -7 995 93 10000 5 160 16:42 21.11.2021
4654 Clouds -7 997 93 10000 5 160 14:46 21.11.2021
4655 Snow -7 998 100 6000 5 150 13:47 21.11.2021
4656 Snow -7 999 100 2400 5 160 12:38 21.11.2021
4657 Clouds -7 999 93 10000 5 160 11:57 21.11.2021
4658 Clouds -7 1000 93 10000 4 170 11:35 21.11.2021
4659 Clouds -7 1000 93 10000 5 190 10:19 21.11.2021
4660 Clouds -7 1001 93 10000 5 190 08:56 21.11.2021
4661 Clouds -7 1001 93 10000 5 190 08:26 21.11.2021
4662 Clouds -7 1001 93 10000 5 190 07:49 21.11.2021
4663 Snow -8 1001 100 8000 4 200 06:18 21.11.2021
4664 Snow -8 1001 100 9000 5 200 05:26 21.11.2021
4665 Clouds -7 1001 100 10000 6 190 03:19 21.11.2021
4666 Snow -6 1001 100 2000 3 180 02:52 21.11.2021
4667 Snow -5 1002 100 3300 4 180 00:59 21.11.2021
4668 Snow -5 1002 100 2100 3 170 23:59 20.11.2021
4669 Snow -5 1003 100 2600 3 160 21:49 20.11.2021
4670 Snow -5 1004 100 3600 3 160 21:28 20.11.2021
4671 Snow -6 1005 100 3400 3 160 19:23 20.11.2021
4672 Snow -6 1005 100 7000 3 160 18:45 20.11.2021
4673 Snow -5 1005 100 4300 2 170 18:19 20.11.2021
4674 Snow -6 1005 100 4300 3 170 17:18 20.11.2021
4675 Snow -8 1006 93 9000 3 150 14:49 20.11.2021
4676 Snow -9 1006 92 3900 3 150 14:28 20.11.2021
4677 Snow -9 1007 92 2700 4 150 13:32 20.11.2021
4678 Snow -11 1008 92 10000 4 150 11:20 20.11.2021
4679 Snow -13 1009 92 2900 4 150 09:53 20.11.2021
4680 Snow -14 1009 92 4000 4 150 08:25 20.11.2021
4681 Snow -15 1011 92 2400 6 140 05:29 20.11.2021
4682 Snow -16 1011 92 3100 5 140 04:51 20.11.2021
4683 Snow -16 1012 92 1200 5 140 03:24 20.11.2021
4684 Clouds -19 1015 84 7000 5 140 00:42 20.11.2021
4685 Clouds -21 1016 84 9000 4 150 23:44 19.11.2021
4686 Clouds -22 1016 84 10000 3 140 22:52 19.11.2021
4687 Clouds -23 1017 92 10000 3 130 21:22 19.11.2021
4688 Clouds -23 1018 84 10000 3 120 20:37 19.11.2021
4689 Mist -24 1018 84 4400 2 150 19:56 19.11.2021
4690 Clouds -25 1018 84 10000 2 110 19:34 19.11.2021
4691 Clouds -27 1018 91 10000 3 90 18:43 19.11.2021
4692 Clouds -30 1019 83 10000 2 90 17:39 19.11.2021
4693 Clear -29 1019 83 10000 0 0 16:22 19.11.2021
4694 Clear -27 1019 83 10000 0 0 14:19 19.11.2021
4695 Clear -24 1018 84 10000 3 270 10:52 19.11.2021
4696 Clear -24 1018 84 10000 3 280 10:23 19.11.2021
4697 Clear -25 1017 84 10000 4 280 08:32 19.11.2021
4698 Clear -27 1015 91 10000 3 280 04:55 19.11.2021
4699 Clear -26 1015 84 10000 4 280 03:19 19.11.2021
4700 Clouds -23 1013 84 10000 4 280 23:53 18.11.2021
4701 Clouds -22 1013 84 10000 4 290 22:43 18.11.2021
4702 Clear -22 1012 84 10000 5 290 20:56 18.11.2021
4703 Clear -22 1011 84 10000 5 290 20:37 18.11.2021
4704 Clear -22 1011 84 10000 5 290 20:18 18.11.2021
4705 Clear -22 1011 92 10000 4 290 19:36 18.11.2021
4706 Snow -21 1010 92 10000 5 290 18:35 18.11.2021
4707 Snow -21 1010 92 7000 4 290 17:52 18.11.2021
4708 Snow -20 1010 92 6000 6 300 16:46 18.11.2021
4709 Snow -19 1009 84 5000 6 300 15:52 18.11.2021
4710 Snow -20 1008 92 9000 5 290 14:40 18.11.2021
4711 Snow -19 1007 92 7000 5 300 12:55 18.11.2021
4712 Snow -19 1007 92 8000 6 290 11:44 18.11.2021
4713 Snow -18 1006 85 2900 6 290 11:25 18.11.2021
4714 Snow -19 1006 92 10000 6 290 10:22 18.11.2021
4715 Snow -18 1004 85 9000 7 300 08:26 18.11.2021
4716 Snow -20 1003 92 5000 4 280 06:40 18.11.2021
4717 Snow -20 1003 84 9000 3 280 05:44 18.11.2021
4718 Clouds -24 1002 84 10000 4 280 01:25 18.11.2021
4719 Clear -24 1001 92 10000 3 280 23:35 17.11.2021
4720 Clouds -24 1001 92 10000 4 280 22:39 17.11.2021
4721 Clouds -24 1001 92 10000 4 280 22:19 17.11.2021
4722 Clear -23 1001 84 10000 4 280 21:35 17.11.2021
4723 Clear -23 1000 92 10000 4 280 19:42 17.11.2021
4724 Clear -20 1000 84 10000 5 300 17:35 17.11.2021
4725 Clear -19 999 92 10000 6 310 15:55 17.11.2021
4726 Snow -13 997 92 8000 5 310 13:19 17.11.2021
4727 Snow -11 996 92 2700 6 300 12:37 17.11.2021
4728 Snow -9 995 92 6000 3 240 10:54 17.11.2021
4729 Snow -9 995 92 2500 3 220 09:38 17.11.2021
4730 Snow -9 995 92 3900 4 220 07:56 17.11.2021
4731 Snow -9 995 92 2700 4 220 07:37 17.11.2021
4732 Snow -10 995 92 2200 4 200 02:49 17.11.2021
4733 Snow -10 997 92 3500 4 200 00:34 17.11.2021
4734 Snow -11 998 100 1900 4 200 22:31 16.11.2021
4735 Snow -11 999 100 2200 5 210 20:19 16.11.2021
4736 Snow -11 1000 100 2700 5 220 19:39 16.11.2021
4737 Snow -11 1000 100 1900 5 220 18:49 16.11.2021
4738 Snow -11 1000 100 1500 6 220 18:28 16.11.2021
4739 Snow -11 1001 100 2000 6 220 17:18 16.11.2021
4740 Snow -11 1001 100 2800 6 220 16:20 16.11.2021
4741 Snow -11 1002 100 1900 5 220 15:43 16.11.2021
4742 Snow -10 1002 92 7000 6 220 13:47 16.11.2021
4743 Snow -10 1004 100 1700 6 230 10:27 16.11.2021
4744 Snow -10 1005 100 2900 5 220 09:42 16.11.2021
4745 Snow -10 1006 100 6000 5 230 07:53 16.11.2021
4746 Snow -10 1006 92 10000 5 250 07:28 16.11.2021
4747 Snow -11 1008 100 10000 3 250 23:53 15.11.2021
4748 Snow -11 1008 100 2400 3 250 22:41 15.11.2021
4749 Snow -11 1008 100 2400 3 250 22:19 15.11.2021
4750 Snow -11 1009 100 6000 3 240 21:31 15.11.2021
4751 Snow -11 1009 92 9000 3 240 20:59 15.11.2021
4752 Snow -11 1009 92 5000 3 230 19:26 15.11.2021
4753 Snow -12 1010 100 10000 2 240 17:35 15.11.2021
4754 Snow -13 1010 92 10000 2 200 15:55 15.11.2021
4755 Snow -13 1010 92 8000 2 190 15:36 15.11.2021
4756 Mist -13 1011 92 3700 2 200 14:32 15.11.2021
4757 Clouds -14 1012 92 10000 2 190 12:38 15.11.2021
4758 Clouds -16 1012 92 10000 2 220 10:33 15.11.2021
4759 Clouds -16 1013 92 10000 1 0 09:22 15.11.2021
4760 Clouds -16 1013 92 10000 1 0 07:23 15.11.2021
4761 Clear -18 1012 92 10000 2 280 02:34 15.11.2021
4762 Fog -18 1011 92 350 1 0 22:45 14.11.2021
4763 Clouds -19 1011 92 10000 0 0 22:19 14.11.2021
4764 Clear -18 1011 85 10000 0 0 19:22 14.11.2021
4765 Clear -18 1011 92 10000 0 0 18:55 14.11.2021
4766 Clear -18 1011 92 10000 1 180 18:36 14.11.2021
4767 Clear -18 1011 92 10000 1 180 18:18 14.11.2021
4768 Clear -17 1011 92 10000 1 0 17:58 14.11.2021
4769 Clear -17 1011 92 10000 1 0 17:40 14.11.2021
4770 Clear -17 1011 92 10000 1 0 17:22 14.11.2021
4771 Clear -16 1011 92 10000 1 0 16:58 14.11.2021
4772 Clear -16 1010 92 10000 1 0 16:40 14.11.2021
4773 Clear -16 1010 92 10000 1 0 16:18 14.11.2021
4774 Clear -15 1010 92 10000 1 0 15:20 14.11.2021
4775 Clear -14 1010 92 10000 1 0 14:45 14.11.2021
4776 Clear -14 1010 92 10000 2 30 14:22 14.11.2021
4777 Clear -14 1009 100 10000 3 10 13:52 14.11.2021
4778 Clear -13 1009 92 10000 3 330 13:27 14.11.2021
4779 Clear -12 1009 100 10000 3 10 12:23 14.11.2021
4780 Clear -11 1008 92 10000 2 10 11:25 14.11.2021
4781 Clear -11 1008 100 10000 2 50 10:38 14.11.2021
4782 Clear -10 1007 92 10000 3 50 09:41 14.11.2021
4783 Clear -10 1007 92 10000 3 50 08:51 14.11.2021
4784 Clouds -12 1006 92 10000 2 50 04:47 14.11.2021
4785 Clear -14 1005 92 10000 1 0 23:20 13.11.2021
4786 Clear -13 1005 92 10000 2 330 22:20 13.11.2021
4787 Clouds -14 1005 92 10000 1 230 21:36 13.11.2021
4788 Clear -12 1004 92 10000 1 260 20:46 13.11.2021
4789 Clear -12 1004 100 10000 2 340 19:32 13.11.2021
4790 Clear -13 1003 92 10000 2 290 18:32 13.11.2021
4791 Clear -12 1003 100 10000 3 290 17:41 13.11.2021
4792 Clear -9 1002 92 10000 3 290 15:55 13.11.2021
4793 Clear -7 1001 93 10000 3 310 14:45 13.11.2021
4794 Snow -5 1000 93 10000 5 320 13:47 13.11.2021
4795 Snow -5 999 100 2200 5 300 12:43 13.11.2021
4796 Snow -3 999 100 1200 9 300 11:51 13.11.2021
4797 Snow -1 997 100 8000 7 240 11:22 13.11.2021
4798 Snow -1 997 100 4900 6 250 10:34 13.11.2021
4799 Snow -1 997 100 3600 6 250 09:47 13.11.2021
4800 Snow -1 997 93 2400 6 240 09:28 13.11.2021
4801 Snow -2 997 100 2300 6 240 08:49 13.11.2021
4802 Snow -2 997 100 4800 6 240 07:51 13.11.2021
4803 Snow -5 997 100 2400 4 200 04:43 13.11.2021
4804 Snow -5 997 100 1500 4 200 04:20 13.11.2021
4805 Snow -9 999 100 10000 4 190 23:35 12.11.2021
4806 Snow -9 999 100 10000 4 190 22:34 12.11.2021
4807 Clouds -9 1000 92 10000 5 190 20:49 12.11.2021
4808 Snow -10 1001 100 4300 6 180 19:33 12.11.2021
4809 Snow -10 1001 92 3700 5 190 18:59 12.11.2021
4810 Snow -10 1002 92 3200 6 180 18:20 12.11.2021
4811 Snow -11 1003 92 1600 6 190 16:18 12.11.2021
4812 Clouds -12 1005 92 10000 5 180 13:46 12.11.2021
4813 Clouds -12 1006 85 10000 4 170 11:31 12.11.2021
4814 Clouds -13 1006 92 10000 4 160 10:43 12.11.2021
4815 Clouds -13 1008 92 10000 5 160 08:59 12.11.2021
4816 Clouds -13 1008 92 10000 5 160 08:29 12.11.2021
4817 Clouds -13 1015 92 10000 6 180 00:37 12.11.2021
4818 Snow -13 1015 92 10000 5 180 23:30 11.11.2021
4819 Snow -13 1016 92 8000 4 170 22:27 11.11.2021
4820 Snow -14 1017 100 10000 6 180 21:26 11.11.2021
4821 Snow -13 1018 92 10000 5 190 20:18 11.11.2021
4822 Snow -13 1019 100 10000 3 190 18:42 11.11.2021
4823 Snow -14 1019 100 8000 3 200 17:42 11.11.2021
4824 Snow -13 1019 92 10000 2 210 16:24 11.11.2021
4825 Snow -13 1020 92 10000 3 220 14:44 11.11.2021
4826 Snow -13 1020 92 8000 3 240 14:25 11.11.2021
4827 Clouds -13 1020 92 10000 3 280 13:36 11.11.2021
4828 Snow -13 1020 92 10000 4 280 12:30 11.11.2021
4829 Snow -13 1020 92 10000 3 300 10:24 11.11.2021
4830 Snow -13 1020 92 8000 4 290 09:23 11.11.2021
4831 Snow -14 1019 92 8000 5 320 07:35 11.11.2021
4832 Snow -14 1015 92 3600 5 350 00:43 11.11.2021
4833 Snow -13 1013 92 6000 6 350 22:46 10.11.2021
4834 Snow -12 1012 92 4300 6 340 21:56 10.11.2021
4835 Snow -11 1012 92 6000 6 340 21:18 10.11.2021
4836 Snow -11 1011 92 10000 6 340 20:35 10.11.2021
4837 Snow -11 1010 100 10000 5 350 19:46 10.11.2021
4838 Snow -7 1007 100 10000 5 350 17:39 10.11.2021
4839 Clouds -6 1006 100 10000 5 360 16:21 10.11.2021
4840 Clouds -6 1004 100 10000 5 360 14:25 10.11.2021
4841 Clouds -5 1003 100 10000 5 360 13:40 10.11.2021
4842 Snow -3 1003 100 9000 5 340 12:39 10.11.2021
4843 Snow 0 1001 100 9000 3 290 10:20 10.11.2021
4844 Snow 1 1001 100 7000 3 280 08:45 10.11.2021
4845 Snow 1 1000 100 3800 2 240 07:22 10.11.2021
4846 Snow 1 1000 100 4400 3 230 05:59 10.11.2021
4847 Snow 1 1000 100 9000 3 240 04:59 10.11.2021
4848 Snow 0 1000 100 4500 4 220 22:45 09.11.2021
4849 Snow 0 1000 100 8000 4 200 21:46 09.11.2021
4850 Snow 0 1000 100 5000 4 200 20:20 09.11.2021
4851 Snow 0 1001 100 1600 4 190 18:59 09.11.2021
4852 Snow 1 1003 100 1700 4 190 17:24 09.11.2021
4853 Rain 1 1004 100 10000 4 170 15:38 09.11.2021
4854 Clouds 1 1006 93 10000 4 160 13:55 09.11.2021
4855 Clear 1 1007 100 10000 4 160 12:50 09.11.2021
4856 Clouds 0 1009 100 10000 4 160 11:34 09.11.2021
4857 Clouds 0 1010 100 10000 4 160 10:41 09.11.2021
4858 Clouds 0 1011 100 10000 5 190 09:22 09.11.2021
4859 Snow 0 1012 100 3800 4 190 08:18 09.11.2021
4860 Snow -1 1013 100 3300 4 210 05:23 09.11.2021
4861 Clear -1 1013 93 10000 5 220 01:58 09.11.2021
4862 Clear -1 1013 100 10000 5 220 01:39 09.11.2021
4863 Clear 0 1013 93 10000 5 230 23:34 08.11.2021
4864 Clouds 0 1013 93 10000 5 220 22:47 08.11.2021
4865 Clouds 1 1013 93 10000 5 230 21:46 08.11.2021
4866 Clouds 1 1012 100 10000 5 240 20:38 08.11.2021
4867 Clouds 1 1011 93 10000 5 240 19:46 08.11.2021
4868 Snow 1 1010 100 10000 6 240 17:48 08.11.2021
4869 Snow 1 1008 100 10000 7 250 15:58 08.11.2021
4870 Snow 1 1008 100 10000 9 270 14:57 08.11.2021
4871 Rain 1 1007 100 10000 8 260 14:34 08.11.2021
4872 Snow 1 1006 100 10000 8 250 13:22 08.11.2021
4873 Clouds 1 1005 100 10000 7 260 11:56 08.11.2021
4874 Clouds 1 1003 100 9000 7 260 10:50 08.11.2021
4875 Clouds 1 1002 100 10000 6 250 09:31 08.11.2021
4876 Clouds 1 1001 93 10000 7 270 08:52 08.11.2021
4877 Snow 0 999 100 10000 6 250 06:57 08.11.2021
4878 Snow 0 998 100 3600 5 240 03:38 08.11.2021
4879 Snow 0 998 100 3600 5 240 03:19 08.11.2021
4880 Rain 1 999 100 10000 5 220 23:33 07.11.2021
4881 Rain 2 999 93 10000 6 230 21:42 07.11.2021
4882 Clouds 2 999 93 10000 5 230 20:51 07.11.2021
4883 Clouds 2 1000 93 10000 6 240 19:22 07.11.2021
4884 Clouds 2 1000 93 10000 5 240 17:47 07.11.2021
4885 Clouds 2 1000 93 10000 6 240 16:44 07.11.2021
4886 Clouds 2 1000 93 10000 6 240 15:42 07.11.2021
4887 Clouds 2 1000 93 10000 7 240 14:28 07.11.2021
4888 Clouds 1 999 100 10000 8 240 12:57 07.11.2021
4889 Snow 1 999 100 9000 7 240 11:42 07.11.2021
4890 Clouds 1 998 100 10000 7 240 09:22 07.11.2021
4891 Snow 0 999 100 2400 6 230 04:33 07.11.2021
4892 Rain 1 1000 93 10000 5 230 02:28 07.11.2021
4893 Clouds 1 1003 100 10000 7 230 22:57 06.11.2021
4894 Clouds 1 1003 100 10000 7 240 22:29 06.11.2021
4895 Clouds 1 1003 100 10000 7 240 21:28 06.11.2021
4896 Clouds 1 1004 100 10000 7 230 20:32 06.11.2021
4897 Clouds 1 1004 100 10000 8 230 18:56 06.11.2021
4898 Rain 1 1006 100 6000 7 230 16:38 06.11.2021
4899 Rain 1 1008 100 10000 7 210 14:31 06.11.2021
4900 Rain 1 1009 100 8000 7 200 13:38 06.11.2021
4901 Clouds 2 1012 93 10000 6 200 11:25 06.11.2021
4902 Clouds 1 1014 100 10000 5 200 09:21 06.11.2021
4903 Clouds 0 1018 100 10000 4 240 04:55 06.11.2021
4904 Clouds 1 1017 93 10000 5 250 00:58 06.11.2021
4905 Clouds 0 1016 100 10000 5 280 23:33 05.11.2021
4906 Clouds 0 1016 100 10000 5 270 22:33 05.11.2021
4907 Clouds 0 1016 100 10000 5 270 22:33 05.11.2021
4908 Clouds 0 1015 100 10000 6 270 20:42 05.11.2021
4909 Snow 0 1015 100 10000 6 270 20:19 05.11.2021
4910 Snow 0 1014 100 8000 7 260 18:59 05.11.2021
4911 Snow 0 1014 100 6000 7 250 18:38 05.11.2021
4912 Snow 0 1014 100 7000 7 250 16:50 05.11.2021
4913 Snow -1 1014 100 9000 7 250 14:54 05.11.2021
4914 Snow -1 1013 100 1900 8 250 13:33 05.11.2021
4915 Snow 0 1013 93 10000 7 250 09:59 05.11.2021
4916 Clouds 0 1014 93 10000 6 240 08:38 05.11.2021
4917 Clouds 0 1014 93 10000 6 240 07:21 05.11.2021
4918 Clouds -1 1014 100 10000 6 240 04:43 05.11.2021
4919 Clouds -1 1015 100 10000 6 240 02:24 05.11.2021
4920 Clouds -1 1016 100 10000 5 250 00:30 05.11.2021
4921 Clouds -1 1016 100 10000 5 250 22:56 04.11.2021
4922 Snow -1 1016 93 9000 6 240 22:18 04.11.2021
4923 Clouds -2 1016 100 10000 5 240 21:29 04.11.2021
4924 Clouds -2 1017 100 10000 7 240 20:29 04.11.2021
4925 Clouds -2 1017 100 10000 5 240 19:50 04.11.2021
4926 Clouds -2 1017 93 10000 4 240 19:28 04.11.2021
4927 Clouds -2 1018 93 10000 5 240 18:42 04.11.2021
4928 Clouds -2 1018 93 10000 6 240 17:28 04.11.2021
4929 Clouds -2 1019 93 10000 7 240 16:23 04.11.2021
4930 Clouds -2 1019 93 10000 7 240 16:23 04.11.2021
4931 Clouds -3 1020 93 10000 5 240 14:19 04.11.2021
4932 Clouds -5 1021 93 10000 5 230 10:52 04.11.2021
4933 Snow -6 1022 93 9000 5 240 08:58 04.11.2021
4934 Clouds -6 1022 86 10000 5 240 08:28 04.11.2021
4935 Clouds -6 1022 86 10000 6 250 07:33 04.11.2021
4936 Clouds -9 1024 92 10000 5 240 23:43 03.11.2021
4937 Clear -10 1025 92 10000 5 230 22:49 03.11.2021
4938 Clear -11 1026 92 10000 5 230 21:45 03.11.2021
4939 Clear -11 1027 92 10000 6 230 20:45 03.11.2021
4940 Clear -11 1027 92 10000 7 220 20:27 03.11.2021
4941 Clear -11 1028 85 10000 6 230 19:38 03.11.2021
4942 Clear -12 1029 92 10000 6 220 18:47 03.11.2021
4943 Clear -12 1030 85 10000 6 220 17:58 03.11.2021
4944 Clear -13 1031 92 10000 6 210 16:53 03.11.2021
4945 Clear -13 1032 85 10000 5 210 15:52 03.11.2021
4946 Clear -13 1032 85 10000 5 210 15:31 03.11.2021
4947 Clear -14 1034 85 10000 5 220 13:43 03.11.2021
4948 Clear -14 1035 85 10000 4 230 11:38 03.11.2021
4949 Clear -14 1035 85 10000 4 240 10:52 03.11.2021
4950 Clear -14 1036 85 10000 5 250 10:18 03.11.2021
4951 Clear -14 1036 85 10000 5 240 09:27 03.11.2021
4952 Clouds -15 1036 92 10000 4 260 08:20 03.11.2021
4953 Clear -18 1036 92 10000 4 280 07:38 03.11.2021
4954 Clear -24 1036 84 10000 3 280 04:24 03.11.2021
4955 Clear -21 1036 92 10000 4 330 01:42 03.11.2021
4956 Clear -20 1035 92 10000 4 330 23:32 02.11.2021
4957 Clear -20 1034 92 10000 4 330 22:21 02.11.2021
4958 Clear -19 1033 92 10000 4 340 20:48 02.11.2021
4959 Clear -18 1033 85 10000 3 340 20:23 02.11.2021
4960 Clear -18 1033 92 10000 4 350 19:46 02.11.2021
4961 Clear -17 1031 92 10000 3 350 18:36 02.11.2021
4962 Clear -16 1031 92 10000 4 360 17:57 02.11.2021
4963 Clear -16 1031 92 10000 3 350 17:31 02.11.2021
4964 Clouds -14 1030 85 10000 4 10 16:27 02.11.2021
4965 Clouds -13 1028 92 10000 4 10 14:58 02.11.2021
4966 Snow -12 1027 85 7000 3 350 13:44 02.11.2021
4967 Snow -12 1026 92 7000 3 340 13:26 02.11.2021
4968 Mist -12 1026 92 4600 3 330 12:28 02.11.2021
4969 Snow -12 1025 92 3700 4 290 11:28 02.11.2021
4970 Snow -12 1025 92 4400 5 300 10:50 02.11.2021
4971 Snow -12 1024 92 4900 5 290 10:23 02.11.2021
4972 Clouds -14 1024 92 10000 5 300 08:42 02.11.2021
4973 Clear -17 1024 85 10000 3 290 06:42 02.11.2021
4974 Clear -19 1023 84 10000 2 290 03:32 02.11.2021
4975 Clear -19 1022 92 10000 2 290 00:58 02.11.2021
4976 Clear -18 1021 92 10000 3 300 22:28 01.11.2021
4977 Clear -18 1021 92 10000 3 320 20:50 01.11.2021
4978 Clear -17 1021 92 10000 3 330 20:32 01.11.2021
4979 Clear -17 1021 92 10000 3 320 19:44 01.11.2021
4980 Clear -17 1021 92 10000 3 330 18:55 01.11.2021
4981 Clear -18 1021 92 10000 4 320 18:19 01.11.2021
4982 Clear -18 1020 92 10000 3 320 17:18 01.11.2021
4983 Clear -17 1020 92 10000 3 330 16:34 01.11.2021
4984 Clear -17 1020 85 10000 3 330 15:44 01.11.2021
4985 Clear -17 1019 92 10000 3 340 15:19 01.11.2021
4986 Clear -16 1019 92 10000 3 340 14:40 01.11.2021
4987 Clear -16 1019 92 10000 3 340 14:19 01.11.2021
4988 Clear -15 1019 92 10000 3 330 12:53 01.11.2021
4989 Clouds -14 1018 92 10000 4 340 11:40 01.11.2021
4990 Clouds -14 1018 92 10000 4 340 11:40 01.11.2021
4991 Clouds -13 1017 85 10000 4 350 10:22 01.11.2021
4992 Clear -14 1017 92 10000 3 350 08:26 01.11.2021
4993 Clear -14 1017 92 10000 2 350 07:47 01.11.2021
4994 Clear -19 1016 84 10000 1 300 03:55 01.11.2021
4995 Clear -19 1016 84 10000 2 310 03:36 01.11.2021
4996 Clear -20 1016 92 10000 1 0 23:58 31.10.2021
4997 Clear -19 1016 92 10000 2 300 21:26 31.10.2021
4998 Clear -19 1016 92 10000 2 290 20:24 31.10.2021
4999 Clear -18 1016 92 10000 3 290 18:43 31.10.2021
5000 Clear -18 1016 92 10000 3 290 18:21 31.10.2021
5001 Clear -16 1016 92 10000 3 300 16:48 31.10.2021
5002 Clear -16 1016 92 10000 4 290 14:53 31.10.2021
5003 Clouds -15 1016 92 10000 4 290 12:58 31.10.2021
5004 Clouds -13 1015 92 10000 4 290 12:19 31.10.2021
5005 Clouds -12 1015 92 10000 5 300 10:51 31.10.2021
5006 Clouds -12 1014 92 10000 5 300 09:26 31.10.2021
5007 Clouds -12 1014 92 10000 5 310 08:46 31.10.2021
5008 Clear -17 1012 92 10000 2 290 02:59 31.10.2021
5009 Clouds -14 1011 92 10000 2 280 23:43 30.10.2021
5010 Clear -13 1011 92 10000 2 280 21:46 30.10.2021
5011 Clear -13 1011 92 10000 2 290 21:25 30.10.2021
5012 Clear -12 1011 92 10000 2 260 19:40 30.10.2021
5013 Clear -11 1011 92 10000 2 250 17:48 30.10.2021
5014 Clear -9 1011 92 10000 4 240 15:41 30.10.2021
5015 Clear -8 1011 86 10000 5 250 13:59 30.10.2021
5016 Clear -8 1010 93 10000 6 250 13:38 30.10.2021
5017 Clear -8 1010 93 10000 6 250 13:20 30.10.2021
5018 Clear -7 1010 86 10000 7 250 11:49 30.10.2021
5019 Clouds -7 1009 86 10000 7 250 10:44 30.10.2021
5020 Clouds -7 1009 86 10000 6 250 08:56 30.10.2021
5021 Clouds -7 1008 86 10000 9 250 07:55 30.10.2021
5022 Clouds -7 1007 93 10000 9 260 05:46 30.10.2021
5023 Clouds -7 1007 93 10000 9 260 05:46 30.10.2021
5024 Clouds -6 1005 93 10000 9 260 02:59 30.10.2021
5025 Snow -8 1004 100 3000 10 280 23:21 29.10.2021
5026 Snow -7 1003 100 3800 11 280 22:34 29.10.2021
5027 Snow -7 1001 100 2200 11 280 20:59 29.10.2021
5028 Snow -7 1001 100 2300 11 280 20:32 29.10.2021
5029 Snow -7 1000 100 1600 11 270 19:26 29.10.2021
5030 Snow -6 999 93 2100 10 260 17:43 29.10.2021
5031 Snow -6 998 86 1500 8 250 15:42 29.10.2021
5032 Snow -5 997 93 1700 7 230 12:49 29.10.2021
5033 Snow -5 996 93 10000 8 250 10:46 29.10.2021
5034 Clouds -4 996 93 10000 9 260 09:45 29.10.2021
5035 Snow 0 993 100 6000 6 210 02:22 29.10.2021
5036 Snow 0 994 100 8000 5 200 00:30 29.10.2021
5037 Snow 0 995 100 6000 5 200 22:27 28.10.2021
5038 Snow 0 996 100 5000 5 190 20:59 28.10.2021
5039 Snow 0 997 100 4500 5 190 19:56 28.10.2021
5040 Snow 0 997 100 2800 5 200 18:46 28.10.2021
5041 Snow 0 999 93 2200 5 190 17:38 28.10.2021
5042 Snow 0 999 100 2200 6 190 16:38 28.10.2021
5043 Snow 0 1001 100 2700 5 170 14:40 28.10.2021
5044 Snow 0 1001 100 2100 4 170 13:33 28.10.2021
5045 Snow -1 1002 100 2500 5 170 12:49 28.10.2021
5046 Snow -1 1003 100 1900 5 160 11:37 28.10.2021
5047 Snow -2 1005 100 3900 5 160 10:23 28.10.2021
5048 Snow -3 1006 100 1600 5 160 09:37 28.10.2021
5049 Snow -4 1007 100 2100 5 160 08:36 28.10.2021
5050 Snow -4 1008 100 1700 6 140 07:41 28.10.2021
5051 Clear -9 1014 100 10000 2 140 01:48 28.10.2021
5052 Clear -10 1016 100 10000 1 0 22:49 27.10.2021
5053 Clear -11 1016 100 10000 1 230 21:53 27.10.2021
5054 Clear -11 1016 100 10000 0 0 21:20 27.10.2021
5055 Clear -9 1016 92 10000 1 0 20:43 27.10.2021
5056 Clear -8 1016 100 10000 3 240 19:46 27.10.2021
5057 Clear -8 1016 93 10000 3 250 18:56 27.10.2021
5058 Clear -7 1016 86 10000 4 270 17:39 27.10.2021
5059 Clear -6 1016 86 10000 5 260 16:25 27.10.2021
5060 Clear -6 1015 86 10000 5 250 15:24 27.10.2021
5061 Clear -6 1015 86 10000 5 250 15:24 27.10.2021
5062 Clear -6 1014 93 10000 5 260 14:20 27.10.2021
5063 Clouds -5 1013 86 10000 7 250 11:18 27.10.2021
5064 Clouds -5 1012 86 10000 7 250 10:37 27.10.2021
5065 Clouds -5 1012 86 10000 7 250 09:23 27.10.2021
5066 Clouds -6 1011 93 10000 7 250 07:44 27.10.2021
5067 Clouds -6 1010 86 10000 7 250 05:49 27.10.2021
5068 Clear -6 1008 86 10000 6 250 01:24 27.10.2021
5069 Clear -7 1008 93 10000 7 260 00:54 27.10.2021
5070 Clear -7 1007 93 10000 7 270 23:54 26.10.2021
5071 Clear -6 1007 86 10000 8 270 22:47 26.10.2021
5072 Clear -6 1007 86 10000 7 270 22:25 26.10.2021
5073 Clear -6 1006 86 10000 7 280 21:41 26.10.2021
5074 Clouds -5 1005 93 10000 8 290 19:54 26.10.2021
5075 Clouds -5 1004 86 10000 9 290 19:18 26.10.2021
5076 Clouds -5 1003 86 10000 8 300 18:23 26.10.2021
5077 Clouds -4 1000 86 10000 10 310 15:51 26.10.2021
5078 Snow -3 997 93 3000 10 320 13:21 26.10.2021
5079 Snow -2 995 93 1900 8 320 10:54 26.10.2021
5080 Snow -2 995 100 1800 7 320 09:26 26.10.2021
5081 Snow 0 996 100 1900 1 300 07:22 26.10.2021
5082 Snow 0 1003 100 5000 4 170 00:19 26.10.2021
5083 Snow 0 1004 100 10000 4 170 23:37 25.10.2021
5084 Snow 0 1005 93 9000 4 160 22:33 25.10.2021
5085 Clouds 0 1006 93 10000 3 170 21:43 25.10.2021
5086 Snow -1 1007 93 10000 4 160 20:38 25.10.2021
5087 Snow -1 1007 93 10000 4 160 19:44 25.10.2021
5088 Snow -1 1008 93 10000 3 160 19:23 25.10.2021
5089 Snow -1 1009 93 10000 4 170 18:38 25.10.2021
5090 Clear -1 1009 93 10000 3 170 17:34 25.10.2021
5091 Clear -3 1010 86 10000 1 100 14:53 25.10.2021
5092 Clear 0 1009 69 10000 2 360 12:33 25.10.2021
5093 Clear 1 1007 69 10000 3 350 10:54 25.10.2021
5094 Clear 0 1006 80 10000 3 10 08:58 25.10.2021
5095 Clear -1 1005 86 10000 3 20 07:19 25.10.2021
5096 Clear -2 1004 93 10000 4 70 04:35 25.10.2021
5097 Clear -2 1005 93 10000 2 70 00:52 25.10.2021
5098 Clear -2 1006 93 10000 2 70 00:33 25.10.2021
5099 Clear -2 1006 93 10000 1 20 23:41 24.10.2021
5100 Clear -3 1007 93 10000 0 0 22:38 24.10.2021
5101 Clear -3 1007 93 10000 0 0 22:19 24.10.2021
5102 Clear -3 1007 93 10000 1 290 21:18 24.10.2021
5103 Clear -2 1008 86 10000 1 290 20:34 24.10.2021
5104 Clear -2 1008 93 10000 2 250 19:39 24.10.2021
5105 Clear -2 1008 93 10000 2 260 18:29 24.10.2021
5106 Clear -1 1008 93 10000 3 250 17:44 24.10.2021
5107 Clear 0 1008 86 10000 2 240 15:56 24.10.2021
5108 Clear 0 1008 86 10000 2 240 15:56 24.10.2021
5109 Clouds 1 1007 80 10000 5 250 14:42 24.10.2021
5110 Clouds 2 1005 75 10000 6 290 12:58 24.10.2021
5111 Clouds 3 1004 81 10000 6 280 11:45 24.10.2021
5112 Clouds 2 1004 87 10000 8 290 11:25 24.10.2021
5113 Clouds 2 1003 93 10000 7 280 10:28 24.10.2021
5114 Rain 3 999 93 10000 9 250 07:59 24.10.2021
5115 Clouds 4 996 93 10000 7 250 01:25 24.10.2021
5116 Rain 4 995 93 10000 7 260 23:49 23.10.2021
5117 Rain 5 994 93 10000 7 250 22:32 23.10.2021
5118 Rain 5 993 93 10000 4 250 20:37 23.10.2021
5119 Rain 6 992 93 10000 3 240 18:59 23.10.2021
5120 Rain 6 992 93 10000 4 240 18:30 23.10.2021
5121 Clear 6 992 100 10000 4 240 17:43 23.10.2021
5122 Rain 7 992 93 10000 5 240 16:38 23.10.2021
5123 Clouds 7 991 93 10000 7 260 14:35 23.10.2021
5124 Rain 4 988 100 2800 5 220 09:45 23.10.2021
5125 Clouds 1 995 93 10000 5 190 00:25 23.10.2021
5126 Rain 1 996 93 10000 5 200 23:22 22.10.2021
5127 Snow 1 997 93 10000 4 200 20:50 22.10.2021
5128 Clouds 0 997 93 10000 5 200 18:57 22.10.2021
5129 Clouds 0 998 93 10000 5 200 17:44 22.10.2021
5130 Clouds 0 998 93 10000 4 210 15:50 22.10.2021
5131 Clear 0 998 93 10000 4 230 14:23 22.10.2021
5132 Clouds 0 997 100 10000 7 250 12:38 22.10.2021
5133 Snow 1 995 93 8000 6 270 10:48 22.10.2021
5134 Snow 2 995 100 6000 7 270 09:56 22.10.2021
5135 Rain 2 994 100 6000 5 240 09:30 22.10.2021
5136 Rain 2 995 100 6000 3 200 07:26 22.10.2021
5137 Clouds 2 995 100 6000 2 110 04:59 22.10.2021
5138 Fog 2 997 100 750 2 60 00:24 22.10.2021
5139 Mist 2 997 100 2100 3 90 23:40 21.10.2021
5140 Mist 2 998 100 1400 2 50 22:21 21.10.2021
5141 Fog 2 998 100 800 3 350 20:55 21.10.2021
5142 Fog 2 998 100 1300 2 10 20:20 21.10.2021
5143 Mist 2 999 100 3500 2 10 19:30 21.10.2021
5144 Mist 2 999 100 3500 2 10 19:30 21.10.2021
5145 Mist 2 998 100 2600 2 10 18:52 21.10.2021
5146 Mist 2 998 100 3800 2 20 18:22 21.10.2021
5147 Clouds 3 999 93 10000 3 360 17:42 21.10.2021
5148 Clouds 3 999 93 10000 3 360 16:20 21.10.2021
5149 Clouds 3 999 93 10000 3 340 15:21 21.10.2021
5150 Clouds 4 999 87 10000 3 360 14:49 21.10.2021
5151 Clouds 4 998 93 10000 3 350 13:26 21.10.2021
5152 Clouds 4 998 87 10000 3 30 11:27 21.10.2021
5153 Clouds 4 999 87 10000 3 60 09:23 21.10.2021
5154 Clouds 3 1001 93 10000 5 70 07:31 21.10.2021
5155 Clouds 2 1001 93 10000 4 60 05:33 21.10.2021
5156 Clouds 2 1004 93 10000 3 20 23:45 20.10.2021
5157 Clouds 2 1005 93 10000 3 40 22:21 20.10.2021
5158 Clouds 2 1005 93 10000 2 40 21:45 20.10.2021
5159 Clouds 2 1005 93 10000 3 70 20:57 20.10.2021
5160 Clouds 2 1005 93 10000 2 60 20:36 20.10.2021
5161 Clouds 2 1005 93 10000 3 50 19:59 20.10.2021
5162 Clouds 2 1005 93 10000 2 60 18:59 20.10.2021
5163 Clear 2 1006 93 10000 3 40 17:54 20.10.2021
5164 Rain 3 1006 93 10000 3 350 15:47 20.10.2021
5165 Clouds 5 1005 81 10000 5 340 12:50 20.10.2021
5166 Clear 10 1004 66 10000 4 200 09:30 20.10.2021
5167 Clear 9 1005 61 10000 5 200 05:24 20.10.2021
5168 Clear 10 1005 50 10000 5 200 00:53 20.10.2021
5169 Clear 9 1005 53 10000 4 200 00:26 20.10.2021
5170 Clear 11 1005 50 10000 5 210 21:47 19.10.2021
5171 Clear 11 1005 58 10000 5 220 21:27 19.10.2021
5172 Clear 11 1005 62 10000 6 220 20:26 19.10.2021
5173 Clear 11 1005 62 10000 6 210 19:45 19.10.2021
5174 Clear 11 1005 58 10000 5 200 19:21 19.10.2021
5175 Clear 11 1005 58 10000 5 200 18:23 19.10.2021
5176 Clear 11 1005 58 10000 5 200 18:23 19.10.2021
5177 Clear 11 1006 66 10000 4 190 16:24 19.10.2021
5178 Clear 11 1006 71 10000 4 190 15:20 19.10.2021
5179 Clear 10 1006 76 10000 5 160 14:27 19.10.2021
5180 Clear 10 1007 76 10000 5 160 13:43 19.10.2021
5181 Clear 10 1009 76 10000 4 150 11:37 19.10.2021
5182 Clear 9 1010 81 10000 5 190 10:39 19.10.2021
5183 Clear 8 1010 87 10000 4 190 08:59 19.10.2021
5184 Clear 7 1011 87 10000 4 190 07:56 19.10.2021
5185 Clear 5 1011 75 10000 4 210 00:27 19.10.2021
5186 Clear 5 1011 75 10000 3 220 23:56 18.10.2021
5187 Clear 5 1011 75 10000 4 210 23:20 18.10.2021
5188 Clear 5 1011 75 10000 3 220 22:54 18.10.2021
5189 Clear 5 1011 75 10000 4 210 21:54 18.10.2021
5190 Clear 6 1012 70 10000 4 220 20:42 18.10.2021
5191 Clear 6 1012 70 10000 4 220 20:20 18.10.2021
5192 Clear 7 1012 70 10000 5 210 19:30 18.10.2021
5193 Clear 7 1012 70 10000 5 210 18:58 18.10.2021
5194 Clear 6 1012 75 10000 5 200 16:30 18.10.2021
5195 Clear 7 1012 76 10000 4 200 14:33 18.10.2021
5196 Clear 9 1012 71 10000 5 230 11:44 18.10.2021
5197 Clear 7 1012 76 10000 5 230 09:42 18.10.2021
5198 Clear 4 1012 81 10000 5 220 05:32 18.10.2021
5199 Clear 5 1012 87 10000 4 200 23:51 17.10.2021
5200 Clear 6 1013 81 10000 4 190 22:23 17.10.2021
5201 Clear 6 1013 81 10000 4 200 21:42 17.10.2021
5202 Clear 6 1013 87 10000 4 210 20:49 17.10.2021
5203 Clear 6 1014 87 10000 5 200 19:56 17.10.2021
5204 Clouds 6 1014 93 10000 4 210 19:37 17.10.2021
5205 Clouds 4 1014 91 10000 4.01 197 18:28 17.10.2021
5206 Clear 7 1014 87 10000 4 200 15:57 17.10.2021
5207 Clear 6 1015 93 10000 4 200 14:38 17.10.2021
5208 Clear 6 1015 93 10000 3 190 13:56 17.10.2021
5209 Clouds 7 1015 87 10000 3 200 13:30 17.10.2021
5210 Clouds 6 1015 93 10000 3 200 11:27 17.10.2021
5211 Clouds 6 1015 87 10000 4 200 09:56 17.10.2021
5212 Clouds 5 1015 93 10000 4 200 07:42 17.10.2021
5213 Clouds 4 1016 93 10000 3 200 02:35 17.10.2021
5214 Clouds 4 1016 93 10000 4 190 00:29 17.10.2021
5215 Clear 4 1016 93 10000 3 190 22:46 16.10.2021
5216 Clear 5 1017 93 10000 3 190 20:36 16.10.2021
5217 Clear 5 1017 93 10000 2 190 19:59 16.10.2021
5218 Clear 5 1017 93 10000 3 190 19:40 16.10.2021
5219 Clear 5 1017 93 10000 3 190 19:18 16.10.2021
5220 Clear 6 1017 87 10000 5 200 18:44 16.10.2021
5221 Clear 6 1017 87 10000 5 200 18:22 16.10.2021
5222 Clear 6 1017 87 10000 5 200 17:30 16.10.2021
5223 Clear 7 1018 81 10000 5 200 16:18 16.10.2021
5224 Clear 10 1018 71 10000 6 180 12:50 16.10.2021
5225 Clear 10 1018 66 10000 6 190 11:24 16.10.2021
5226 Clear 9 1020 76 10000 5 180 08:57 16.10.2021
5227 Clear 5 1023 87 10000 4 200 01:37 16.10.2021
5228 Clear 6 1024 81 10000 4 200 00:29 16.10.2021
5229 Clear 6 1024 87 10000 4 200 23:25 15.10.2021
5230 Clear 6 1024 87 10000 3 200 22:20 15.10.2021
5231 Clear 7 1025 87 10000 4 200 21:40 15.10.2021
5232 Clear 7 1025 87 10000 4 220 20:54 15.10.2021
5233 Clear 8 1025 81 10000 4 220 20:22 15.10.2021
5234 Clear 8 1025 81 10000 4 220 19:19 15.10.2021
5235 Clear 9 1026 76 10000 5 220 18:21 15.10.2021
5236 Clear 10 1026 71 10000 4 210 15:46 15.10.2021
5237 Clear 11 1026 71 10000 4 210 14:18 15.10.2021
5238 Clear 12 1027 66 10000 5 230 11:54 15.10.2021
5239 Clear 12 1027 66 10000 5 220 11:18 15.10.2021
5240 Clear 11 1027 71 10000 6 220 10:28 15.10.2021
5241 Clear 7 1028 87 10000 5 220 07:35 15.10.2021
5242 Clear 5 1028 93 10000 5 210 04:46 15.10.2021
5243 Clear 6 1028 93 10000 5 210 00:22 15.10.2021
5244 Clear 6 1028 93 10000 5 210 22:54 14.10.2021
5245 Clear 6 1029 93 10000 5 210 22:20 14.10.2021
5246 Clear 6 1029 93 10000 5 210 21:37 14.10.2021
5247 Clouds 5 1030 100 10000 5 200 20:20 14.10.2021
5248 Clouds 6 1030 93 10000 5 210 19:46 14.10.2021
5249 Clouds 6 1030 93 10000 6 210 18:40 14.10.2021
5250 Clouds 5 1030 100 10000 5 200 16:59 14.10.2021
5251 Clouds 5 1031 100 10000 6 200 16:32 14.10.2021
5252 Clouds 5 1031 100 10000 4 200 14:50 14.10.2021
5253 Clouds 6 1031 93 10000 4 190 14:26 14.10.2021
5254 Clouds 6 1031 93 10000 5 200 13:33 14.10.2021
5255 Clouds 4 1031 100 10000 4 210 11:34 14.10.2021
5256 Clouds 5 1033 85 10000 3.93 212 08:26 14.10.2021
5257 Clouds 3 1033 92 10000 3.25 210 06:19 14.10.2021
5258 Clouds 3 1032 93 10000 2.66 215 00:41 14.10.2021
5259 Fog 2 1031 100 300 3 250 22:40 13.10.2021
5260 Fog 2 1031 100 250 3 240 21:36 13.10.2021
5261 Fog 2 1031 100 400 3 250 20:45 13.10.2021
5262 Fog 2 1031 100 500 2 230 19:24 13.10.2021
5263 Fog 2 1030 100 250 2 230 18:38 13.10.2021
5264 Fog 2 1030 100 500 3 200 16:37 13.10.2021
5265 Drizzle 2 1030 93 3100 2 190 14:47 13.10.2021
5266 Mist 2 1029 93 3500 3 200 14:25 13.10.2021
5267 Mist 2 1029 93 2700 4 190 12:48 13.10.2021
5268 Clouds 2 1029 93 10000 4 200 11:37 13.10.2021
5269 Clouds 1 1029 93 10000 4 190 09:56 13.10.2021
5270 Rain 1 1028 93 10000 5 180 07:53 13.10.2021
5271 Clouds 0 1028 93 10000 4 160 03:39 13.10.2021
5272 Snow 0 1028 93 7000 3 170 02:21 13.10.2021
5273 Clouds 0 1028 86 10000 3 170 23:36 12.10.2021
5274 Clouds 0 1028 86 10000 3 170 22:50 12.10.2021
5275 Clouds 0 1028 86 10000 3 180 22:29 12.10.2021
5276 Clouds 1 1028 75 10000 2 180 20:54 12.10.2021
5277 Clouds 1 1028 80 10000 3 190 20:31 12.10.2021
5278 Clouds 1 1028 80 10000 2 180 19:36 12.10.2021
5279 Clouds 1 1028 75 10000 3 170 18:25 12.10.2021
5280 Clouds 1 1027 80 10000 3 170 17:20 12.10.2021
5281 Clouds 1 1027 75 10000 2 170 16:22 12.10.2021
5282 Clouds 1 1027 75 10000 2 180 15:31 12.10.2021
5283 Clouds 1 1027 75 10000 2 180 15:31 12.10.2021
5284 Clouds 1 1027 75 10000 2 180 15:30 12.10.2021
5285 Clouds 2 1026 69 10000 2 180 13:46 12.10.2021
5286 Clouds 2 1026 69 10000 3 180 13:18 12.10.2021
5287 Clouds 2 1025 75 10000 3 170 11:29 12.10.2021
5288 Clouds 1 1025 75 10000 3 170 09:34 12.10.2021
5289 Clouds 0 1024 80 10000 3 150 08:20 12.10.2021
5290 Clouds -1 1024 86 10000 3 160 06:44 12.10.2021
5291 Clouds -2 1023 86 10000 3 130 04:38 12.10.2021
5292 Clouds -2 1023 86 10000 3 150 02:55 12.10.2021
5293 Clear -1 1023 69 10000 3 170 23:49 11.10.2021
5294 Clear -1 1023 74 10000 2 180 23:28 11.10.2021
5295 Clear -1 1023 74 10000 2 180 23:28 11.10.2021
5296 Clouds -1 1023 74 10000 2 170 22:47 11.10.2021
5297 Clouds 0 1023 64 10000 4 200 21:25 11.10.2021
5298 Clear 0 1023 59 10000 3 190 19:53 11.10.2021
5299 Clear 0 1023 64 10000 3 190 19:34 11.10.2021
5300 Clear 0 1024 64 10000 3 200 18:23 11.10.2021
5301 Clear 1 1024 55 10000 4 200 16:40 11.10.2021
5302 Clear 1 1024 55 10000 4 200 16:20 11.10.2021
5303 Clear 1 1024 51 10000 3 200 15:42 11.10.2021
5304 Clear 1 1024 55 10000 3 190 14:53 11.10.2021
5305 Clear 1 1024 69 10000 4 210 13:55 11.10.2021
5306 Clear 2 1024 64 10000 3 240 13:35 11.10.2021
5307 Clouds 1 1025 69 10000 4 240 11:18 11.10.2021
5308 Clouds 2 1025 69 10000 4 260 09:46 11.10.2021
5309 Clouds 0 1025 80 10000 3 280 07:57 11.10.2021
5310 Clear -2 1024 86 10000 3 270 01:44 11.10.2021
5311 Clear -2 1024 86 10000 3 270 00:57 11.10.2021
5312 Clear -2 1024 86 10000 3 280 00:36 11.10.2021
5313 Clouds -1 1023 80 10000 3 270 22:35 10.10.2021
5314 Clouds -2 1023 86 10000 3 280 21:49 10.10.2021
5315 Clouds -2 1023 86 10000 3 270 20:57 10.10.2021
5316 Clouds -2 1023 80 10000 3 280 20:38 10.10.2021
5317 Clouds -2 1023 80 10000 3 280 20:19 10.10.2021
5318 Clouds -2 1023 80 10000 3 290 19:40 10.10.2021
5319 Clouds -2 1023 80 10000 3 280 18:55 10.10.2021
5320 Clouds -1 1023 74 10000 3 290 17:58 10.10.2021
5321 Clouds 0 1022 74 10000 5 300 15:48 10.10.2021
5322 Clouds 0 1022 74 10000 4 300 14:45 10.10.2021
5323 Clouds 1 1021 75 10000 4 310 13:40 10.10.2021
5324 Clouds 1 1021 75 10000 6 320 12:43 10.10.2021
5325 Clouds 1 1020 69 10000 6 300 11:30 10.10.2021
5326 Clouds 2 1020 64 10000 5 310 10:26 10.10.2021
5327 Clouds 2 1019 64 10000 6 310 09:18 10.10.2021
5328 Clear 2 1019 64 10000 5 320 08:50 10.10.2021
5329 Clear -3 1017 93 10000 3 300 04:31 10.10.2021
5330 Clear -2 1016 80 10000 4 310 02:19 10.10.2021
5331 Clear -1 1014 80 10000 5 330 00:41 10.10.2021
5332 Clouds 0 1014 80 10000 5 330 23:26 09.10.2021
5333 Clear 0 1013 80 10000 4 290 21:55 09.10.2021
5334 Clear 0 1013 86 10000 5 290 21:30 09.10.2021
5335 Clear 1 1012 80 10000 5 280 20:19 09.10.2021
5336 Clear 2 1012 69 10000 6 280 19:41 09.10.2021
5337 Clear 2 1012 69 10000 6 280 19:41 09.10.2021
5338 Clear 2 1012 69 10000 6 280 18:48 09.10.2021
5339 Clear 3 1012 65 10000 6 280 17:57 09.10.2021
5340 Clear 3 1012 65 10000 5 280 16:20 09.10.2021
5341 Clear 4 1012 56 10000 8 290 14:28 09.10.2021
5342 Clouds 5 1011 56 10000 8 300 13:38 09.10.2021
5343 Clouds 6 1010 56 10000 11 290 12:27 09.10.2021
5344 Rain 5 1010 75 10000 9 290 10:44 09.10.2021
5345 Rain 5 1010 75 10000 9 290 10:19 09.10.2021
5346 Clouds 5 1009 75 10000 10 280 08:33 09.10.2021
5347 Clouds 4 1009 75 10000 10 290 07:54 09.10.2021
5348 Clouds 4 1008 75 10000 11 280 06:29 09.10.2021
5349 Clouds 4 1007 70 10000 6 300 04:31 09.10.2021
5350 Clouds 5 1006 70 10000 7 300 02:44 09.10.2021
5351 Rain 7 1005 81 10000 11 280 00:24 09.10.2021
5352 Clouds 8 1005 71 10000 8 280 23:31 08.10.2021
5353 Clouds 8 1005 71 10000 8 280 22:46 08.10.2021
5354 Clouds 8 1005 71 10000 7 260 21:44 08.10.2021
5355 Rain 8 1006 66 10000 8 250 19:49 08.10.2021
5356 Clear 8 1007 66 10000 8 250 18:23 08.10.2021
5357 Clear 9 1008 66 10000 9 250 16:55 08.10.2021
5358 Clear 9 1009 66 10000 10 250 16:24 08.10.2021
5359 Clear 9 1010 66 10000 7 250 14:56 08.10.2021
5360 Clear 9 1010 71 10000 7 240 13:45 08.10.2021
5361 Clear 10 1013 66 10000 8 250 11:41 08.10.2021
5362 Clear 9 1014 71 10000 9 240 10:42 08.10.2021
5363 Clear 9 1014 71 10000 7 250 09:47 08.10.2021
5364 Clear 4 1018 87 10000 5 280 03:38 08.10.2021
5365 Clear 5 1019 87 10000 5 250 23:24 07.10.2021
5366 Clear 6 1020 87 10000 4 250 21:48 07.10.2021
5367 Clear 6 1020 87 10000 5 250 21:28 07.10.2021
5368 Clear 6 1020 87 10000 5 250 21:28 07.10.2021
5369 Clear 7 1021 81 10000 5 250 20:29 07.10.2021
5370 Clear 7 1022 87 10000 5 250 19:32 07.10.2021
5371 Clear 8 1023 81 10000 5 250 18:40 07.10.2021
5372 Clear 8 1023 81 10000 5 280 17:32 07.10.2021
5373 Clear 7 1023 87 10000 3 250 16:25 07.10.2021
5374 Clear 6 1024 81 10000 3 280 14:48 07.10.2021
5375 Clouds 9 1024 76 10000 4 290 13:43 07.10.2021
5376 Clouds 10 1024 71 10000 7 290 12:53 07.10.2021
5377 Clouds 9 1024 76 10000 6 310 10:58 07.10.2021
5378 Clouds 9 1024 76 10000 7 310 10:22 07.10.2021
5379 Clouds 9 1023 76 10000 6 310 09:42 07.10.2021
5380 Clouds 9 1023 76 10000 6 310 08:53 07.10.2021
5381 Clouds 8 1023 81 10000 5 310 07:57 07.10.2021
5382 Clear 7 1023 87 10000 5 300 07:37 07.10.2021
5383 Clouds 4 1023 93 10000 5 290 04:24 07.10.2021
5384 Clear 3 1023 87 10000 5 280 00:29 07.10.2021
5385 Clear 2 1024 93 10000 5 280 22:55 06.10.2021
5386 Clear 3 1024 87 10000 5 280 22:24 06.10.2021
5387 Clear 4 1025 87 10000 5 280 20:51 06.10.2021
5388 Clear 4 1025 87 10000 6 280 20:26 06.10.2021
5389 Clear 5 1026 87 10000 6 280 18:43 06.10.2021
5390 Clear 5 1027 87 10000 4 280 16:58 06.10.2021
5391 Clear 6 1027 87 10000 3 250 15:33 06.10.2021
5392 Clear 8 1027 76 10000 3 290 14:30 06.10.2021
5393 Clear 9 1027 76 10000 6 290 13:24 06.10.2021
5394 Clear 10 1027 71 10000 5 290 12:45 06.10.2021
5395 Clear 10 1027 71 10000 6 300 12:23 06.10.2021
5396 Clear 9 1028 76 10000 5 300 10:36 06.10.2021
5397 Clear 7 1028 93 10000 5 300 09:39 06.10.2021
5398 Clear 6 1028 93 10000 4 290 08:57 06.10.2021
5399 Clear 5 1028 93 10000 4 280 07:53 06.10.2021
5400 Clouds 3 1028 93 10000 4 270 05:27 06.10.2021
5401 Clouds 3 1028 93 10000 4 270 05:27 06.10.2021
5402 Rain 1 1028 100 10000 3 240 01:23 06.10.2021
5403 Rain 1 1029 100 10000 3 250 00:20 06.10.2021
5404 Rain 1 1029 100 10000 3 250 23:48 05.10.2021
5405 Rain 1 1029 93 10000 3 240 23:29 05.10.2021
5406 Rain 1 1029 93 10000 4 250 22:28 05.10.2021
5407 Rain 1 1029 93 10000 4 250 21:50 05.10.2021
5408 Clouds 1 1030 93 10000 4 250 20:49 05.10.2021
5409 Clouds 1 1030 93 10000 4 250 20:25 05.10.2021
5410 Clouds 1 1030 93 10000 4 250 19:50 05.10.2021
5411 Clouds 1 1030 93 10000 4 260 19:18 05.10.2021
5412 Snow 1 1031 93 6000 5 250 16:58 05.10.2021
5413 Snow 1 1031 93 10000 4 250 14:57 05.10.2021
5414 Snow 1 1031 86 9000 4 250 13:43 05.10.2021
5415 Snow 1 1031 86 9000 5 240 12:54 05.10.2021
5416 Snow 1 1031 86 10000 5 250 12:19 05.10.2021
5417 Snow 2 1031 87 10000 5 250 11:21 05.10.2021
5418 Snow 1 1032 86 10000 6 250 09:27 05.10.2021
5419 Snow 0 1033 86 10000 3 240 05:25 05.10.2021
5420 Clear -3 1035 93 10000 2 270 23:54 04.10.2021
5421 Clear -4 1036 86 10000 2 280 22:39 04.10.2021
5422 Clear -4 1036 86 10000 1 250 20:43 04.10.2021
5423 Clouds -2 1036 80 10000 1 320 18:34 04.10.2021
5424 Clouds -1 1036 80 10000 2 320 16:39 04.10.2021
5425 Clouds -1 1036 80 10000 2 320 15:32 04.10.2021
5426 Clouds -1 1036 80 10000 2 320 15:32 04.10.2021
5427 Clouds -1 1036 86 10000 2 300 14:43 04.10.2021
5428 Clouds -1 1036 86 10000 3 280 13:57 04.10.2021
5429 Clouds 0 1036 80 10000 3 300 13:27 04.10.2021
5430 Clouds 0 1036 80 10000 3 350 12:28 04.10.2021
5431 Clouds 0 1035 80 10000 3 10 11:31 04.10.2021
5432 Clouds 0 1035 80 10000 3 350 10:23 04.10.2021
5433 Clouds 0 1035 80 10000 4 350 08:42 04.10.2021
5434 Clouds 0 1034 80 10000 4 10 07:37 04.10.2021
5435 Clouds -1 1032 93 10000 4 10 01:55 04.10.2021
5436 Clouds -1 1031 93 10000 4 30 22:41 03.10.2021
5437 Clouds -1 1030 93 10000 3 30 21:41 03.10.2021
5438 Clouds -1 1030 93 10000 3 30 21:22 03.10.2021
5439 Clear -1 1030 93 10000 3 20 20:21 03.10.2021
5440 Clouds 0 1029 93 10000 4 30 19:30 03.10.2021
5441 Clouds 1 1029 93 10000 4 40 18:28 03.10.2021
5442 Clouds 0 1028 100 10000 3 30 17:28 03.10.2021
5443 Clouds 2 1027 87 10000 3 20 14:48 03.10.2021
5444 Clouds 2 1026 87 10000 4 20 14:24 03.10.2021
5445 Clouds 2 1026 87 10000 4 30 13:34 03.10.2021
5446 Clouds 2 1025 93 9000 4 40 12:29 03.10.2021
5447 Clouds 2 1024 93 10000 3 40 10:52 03.10.2021
5448 Snow 1 1023 93 10000 3 40 08:53 03.10.2021
5449 Snow 0 1020 93 2000 3 330 03:29 03.10.2021
5450 Snow 0 1019 100 10000 3 330 22:43 02.10.2021
5451 Snow 0 1019 100 10000 3 340 21:21 02.10.2021
5452 Snow 0 1019 93 8000 5 10 19:50 02.10.2021
5453 Rain 1 1018 93 10000 4 10 18:55 02.10.2021
5454 Snow 1 1018 93 10000 5 360 17:57 02.10.2021
5455 Snow 1 1018 93 9000 5 10 17:26 02.10.2021
5456 Rain 1 1017 93 10000 4 340 15:38 02.10.2021
5457 Rain 4 1010 87 10000 5 290 16:50 30.09.2021
5458 Rain 5 1011 60 10000 3 280 15:36 30.09.2021
5459 Clear 6 1012 61 10000 4 290 13:45 30.09.2021
5460 Clear 8 1013 61 10000 4 300 11:37 30.09.2021
5461 Clear 7 1014 61 10000 4 300 10:43 30.09.2021
5462 Clear 6 1015 70 10000 3 330 09:41 30.09.2021
5463 Clear 5 1015 87 10000 4 10 08:29 30.09.2021
5464 Clear 5 1016 87 10000 4 360 07:33 30.09.2021
5465 Clear 0 1017 100 10000 2 340 04:58 30.09.2021
5466 Clear 0 1018 93 10000 2 340 01:20 30.09.2021
5467 Clear 0 1018 93 10000 3 20 23:55 29.09.2021
5468 Clear 1 1019 86 10000 3 20 22:28 29.09.2021
5469 Clear 2 1019 87 10000 4 20 21:24 29.09.2021
5470 Clear 1 1020 86 10000 3 20 20:26 29.09.2021
5471 Clear 1 1020 86 10000 4 20 19:50 29.09.2021
5472 Clear 2 1020 80 10000 3 20 18:29 29.09.2021
5473 Clear 3 1020 81 10000 4 20 17:34 29.09.2021
5474 Clear 3 1020 81 10000 3 10 16:46 29.09.2021
5475 Clear 4 1021 75 10000 3 20 15:55 29.09.2021
5476 Clear 5 1021 70 10000 4 10 14:39 29.09.2021
5477 Clear 7 1021 61 10000 5 10 13:42 29.09.2021
5478 Clear 7 1021 65 10000 4 10 12:50 29.09.2021
5479 Clear 7 1021 61 10000 6 20 11:54 29.09.2021
5480 Clear 7 1021 65 10000 5 30 10:44 29.09.2021
5481 Clear 8 1021 61 10000 5 40 09:49 29.09.2021
5482 Clear 6 1022 65 10000 4 40 08:49 29.09.2021
5483 Clear 5 1022 75 10000 4 20 07:31 29.09.2021
5484 Clear 2 1023 87 10000 3 30 03:39 29.09.2021
5485 Clear 3 1023 81 10000 3 10 23:26 28.09.2021
5486 Clear 3 1023 81 10000 3 20 22:23 28.09.2021
5487 Clear 3 1024 81 10000 3 30 21:35 28.09.2021
5488 Clear 3 1024 81 10000 3 30 20:35 28.09.2021
5489 Clear 3 1024 81 10000 3 30 19:42 28.09.2021
5490 Clear 4 1024 81 10000 3 20 18:45 28.09.2021
5491 Clear 4 1024 81 10000 3 20 17:53 28.09.2021
5492 Clear 4 1025 75 10000 3 20 15:44 28.09.2021
5493 Clear 8 1026 61 10000 4 360 13:38 28.09.2021
5494 Clear 8 1026 66 10000 5 360 12:47 28.09.2021
5495 Clear 8 1026 61 10000 5 360 12:19 28.09.2021
5496 Clear 9 1026 61 10000 4 10 11:45 28.09.2021
5497 Clear 8 1027 66 10000 5 350 10:55 28.09.2021
5498 Clear 8 1027 66 10000 4 20 09:53 28.09.2021
5499 Clear 8 1028 71 10000 5 10 08:57 28.09.2021
5500 Clear 7 1028 70 10000 5 20 08:34 28.09.2021
5501 Clear 5 1029 81 10000 4 360 06:51 28.09.2021
5502 Clear 2 1029 93 10000 2 20 05:27 28.09.2021
5503 Clear 1 1030 93 10000 2 60 01:22 28.09.2021
5504 Clear 1 1030 93 10000 2 70 00:24 28.09.2021
5505 Clear 1 1031 100 10000 3 50 23:32 27.09.2021
5506 Clear 1 1031 100 10000 3 40 22:55 27.09.2021
5507 Clear 2 1031 100 10000 4 50 21:44 27.09.2021
5508 Clear 2 1032 93 10000 4 40 20:39 27.09.2021
5509 Clear 2 1032 93 10000 4 50 19:53 27.09.2021
5510 Clear 3 1032 87 10000 3 40 19:27 27.09.2021
5511 Clear 3 1032 87 10000 3 30 18:48 27.09.2021
5512 Clear 4 1032 81 10000 3 30 17:29 27.09.2021
5513 Clear 4 1032 81 10000 3 30 16:48 27.09.2021
5514 Clear 5 1032 75 10000 3 30 15:43 27.09.2021
5515 Clear 7 1033 70 10000 3 40 14:56 27.09.2021
5516 Clear 8 1033 61 10000 4 50 13:31 27.09.2021
5517 Clear 9 1033 53 10000 6 50 11:31 27.09.2021
5518 Clear 8 1034 57 10000 4 50 10:32 27.09.2021
5519 Clear 8 1034 87 10000 4 70 08:48 27.09.2021
5520 Clear 1 1034 93 10000 1 0 05:21 27.09.2021
5521 Clear -1 1034 93 10000 1 0 02:59 27.09.2021
5522 Clear 0 1033 93 10000 1 0 22:32 26.09.2021
5523 Clear 0 1033 93 10000 2 70 21:50 26.09.2021
5524 Clear 0 1033 93 10000 2 60 20:58 26.09.2021
5525 Clear 1 1032 86 10000 2 70 20:21 26.09.2021
5526 Clear 1 1032 86 10000 2 60 19:48 26.09.2021
5527 Clear 1 1032 86 10000 3 50 18:45 26.09.2021
5528 Clear 2 1032 80 10000 4 50 17:56 26.09.2021
5529 Clear 2 1032 87 10000 4 50 17:22 26.09.2021
5530 Clear 3 1032 81 10000 3 30 16:40 26.09.2021
5531 Clear 3 1032 81 10000 2 30 15:59 26.09.2021
5532 Clear 5 1031 75 10000 2 30 14:59 26.09.2021
5533 Clouds 6 1031 65 10000 4 50 13:57 26.09.2021
5534 Clouds 6 1031 65 10000 4 40 13:20 26.09.2021
5535 Clouds 7 1031 65 10000 5 50 12:24 26.09.2021
5536 Clouds 6 1031 75 10000 5 70 11:42 26.09.2021
5537 Clear 5 1031 81 10000 4 50 10:25 26.09.2021
5538 Clear 4 1031 87 10000 4 40 09:20 26.09.2021
5539 Clear 4 1031 81 10000 5 40 07:39 26.09.2021
5540 Clear -1 1029 93 10000 4 30 00:23 26.09.2021
5541 Clear -1 1029 93 10000 4 30 23:30 25.09.2021
5542 Clear -1 1029 93 10000 4 30 22:38 25.09.2021
5543 Clear -1 1029 93 10000 4 20 21:55 25.09.2021
5544 Clear -1 1029 93 10000 4 30 21:32 25.09.2021
5545 Clear -1 1029 93 10000 4 20 20:48 25.09.2021
5546 Clouds 0 1029 86 10000 3 30 18:59 25.09.2021
5547 Clear 1 1029 80 10000 3 30 18:24 25.09.2021
5548 Clouds 3 1028 75 10000 3 20 15:48 25.09.2021
5549 Clouds 3 1028 81 10000 4 20 13:57 25.09.2021
5550 Clouds 3 1027 81 10000 3 60 13:31 25.09.2021
5551 Clouds 3 1027 75 10000 5 50 12:27 25.09.2021
5552 Clouds 4 1026 75 10000 5 40 10:35 25.09.2021
5553 Clouds 4 1026 75 10000 5 60 09:40 25.09.2021
5554 Clouds 5 1026 75 10000 5 30 08:20 25.09.2021
5555 Clouds 2 1025 87 10000 4 30 06:26 25.09.2021
5556 Clouds 2 1023 87 10000 2 20 23:55 24.09.2021
5557 Clouds 1 1023 93 10000 2 20 21:50 24.09.2021
5558 Clouds 3 1023 93 10000 3 50 20:39 24.09.2021
5559 Clouds 4 1023 87 10000 3 60 19:48 24.09.2021
5560 Clouds 4 1023 81 10000 2 330 18:34 24.09.2021
5561 Clouds 4 1022 87 10000 3 330 17:54 24.09.2021
5562 Clouds 4 1022 87 10000 3 320 17:36 24.09.2021
5563 Clouds 4 1022 87 10000 3 320 17:18 24.09.2021
5564 Rain 5 1022 87 10000 3 330 14:31 24.09.2021
5565 Rain 5 1022 87 9000 5 350 13:18 24.09.2021
5566 Rain 6 1022 81 10000 5 330 12:39 24.09.2021
5567 Clouds 6 1022 81 10000 5 330 12:20 24.09.2021
5568 Clouds 6 1021 81 10000 5 340 10:27 24.09.2021
5569 Clouds 5 1020 87 10000 6 330 08:54 24.09.2021
5570 Clouds 5 1020 87 10000 5 330 07:34 24.09.2021
5571 Clouds 4 1020 93 10000 6 320 06:46 24.09.2021
5572 Clouds 3 1020 93 10000 5 300 04:55 24.09.2021
5573 Clear 1 1020 100 10000 3 300 00:26 24.09.2021
5574 Clear 2 1020 100 10000 3 310 22:30 23.09.2021
5575 Clear 4 1020 93 10000 3 320 21:56 23.09.2021
5576 Clouds 5 1021 93 10000 3 300 20:34 23.09.2021
5577 Clouds 5 1021 100 10000 3 290 19:46 23.09.2021
5578 Clear 5 1021 93 10000 3 290 17:46 23.09.2021
5579 Clouds 5 1021 100 10000 3 290 15:30 23.09.2021
5580 Rain 5 1021 93 10000 4 290 14:59 23.09.2021
5581 Rain 5 1021 93 10000 3 290 13:45 23.09.2021
5582 Rain 6 1021 87 10000 4 300 13:20 23.09.2021
5583 Rain 6 1021 87 10000 4 290 12:52 23.09.2021
5584 Clouds 6 1021 87 10000 4 290 12:22 23.09.2021
5585 Rain 5 1021 93 10000 4 300 11:32 23.09.2021
5586 Clouds 5 1021 100 10000 4 320 10:26 23.09.2021
5587 Clouds 5 1021 100 10000 4 300 09:52 23.09.2021
5588 Drizzle 4 1020 100 8000 4 300 08:21 23.09.2021
5589 Rain 2 1021 100 10000 4 280 03:50 23.09.2021
5590 Clouds 1 1020 100 10000 3 290 23:27 22.09.2021
5591 Clouds 1 1020 100 10000 3 300 22:29 22.09.2021
5592 Clouds 1 1020 100 10000 3 290 21:56 22.09.2021
5593 Clouds 1 1020 93 10000 3 320 21:34 22.09.2021
5594 Clouds 0 1020 100 10000 3 300 20:54 22.09.2021
5595 Rain 2 1020 93 10000 2 340 19:32 22.09.2021
5596 Clouds 2 1020 93 10000 3 300 18:39 22.09.2021
5597 Clouds 2 1021 93 10000 3 310 17:47 22.09.2021
5598 Clouds 2 1021 83 10000 3.06 309 16:37 22.09.2021
5599 Clouds 3 1020 87 10000 4 330 15:19 22.09.2021
5600 Clouds 3 1020 87 10000 2 330 13:48 22.09.2021
5601 Rain 4 1019 75 10000 5 20 11:57 22.09.2021
5602 Rain 4 1018 75 10000 5 350 10:45 22.09.2021
5603 Clouds 3 1018 81 10000 4 360 09:24 22.09.2021
5604 Clouds 2 1018 87 10000 4 360 08:28 22.09.2021
5605 Clouds 1 1017 100 10000 4 360 06:59 22.09.2021
5606 Clouds 2 1017 93 10000 4 360 05:53 22.09.2021
5607 Clouds 2 1017 93 9000 3 340 05:32 22.09.2021
5608 Clouds 1 1016 93 10000 2 20 03:48 22.09.2021
5609 Clouds 2 1015 93 10000 3 10 00:21 22.09.2021
5610 Clouds 3 1014 93 10000 3 10 22:52 21.09.2021
5611 Clouds 3 1014 100 10000 3 320 21:33 21.09.2021
5612 Clouds 2 1014 98 43 2.98 16 20:24 21.09.2021
5613 Rain 3 1013 100 10000 3 310 19:20 21.09.2021
5614 Rain 2 1014 98 29 4.27 314 17:20 21.09.2021
5615 Rain 3 1013 100 8000 3 330 16:34 21.09.2021
5616 Rain 3 1013 100 7000 3 310 15:38 21.09.2021
5617 Rain 3 1013 100 10000 4 290 14:56 21.09.2021
5618 Rain 4 1013 93 10000 5 300 13:56 21.09.2021
5619 Rain 3 1013 100 10000 5 310 13:36 21.09.2021
5620 Rain 4 1013 93 10000 6 290 11:44 21.09.2021
5621 Rain 4 1013 93 10000 5 300 09:58 21.09.2021
5622 Rain 4 1014 93 10000 6 300 08:27 21.09.2021
5623 Rain 3 1015 93 10000 5 310 06:38 21.09.2021
5624 Clouds 4 1015 87 10000 5 320 23:58 20.09.2021
5625 Clouds 3 1016 87 10000 3 290 22:24 20.09.2021
5626 Clouds 3 1016 81 10000 3 350 21:37 20.09.2021
5627 Clear 3 1016 81 10000 5 360 20:30 20.09.2021
5628 Clouds 4 1016 75 10000 8 350 19:30 20.09.2021
5629 Clouds 3 1016 81 10000 7 360 17:46 20.09.2021
5630 Rain 3 1015 87 10000 6 340 16:43 20.09.2021
5631 Rain 4 1015 87 7000 7 340 15:49 20.09.2021
5632 Clouds 4 1014 87 10000 7 360 15:24 20.09.2021
5633 Rain 5 1013 81 6000 7 330 14:24 20.09.2021
5634 Clouds 8 1011 81 10000 6 350 12:35 20.09.2021
5635 Rain 8 1011 87 10000 8 350 11:25 20.09.2021
5636 Rain 9 1010 81 10000 7 350 10:18 20.09.2021
5637 Rain 7 1009 81 10000 7 350 09:36 20.09.2021
5638 Clouds 7 1009 81 10000 7 350 09:18 20.09.2021
5639 Rain 7 1008 87 10000 6 340 07:45 20.09.2021
5640 Clear 4 1002 93 10000 3 340 00:36 20.09.2021
5641 Clouds 3 1000 93 10000 2 360 22:26 19.09.2021
5642 Clouds 2 1000 100 10000 2 20 21:43 19.09.2021
5643 Clouds 2 999 100 10000 2 40 20:43 19.09.2021
5644 Rain 3 999 93 10000 2 40 19:31 19.09.2021
5645 Clouds 3 998 93 10000 2 40 18:29 19.09.2021
5646 Clouds 3 997 100 10000 3 70 17:23 19.09.2021
5647 Rain 3 996 100 10000 4 80 15:59 19.09.2021
5648 Rain 4 996 93 10000 3 100 15:30 19.09.2021
5649 Clouds 4 995 93 10000 2 140 14:48 19.09.2021
5650 Rain 4 994 100 10000 3 160 13:29 19.09.2021
5651 Rain 4 994 100 9000 3 160 12:51 19.09.2021
5652 Rain 4 992 100 8000 4 190 11:28 19.09.2021
5653 Rain 4 992 93 5000 4 190 10:53 19.09.2021
5654 Rain 4 991 93 9000 5 190 09:49 19.09.2021
5655 Rain 3 989 93 9000 5 190 08:35 19.09.2021
5656 Rain 2 988 100 10000 6 210 06:42 19.09.2021
5657 Snow 1 987 100 4600 5 230 23:43 18.09.2021
5658 Rain 2 988 100 9000 6 240 22:31 18.09.2021
5659 Rain 4 988 93 9000 8 240 20:56 18.09.2021
5660 Rain 4 988 93 9000 10 240 20:36 18.09.2021
5661 Rain 4 988 100 9000 8 240 19:39 18.09.2021
5662 Rain 4 988 100 9000 8 240 19:20 18.09.2021
5663 Rain 5 989 93 9000 9 240 18:32 18.09.2021
5664 Rain 5 989 93 10000 9 230 17:34 18.09.2021
5665 Rain 5 990 93 10000 6 240 16:20 18.09.2021
5666 Rain 5 991 93 4600 7 240 13:49 18.09.2021
5667 Rain 5 991 93 1800 7 240 13:29 18.09.2021
5668 Rain 5 990 93 5000 10 250 12:49 18.09.2021
5669 Rain 6 990 93 7000 7 250 11:41 18.09.2021
5670 Rain 6 989 93 7000 6 250 10:32 18.09.2021
5671 Rain 6 989 93 8000 6 250 09:28 18.09.2021
5672 Rain 6 989 93 9000 5 250 08:57 18.09.2021
5673 Clouds 2 989 94 1670 2.37 263 03:51 18.09.2021
5674 Clouds 4 989 94 10000 3.01 218 00:41 18.09.2021
5675 Clouds 4 989 93 10000 2.61 213 23:48 17.09.2021
5676 Clouds 4 989 92 10000 2.61 205 22:37 17.09.2021
5677 Clouds 5 987 93 10000 3 190 22:18 17.09.2021
5678 Clouds 5 988 100 10000 4 190 20:47 17.09.2021
5679 Clouds 6 988 93 10000 3 190 19:22 17.09.2021
5680 Clouds 7 989 93 10000 5 190 17:20 17.09.2021
5681 Clouds 8 989 81 10000 3 190 16:24 17.09.2021
5682 Clouds 9 988 76 10000 5 220 13:21 17.09.2021
5683 Clouds 10 987 76 10000 9 220 10:42 17.09.2021
5684 Clouds 9 986 87 10000 7 220 08:45 17.09.2021
5685 Rain 9 985 93 10000 6 230 06:50 17.09.2021
5686 Fog 9 989 100 500 4 70 00:59 17.09.2021
5687 Fog 9 992 100 450 5 70 22:54 16.09.2021
5688 Fog 9 992 100 450 5 70 22:24 16.09.2021
5689 Fog 9 993 100 450 5 80 21:41 16.09.2021
5690 Fog 9 993 100 450 5 80 21:20 16.09.2021
5691 Fog 9 994 100 650 5 80 20:18 16.09.2021
5692 Mist 9 995 100 1100 5 80 18:19 16.09.2021
5693 Mist 9 996 100 2600 5 90 17:29 16.09.2021
5694 Rain 9 997 93 10000 5 80 14:53 16.09.2021
5695 Clouds 9 998 100 10000 5 100 13:55 16.09.2021
5696 Clouds 9 998 100 10000 5 90 12:48 16.09.2021
5697 Clouds 9 998 100 10000 5 100 12:28 16.09.2021
5698 Clouds 9 998 93 10000 5 100 11:25 16.09.2021
5699 Clouds 9 998 93 10000 6 100 10:31 16.09.2021
5700 Clouds 9 998 93 10000 6 100 10:31 16.09.2021
5701 Clouds 9 998 93 10000 6 100 10:30 16.09.2021
5702 Clouds 9 999 93 10000 7 110 09:53 16.09.2021
5703 Clouds 8 999 100 10000 5 120 08:41 16.09.2021
5704 Rain 8 999 100 10000 9 110 07:22 16.09.2021
5705 Rain 8 1000 100 10000 6 120 06:39 16.09.2021
5706 Rain 8 1001 93 4400 6 110 04:34 16.09.2021
5707 Rain 8 1003 93 10000 7 110 01:26 16.09.2021
5708 Rain 8 1003 93 10000 7 110 01:26 16.09.2021
5709 Rain 8 1004 93 10000 8 100 23:35 15.09.2021
5710 Rain 8 1005 93 9000 5 110 22:46 15.09.2021
5711 Rain 7 1005 100 10000 6 100 21:41 15.09.2021
5712 Rain 7 1005 100 10000 6 100 21:23 15.09.2021
5713 Rain 7 1006 93 10000 5 110 19:51 15.09.2021
5714 Rain 7 1007 93 10000 4 100 19:19 15.09.2021
5715 Rain 9 1007 76 10000 3 130 17:49 15.09.2021
5716 Clear 9 1007 71 10000 4 120 16:48 15.09.2021
5717 Clear 10 1008 66 10000 4 100 15:30 15.09.2021
5718 Clear 10 1008 66 10000 3 100 14:44 15.09.2021
5719 Clear 11 1008 54 10000 4 120 13:51 15.09.2021
5720 Clear 12 1008 50 10000 5 110 13:29 15.09.2021
5721 Clear 12 1008 50 10000 3 150 12:34 15.09.2021
5722 Clear 12 1008 50 10000 3 130 11:51 15.09.2021
5723 Clear 12 1008 50 10000 3 160 11:18 15.09.2021
5724 Clear 12 1008 50 10000 3 160 10:35 15.09.2021
5725 Clear 11 1008 50 10000 2 160 09:23 15.09.2021
5726 Clear 10 1009 62 10000 2 170 07:30 15.09.2021
5727 Fog 1 1008 100 9000 0 0 04:19 15.09.2021
5728 Clear 2 1008 93 10000 1 0 22:38 14.09.2021
5729 Clear 3 1008 93 10000 2 240 21:38 14.09.2021
5730 Clear 4 1008 93 10000 0 0 20:26 14.09.2021
5731 Clear 5 1008 87 10000 2 250 19:41 14.09.2021
5732 Clear 7 1008 81 10000 3 240 17:34 14.09.2021
5733 Clouds 8 1008 76 10000 4 240 16:56 14.09.2021
5734 Clouds 8 1007 81 10000 3 240 15:27 14.09.2021
5735 Clouds 9 1007 76 10000 5 250 14:28 14.09.2021
5736 Clouds 9 1006 81 10000 8 280 11:50 14.09.2021
5737 Clouds 8 1005 87 10000 6 260 10:49 14.09.2021
5738 Clouds 6 1005 93 10000 7 270 09:50 14.09.2021
5739 Clouds 5 1004 93 10000 6 260 08:24 14.09.2021
5740 Clouds 4 1003 100 10000 8 280 05:38 14.09.2021
5741 Rain 4 1000 93 10000 7 280 23:36 13.09.2021
5742 Drizzle 4 1000 93 3600 7 270 22:29 13.09.2021
5743 Drizzle 4 1000 93 6000 7 280 21:59 13.09.2021
5744 Drizzle 3 1000 100 4600 7 280 21:39 13.09.2021
5745 Rain 3 1000 93 10000 7 270 19:41 13.09.2021
5746 Rain 2 1000 100 10000 7 270 18:45 13.09.2021
5747 Rain 3 1000 93 10000 8 280 17:39 13.09.2021
5748 Rain 4 1000 93 10000 7 270 16:50 13.09.2021
5749 Rain 5 999 93 10000 9 270 14:47 13.09.2021
5750 Rain 5 998 100 10000 8 280 11:45 13.09.2021
5751 Rain 5 997 100 9000 8 280 10:50 13.09.2021
5752 Rain 5 996 100 3200 7 270 08:55 13.09.2021
5753 Fog 7 993 100 200 2 70 00:48 13.09.2021
5754 Clouds 8 993 100 10000 3 80 22:51 12.09.2021
5755 Clouds 8 993 100 10000 2 70 22:23 12.09.2021
5756 Clouds 8 992 100 10000 3 80 21:21 12.09.2021
5757 Clouds 8 992 100 10000 3 90 20:19 12.09.2021
5758 Clouds 8 992 100 10000 3 90 19:37 12.09.2021
5759 Clouds 8 992 100 10000 2 100 19:18 12.09.2021
5760 Clouds 8 992 100 10000 3 90 18:18 12.09.2021
5761 Rain 9 992 93 10000 3 90 15:58 12.09.2021
5762 Clouds 10 991 81 10000 1 0 14:47 12.09.2021
5763 Clouds 11 991 93 10000 3 200 12:43 12.09.2021
5764 Rain 10 990 93 10000 2 160 10:32 12.09.2021
5765 Rain 10 989 93 10000 3 200 08:39 12.09.2021
5766 Rain 9 989 100 10000 3 210 07:30 12.09.2021
5767 Rain 9 990 100 5000 1 0 00:47 12.09.2021
5768 Rain 9 990 100 5000 1 0 00:47 12.09.2021
5769 Mist 9 990 100 2500 1 0 22:58 11.09.2021
5770 Rain 9 991 100 8000 0 0 21:39 11.09.2021
5771 Rain 9 991 100 9000 1 70 19:41 11.09.2021
5772 Rain 10 992 93 6000 0 0 18:28 11.09.2021
5773 Rain 10 992 93 3600 1 0 17:28 11.09.2021
5774 Rain 10 992 93 8000 1 0 15:36 11.09.2021
5775 Rain 11 992 93 10000 4 100 13:23 11.09.2021
5776 Rain 11 992 93 10000 5 110 11:42 11.09.2021
5777 Rain 11 992 93 10000 5 110 10:35 11.09.2021
5778 Rain 10 991 93 10000 5 110 08:51 11.09.2021
5779 Rain 10 991 93 10000 4 100 07:43 11.09.2021
5780 Rain 9 991 100 10000 5 100 04:23 11.09.2021
5781 Rain 9 992 100 10000 3 160 22:43 10.09.2021
5782 Rain 9 992 100 10000 3 140 21:57 10.09.2021
5783 Rain 9 993 100 10000 2 140 21:38 10.09.2021
5784 Clear 10 993 93 10000 4 160 19:31 10.09.2021
5785 Rain 11 994 93 10000 3 140 17:56 10.09.2021
5786 Clouds 12 994 87 10000 4 110 16:27 10.09.2021
5787 Clouds 13 995 76 10000 4 130 13:29 10.09.2021
5788 Clouds 12 995 76 10000 3 150 10:52 10.09.2021
5789 Clouds 10 996 87 10000 4 150 07:52 10.09.2021
5790 Clouds 9 996 87 10000 4 150 07:21 10.09.2021
5791 Clear 2 1000 93 10000 2 110 00:24 10.09.2021
5792 Clear 3 1001 93 10000 0 0 21:49 09.09.2021
5793 Clear 2 1001 93 10000 1 0 20:48 09.09.2021
5794 Clear 2 1002 93 10000 1 90 20:27 09.09.2021
5795 Clear 3 1002 93 10000 0 0 18:46 09.09.2021
5796 Clouds 5 1003 87 10000 0 0 17:47 09.09.2021
5797 Clear 8 1003 71 10000 3 280 16:28 09.09.2021
5798 Clear 10 1003 66 10000 3 250 15:24 09.09.2021
5799 Clear 12 1003 54 10000 3 350 12:24 09.09.2021
5800 Clouds 11 1003 58 10000 3 300 11:22 09.09.2021
5801 Clouds 12 1003 54 10000 3 280 09:35 09.09.2021
5802 Clear 11 1004 62 10000 2 240 07:45 09.09.2021
5803 Clear 7 1004 93 10000 2 270 05:47 09.09.2021
5804 Clear 1 1005 100 10000 0 0 23:55 08.09.2021
5805 Clear 4 1005 100 10000 1 0 21:48 08.09.2021
5806 Clear 3 1006 100 10000 2 100 20:49 08.09.2021
5807 Clear 5 1006 100 10000 0 0 19:46 08.09.2021
5808 Clear 7 1006 93 10000 3 240 18:47 08.09.2021
5809 Clear 7 1007 87 10000 2 240 18:25 08.09.2021
5810 Clear 7 1007 93 10000 2 190 17:39 08.09.2021
5811 Clouds 10 1007 71 10000 2 200 15:21 08.09.2021
5812 Clouds 13 1007 44 10000 4 220 13:33 08.09.2021
5813 Clouds 13 1007 41 10000 3 210 12:41 08.09.2021
5814 Clouds 13 1007 41 10000 3 210 12:23 08.09.2021
5815 Clear 13 1008 47 10000 2 250 11:26 08.09.2021
5816 Clear 12 1008 50 10000 4 210 10:31 08.09.2021
5817 Clear 11 1009 50 10000 5 250 09:55 08.09.2021
5818 Rain 11 1010 66 10000 3 230 07:45 08.09.2021
5819 Rain 11 1010 66 10000 3 230 07:45 08.09.2021
5820 Clear 10 1010 76 10000 3 220 06:43 08.09.2021
5821 Fog 4 1011 100 200 1 200 23:28 07.09.2021
5822 Fog 3 1011 100 2200 2 190 22:19 07.09.2021
5823 Fog 6 1012 100 2600 2 260 20:42 07.09.2021
5824 Mist 6 1013 100 1100 1 260 18:53 07.09.2021
5825 Fog 7 1013 100 2200 2 230 18:28 07.09.2021
5826 Mist 8 1013 100 4200 1 230 17:25 07.09.2021
5827 Clouds 9 1013 100 10000 3 190 15:56 07.09.2021
5828 Clouds 9 1013 100 10000 3 190 14:53 07.09.2021
5829 Rain 9 1014 100 10000 2 190 13:52 07.09.2021
5830 Rain 9 1014 100 10000 2 190 13:52 07.09.2021
5831 Rain 9 1014 100 10000 3 110 11:58 07.09.2021
5832 Rain 9 1015 93 9000 4 150 10:48 07.09.2021
5833 Rain 8 1016 100 10000 3 130 09:40 07.09.2021
5834 Rain 8 1017 93 10000 4 190 07:46 07.09.2021
5835 Rain 9 1017 87 10000 3 160 06:19 07.09.2021
5836 Clear 8 1018 81 10000 2 170 02:38 07.09.2021
5837 Clear 8 1018 81 10000 3 190 00:55 07.09.2021
5838 Clear 8 1018 81 10000 3 190 23:46 06.09.2021
5839 Clear 8 1018 81 10000 4 200 23:28 06.09.2021
5840 Clear 9 1018 71 10000 4 200 22:49 06.09.2021
5841 Clear 9 1018 76 10000 4 220 21:52 06.09.2021
5842 Clear 10 1017 71 10000 3 220 20:34 06.09.2021
5843 Clear 10 1017 66 10000 4 210 19:18 06.09.2021
5844 Clear 11 1017 62 10000 4 210 18:33 06.09.2021
5845 Clear 11 1017 66 10000 4 210 17:50 06.09.2021
5846 Clear 13 1016 54 10000 5 240 16:20 06.09.2021
5847 Clear 13 1016 54 10000 5 240 16:20 06.09.2021
5848 Clear 13 1016 54 10000 5 240 16:20 06.09.2021
5849 Clear 15 1015 44 10000 7 240 14:37 06.09.2021
5850 Clear 15 1014 44 10000 7 240 12:49 06.09.2021
5851 Clear 15 1013 47 10000 7 250 11:43 06.09.2021
5852 Clear 15 1013 44 10000 8 240 10:19 06.09.2021
5853 Clear 15 1011 47 10000 6 240 07:35 06.09.2021
5854 Clear 11 1009 93 10000 2 240 02:54 06.09.2021
5855 Clear 12 1008 82 10000 2 260 23:20 05.09.2021
5856 Clear 14 1008 77 10000 5 250 22:32 05.09.2021
5857 Clear 14 1008 77 10000 3 220 21:55 05.09.2021
5858 Clear 14 1008 77 10000 3 220 21:55 05.09.2021
5859 Clear 14 1008 77 10000 2 240 21:19 05.09.2021
5860 Clear 16 1007 72 10000 3 280 19:23 05.09.2021
5861 Clouds 17 1007 72 9000 3 220 17:51 05.09.2021
5862 Clear 19 1007 63 10000 0 0 15:42 05.09.2021
5863 Clear 20 1007 60 10000 2 190 14:56 05.09.2021
5864 Clear 22 1007 53 10000 5 220 12:43 05.09.2021
5865 Clear 21 1006 56 10000 5 190 11:22 05.09.2021
5866 Clear 21 1006 49 10000 5 180 10:36 05.09.2021
5867 Clear 20 1006 52 10000 5 180 09:32 05.09.2021
5868 Clear 20 1006 52 10000 5 190 08:26 05.09.2021
5869 Clear 15 1005 67 10000 6 150 03:21 05.09.2021
5870 Clear 15 1007 67 10000 5 140 00:34 05.09.2021
5871 Clear 16 1007 67 10000 5 140 23:52 04.09.2021
5872 Clear 16 1008 67 10000 4 150 22:55 04.09.2021
5873 Clear 17 1008 63 10000 5 140 22:34 04.09.2021
5874 Clear 18 1009 59 10000 6 160 19:58 04.09.2021
5875 Clear 18 1009 59 10000 6 160 19:32 04.09.2021
5876 Clear 20 1010 56 10000 5 150 16:48 04.09.2021
5877 Clear 23 1009 46 10000 5 160 14:28 04.09.2021
5878 Clear 22 1009 49 10000 6 170 11:22 04.09.2021
5879 Clear 20 1009 56 10000 6 170 09:39 04.09.2021
5880 Clear 17 1009 63 10000 5 160 07:30 04.09.2021
5881 Clear 13 1010 76 10000 3 160 00:48 04.09.2021
5882 Clear 14 1010 72 10000 4 150 23:32 03.09.2021
5883 Clear 16 1010 63 10000 5 170 22:57 03.09.2021
5884 Clear 16 1010 63 10000 5 190 21:37 03.09.2021
5885 Clear 16 1011 63 10000 5 190 20:53 03.09.2021
5886 Clear 17 1011 59 10000 5 190 19:57 03.09.2021
5887 Clear 17 1011 59 10000 5 190 19:30 03.09.2021
5888 Clear 18 1011 59 10000 5 190 17:58 03.09.2021
5889 Clear 18 1010 63 10000 5 180 16:44 03.09.2021
5890 Clear 19 1010 59 10000 4 190 15:34 03.09.2021
5891 Clear 20 1009 56 10000 6 190 12:59 03.09.2021
5892 Clear 17 1009 63 10000 6 160 10:43 03.09.2021
5893 Clear 16 1010 63 10000 5 180 09:19 03.09.2021
5894 Clouds 14 1010 67 10000 5 190 07:51 03.09.2021
5895 Rain 14 1010 67 10000 5 190 06:21 03.09.2021
5896 Clear 13 1010 67 10000 5 180 23:54 02.09.2021
5897 Clear 13 1012 67 10000 4 170 21:42 02.09.2021
5898 Clear 13 1012 67 10000 5 180 20:24 02.09.2021
5899 Clear 14 1013 67 10000 5 170 17:33 02.09.2021
5900 Clear 14 1013 67 10000 5 160 16:20 02.09.2021
5901 Clear 15 1015 63 10000 5 170 14:36 02.09.2021
5902 Clear 16 1016 55 10000 6 180 12:58 02.09.2021
5903 Clouds 15 1017 55 10000 6 180 11:40 02.09.2021
5904 Clear 16 1017 48 10000 6 200 10:37 02.09.2021
5905 Clear 15 1018 58 10000 5 180 08:40 02.09.2021
5906 Clear 12 1019 71 10000 4 190 07:20 02.09.2021
5907 Clear 12 1019 71 10000 4 190 07:20 02.09.2021
5908 Clear 10 1019 81 10000 4 180 05:31 02.09.2021
5909 Clear 8 1019 87 10000 2 180 02:35 02.09.2021
5910 Clear 7 1019 93 10000 2 200 01:34 02.09.2021
5911 Clear 9 1019 81 10000 3 200 23:40 01.09.2021
5912 Clear 9 1019 81 10000 2 200 22:42 01.09.2021
5913 Clear 10 1019 76 10000 2 210 21:41 01.09.2021
5914 Clear 9 1019 81 10000 2 200 20:53 01.09.2021
5915 Clouds 10 1019 81 10000 1 220 19:22 01.09.2021
5916 Clear 9 1019 87 10000 1 160 17:47 01.09.2021
5917 Clear 10 1019 76 10000 0 0 16:48 01.09.2021
5918 Clouds 10 1019 71 10000 1 260 15:52 01.09.2021
5919 Rain 11 1019 62 10000 4 320 12:41 01.09.2021
5920 Clouds 11 1018 62 10000 4 320 11:45 01.09.2021
5921 Clouds 10 1018 71 10000 4 290 08:56 01.09.2021
5922 Clouds 10 1018 76 10000 4 320 07:53 01.09.2021
5923 Clouds 9 1017 87 10000 5 300 05:39 01.09.2021
5924 Clouds 9 1014 81 10000 3 310 23:19 31.08.2021
5925 Clouds 9 1014 87 10000 3 310 21:40 31.08.2021
5926 Clouds 9 1013 87 10000 3 340 19:48 31.08.2021
5927 Clear 9 1013 87 10000 4 330 18:37 31.08.2021
5928 Clouds 8 1013 93 10000 4 300 17:38 31.08.2021
5929 Clouds 8 1013 93 10000 4 300 17:20 31.08.2021
5930 Clear 9 1013 81 10000 3 310 16:24 31.08.2021
5931 Clear 9 1013 81 10000 3 310 16:24 31.08.2021
5932 Clouds 11 1012 82 10000 4 340 13:40 31.08.2021
5933 Clouds 13 1011 67 10000 5 320 11:36 31.08.2021
5934 Rain 12 1011 71 10000 6 320 10:55 31.08.2021
5935 Rain 11 1011 76 10000 6 330 09:45 31.08.2021
5936 Rain 10 1011 87 8000 5 310 08:39 31.08.2021
5937 Rain 11 1010 76 10000 5 310 07:38 31.08.2021
5938 Clear 10 1010 81 10000 4 290 05:36 31.08.2021
5939 Clouds 9 1009 87 10000 2 300 23:35 30.08.2021
5940 Clear 9 1009 87 10000 3 310 21:52 30.08.2021
5941 Clear 9 1009 93 10000 3 320 21:32 30.08.2021
5942 Clear 9 1009 87 10000 2 270 20:20 30.08.2021
5943 Clear 9 1009 93 10000 2 290 19:29 30.08.2021
5944 Clouds 9 1009 87 10000 3 330 18:34 30.08.2021
5945 Clouds 9 1009 81 10000 2 290 17:45 30.08.2021
5946 Clear 10 1009 76 10000 3 300 16:22 30.08.2021
5947 Clouds 12 1009 66 10000 3 330 15:39 30.08.2021
5948 Clouds 13 1008 58 10000 6 330 13:43 30.08.2021
5949 Clouds 13 1008 62 10000 4 350 12:24 30.08.2021
5950 Rain 11 1008 93 9000 1 0 09:30 30.08.2021
5951 Clouds 9 1009 93 10000 3 220 22:28 29.08.2021
5952 Clouds 9 1009 93 10000 4 240 21:32 29.08.2021
5953 Clouds 10 1010 87 10000 4 240 19:59 29.08.2021
5954 Clouds 10 1010 87 10000 4 250 19:19 29.08.2021
5955 Clouds 10 1011 87 10000 4 250 17:47 29.08.2021
5956 Rain 11 1011 87 10000 3 240 15:47 29.08.2021
5957 Rain 10 1012 87 10000 3 290 14:18 29.08.2021
5958 Rain 13 1011 62 10000 5 260 13:33 29.08.2021
5959 Rain 13 1012 62 10000 6 260 12:32 29.08.2021
5960 Clouds 13 1012 62 10000 6 250 11:48 29.08.2021
5961 Clouds 14 1012 58 10000 5 240 10:52 29.08.2021
5962 Clouds 13 1013 62 10000 5 250 10:33 29.08.2021
5963 Clouds 13 1013 67 10000 5 240 09:54 29.08.2021
5964 Clear 11 1014 76 10000 4 250 06:55 29.08.2021
5965 Clear 6 1016 87 10000 3 280 00:20 29.08.2021
5966 Clear 5 1017 93 10000 2 280 20:55 28.08.2021
5967 Clear 5 1018 87 10000 2 280 19:53 28.08.2021
5968 Clear 6 1018 87 10000 0 0 18:27 28.08.2021
5969 Clear 7 1018 87 10000 1 0 17:48 28.08.2021
5970 Clear 7 1018 87 10000 1 0 17:48 28.08.2021
5971 Clear 9 1018 76 10000 1 0 16:58 28.08.2021
5972 Clear 12 1018 54 10000 3 360 15:32 28.08.2021
5973 Clouds 12 1018 54 10000 4 330 14:19 28.08.2021
5974 Clouds 12 1019 54 10000 5 340 13:43 28.08.2021
5975 Clouds 13 1019 47 10000 5 350 12:41 28.08.2021
5976 Clouds 13 1019 50 10000 5 10 11:51 28.08.2021
5977 Clouds 12 1020 54 10000 5 360 10:29 28.08.2021
5978 Clouds 11 1020 54 10000 6 360 08:36 28.08.2021
5979 Clear 10 1020 57 10000 6 20 05:22 28.08.2021
5980 Clear 11 1019 71 10000 2 10 22:26 27.08.2021
5981 Clouds 11 1019 71 10000 2 20 20:56 27.08.2021
5982 Clouds 11 1019 76 10000 3 30 19:59 27.08.2021
5983 Clouds 12 1019 66 10000 4 20 18:39 27.08.2021
5984 Clouds 12 1019 66 10000 4 20 18:20 27.08.2021
5985 Clouds 13 1019 67 10000 4 330 16:47 27.08.2021
5986 Clouds 13 1018 67 10000 3 340 15:21 27.08.2021
5987 Clouds 13 1018 71 10000 3 320 14:37 27.08.2021
5988 Clouds 13 1018 67 10000 4 330 12:28 27.08.2021
5989 Clouds 13 1018 67 10000 5 350 11:23 27.08.2021
5990 Clouds 13 1017 71 10000 5 330 10:41 27.08.2021
5991 Clouds 14 1017 67 10000 4 330 09:19 27.08.2021
5992 Clouds 13 1017 71 10000 4 330 08:38 27.08.2021
5993 Clouds 13 1016 76 10000 6 290 05:51 27.08.2021
5994 Clouds 14 1013 88 10000 5 310 00:50 27.08.2021
5995 Clouds 15 1013 88 10000 6 320 00:28 27.08.2021
5996 Clouds 17 1012 94 10000 3 280 22:28 26.08.2021
5997 Clouds 18 1012 88 10000 4 250 21:57 26.08.2021
5998 Clear 18 1012 88 10000 4 230 19:53 26.08.2021
5999 Clouds 19 1012 88 10000 5 230 18:36 26.08.2021
6000 Rain 20 1012 83 10000 3 200 17:26 26.08.2021
6001 Rain 20 1013 94 10000 2 140 16:30 26.08.2021
6002 Rain 19 1014 94 10000 3 180 14:53 26.08.2021
6003 Clouds 30 1011 37 10000 5.48 203 13:27 26.08.2021
6004 Clouds 31 1011 45 10000 5 190 12:34 26.08.2021
6005 Clouds 31 1012 42 10000 4 210 11:45 26.08.2021
6006 Clear 29 1013 54 10000 4 220 09:25 26.08.2021
6007 Clear 28 1066 54 10000 4 200 08:19 26.08.2021
6008 Clear 18 1016 100 10000 1 110 23:44 25.08.2021
6009 Clear 19 1016 100 10000 2 110 22:41 25.08.2021
6010 Clear 19 1016 100 10000 2 110 22:23 25.08.2021
6011 Clear 19 1016 100 10000 2 110 20:57 25.08.2021
6012 Clear 20 1016 100 10000 4 100 20:30 25.08.2021
6013 Clouds 20 1017 94 10000 3 90 19:42 25.08.2021
6014 Clear 21 1017 83 10000 3 90 17:53 25.08.2021
6015 Rain 24 1017 69 10000 3 70 15:59 25.08.2021
6016 Rain 25 1017 65 10000 2 60 15:33 25.08.2021
6017 Clouds 25 1017 65 10000 2 50 14:46 25.08.2021
6018 Clear 26 1017 61 10000 4 90 13:54 25.08.2021
6019 Clear 27 1017 57 10000 5 80 12:23 25.08.2021
6020 Clear 27 1017 54 10000 4 70 11:20 25.08.2021
6021 Clear 27 1017 57 10000 4 70 09:59 25.08.2021
6022 Clear 27 1017 57 10000 3 50 09:36 25.08.2021
6023 Clouds 25 1018 69 10000 3 40 08:36 25.08.2021
6024 Clouds 24 1018 78 10000 3 10 07:21 25.08.2021
6025 Clear 19 1017 100 10000 2 40 01:25 25.08.2021
6026 Clear 21 1017 100 10000 3 60 23:31 24.08.2021
6027 Clear 21 1017 100 10000 1 0 21:20 24.08.2021
6028 Clear 21 1017 100 10000 0 0 20:18 24.08.2021
6029 Clear 22 1017 100 10000 1 0 19:43 24.08.2021
6030 Clear 22 1017 100 10000 0 0 17:55 24.08.2021
6031 Clear 23 1017 100 10000 1 0 17:22 24.08.2021
6032 Clear 23 1017 100 10000 1 0 17:22 24.08.2021
6033 Clear 24 1017 88 10000 1 0 16:18 24.08.2021
6034 Clear 28 1017 61 10000 3 230 13:54 24.08.2021
6035 Clear 28 1017 54 10000 3 240 12:45 24.08.2021
6036 Clear 28 1017 54 10000 3 250 11:21 24.08.2021
6037 Clear 28 1017 54 10000 4 250 10:46 24.08.2021
6038 Clear 27 1017 61 10000 5 230 09:53 24.08.2021
6039 Clear 24 1017 64 10000 4 240 07:42 24.08.2021
6040 Clear 23 1016 68 10000 4 230 05:50 24.08.2021
6041 Clear 23 1016 68 10000 4 230 05:50 24.08.2021
6042 Clear 22 1016 68 10000 4 220 03:37 24.08.2021
6043 Clear 23 1016 64 10000 5 220 23:52 23.08.2021
6044 Clear 24 1016 60 10000 5 220 22:46 23.08.2021
6045 Clear 25 1016 57 10000 5 230 21:36 23.08.2021
6046 Clear 26 1017 53 10000 5 230 19:55 23.08.2021
6047 Clear 27 1017 50 10000 4 210 18:25 23.08.2021
6048 Clear 29 1017 51 10000 4 210 15:45 23.08.2021
6049 Clear 32 1017 43 10000 5 220 13:56 23.08.2021
6050 Clear 32 1018 43 10000 6 220 12:33 23.08.2021
6051 Clear 32 1018 43 10000 5 230 10:52 23.08.2021
6052 Clear 32 1018 40 10000 6 250 10:21 23.08.2021
6053 Clear 29 1018 54 10000 4 240 08:49 23.08.2021
6054 Clear 28 1019 54 10000 6 250 07:41 23.08.2021
6055 Clear 26 1018 69 10000 4 250 06:41 23.08.2021
6056 Clear 20 1018 100 10000 2 180 01:57 23.08.2021
6057 Clear 22 1018 94 10000 0 0 00:46 23.08.2021
6058 Clear 22 1018 100 10000 2 160 22:42 22.08.2021
6059 Clear 22 1018 100 10000 2 160 22:42 22.08.2021
6060 Clear 22 1018 100 10000 2 150 21:30 22.08.2021
6061 Clear 21 1019 100 10000 1 150 20:19 22.08.2021
6062 Clear 21 1019 100 10000 1 80 18:33 22.08.2021
6063 Clouds 26 1019 69 10000 0 0 15:56 22.08.2021
6064 Clear 27 1019 57 10000 1 0 14:54 22.08.2021
6065 Clear 29 1019 48 10000 1 0 13:50 22.08.2021
6066 Clear 29 1019 48 10000 2 340 13:19 22.08.2021
6067 Clear 29 1019 48 10000 3 320 12:48 22.08.2021
6068 Clear 28 1019 54 10000 4 320 11:45 22.08.2021
6069 Clear 29 1019 48 10000 6 330 11:20 22.08.2021
6070 Clear 27 1017 61 10000 6 270 08:44 22.08.2021
6071 Clear 27 1017 61 10000 5 260 07:53 22.08.2021
6072 Clear 21 1017 83 10000 3 240 04:32 22.08.2021
6073 Clear 19 1017 100 10000 0 0 22:38 21.08.2021
6074 Clear 21 1017 88 10000 3 250 21:40 21.08.2021
6075 Clear 21 1016 94 10000 2 280 18:58 21.08.2021
6076 Clear 21 1016 94 10000 3 280 18:39 21.08.2021
6077 Clear 25 1016 69 10000 4 260 16:58 21.08.2021
6078 Clear 25 1016 69 10000 5 270 16:32 21.08.2021
6079 Clear 26 1016 65 10000 5 250 15:39 21.08.2021
6080 Clear 27 1016 61 10000 6 260 15:21 21.08.2021
6081 Clear 28 1015 47 10000 6 300 13:43 21.08.2021
6082 Clear 28 1015 47 10000 9 300 12:39 21.08.2021
6083 Clear 28 1015 51 10000 7 290 10:55 21.08.2021
6084 Clouds 24 1014 64 10000 4 250 07:53 21.08.2021
6085 Clouds 15 1015 100 10000 3 190 00:44 21.08.2021
6086 Rain 14 1015 100 10000 3 160 22:28 20.08.2021
6087 Rain 15 1015 82 10000 4 150 19:43 20.08.2021
6088 Rain 15 1017 82 10000 3 160 17:35 20.08.2021
6089 Clear 17 1018 59 10000 3 190 14:34 20.08.2021
6090 Clear 17 1019 55 10000 3 190 11:59 20.08.2021
6091 Clear 16 1019 59 10000 3 210 11:29 20.08.2021
6092 Clear 15 1020 58 10000 2 240 10:21 20.08.2021
6093 Clear 15 1020 58 10000 2 200 09:27 20.08.2021
6094 Clear 15 1020 58 10000 2 230 08:36 20.08.2021
6095 Clear 11 1020 76 10000 1 0 04:42 20.08.2021
6096 Clear 11 1020 93 10000 2 70 04:20 20.08.2021
6097 Clear 7 1018 100 10000 1 0 23:27 19.08.2021
6098 Clear 8 1018 100 10000 0 0 22:38 19.08.2021
6099 Clear 8 1018 100 10000 0 0 21:50 19.08.2021
6100 Clear 10 1017 81 10000 2 30 20:19 19.08.2021
6101 Clear 13 1016 71 10000 3 360 17:59 19.08.2021
6102 Clear 14 1016 62 10000 3 340 16:51 19.08.2021
6103 Clear 17 1015 55 10000 6 340 14:36 19.08.2021
6104 Clouds 18 1014 63 10000 6 360 12:46 19.08.2021
6105 Clouds 18 1014 63 10000 7 340 12:27 19.08.2021
6106 Clouds 20 1014 56 10000 8 290 10:47 19.08.2021
6107 Clouds 19 1014 55 10000 6 300 09:48 19.08.2021
6108 Clouds 19 1014 59 10000 5 280 09:27 19.08.2021
6109 Clouds 19 1014 55 10000 5 290 08:33 19.08.2021
6110 Clear 13 1014 94 10000 2 290 03:37 19.08.2021
6111 Clear 13 1014 94 10000 3 280 02:19 19.08.2021
6112 Clear 14 1014 82 10000 1 0 23:29 18.08.2021
6113 Clear 15 1014 82 10000 2 220 22:36 18.08.2021
6114 Clear 15 1015 100 10000 1 240 20:50 18.08.2021
6115 Clear 13 1015 100 10000 0 0 20:20 18.08.2021
6116 Clear 13 1015 94 10000 0 0 19:26 18.08.2021
6117 Clear 12 1015 100 10000 0 0 18:34 18.08.2021
6118 Clear 15 1015 67 10000 1 0 16:56 18.08.2021
6119 Clear 17 1015 55 10000 3 10 15:40 18.08.2021
6120 Clear 18 1015 55 10000 3 350 15:21 18.08.2021
6121 Clouds 19 1015 52 10000 6 330 12:51 18.08.2021
6122 Clouds 18 1015 55 10000 7 320 12:27 18.08.2021
6123 Clouds 18 1015 55 10000 7 330 11:49 18.08.2021
6124 Clouds 18 1013 63 10000 7 310 08:29 18.08.2021
6125 Clear 14 1010 100 10000 4 280 01:29 18.08.2021
6126 Clear 16 1010 100 10000 2 240 22:40 17.08.2021
6127 Clouds 16 1010 100 9000 3 250 21:54 17.08.2021
6128 Rain 17 1010 100 10000 2 250 21:22 17.08.2021
6129 Rain 17 1010 100 10000 2 230 19:42 17.08.2021
6130 Thunderstorm 22 1009 73 10000 3 270 17:47 17.08.2021
6131 Rain 23 1009 60 10000 2 230 17:25 17.08.2021
6132 Rain 25 1010 53 10000 3 200 15:44 17.08.2021
6133 Rain 26 1011 47 10000 4 200 14:47 17.08.2021
6134 Clear 26 1012 44 10000 6 220 12:37 17.08.2021
6135 Clouds 26 1014 47 10000 6 230 09:42 17.08.2021
6136 Clouds 26 1014 47 10000 6 230 09:18 17.08.2021
6137 Clear 22 1014 60 10000 5 210 06:57 17.08.2021
6138 Clear 17 1016 72 10000 2 200 23:25 16.08.2021
6139 Clear 17 1017 72 10000 2 200 22:53 16.08.2021
6140 Clear 17 1017 72 10000 2 190 22:35 16.08.2021
6141 Clear 17 1017 77 10000 2 190 21:40 16.08.2021
6142 Clear 17 1017 77 10000 2 160 20:51 16.08.2021
6143 Clear 17 1017 77 10000 2 160 19:29 16.08.2021
6144 Clear 17 1017 82 10000 1 180 18:26 16.08.2021
6145 Clear 17 1017 82 10000 1 180 18:26 16.08.2021
6146 Clear 17 1017 82 10000 1 180 18:26 16.08.2021
6147 Clear 17 1017 82 10000 1 180 18:26 16.08.2021
6148 Clear 18 1017 77 10000 1 0 17:54 16.08.2021
6149 Clear 22 1017 53 10000 2 210 16:29 16.08.2021
6150 Clear 23 1017 46 10000 3 230 15:22 16.08.2021
6151 Clear 23 1018 46 10000 3 230 13:55 16.08.2021
6152 Clouds 23 1018 46 10000 4 230 12:59 16.08.2021
6153 Clouds 23 1018 46 10000 4 230 12:59 16.08.2021
6154 Clouds 23 1018 43 10000 4 240 11:31 16.08.2021
6155 Clouds 22 1018 46 10000 3 290 09:33 16.08.2021
6156 Clear 22 1018 49 10000 4 300 08:42 16.08.2021
6157 Clear 20 1018 56 10000 5 300 07:30 16.08.2021
6158 Clear 18 1017 63 10000 4 320 05:56 16.08.2021
6159 Clear 13 1015 94 10000 3 300 01:21 16.08.2021
6160 Clear 16 1013 82 10000 4 280 21:33 15.08.2021
6161 Clear 18 1012 72 10000 4 250 19:35 15.08.2021
6162 Clear 19 1011 68 10000 4 250 18:41 15.08.2021
6163 Clear 20 1011 64 10000 5 250 17:48 15.08.2021
6164 Clear 22 1010 56 10000 6 250 16:39 15.08.2021
6165 Clear 23 1010 49 10000 8 250 15:35 15.08.2021
6166 Clear 23 1010 53 10000 9 250 14:36 15.08.2021
6167 Clouds 23 1010 53 10000 9 250 13:34 15.08.2021
6168 Clear 21 1008 56 10000 8 250 09:57 15.08.2021
6169 Clear 23 1007 56 10000 7 290 06:53 15.08.2021
6170 Clear 17 1007 77 10000 3 220 01:22 15.08.2021
6171 Clear 18 1007 72 10000 4 220 00:31 15.08.2021
6172 Clear 18 1008 77 10000 3 200 21:22 14.08.2021
6173 Clear 18 1008 77 10000 3 200 21:22 14.08.2021
6174 Clear 20 1009 73 10000 3 200 19:45 14.08.2021
6175 Clear 20 1009 73 10000 3 210 19:26 14.08.2021
6176 Clear 21 1009 68 10000 3 200 17:34 14.08.2021
6177 Clear 23 1010 60 10000 2 220 16:39 14.08.2021
6178 Clear 24 1010 53 10000 4 240 15:34 14.08.2021
6179 Clear 25 1011 47 10000 6 240 13:32 14.08.2021
6180 Clear 24 1012 53 10000 5 240 10:56 14.08.2021
6181 Clear 21 1013 68 10000 4 210 08:53 14.08.2021
6182 Rain 16 1015 100 10000 2 230 00:21 14.08.2021
6183 Rain 16 1015 100 10000 2 240 23:49 13.08.2021
6184 Clear 18 1016 72 10000 2 200 21:50 13.08.2021
6185 Clear 18 1017 72 10000 2 240 19:29 13.08.2021
6186 Clear 18 1017 72 10000 2 230 18:45 13.08.2021
6187 Clear 19 1017 72 10000 1 0 17:18 13.08.2021
6188 Rain 20 1018 60 10000 3 290 15:53 13.08.2021
6189 Clouds 22 1019 46 10000 4 250 11:43 13.08.2021
6190 Clouds 22 1019 46 10000 4 250 11:18 13.08.2021
6191 Clear 22 1020 46 10000 4 260 08:39 13.08.2021
6192 Clear 21 1021 46 10000 5 270 07:48 13.08.2021
6193 Clear 20 1022 52 10000 5 280 06:31 13.08.2021
6194 Clear 11 1023 100 10000 2 310 00:18 13.08.2021
6195 Clear 12 1023 87 10000 2 310 21:43 12.08.2021
6196 Clear 13 1023 82 10000 3 350 20:27 12.08.2021
6197 Clear 13 1023 82 10000 1 330 19:49 12.08.2021
6198 Clear 14 1023 77 10000 1 320 17:56 12.08.2021
6199 Clear 17 1023 63 10000 1 330 16:50 12.08.2021
6200 Clear 19 1023 52 10000 3 10 15:35 12.08.2021
6201 Clear 19 1024 48 10000 5 360 13:46 12.08.2021
6202 Clear 19 1024 48 10000 5 360 11:34 12.08.2021
6203 Clear 17 1024 48 10000 5 10 08:53 12.08.2021
6204 Clear 17 1024 48 10000 5 20 07:21 12.08.2021
6205 Clear 12 1022 82 10000 4 20 23:21 11.08.2021
6206 Clear 12 1021 87 10000 3 340 21:37 11.08.2021
6207 Clear 14 1021 67 10000 2 10 18:53 11.08.2021
6208 Clear 14 1021 67 10000 2 20 18:24 11.08.2021
6209 Clear 18 1020 48 10000 6 20 15:21 11.08.2021
6210 Clear 18 1020 48 10000 6 30 14:54 11.08.2021
6211 Clear 18 1020 48 10000 7 20 12:47 11.08.2021
6212 Clear 18 1020 52 10000 7 10 12:29 11.08.2021
6213 Clear 17 1020 51 10000 7 30 11:40 11.08.2021
6214 Clear 17 1020 51 10000 7 30 11:18 11.08.2021
6215 Clouds 16 1019 55 10000 6 40 08:53 11.08.2021
6216 Clouds 11 1018 87 10000 5 40 03:29 11.08.2021
6217 Clouds 12 1016 82 10000 3 30 22:33 10.08.2021
6218 Clouds 13 1016 82 10000 5 20 21:38 10.08.2021
6219 Clouds 13 1016 82 10000 5 40 20:49 10.08.2021
6220 Clouds 14 1016 77 10000 4 30 19:25 10.08.2021
6221 Clouds 15 1015 77 10000 5 30 17:30 10.08.2021
6222 Clouds 16 1014 77 10000 5 30 15:22 10.08.2021
6223 Clouds 16 1014 77 10000 4 40 14:39 10.08.2021
6224 Clouds 16 1013 77 10000 6 40 10:47 10.08.2021
6225 Clouds 15 1012 82 10000 5 40 08:41 10.08.2021
6226 Clouds 14 1012 94 10000 4 40 05:24 10.08.2021
6227 Clouds 15 1011 100 10000 3 30 00:37 10.08.2021
6228 Clouds 15 1011 94 10000 4 40 23:24 09.08.2021
6229 Mist 16 1011 82 5000 1 350 21:53 09.08.2021
6230 Haze 16 1012 82 5000 1 0 21:19 09.08.2021
6231 Clouds 17 1012 77 7000 2 10 17:57 09.08.2021
6232 Haze 18 1011 77 5000 3 20 15:35 09.08.2021
6233 Haze 18 1011 77 5000 3 20 15:35 09.08.2021
6234 Haze 19 1012 72 5000 3 10 14:37 09.08.2021
6235 Haze 20 1011 68 5000 4 10 13:29 09.08.2021
6236 Haze 20 1011 73 4400 4 10 11:48 09.08.2021
6237 Haze 19 1012 82 4400 4 360 09:27 09.08.2021
6238 Mist 20 1012 88 3500 4 360 07:59 09.08.2021
6239 Mist 19 1013 100 2500 2 30 21:32 08.08.2021
6240 Mist 19 1013 100 2600 2 20 20:36 08.08.2021
6241 Mist 22 1013 88 4500 3 50 17:36 08.08.2021
6242 Clouds 24 1012 73 10000 2 60 15:46 08.08.2021
6243 Clouds 26 1012 61 10000 1 0 14:34 08.08.2021
6244 Clouds 26 1012 57 10000 2 80 12:46 08.08.2021
6245 Clouds 26 1012 57 10000 3 160 10:36 08.08.2021
6246 Clear 22 1012 88 9000 4 100 06:41 08.08.2021
6247 Fog 16 1011 100 700 2 80 00:53 08.08.2021
6248 Fog 16 1011 100 500 3 80 00:24 08.08.2021
6249 Fog 17 1011 100 100 2 90 21:44 07.08.2021
6250 Fog 17 1011 100 50 3 90 21:19 07.08.2021
6251 Mist 18 1010 100 1600 3 90 18:21 07.08.2021
6252 Mist 20 1010 100 1600 2 80 16:51 07.08.2021
6253 Mist 21 1010 94 1600 2 120 15:36 07.08.2021
6254 Haze 22 1010 73 1500 2 190 13:34 07.08.2021
6255 Haze 21 1009 78 1400 3 130 10:32 07.08.2021
6256 Mist 18 1009 100 1300 4 90 07:44 07.08.2021
6257 Fog 15 1009 100 900 2 80 02:38 07.08.2021
6258 Mist 16 1009 100 3700 0 0 22:23 06.08.2021
6259 Mist 17 1009 100 4300 0 0 20:36 06.08.2021
6260 Mist 18 1009 100 4200 1 30 19:59 06.08.2021
6261 Mist 19 1009 100 4700 0 0 19:22 06.08.2021
6262 Clouds 22 1009 78 6000 3 50 17:34 06.08.2021
6263 Clouds 26 1009 57 9000 2 60 12:23 06.08.2021
6264 Clouds 25 1009 61 7000 3 40 09:57 06.08.2021
6265 Haze 23 1009 68 5000 4 10 08:22 06.08.2021
6266 Mist 14 1010 100 1700 0 0 23:35 05.08.2021
6267 Mist 14 1010 100 1700 0 0 22:30 05.08.2021
6268 Mist 14 1011 100 1600 0 0 20:47 05.08.2021
6269 Mist 15 1011 100 1500 0 0 19:29 05.08.2021
6270 Mist 16 1011 94 1600 2 280 17:43 05.08.2021
6271 Haze 19 1011 88 2200 0 0 14:49 05.08.2021
6272 Mist 19 1012 94 2100 2 360 11:38 05.08.2021
6273 Mist 18 1012 100 2200 2 10 08:51 05.08.2021
6274 Mist 17 1012 100 2900 2 60 05:35 05.08.2021
6275 Clouds 16 1011 100 10000 2 40 00:54 05.08.2021
6276 Clear 17 1011 82 10000 3 340 21:49 04.08.2021
6277 Clear 17 1011 82 10000 1 300 21:21 04.08.2021
6278 Clear 18 1011 88 10000 2 270 18:54 04.08.2021
6279 Clouds 21 1011 64 10000 2 360 16:42 04.08.2021
6280 Clouds 23 1011 53 10000 2 340 14:44 04.08.2021
6281 Clouds 23 1011 53 10000 4 320 11:49 04.08.2021
6282 Clear 19 1010 88 10000 3 10 04:55 04.08.2021
6283 Clear 16 1008 100 10000 2 330 20:35 03.08.2021
6284 Clear 17 1008 100 10000 3 330 19:59 03.08.2021
6285 Rain 18 1008 88 10000 3 340 17:50 03.08.2021
6286 Rain 20 1007 73 10000 4 360 16:27 03.08.2021
6287 Clouds 21 1007 73 10000 5 20 12:52 03.08.2021
6288 Clouds 21 1007 68 10000 4 320 10:40 03.08.2021
6289 Clouds 16 1007 100 10000 2 10 07:40 03.08.2021
6290 Rain 14 1005 100 9000 4 100 17:48 02.08.2021
6291 Rain 14 1005 100 6000 5 100 16:38 02.08.2021
6292 Rain 14 1004 100 8000 5 110 15:25 02.08.2021
6293 Clouds 15 1004 100 10000 6 110 11:59 02.08.2021
6294 Rain 15 1004 100 10000 6 110 11:36 02.08.2021
6295 Rain 15 1003 100 9000 5 120 09:49 02.08.2021
6296 Rain 17 1004 72 10000 5 140 22:45 01.08.2021
6297 Clear 19 1006 63 10000 3 130 18:19 01.08.2021
6298 Clear 21 1007 56 10000 3 160 15:29 01.08.2021
6299 Clouds 21 1008 52 10000 4 210 11:38 01.08.2021
6300 Clouds 21 1009 56 10000 4 190 09:25 01.08.2021
6301 Clouds 14 1010 100 7000 0 0 03:48 01.08.2021
6302 Clear 11 1010 100 10000 2 290 22:52 31.07.2021
6303 Clear 12 1009 100 10000 1 0 20:52 31.07.2021
6304 Clouds 16 1008 94 10000 0 0 17:49 31.07.2021
6305 Clouds 17 1007 77 10000 1 0 16:36 31.07.2021
6306 Clouds 19 1005 52 10000 2 100 12:31 31.07.2021
6307 Rain 18 1004 63 10000 4 110 08:34 31.07.2021
6308 Clear 11 1004 87 10000 2 160 00:55 31.07.2021
6309 Clear 13 1005 71 10000 2 140 20:30 30.07.2021
6310 Clear 13 1005 71 10000 2 130 19:22 30.07.2021
6311 Rain 12 1003 71 10000 5 260 07:50 30.07.2021
6312 Rain 13 1003 71 10000 4 200 16:53 29.07.2021
6313 Clouds 12 1002 87 10000 6 290 05:49 29.07.2021
6314 Clouds 12 1002 100 10000 5 290 04:29 29.07.2021
6315 Clear 10 1003 100 10000 0 0 21:18 28.07.2021
6316 Clouds 14 1003 72 10000 2 360 17:22 28.07.2021
6317 Clouds 17 1003 67 10000 2 350 14:49 28.07.2021
6318 Rain 16 1003 72 10000 4 190 07:44 28.07.2021
6319 Clear 15 1001 100 10000 2 200 21:46 27.07.2021
6320 Clouds 14 1001 100 10000 2 200 21:27 27.07.2021
6321 Rain 21 1002 52 10000 4 200 14:52 27.07.2021
6322 Clouds 21 1003 46 10000 5 240 10:45 27.07.2021
6323 Clouds 18 1004 63 10000 4 230 07:59 27.07.2021
6324 Clouds 16 1007 63 10000 3 310 15:48 26.07.2021
6325 Clear 16 1007 59 10000 4 330 14:48 26.07.2021
6326 Clouds 13 1006 82 10000 6 350 04:51 26.07.2021
6327 Rain 15 1006 100 10000 2 330 20:55 25.07.2021
6328 Rain 15 1006 100 10000 2 330 18:23 25.07.2021
6329 Rain 16 1007 100 10000 1 330 15:45 25.07.2021
6330 Rain 17 1006 82 10000 1 0 10:55 25.07.2021
6331 Rain 18 1007 72 10000 1 0 08:19 25.07.2021
6332 Clouds 16 1006 100 10000 3 280 20:24 24.07.2021
6333 Clouds 16 1005 100 10000 3 290 19:55 24.07.2021
6334 Rain 16 1003 100 10000 4 330 13:38 24.07.2021
6335 Clouds 17 1002 100 10000 3 330 21:47 23.07.2021
6336 Clear 32 995 40 10000 6 190 14:36 23.07.2021
6337 Clear 32 996 40 10000 8 190 12:40 23.07.2021
6338 Clear 20 999 83 10000 5 140 04:48 23.07.2021
6339 Clear 21 1005 68 10000 2 140 17:44 22.07.2021
6340 Clouds 23 1004 56 10000 5 240 11:21 22.07.2021
6341 Clouds 22 1003 53 10000 7 290 08:34 22.07.2021
6342 Rain 19 999 100 10000 5 240 02:28 22.07.2021
6343 Clouds 23 999 56 10000 4 210 21:43 21.07.2021
6344 Clouds 23 999 56 10000 4 210 21:23 21.07.2021
6345 Clear 26 1003 50 10000 6 200 11:54 21.07.2021
6346 Clear 26 1004 47 10000 6 210 09:20 21.07.2021
6347 Clear 24 1004 57 10000 5 230 06:50 21.07.2021
6348 Clouds 18 1005 94 10000 0 0 23:24 20.07.2021
6349 Clear 25 1005 53 10000 3 260 16:37 20.07.2021
6350 Clouds 25 1005 53 10000 4 260 15:28 20.07.2021
6351 Clouds 21 1006 78 10000 4 90 12:58 20.07.2021
6352 Clouds 25 1006 53 10000 5 250 10:21 20.07.2021
6353 Clear 17 1007 94 10000 4 250 03:20 20.07.2021
6354 Clear 18 1007 88 10000 3 230 21:29 19.07.2021
6355 Rain 22 1007 56 10000 4 240 12:52 19.07.2021
6356 Rain 22 1007 53 10000 4 230 10:28 19.07.2021
6357 Clouds 19 1006 72 10000 1 60 17:35 18.07.2021
6358 Clouds 18 1006 68 10000 3 290 10:54 18.07.2021
6359 Clouds 12 1006 100 9000 3 330 03:21 18.07.2021
6360 Clouds 13 1006 100 10000 1 300 22:22 17.07.2021
6361 Clear 13 1006 100 10000 2 310 21:43 17.07.2021
6362 Clouds 13 1006 100 10000 2 280 20:28 17.07.2021
6363 Clouds 15 1005 100 10000 3 360 11:34 17.07.2021
6364 Mist 14 1004 100 4200 4 350 07:19 17.07.2021
6365 Mist 12 1001 100 3600 4 350 20:29 16.07.2021
6366 Rain 14 1001 100 10000 3 360 13:21 16.07.2021
6367 Rain 12 999 100 9000 3 340 07:26 16.07.2021
6368 Clouds 12 998 100 10000 3 10 00:36 16.07.2021
6369 Clouds 17 1000 72 10000 6 30 13:52 15.07.2021
6370 Rain 16 1000 77 10000 5 60 10:31 15.07.2021
6371 Clouds 12 1003 71 10000 6 40 00:33 15.07.2021
6372 Clouds 12 1003 71 10000 6 40 00:33 15.07.2021
6373 Clouds 11 1006 82 10000 5 30 19:22 14.07.2021
6374 Rain 9 1009 100 9000 6 30 14:57 14.07.2021
6375 Rain 10 1010 81 10000 5 40 06:32 14.07.2021
6376 Clear 10 1011 71 10000 5 30 21:44 13.07.2021
6377 Clear 10 1012 66 10000 5 30 19:55 13.07.2021
6378 Clear 11 1012 62 10000 5 20 19:27 13.07.2021
6379 Clear 11 1012 62 10000 5 40 18:45 13.07.2021
6380 Clear 12 1011 58 10000 5 30 18:25 13.07.2021
6381 Clear 12 1011 62 10000 5 30 17:56 13.07.2021
6382 Clouds 15 1011 51 10000 7 30 12:52 13.07.2021
6383 Clouds 14 1011 51 10000 6 40 08:49 13.07.2021
6384 Clear 13 1009 76 10000 3 30 19:59 12.07.2021
6385 Clouds 15 1008 67 10000 4 10 16:45 12.07.2021
6386 Clouds 16 1007 63 10000 5 350 09:59 12.07.2021
6387 Clear 8 1008 100 10000 2 310 21:59 11.07.2021
6388 Clear 10 1008 87 10000 3 320 19:48 11.07.2021
6389 Clouds 8 1009 93 10000 4 30 04:42 11.07.2021
6390 Clouds 13 1007 76 10000 5 20 21:46 10.07.2021
6391 Rain 19 1001 100 10000 3 320 11:37 10.07.2021
6392 Rain 19 1001 100 10000 5 280 07:24 10.07.2021
6393 Clouds 21 1003 68 10000 3 220 22:39 09.07.2021
6394 Clear 23 1006 56 10000 3 190 18:20 09.07.2021
6395 Clear 27 1008 41 10000 4 220 14:48 09.07.2021
6396 Clear 20 1014 68 10000 0 0 03:58 09.07.2021
6397 Clear 12 1015 100 10000 0 0 23:48 08.07.2021
6398 Clear 14 1015 88 10000 0 0 22:18 08.07.2021
6399 Clear 18 1014 72 10000 1 280 18:56 08.07.2021
6400 Clear 23 1015 43 10000 5 10 15:45 08.07.2021
6401 Clear 23 1015 46 10000 5 350 13:31 08.07.2021
6402 Clear 23 1015 46 10000 5 360 12:39 08.07.2021
6403 Clear 22 1015 49 10000 5 20 11:29 08.07.2021
6404 Clear 22 1015 46 10000 5 10 09:51 08.07.2021
6405 Clear 19 1013 68 10000 4 360 04:42 08.07.2021
6406 Clear 19 1013 68 10000 4 360 04:42 08.07.2021
6407 Clear 16 1011 82 10000 4 310 23:50 07.07.2021
6408 Clear 15 1010 94 10000 4 280 22:21 07.07.2021
6409 Clear 16 1010 82 10000 4 280 21:47 07.07.2021
6410 Clear 16 1010 82 10000 4 280 21:27 07.07.2021
6411 Clear 17 1010 72 10000 4 250 20:28 07.07.2021
6412 Clear 17 1010 72 10000 3 250 19:55 07.07.2021
6413 Clear 18 1010 68 10000 3 250 19:27 07.07.2021
6414 Clear 21 1011 49 10000 5 250 16:35 07.07.2021
6415 Clear 20 1011 52 10000 5 240 15:25 07.07.2021
6416 Clouds 19 1013 52 10000 4 240 12:24 07.07.2021
6417 Clear 20 1013 37 10000 6 300 07:37 07.07.2021
6418 Clear 19 1014 48 10000 6 300 05:57 07.07.2021
6419 Clear 16 1014 63 10000 4 290 04:39 07.07.2021
6420 Clear 11 1014 82 10000 3 280 20:55 06.07.2021
6421 Clear 11 1014 87 10000 0 0 19:18 06.07.2021
6422 Clear 12 1014 82 10000 0 0 18:44 06.07.2021
6423 Clear 14 1014 67 10000 1 350 18:22 06.07.2021
6424 Clear 18 1013 45 10000 6 350 13:37 06.07.2021
6425 Clouds 16 1012 55 10000 6 340 10:28 06.07.2021
6426 Clouds 15 1012 55 10000 8 350 09:39 06.07.2021
6427 Clouds 15 1011 55 10000 8 350 08:32 06.07.2021
6428 Clear 13 1010 58 10000 7 350 04:50 06.07.2021
6429 Clear 10 1008 81 10000 3 350 23:59 05.07.2021
6430 Clear 11 1008 82 10000 3 340 21:59 05.07.2021
6431 Clouds 13 1007 67 10000 5 10 17:22 05.07.2021
6432 Clouds 13 1006 67 10000 8 10 14:29 05.07.2021
6433 Rain 11 1001 93 10000 7 20 06:21 05.07.2021
6434 Rain 11 1001 100 10000 7 20 05:42 05.07.2021
6435 Rain 12 1001 100 3200 7 30 02:48 05.07.2021
6436 Thunderstorm 13 1001 100 7000 5 30 21:52 04.07.2021
6437 Rain 15 1003 100 10000 7 40 18:51 04.07.2021
6438 Rain 18 1002 88 10000 8 50 15:50 04.07.2021
6439 Rain 21 1001 100 10000 4 120 11:48 04.07.2021
6440 Clouds 19 1001 100 10000 5 120 09:23 04.07.2021
6441 Clear 16 1004 88 10000 3 90 23:32 03.07.2021
6442 Clear 16 1005 88 10000 4 90 22:34 03.07.2021
6443 Clear 22 1008 56 10000 3 130 14:19 03.07.2021
6444 Clear 21 1008 60 10000 3 110 12:38 03.07.2021
6445 Clear 20 1009 56 10000 5 110 09:29 03.07.2021
6446 Clear 20 1010 56 10000 4 110 08:46 03.07.2021
6447 Clear 16 1011 82 10000 3 90 02:46 03.07.2021
6448 Clear 21 1011 43 10000 5 350 12:51 02.07.2021
6449 Clear 20 1010 60 10000 5 10 07:40 02.07.2021
6450 Clear 18 1009 59 10000 5 40 04:38 02.07.2021
6451 Clouds 21 1005 100 9000 2 280 22:33 01.07.2021
6452 Clouds 21 1005 100 9000 1 0 21:51 01.07.2021
6453 Rain 22 1004 100 10000 3 230 20:38 01.07.2021
6454 Thunderstorm 21 1004 100 10000 3 240 19:21 01.07.2021
6455 Thunderstorm 20 1004 100 9000 3 210 18:49 01.07.2021
6456 Thunderstorm 20 1005 100 3900 4 10 17:48 01.07.2021
6457 Thunderstorm 20 1006 100 10000 12 360 17:18 01.07.2021
6458 Clear 30 1004 58 10000 5 210 15:25 01.07.2021
6459 Clear 30 1005 54 10000 7 200 14:23 01.07.2021
6460 Clouds 28 1007 57 10000 7 220 10:55 01.07.2021
6461 Clouds 28 1007 57 10000 7 220 10:55 01.07.2021
6462 Clear 24 1011 60 10000 4 200 05:47 01.07.2021
6463 Clear 16 1013 72 10000 3 140 23:21 30.06.2021
6464 Clear 17 1013 67 10000 2 140 22:20 30.06.2021
6465 Clear 18 1013 63 10000 2 140 21:22 30.06.2021
6466 Clear 17 1013 67 10000 3 120 20:26 30.06.2021
6467 Clear 19 1013 59 10000 2 130 18:54 30.06.2021
6468 Clear 23 1013 33 10000 3 170 14:26 30.06.2021
6469 Clear 23 1013 38 10000 3 160 13:21 30.06.2021
6470 Clear 20 1013 45 10000 3 160 07:57 30.06.2021
6471 Clear 13 1012 100 10000 1 80 21:29 29.06.2021
6472 Clear 15 1012 77 10000 0 0 18:36 29.06.2021
6473 Clear 17 1012 59 10000 1 0 17:43 29.06.2021
6474 Clouds 17 1011 63 10000 2 60 16:36 29.06.2021
6475 Clouds 17 1011 59 10000 2 60 15:38 29.06.2021
6476 Clouds 18 1012 48 10000 2 20 13:31 29.06.2021
6477 Clouds 18 1013 52 10000 2 360 12:43 29.06.2021
6478 Clouds 13 1010 100 10000 3 20 00:41 29.06.2021
6479 Clouds 16 1010 100 10000 6 20 21:47 28.06.2021
6480 Clouds 17 1009 100 10000 1 0 19:48 28.06.2021
6481 Rain 20 1009 68 10000 2 240 17:29 28.06.2021
6482 Rain 21 1010 60 10000 4 250 15:22 28.06.2021
6483 Clouds 21 1011 52 10000 5 260 12:58 28.06.2021
6484 Clouds 20 1011 56 10000 4 280 07:50 28.06.2021
6485 Clouds 14 1010 82 10000 3 290 23:45 27.06.2021
6486 Clear 14 1010 77 10000 0 0 21:51 27.06.2021
6487 Clear 15 1010 72 10000 2 300 19:40 27.06.2021
6488 Clear 18 1009 55 10000 5 320 16:51 27.06.2021
6489 Clear 19 1009 37 10000 3 350 13:31 27.06.2021
6490 Rain 18 1009 36 10000 4 360 07:38 27.06.2021
6491 Clear 8 1009 81 10000 0 0 22:58 26.06.2021
6492 Clear 11 1010 71 10000 0 0 21:19 26.06.2021
6493 Clear 12 1010 66 10000 0 0 20:40 26.06.2021
6494 Clear 15 1010 55 10000 2 10 19:25 26.06.2021
6495 Clouds 21 1009 37 10000 4 350 15:29 26.06.2021
6496 Clear 21 1010 40 10000 4 360 12:28 26.06.2021
6497 Clear 19 1010 45 10000 3 360 09:29 26.06.2021
6498 Clear 17 1011 63 10000 2 330 04:35 26.06.2021
6499 Clear 11 1011 82 10000 2 290 20:50 25.06.2021
6500 Clear 13 1012 71 10000 2 320 19:43 25.06.2021
6501 Clear 16 1011 59 10000 2 350 17:53 25.06.2021
6502 Clear 17 1011 51 10000 3 20 16:50 25.06.2021
6503 Clear 16 1012 51 10000 3 20 14:59 25.06.2021
6504 Clear 16 1012 51 10000 4 360 13:18 25.06.2021
6505 Clouds 17 1011 51 10000 2 340 09:28 25.06.2021
6506 Clouds 15 1011 58 10000 2 20 07:20 25.06.2021
6507 Clear 9 1011 100 10000 2 40 03:54 25.06.2021
6508 Clouds 8 1011 100 10000 2 30 22:41 24.06.2021
6509 Clouds 9 1011 93 10000 2 20 21:41 24.06.2021
6510 Clear 10 1011 87 10000 1 340 20:41 24.06.2021
6511 Rain 10 1012 81 10000 2 10 18:50 24.06.2021
6512 Clear 11 1012 76 10000 2 80 16:30 24.06.2021
6513 Clouds 12 1012 71 10000 3 70 15:22 24.06.2021
6514 Clouds 12 1012 71 10000 3 70 15:22 24.06.2021
6515 Clouds 11 1012 76 10000 3 50 14:48 24.06.2021
6516 Clouds 11 1013 71 10000 3 320 11:51 24.06.2021
6517 Clouds 11 1013 66 10000 4 330 09:35 24.06.2021
6518 Clouds 11 1014 66 10000 5 340 08:24 24.06.2021
6519 Clouds 10 1015 71 10000 4 310 04:36 24.06.2021
6520 Clear 6 1015 93 10000 3 340 23:28 23.06.2021
6521 Clear 6 1015 100 10000 2 340 21:46 23.06.2021
6522 Clear 8 1015 87 10000 2 330 20:48 23.06.2021
6523 Clear 10 1016 71 10000 4 340 18:38 23.06.2021
6524 Clouds 12 1015 62 10000 4 360 17:39 23.06.2021
6525 Clouds 11 1015 66 10000 3 330 16:34 23.06.2021
6526 Clouds 11 1015 66 10000 4 20 14:29 23.06.2021
6527 Rain 11 1015 66 10000 5 10 11:59 23.06.2021
6528 Clouds 11 1014 71 10000 6 330 10:22 23.06.2021
6529 Clouds 11 1014 71 10000 7 360 08:50 23.06.2021
6530 Rain 11 1014 66 10000 6 330 08:25 23.06.2021
6531 Rain 12 1014 58 10000 5 330 07:47 23.06.2021
6532 Clouds 11 1014 71 10000 4 360 04:34 23.06.2021
6533 Clear 8 1014 100 10000 2 350 00:45 23.06.2021
6534 Clear 8 1014 87 10000 2 340 23:56 22.06.2021
6535 Clear 7 1014 100 10000 2 330 22:46 22.06.2021
6536 Clear 8 1014 93 10000 2 330 22:24 22.06.2021
6537 Clear 8 1014 93 10000 2 350 21:39 22.06.2021
6538 Clear 9 1014 81 10000 2 340 19:45 22.06.2021
6539 Clear 10 1014 71 10000 2 350 18:54 22.06.2021
6540 Clear 11 1014 66 10000 2 350 18:25 22.06.2021
6541 Clear 12 1014 54 10000 3 350 17:22 22.06.2021
6542 Clear 12 1014 54 10000 3 340 16:32 22.06.2021
6543 Clear 14 1015 47 10000 5 330 14:38 22.06.2021
6544 Clear 13 1015 50 10000 5 320 13:56 22.06.2021
6545 Clear 14 1015 44 10000 4 320 12:54 22.06.2021
6546 Clear 13 1015 47 10000 5 360 11:20 22.06.2021
6547 Clear 13 1015 47 10000 6 320 10:24 22.06.2021
6548 Clear 12 1016 54 10000 5 350 06:46 22.06.2021
6549 Clear 8 1016 93 10000 3 340 00:45 22.06.2021
6550 Clear 7 1016 87 10000 2 330 23:23 21.06.2021
6551 Clear 8 1016 81 10000 2 340 22:21 21.06.2021
6552 Clear 9 1016 76 10000 3 350 21:18 21.06.2021
6553 Clear 9 1016 76 10000 2 340 20:31 21.06.2021
6554 Clear 9 1016 76 10000 2 330 19:53 21.06.2021
6555 Clear 11 1016 66 10000 2 340 18:34 21.06.2021
6556 Clear 13 1016 54 10000 4 350 17:24 21.06.2021
6557 Clear 14 1016 51 10000 5 360 16:40 21.06.2021
6558 Clear 14 1016 51 10000 5 360 16:20 21.06.2021
6559 Clear 15 1016 51 10000 5 330 15:43 21.06.2021
6560 Clouds 14 1016 58 10000 5 350 13:59 21.06.2021
6561 Clouds 15 1016 55 10000 6 360 13:33 21.06.2021
6562 Clear 15 1015 58 10000 6 360 12:36 21.06.2021
6563 Clear 15 1015 58 10000 6 360 11:46 21.06.2021
6564 Clouds 15 1015 63 10000 8 350 10:29 21.06.2021
6565 Rain 15 1015 63 10000 5 360 09:19 21.06.2021
6566 Clouds 15 1015 55 10000 5 350 08:20 21.06.2021
6567 Clear 15 1014 55 10000 6 360 06:45 21.06.2021
6568 Rain 11 1010 87 10000 5 50 23:59 20.06.2021
6569 Rain 11 1010 93 10000 5 40 23:35 20.06.2021
6570 Clear 11 1009 93 10000 5 40 22:57 20.06.2021
6571 Clouds 11 1009 100 10000 5 50 21:57 20.06.2021
6572 Rain 12 1008 94 10000 4 50 20:30 20.06.2021
6573 Rain 12 1006 94 10000 5 50 19:41 20.06.2021
6574 Rain 12 1006 94 10000 5 50 19:20 20.06.2021
6575 Rain 12 1005 87 10000 5 40 17:47 20.06.2021
6576 Rain 14 1003 72 10000 4 50 16:46 20.06.2021
6577 Rain 13 1002 76 10000 3 40 15:48 20.06.2021
6578 Rain 13 1001 76 10000 4 50 15:27 20.06.2021
6579 Rain 13 1000 71 10000 4 110 14:43 20.06.2021
6580 Clouds 13 999 71 10000 6 120 13:32 20.06.2021
6581 Rain 13 998 76 10000 6 140 12:35 20.06.2021
6582 Rain 12 998 87 10000 5 140 11:45 20.06.2021
6583 Rain 11 996 93 9000 5 140 09:55 20.06.2021
6584 Rain 12 996 82 10000 5 140 09:36 20.06.2021
6585 Rain 13 996 62 10000 5 190 04:32 20.06.2021
6586 Clear 12 1000 66 10000 3 210 23:36 19.06.2021
6587 Clear 12 1001 66 10000 3 220 22:58 19.06.2021
6588 Clear 12 1002 71 10000 3 210 21:51 19.06.2021
6589 Clear 11 1003 82 10000 2 210 20:55 19.06.2021
6590 Clear 10 1004 100 10000 0 0 18:52 19.06.2021
6591 Clear 11 1004 82 10000 0 0 18:21 19.06.2021
6592 Clear 13 1004 67 10000 0 0 17:22 19.06.2021
6593 Clear 16 1005 44 10000 3 340 15:56 19.06.2021
6594 Clear 15 1006 51 10000 3 360 14:42 19.06.2021
6595 Clear 15 1006 51 10000 4 360 12:51 19.06.2021
6596 Clear 14 1007 51 10000 5 360 11:53 19.06.2021
6597 Clouds 14 1007 47 10000 7 10 10:46 19.06.2021
6598 Clouds 13 1007 50 10000 6 360 10:23 19.06.2021
6599 Clouds 12 1007 54 10000 8 360 09:24 19.06.2021
6600 Clear 11 1007 62 10000 7 340 07:48 19.06.2021
6601 Clear 10 1007 62 10000 8 340 06:29 19.06.2021
6602 Clear 10 1007 62 10000 8 340 06:29 19.06.2021
6603 Clouds 8 1006 71 10000 6 350 01:46 19.06.2021
6604 Clouds 8 1007 66 10000 7 350 00:18 19.06.2021
6605 Clouds 8 1006 66 10000 7 360 23:32 18.06.2021
6606 Clouds 8 1006 66 10000 7 10 22:50 18.06.2021
6607 Clouds 8 1006 66 10000 7 10 22:50 18.06.2021
6608 Clouds 9 1007 66 10000 5 360 22:22 18.06.2021
6609 Clouds 9 1007 66 10000 7 360 21:43 18.06.2021
6610 Clouds 9 1007 66 10000 7 360 21:21 18.06.2021
6611 Clouds 9 1007 66 10000 6 10 20:18 18.06.2021
6612 Clouds 10 1006 62 10000 7 360 18:27 18.06.2021
6613 Clouds 10 1006 62 10000 7 360 17:29 18.06.2021
6614 Clouds 10 1007 62 10000 8 350 16:30 18.06.2021
6615 Clouds 10 1007 62 10000 8 350 15:45 18.06.2021
6616 Clouds 10 1006 62 10000 9 350 14:32 18.06.2021
6617 Clouds 10 1006 66 10000 9 340 13:41 18.06.2021
6618 Clouds 10 1006 66 10000 8 340 12:45 18.06.2021
6619 Clouds 10 1006 66 10000 8 340 12:45 18.06.2021
6620 Clouds 10 1006 66 10000 9 350 12:27 18.06.2021
6621 Clouds 10 1006 71 10000 8 350 11:28 18.06.2021
6622 Clouds 9 1006 71 10000 9 350 10:52 18.06.2021
6623 Clouds 9 1005 76 10000 8 360 10:23 18.06.2021
6624 Clouds 8 1005 81 10000 10 350 09:49 18.06.2021
6625 Clouds 8 1005 93 10000 9 350 08:50 18.06.2021
6626 Clouds 8 1005 93 10000 9 340 08:23 18.06.2021
6627 Rain 8 1004 93 10000 9 360 07:29 18.06.2021
6628 Rain 9 1000 93 3300 9 350 01:48 18.06.2021
6629 Rain 10 1000 93 8000 7 340 00:32 18.06.2021
6630 Rain 13 999 94 10000 8 350 22:56 17.06.2021
6631 Rain 14 999 94 10000 7 340 22:25 17.06.2021
6632 Rain 15 998 94 10000 7 350 21:49 17.06.2021
6633 Clouds 17 999 100 10000 3 300 20:58 17.06.2021
6634 Clouds 17 998 100 10000 2 60 20:28 17.06.2021
6635 Rain 17 999 100 10000 2 50 19:51 17.06.2021
6636 Rain 17 999 100 10000 4 10 18:48 17.06.2021
6637 Rain 17 1001 100 1500 5 260 17:48 17.06.2021
6638 Rain 19 999 88 10000 6 340 17:21 17.06.2021
6639 Rain 18 998 100 10000 2 140 16:27 17.06.2021
6640 Rain 18 1000 100 9000 0 0 15:40 17.06.2021
6641 Rain 19 1001 88 10000 5 240 14:26 17.06.2021
6642 Clouds 27 1001 44 10000 4 200 12:54 17.06.2021
6643 Clear 26 1001 47 10000 5 180 12:30 17.06.2021
6644 Clear 25 1002 47 10000 5 190 11:21 17.06.2021
6645 Clear 25 1002 41 10000 5 180 10:42 17.06.2021
6646 Clear 25 1002 41 10000 5 180 10:23 17.06.2021
6647 Clear 23 1003 43 10000 4 180 09:38 17.06.2021
6648 Clear 23 1004 43 10000 5 210 08:32 17.06.2021
6649 Clear 22 1004 46 10000 5 200 07:47 17.06.2021
6650 Clear 18 1006 63 10000 2 200 04:36 17.06.2021
6651 Clear 12 1007 100 10000 0 0 01:24 17.06.2021
6652 Clear 8 1008 100 10000 0 0 23:38 16.06.2021
6653 Clear 8 1008 100 10000 0 0 23:19 16.06.2021
6654 Clear 10 1008 100 10000 0 0 22:18 16.06.2021
6655 Clear 11 1009 100 10000 0 0 21:39 16.06.2021
6656 Clear 11 1009 100 10000 0 0 21:18 16.06.2021
6657 Clear 12 1009 94 10000 0 0 20:36 16.06.2021
6658 Clear 12 1009 87 10000 0 0 19:49 16.06.2021
6659 Clear 14 1009 77 10000 2 20 19:28 16.06.2021
6660 Clear 15 1009 67 10000 2 10 18:49 16.06.2021
6661 Clear 16 1009 63 10000 1 340 18:24 16.06.2021
6662 Clear 18 1009 48 10000 3 340 17:28 16.06.2021
6663 Clear 18 1009 55 10000 4 310 16:58 16.06.2021
6664 Clouds 17 1009 55 10000 1.64 290 16:40 16.06.2021
6665 Clear 18 1009 55 10000 5 330 15:49 16.06.2021
6666 Clear 18 1009 55 10000 5 330 15:26 16.06.2021
6667 Clouds 18 1009 59 10000 4 340 14:43 16.06.2021
6668 Clouds 18 1009 59 10000 4 340 14:25 16.06.2021
6669 Clouds 19 1009 55 10000 5 330 13:43 16.06.2021
6670 Clouds 19 1009 55 10000 5 330 13:22 16.06.2021
6671 Clouds 18 1009 63 10000 6 330 12:41 16.06.2021
6672 Clouds 18 1009 63 10000 6 330 12:18 16.06.2021
6673 Clouds 18 1009 68 10000 6 340 11:31 16.06.2021
6674 Clouds 18 1009 68 10000 5 310 10:44 16.06.2021
6675 Clouds 17 1008 72 10000 6 320 09:50 16.06.2021
6676 Clouds 17 1008 72 10000 7 320 09:26 16.06.2021
6677 Clouds 17 1008 77 10000 6 320 08:19 16.06.2021
6678 Clouds 17 1007 77 10000 7 300 07:41 16.06.2021
6679 Clouds 17 1005 100 10000 4 290 02:59 16.06.2021
6680 Clouds 17 1005 94 10000 3 250 01:43 16.06.2021
6681 Clear 16 1004 100 10000 4 260 23:44 15.06.2021
6682 Clear 16 1004 100 10000 3 250 23:20 15.06.2021
6683 Clear 16 1004 100 10000 3 230 22:41 15.06.2021
6684 Clear 17 1004 94 10000 3 230 21:57 15.06.2021
6685 Rain 17 1005 94 10000 2 220 20:54 15.06.2021
6686 Rain 17 1005 100 10000 3 250 19:58 15.06.2021
6687 Rain 18 1005 94 10000 3 240 19:22 15.06.2021
6688 Rain 17 1008 100 10000 6 250 17:41 15.06.2021
6689 Rain 19 1007 77 10000 14 270 16:42 15.06.2021
6690 Rain 27 1005 41 10000 6 230 15:42 15.06.2021
6691 Rain 28 1005 39 10000 7 270 14:53 15.06.2021
6692 Clouds 29 1005 37 10000 7 280 14:23 15.06.2021
6693 Clouds 29 1005 34 10000 8 250 13:36 15.06.2021
6694 Clouds 31 1005 30 10000 8 250 12:50 15.06.2021
6695 Clouds 30 1006 32 10000 8 240 11:57 15.06.2021
6696 Clouds 31 1006 29 10000 8 250 11:21 15.06.2021
6697 Clouds 31 1006 29 10000 8 240 10:56 15.06.2021
6698 Clouds 30 1007 30 10000 8 250 10:35 15.06.2021
6699 Clouds 31 1007 29 10000 7 250 09:50 15.06.2021
6700 Clear 29 1008 32 10000 6 210 08:36 15.06.2021
6701 Clear 28 1008 34 10000 5 210 07:54 15.06.2021
6702 Clear 27 1009 39 10000 5 230 06:53 15.06.2021
6703 Clear 25 1009 47 10000 3 220 05:58 15.06.2021
6704 Clear 20 1011 64 10000 3 240 01:31 15.06.2021
6705 Clear 20 1011 64 10000 3 240 01:31 15.06.2021
6706 Clear 20 1011 60 10000 3 230 00:38 15.06.2021
6707 Clear 20 1011 64 10000 3 230 23:29 14.06.2021
6708 Clear 21 1011 60 10000 4 230 22:46 14.06.2021
6709 Clear 21 1012 60 10000 3 220 22:21 14.06.2021
6710 Clear 21 1012 60 10000 2 230 21:50 14.06.2021
6711 Clear 21 1012 60 10000 2 240 21:26 14.06.2021
6712 Clear 20 1013 64 10000 1 0 20:55 14.06.2021
6713 Clear 20 1013 64 10000 1 0 20:55 14.06.2021
6714 Clear 22 1013 56 10000 2 240 20:34 14.06.2021
6715 Clear 23 1013 53 10000 2 240 19:46 14.06.2021
6716 Clear 23 1013 49 10000 3 260 19:27 14.06.2021
6717 Clear 25 1013 44 10000 3 240 18:44 14.06.2021
6718 Clear 25 1013 44 10000 3 240 18:20 14.06.2021
6719 Clear 26 1013 41 10000 4 230 17:35 14.06.2021
6720 Rain 28 1013 36 10000 3 210 16:45 14.06.2021
6721 Clear 28 1014 34 10000 4 230 15:53 14.06.2021
6722 Clear 28 1014 32 10000 5 240 15:34 14.06.2021
6723 Clear 28 1014 32 10000 6 240 14:52 14.06.2021
6724 Clear 29 1015 30 10000 8 270 13:46 14.06.2021
6725 Clear 29 1015 30 10000 6 260 13:20 14.06.2021
6726 Clear 29 1015 28 10000 7 250 12:45 14.06.2021
6727 Clear 29 1015 28 10000 7 260 11:56 14.06.2021
6728 Clear 29 1016 30 10000 7 260 11:27 14.06.2021
6729 Clear 28 1016 32 10000 7 250 10:20 14.06.2021
6730 Clear 29 1017 28 10000 7 260 09:25 14.06.2021
6731 Clear 28 1017 30 10000 6 240 08:43 14.06.2021
6732 Clear 27 1017 32 10000 6 240 07:54 14.06.2021
6733 Clear 27 1017 29 10000 6 250 07:19 14.06.2021